<?xml version="1.0" encoding="UTF-8"?>
<gpx version="1.1" creator="https://www.youtrack.es" xsi:schemaLocation="http://www.topografix.com/GPX/1/1 http://www.topografix.com/GPX/1/1/gpx.xsd http://www.garmin.com/xmlschemas/GpxExtensions/v3 http://www.garmin.com/xmlschemas/GpxExtensionsv3.xsd http://www.garmin.com/xmlschemas/TrackPointExtension/v1 http://www.garmin.com/xmlschemas/TrackPointExtensionv1.xsd" xmlns:gpxtpx="http://www.garmin.com/xmlschemas/TrackPointExtension/v1" xmlns:gpxx="http://www.garmin.com/xmlschemas/GpxExtensions/v3" xmlns:xsi="http://www.w3.org/2001/XMLSchema-instance">
  <metadata>
    <author>
      <name>Marcos Codesal</name>
      <email id="codesalmarcos" domain="gmail.com"/>
    </author>
    <link href="https://www.youtrack.es">
      <text>YouTrack.es</text>
    </link>
    <time>2026-05-08T22:23:42Z</time>
  </metadata>
  <trk>
    <src>https://www.youtrack.es</src>
    <link href="https://www.youtrack.es/ruta/7000-marcha-la-r0bla">
      <text>YouTrack.es</text>
    </link>
    <trkseg>
      <trkpt lat="42.8033280" lon="-5.6287050">
        <ele>947.0</ele>
        <time>2019-07-21T07:07:17Z</time>
      </trkpt>
      <trkpt lat="42.8033980" lon="-5.6286910">
        <ele>948.2</ele>
        <time>2019-07-21T07:07:19Z</time>
      </trkpt>
      <trkpt lat="42.8035870" lon="-5.6286560">
        <ele>948.6</ele>
        <time>2019-07-21T07:07:25Z</time>
      </trkpt>
      <trkpt lat="42.8037370" lon="-5.6286280">
        <ele>948.8</ele>
        <time>2019-07-21T07:07:30Z</time>
      </trkpt>
      <trkpt lat="42.8038440" lon="-5.6286040">
        <ele>949.0</ele>
        <time>2019-07-21T07:07:34Z</time>
      </trkpt>
      <trkpt lat="42.8040250" lon="-5.6285880">
        <ele>949.2</ele>
        <time>2019-07-21T07:07:40Z</time>
      </trkpt>
      <trkpt lat="42.8041130" lon="-5.6285850">
        <ele>949.2</ele>
        <time>2019-07-21T07:07:43Z</time>
      </trkpt>
      <trkpt lat="42.8042340" lon="-5.6285650">
        <ele>949.2</ele>
        <time>2019-07-21T07:07:47Z</time>
      </trkpt>
      <trkpt lat="42.8044290" lon="-5.6285200">
        <ele>949.6</ele>
        <time>2019-07-21T07:07:53Z</time>
      </trkpt>
      <trkpt lat="42.8046000" lon="-5.6285030">
        <ele>949.6</ele>
        <time>2019-07-21T07:07:59Z</time>
      </trkpt>
      <trkpt lat="42.8046170" lon="-5.6285470">
        <ele>949.6</ele>
        <time>2019-07-21T07:08:01Z</time>
      </trkpt>
      <trkpt lat="42.8046490" lon="-5.6288100">
        <ele>949.6</ele>
        <time>2019-07-21T07:08:07Z</time>
      </trkpt>
      <trkpt lat="42.8047050" lon="-5.6289030">
        <ele>949.4</ele>
        <time>2019-07-21T07:08:09Z</time>
      </trkpt>
      <trkpt lat="42.8047840" lon="-5.6290330">
        <ele>949.0</ele>
        <time>2019-07-21T07:08:12Z</time>
      </trkpt>
      <trkpt lat="42.8049040" lon="-5.6292800">
        <ele>948.6</ele>
        <time>2019-07-21T07:08:18Z</time>
      </trkpt>
      <trkpt lat="42.8049380" lon="-5.6294020">
        <ele>948.4</ele>
        <time>2019-07-21T07:08:20Z</time>
      </trkpt>
      <trkpt lat="42.8049770" lon="-5.6295240">
        <ele>948.2</ele>
        <time>2019-07-21T07:08:22Z</time>
      </trkpt>
      <trkpt lat="42.8049830" lon="-5.6295850">
        <ele>948.0</ele>
        <time>2019-07-21T07:08:23Z</time>
      </trkpt>
      <trkpt lat="42.8049370" lon="-5.6297070">
        <ele>947.4</ele>
        <time>2019-07-21T07:08:25Z</time>
      </trkpt>
      <trkpt lat="42.8048300" lon="-5.6297980">
        <ele>947.0</ele>
        <time>2019-07-21T07:08:27Z</time>
      </trkpt>
      <trkpt lat="42.8046710" lon="-5.6299090">
        <ele>946.6</ele>
        <time>2019-07-21T07:08:30Z</time>
      </trkpt>
      <trkpt lat="42.8044740" lon="-5.6300370">
        <ele>946.4</ele>
        <time>2019-07-21T07:08:34Z</time>
      </trkpt>
      <trkpt lat="42.8043900" lon="-5.6300910">
        <ele>946.2</ele>
        <time>2019-07-21T07:08:36Z</time>
      </trkpt>
      <trkpt lat="42.8043530" lon="-5.6301150">
        <ele>946.0</ele>
        <time>2019-07-21T07:08:37Z</time>
      </trkpt>
      <trkpt lat="42.8041940" lon="-5.6302640">
        <ele>945.0</ele>
        <time>2019-07-21T07:08:42Z</time>
      </trkpt>
      <trkpt lat="42.8041930" lon="-5.6303130">
        <ele>944.8</ele>
        <time>2019-07-21T07:08:43Z</time>
      </trkpt>
      <trkpt lat="42.8042090" lon="-5.6303590">
        <ele>944.8</ele>
        <time>2019-07-21T07:08:44Z</time>
      </trkpt>
      <trkpt lat="42.8042660" lon="-5.6304410">
        <ele>944.6</ele>
        <time>2019-07-21T07:08:46Z</time>
      </trkpt>
      <trkpt lat="42.8044750" lon="-5.6306670">
        <ele>944.6</ele>
        <time>2019-07-21T07:08:52Z</time>
      </trkpt>
      <trkpt lat="42.8046950" lon="-5.6309120">
        <ele>944.8</ele>
        <time>2019-07-21T07:08:58Z</time>
      </trkpt>
      <trkpt lat="42.8049210" lon="-5.6311840">
        <ele>944.6</ele>
        <time>2019-07-21T07:09:04Z</time>
      </trkpt>
      <trkpt lat="42.8051530" lon="-5.6314380">
        <ele>944.8</ele>
        <time>2019-07-21T07:09:10Z</time>
      </trkpt>
      <trkpt lat="42.8053900" lon="-5.6317020">
        <ele>944.8</ele>
        <time>2019-07-21T07:09:16Z</time>
      </trkpt>
      <trkpt lat="42.8054330" lon="-5.6317410">
        <ele>944.8</ele>
        <time>2019-07-21T07:09:17Z</time>
      </trkpt>
      <trkpt lat="42.8055820" lon="-5.6318330">
        <ele>944.8</ele>
        <time>2019-07-21T07:09:20Z</time>
      </trkpt>
      <trkpt lat="42.8057360" lon="-5.6318990">
        <ele>944.8</ele>
        <time>2019-07-21T07:09:23Z</time>
      </trkpt>
      <trkpt lat="42.8058250" lon="-5.6319760">
        <ele>945.0</ele>
        <time>2019-07-21T07:09:25Z</time>
      </trkpt>
      <trkpt lat="42.8058780" lon="-5.6320940">
        <ele>945.2</ele>
        <time>2019-07-21T07:09:27Z</time>
      </trkpt>
      <trkpt lat="42.8060080" lon="-5.6325110">
        <ele>945.6</ele>
        <time>2019-07-21T07:09:33Z</time>
      </trkpt>
      <trkpt lat="42.8060780" lon="-5.6327120">
        <ele>945.6</ele>
        <time>2019-07-21T07:09:36Z</time>
      </trkpt>
      <trkpt lat="42.8062230" lon="-5.6331190">
        <ele>946.0</ele>
        <time>2019-07-21T07:09:42Z</time>
      </trkpt>
      <trkpt lat="42.8063750" lon="-5.6335250">
        <ele>946.2</ele>
        <time>2019-07-21T07:09:48Z</time>
      </trkpt>
      <trkpt lat="42.8064420" lon="-5.6337130">
        <ele>946.2</ele>
        <time>2019-07-21T07:09:51Z</time>
      </trkpt>
      <trkpt lat="42.8064840" lon="-5.6338260">
        <ele>946.2</ele>
        <time>2019-07-21T07:09:53Z</time>
      </trkpt>
      <trkpt lat="42.8065330" lon="-5.6339300">
        <ele>946.2</ele>
        <time>2019-07-21T07:09:55Z</time>
      </trkpt>
      <trkpt lat="42.8066120" lon="-5.6340020">
        <ele>946.4</ele>
        <time>2019-07-21T07:09:57Z</time>
      </trkpt>
      <trkpt lat="42.8067010" lon="-5.6340410">
        <ele>946.6</ele>
        <time>2019-07-21T07:09:59Z</time>
      </trkpt>
      <trkpt lat="42.8067470" lon="-5.6340500">
        <ele>946.6</ele>
        <time>2019-07-21T07:10:00Z</time>
      </trkpt>
      <trkpt lat="42.8068430" lon="-5.6340250">
        <ele>947.0</ele>
        <time>2019-07-21T07:10:02Z</time>
      </trkpt>
      <trkpt lat="42.8068900" lon="-5.6339970">
        <ele>947.0</ele>
        <time>2019-07-21T07:10:03Z</time>
      </trkpt>
      <trkpt lat="42.8069350" lon="-5.6339630">
        <ele>947.2</ele>
        <time>2019-07-21T07:10:04Z</time>
      </trkpt>
      <trkpt lat="42.8070950" lon="-5.6338050">
        <ele>947.4</ele>
        <time>2019-07-21T07:10:08Z</time>
      </trkpt>
      <trkpt lat="42.8073010" lon="-5.6336490">
        <ele>947.8</ele>
        <time>2019-07-21T07:10:13Z</time>
      </trkpt>
      <trkpt lat="42.8074830" lon="-5.6335470">
        <ele>948.0</ele>
        <time>2019-07-21T07:10:17Z</time>
      </trkpt>
      <trkpt lat="42.8076280" lon="-5.6334670">
        <ele>948.0</ele>
        <time>2019-07-21T07:10:20Z</time>
      </trkpt>
      <trkpt lat="42.8078260" lon="-5.6333990">
        <ele>948.4</ele>
        <time>2019-07-21T07:10:24Z</time>
      </trkpt>
      <trkpt lat="42.8079210" lon="-5.6334250">
        <ele>948.6</ele>
        <time>2019-07-21T07:10:26Z</time>
      </trkpt>
      <trkpt lat="42.8080050" lon="-5.6334980">
        <ele>948.8</ele>
        <time>2019-07-21T07:10:28Z</time>
      </trkpt>
      <trkpt lat="42.8080720" lon="-5.6335960">
        <ele>949.2</ele>
        <time>2019-07-21T07:10:30Z</time>
      </trkpt>
      <trkpt lat="42.8081150" lon="-5.6337220">
        <ele>949.4</ele>
        <time>2019-07-21T07:10:32Z</time>
      </trkpt>
      <trkpt lat="42.8081350" lon="-5.6338530">
        <ele>949.6</ele>
        <time>2019-07-21T07:10:34Z</time>
      </trkpt>
      <trkpt lat="42.8081380" lon="-5.6339160">
        <ele>949.8</ele>
        <time>2019-07-21T07:10:35Z</time>
      </trkpt>
      <trkpt lat="42.8081380" lon="-5.6339770">
        <ele>949.8</ele>
        <time>2019-07-21T07:10:36Z</time>
      </trkpt>
      <trkpt lat="42.8081370" lon="-5.6340370">
        <ele>950.0</ele>
        <time>2019-07-21T07:10:37Z</time>
      </trkpt>
      <trkpt lat="42.8081360" lon="-5.6341540">
        <ele>950.4</ele>
        <time>2019-07-21T07:10:39Z</time>
      </trkpt>
      <trkpt lat="42.8081170" lon="-5.6344390">
        <ele>951.4</ele>
        <time>2019-07-21T07:10:44Z</time>
      </trkpt>
      <trkpt lat="42.8081020" lon="-5.6347740">
        <ele>952.6</ele>
        <time>2019-07-21T07:10:50Z</time>
      </trkpt>
      <trkpt lat="42.8080920" lon="-5.6349940">
        <ele>953.8</ele>
        <time>2019-07-21T07:10:54Z</time>
      </trkpt>
      <trkpt lat="42.8080800" lon="-5.6353340">
        <ele>955.0</ele>
        <time>2019-07-21T07:11:00Z</time>
      </trkpt>
      <trkpt lat="42.8080720" lon="-5.6355480">
        <ele>955.8</ele>
        <time>2019-07-21T07:11:04Z</time>
      </trkpt>
      <trkpt lat="42.8080690" lon="-5.6355980">
        <ele>956.0</ele>
        <time>2019-07-21T07:11:05Z</time>
      </trkpt>
      <trkpt lat="42.8080620" lon="-5.6357560">
        <ele>956.6</ele>
        <time>2019-07-21T07:11:08Z</time>
      </trkpt>
      <trkpt lat="42.8080570" lon="-5.6359690">
        <ele>957.2</ele>
        <time>2019-07-21T07:11:12Z</time>
      </trkpt>
      <trkpt lat="42.8080530" lon="-5.6361330">
        <ele>958.2</ele>
        <time>2019-07-21T07:11:15Z</time>
      </trkpt>
      <trkpt lat="42.8080290" lon="-5.6365190">
        <ele>958.6</ele>
        <time>2019-07-21T07:11:21Z</time>
      </trkpt>
      <trkpt lat="42.8080170" lon="-5.6365950">
        <ele>958.6</ele>
        <time>2019-07-21T07:11:22Z</time>
      </trkpt>
      <trkpt lat="42.8079080" lon="-5.6370060">
        <ele>957.8</ele>
        <time>2019-07-21T07:11:27Z</time>
      </trkpt>
      <trkpt lat="42.8078720" lon="-5.6371830">
        <ele>957.4</ele>
        <time>2019-07-21T07:11:29Z</time>
      </trkpt>
      <trkpt lat="42.8078520" lon="-5.6372680">
        <ele>957.4</ele>
        <time>2019-07-21T07:11:30Z</time>
      </trkpt>
      <trkpt lat="42.8078250" lon="-5.6373500">
        <ele>957.2</ele>
        <time>2019-07-21T07:11:31Z</time>
      </trkpt>
      <trkpt lat="42.8077200" lon="-5.6375810">
        <ele>956.8</ele>
        <time>2019-07-21T07:11:34Z</time>
      </trkpt>
      <trkpt lat="42.8075720" lon="-5.6378680">
        <ele>956.6</ele>
        <time>2019-07-21T07:11:38Z</time>
      </trkpt>
      <trkpt lat="42.8075110" lon="-5.6380140">
        <ele>956.6</ele>
        <time>2019-07-21T07:11:40Z</time>
      </trkpt>
      <trkpt lat="42.8074600" lon="-5.6382480">
        <ele>956.8</ele>
        <time>2019-07-21T07:11:43Z</time>
      </trkpt>
      <trkpt lat="42.8073220" lon="-5.6387090">
        <ele>956.8</ele>
        <time>2019-07-21T07:11:49Z</time>
      </trkpt>
      <trkpt lat="42.8072880" lon="-5.6387810">
        <ele>956.8</ele>
        <time>2019-07-21T07:11:50Z</time>
      </trkpt>
      <trkpt lat="42.8072100" lon="-5.6389220">
        <ele>956.6</ele>
        <time>2019-07-21T07:11:52Z</time>
      </trkpt>
      <trkpt lat="42.8069340" lon="-5.6392770">
        <ele>956.6</ele>
        <time>2019-07-21T07:11:58Z</time>
      </trkpt>
      <trkpt lat="42.8066820" lon="-5.6395240">
        <ele>957.0</ele>
        <time>2019-07-21T07:12:03Z</time>
      </trkpt>
      <trkpt lat="42.8064950" lon="-5.6396330">
        <ele>957.0</ele>
        <time>2019-07-21T07:12:06Z</time>
      </trkpt>
      <trkpt lat="42.8063030" lon="-5.6397530">
        <ele>956.8</ele>
        <time>2019-07-21T07:12:09Z</time>
      </trkpt>
      <trkpt lat="42.8062120" lon="-5.6398860">
        <ele>956.6</ele>
        <time>2019-07-21T07:12:11Z</time>
      </trkpt>
      <trkpt lat="42.8061430" lon="-5.6400430">
        <ele>956.4</ele>
        <time>2019-07-21T07:12:13Z</time>
      </trkpt>
      <trkpt lat="42.8060210" lon="-5.6403610">
        <ele>956.2</ele>
        <time>2019-07-21T07:12:17Z</time>
      </trkpt>
      <trkpt lat="42.8059450" lon="-5.6407090">
        <ele>956.2</ele>
        <time>2019-07-21T07:12:21Z</time>
      </trkpt>
      <trkpt lat="42.8058950" lon="-5.6410530">
        <ele>956.0</ele>
        <time>2019-07-21T07:12:25Z</time>
      </trkpt>
      <trkpt lat="42.8058290" lon="-5.6415420">
        <ele>956.2</ele>
        <time>2019-07-21T07:12:31Z</time>
      </trkpt>
      <trkpt lat="42.8057950" lon="-5.6419000">
        <ele>956.4</ele>
        <time>2019-07-21T07:12:36Z</time>
      </trkpt>
      <trkpt lat="42.8057550" lon="-5.6422190">
        <ele>957.2</ele>
        <time>2019-07-21T07:12:41Z</time>
      </trkpt>
      <trkpt lat="42.8057390" lon="-5.6423370">
        <ele>957.6</ele>
        <time>2019-07-21T07:12:43Z</time>
      </trkpt>
      <trkpt lat="42.8057130" lon="-5.6425460">
        <ele>958.4</ele>
        <time>2019-07-21T07:12:47Z</time>
      </trkpt>
      <trkpt lat="42.8056590" lon="-5.6428990">
        <ele>959.2</ele>
        <time>2019-07-21T07:12:53Z</time>
      </trkpt>
      <trkpt lat="42.8056310" lon="-5.6430870">
        <ele>959.4</ele>
        <time>2019-07-21T07:12:56Z</time>
      </trkpt>
      <trkpt lat="42.8055790" lon="-5.6434270">
        <ele>960.4</ele>
        <time>2019-07-21T07:13:02Z</time>
      </trkpt>
      <trkpt lat="42.8055730" lon="-5.6434780">
        <ele>960.6</ele>
        <time>2019-07-21T07:13:03Z</time>
      </trkpt>
      <trkpt lat="42.8055380" lon="-5.6437210">
        <ele>961.6</ele>
        <time>2019-07-21T07:13:08Z</time>
      </trkpt>
      <trkpt lat="42.8055260" lon="-5.6438200">
        <ele>962.0</ele>
        <time>2019-07-21T07:13:10Z</time>
      </trkpt>
      <trkpt lat="42.8055130" lon="-5.6439150">
        <ele>962.6</ele>
        <time>2019-07-21T07:13:12Z</time>
      </trkpt>
      <trkpt lat="42.8054930" lon="-5.6440620">
        <ele>963.4</ele>
        <time>2019-07-21T07:13:15Z</time>
      </trkpt>
      <trkpt lat="42.8054870" lon="-5.6441100">
        <ele>963.8</ele>
        <time>2019-07-21T07:13:16Z</time>
      </trkpt>
      <trkpt lat="42.8054570" lon="-5.6442830">
        <ele>964.8</ele>
        <time>2019-07-21T07:13:20Z</time>
      </trkpt>
      <trkpt lat="42.8054250" lon="-5.6444570">
        <ele>966.0</ele>
        <time>2019-07-21T07:13:24Z</time>
      </trkpt>
      <trkpt lat="42.8053650" lon="-5.6446670">
        <ele>967.2</ele>
        <time>2019-07-21T07:13:29Z</time>
      </trkpt>
      <trkpt lat="42.8053020" lon="-5.6448270">
        <ele>968.2</ele>
        <time>2019-07-21T07:13:33Z</time>
      </trkpt>
      <trkpt lat="42.8052000" lon="-5.6450110">
        <ele>969.4</ele>
        <time>2019-07-21T07:13:38Z</time>
      </trkpt>
      <trkpt lat="42.8050660" lon="-5.6452050">
        <ele>970.6</ele>
        <time>2019-07-21T07:13:44Z</time>
      </trkpt>
      <trkpt lat="42.8049790" lon="-5.6453370">
        <ele>971.6</ele>
        <time>2019-07-21T07:13:48Z</time>
      </trkpt>
      <trkpt lat="42.8048420" lon="-5.6455530">
        <ele>972.8</ele>
        <time>2019-07-21T07:13:54Z</time>
      </trkpt>
      <trkpt lat="42.8047080" lon="-5.6458070">
        <ele>973.8</ele>
        <time>2019-07-21T07:14:00Z</time>
      </trkpt>
      <trkpt lat="42.8046030" lon="-5.6461000">
        <ele>974.4</ele>
        <time>2019-07-21T07:14:06Z</time>
      </trkpt>
      <trkpt lat="42.8045280" lon="-5.6463650">
        <ele>974.6</ele>
        <time>2019-07-21T07:14:11Z</time>
      </trkpt>
      <trkpt lat="42.8045140" lon="-5.6464150">
        <ele>974.6</ele>
        <time>2019-07-21T07:14:12Z</time>
      </trkpt>
      <trkpt lat="42.8044840" lon="-5.6465170">
        <ele>974.8</ele>
        <time>2019-07-21T07:14:14Z</time>
      </trkpt>
      <trkpt lat="42.8044700" lon="-5.6465700">
        <ele>974.8</ele>
        <time>2019-07-21T07:14:15Z</time>
      </trkpt>
      <trkpt lat="42.8043810" lon="-5.6468860">
        <ele>975.2</ele>
        <time>2019-07-21T07:14:21Z</time>
      </trkpt>
      <trkpt lat="42.8043340" lon="-5.6470440">
        <ele>975.4</ele>
        <time>2019-07-21T07:14:24Z</time>
      </trkpt>
      <trkpt lat="42.8042480" lon="-5.6473570">
        <ele>975.6</ele>
        <time>2019-07-21T07:14:30Z</time>
      </trkpt>
      <trkpt lat="42.8042180" lon="-5.6474650">
        <ele>975.8</ele>
        <time>2019-07-21T07:14:32Z</time>
      </trkpt>
      <trkpt lat="42.8041890" lon="-5.6475730">
        <ele>976.0</ele>
        <time>2019-07-21T07:14:34Z</time>
      </trkpt>
      <trkpt lat="42.8041750" lon="-5.6476270">
        <ele>976.2</ele>
        <time>2019-07-21T07:14:35Z</time>
      </trkpt>
      <trkpt lat="42.8041470" lon="-5.6477330">
        <ele>976.4</ele>
        <time>2019-07-21T07:14:37Z</time>
      </trkpt>
      <trkpt lat="42.8041060" lon="-5.6478960">
        <ele>976.6</ele>
        <time>2019-07-21T07:14:40Z</time>
      </trkpt>
      <trkpt lat="42.8040480" lon="-5.6481160">
        <ele>977.0</ele>
        <time>2019-07-21T07:14:44Z</time>
      </trkpt>
      <trkpt lat="42.8039610" lon="-5.6484450">
        <ele>977.4</ele>
        <time>2019-07-21T07:14:50Z</time>
      </trkpt>
      <trkpt lat="42.8039130" lon="-5.6486010">
        <ele>978.0</ele>
        <time>2019-07-21T07:14:53Z</time>
      </trkpt>
      <trkpt lat="42.8038570" lon="-5.6488160">
        <ele>978.6</ele>
        <time>2019-07-21T07:14:57Z</time>
      </trkpt>
      <trkpt lat="42.8038280" lon="-5.6489230">
        <ele>979.0</ele>
        <time>2019-07-21T07:14:59Z</time>
      </trkpt>
      <trkpt lat="42.8037450" lon="-5.6492340">
        <ele>980.0</ele>
        <time>2019-07-21T07:15:05Z</time>
      </trkpt>
      <trkpt lat="42.8037310" lon="-5.6492830">
        <ele>980.0</ele>
        <time>2019-07-21T07:15:06Z</time>
      </trkpt>
      <trkpt lat="42.8037020" lon="-5.6493790">
        <ele>980.6</ele>
        <time>2019-07-21T07:15:08Z</time>
      </trkpt>
      <trkpt lat="42.8036490" lon="-5.6495730">
        <ele>981.0</ele>
        <time>2019-07-21T07:15:12Z</time>
      </trkpt>
      <trkpt lat="42.8036220" lon="-5.6496730">
        <ele>981.4</ele>
        <time>2019-07-21T07:15:14Z</time>
      </trkpt>
      <trkpt lat="42.8035680" lon="-5.6498710">
        <ele>982.2</ele>
        <time>2019-07-21T07:15:18Z</time>
      </trkpt>
      <trkpt lat="42.8034800" lon="-5.6501790">
        <ele>983.4</ele>
        <time>2019-07-21T07:15:24Z</time>
      </trkpt>
      <trkpt lat="42.8034390" lon="-5.6503340">
        <ele>983.8</ele>
        <time>2019-07-21T07:15:27Z</time>
      </trkpt>
      <trkpt lat="42.8033990" lon="-5.6504890">
        <ele>984.4</ele>
        <time>2019-07-21T07:15:30Z</time>
      </trkpt>
      <trkpt lat="42.8033130" lon="-5.6507830">
        <ele>985.2</ele>
        <time>2019-07-21T07:15:36Z</time>
      </trkpt>
      <trkpt lat="42.8032990" lon="-5.6508340">
        <ele>985.6</ele>
        <time>2019-07-21T07:15:37Z</time>
      </trkpt>
      <trkpt lat="42.8032140" lon="-5.6511410">
        <ele>986.6</ele>
        <time>2019-07-21T07:15:43Z</time>
      </trkpt>
      <trkpt lat="42.8031530" lon="-5.6513460">
        <ele>987.0</ele>
        <time>2019-07-21T07:15:47Z</time>
      </trkpt>
      <trkpt lat="42.8031030" lon="-5.6515050">
        <ele>987.6</ele>
        <time>2019-07-21T07:15:50Z</time>
      </trkpt>
      <trkpt lat="42.8030110" lon="-5.6518330">
        <ele>988.0</ele>
        <time>2019-07-21T07:15:56Z</time>
      </trkpt>
      <trkpt lat="42.8029520" lon="-5.6520490">
        <ele>988.8</ele>
        <time>2019-07-21T07:16:00Z</time>
      </trkpt>
      <trkpt lat="42.8028550" lon="-5.6523710">
        <ele>989.6</ele>
        <time>2019-07-21T07:16:06Z</time>
      </trkpt>
      <trkpt lat="42.8028380" lon="-5.6524240">
        <ele>990.0</ele>
        <time>2019-07-21T07:16:07Z</time>
      </trkpt>
      <trkpt lat="42.8027790" lon="-5.6526510">
        <ele>990.4</ele>
        <time>2019-07-21T07:16:11Z</time>
      </trkpt>
      <trkpt lat="42.8027020" lon="-5.6529320">
        <ele>991.0</ele>
        <time>2019-07-21T07:16:16Z</time>
      </trkpt>
      <trkpt lat="42.8026260" lon="-5.6532130">
        <ele>992.2</ele>
        <time>2019-07-21T07:16:21Z</time>
      </trkpt>
      <trkpt lat="42.8025520" lon="-5.6535230">
        <ele>992.6</ele>
        <time>2019-07-21T07:16:27Z</time>
      </trkpt>
      <trkpt lat="42.8025230" lon="-5.6536760">
        <ele>993.4</ele>
        <time>2019-07-21T07:16:30Z</time>
      </trkpt>
      <trkpt lat="42.8024770" lon="-5.6538530">
        <ele>994.4</ele>
        <time>2019-07-21T07:16:33Z</time>
      </trkpt>
      <trkpt lat="42.8024490" lon="-5.6539140">
        <ele>994.6</ele>
        <time>2019-07-21T07:16:34Z</time>
      </trkpt>
      <trkpt lat="42.8024210" lon="-5.6539770">
        <ele>994.6</ele>
        <time>2019-07-21T07:16:35Z</time>
      </trkpt>
      <trkpt lat="42.8023500" lon="-5.6541870">
        <ele>995.2</ele>
        <time>2019-07-21T07:16:38Z</time>
      </trkpt>
      <trkpt lat="42.8023320" lon="-5.6542650">
        <ele>995.6</ele>
        <time>2019-07-21T07:16:39Z</time>
      </trkpt>
      <trkpt lat="42.8022810" lon="-5.6544990">
        <ele>996.4</ele>
        <time>2019-07-21T07:16:42Z</time>
      </trkpt>
      <trkpt lat="42.8022600" lon="-5.6545760">
        <ele>996.6</ele>
        <time>2019-07-21T07:16:43Z</time>
      </trkpt>
      <trkpt lat="42.8021720" lon="-5.6548790">
        <ele>997.2</ele>
        <time>2019-07-21T07:16:47Z</time>
      </trkpt>
      <trkpt lat="42.8021060" lon="-5.6551080">
        <ele>997.6</ele>
        <time>2019-07-21T07:16:50Z</time>
      </trkpt>
      <trkpt lat="42.8019950" lon="-5.6554790">
        <ele>998.8</ele>
        <time>2019-07-21T07:16:55Z</time>
      </trkpt>
      <trkpt lat="42.8018830" lon="-5.6559320">
        <ele>999.8</ele>
        <time>2019-07-21T07:17:01Z</time>
      </trkpt>
      <trkpt lat="42.8017530" lon="-5.6563710">
        <ele>1001.0</ele>
        <time>2019-07-21T07:17:07Z</time>
      </trkpt>
      <trkpt lat="42.8016430" lon="-5.6567420">
        <ele>1002.2</ele>
        <time>2019-07-21T07:17:12Z</time>
      </trkpt>
      <trkpt lat="42.8015490" lon="-5.6570900">
        <ele>1003.2</ele>
        <time>2019-07-21T07:17:17Z</time>
      </trkpt>
      <trkpt lat="42.8014770" lon="-5.6573490">
        <ele>1003.6</ele>
        <time>2019-07-21T07:17:21Z</time>
      </trkpt>
      <trkpt lat="42.8014240" lon="-5.6575440">
        <ele>1003.8</ele>
        <time>2019-07-21T07:17:24Z</time>
      </trkpt>
      <trkpt lat="42.8013440" lon="-5.6578850">
        <ele>1004.2</ele>
        <time>2019-07-21T07:17:29Z</time>
      </trkpt>
      <trkpt lat="42.8012850" lon="-5.6582330">
        <ele>1005.0</ele>
        <time>2019-07-21T07:17:34Z</time>
      </trkpt>
      <trkpt lat="42.8012710" lon="-5.6584560">
        <ele>1005.2</ele>
        <time>2019-07-21T07:17:37Z</time>
      </trkpt>
      <trkpt lat="42.8012730" lon="-5.6587500">
        <ele>1006.0</ele>
        <time>2019-07-21T07:17:41Z</time>
      </trkpt>
      <trkpt lat="42.8012920" lon="-5.6589730">
        <ele>1006.2</ele>
        <time>2019-07-21T07:17:44Z</time>
      </trkpt>
      <trkpt lat="42.8013840" lon="-5.6594320">
        <ele>1007.2</ele>
        <time>2019-07-21T07:17:50Z</time>
      </trkpt>
      <trkpt lat="42.8014070" lon="-5.6595130">
        <ele>1007.4</ele>
        <time>2019-07-21T07:17:51Z</time>
      </trkpt>
      <trkpt lat="42.8014330" lon="-5.6595920">
        <ele>1007.6</ele>
        <time>2019-07-21T07:17:52Z</time>
      </trkpt>
      <trkpt lat="42.8015960" lon="-5.6599770">
        <ele>1008.6</ele>
        <time>2019-07-21T07:17:57Z</time>
      </trkpt>
      <trkpt lat="42.8018250" lon="-5.6604200">
        <ele>1009.6</ele>
        <time>2019-07-21T07:18:03Z</time>
      </trkpt>
      <trkpt lat="42.8018620" lon="-5.6604930">
        <ele>1009.8</ele>
        <time>2019-07-21T07:18:04Z</time>
      </trkpt>
      <trkpt lat="42.8020840" lon="-5.6609330">
        <ele>1011.0</ele>
        <time>2019-07-21T07:18:10Z</time>
      </trkpt>
      <trkpt lat="42.8022490" lon="-5.6613260">
        <ele>1012.0</ele>
        <time>2019-07-21T07:18:15Z</time>
      </trkpt>
      <trkpt lat="42.8023940" lon="-5.6618070">
        <ele>1012.4</ele>
        <time>2019-07-21T07:18:21Z</time>
      </trkpt>
      <trkpt lat="42.8024580" lon="-5.6621420">
        <ele>1013.0</ele>
        <time>2019-07-21T07:18:25Z</time>
      </trkpt>
      <trkpt lat="42.8024860" lon="-5.6626450">
        <ele>1014.2</ele>
        <time>2019-07-21T07:18:31Z</time>
      </trkpt>
      <trkpt lat="42.8024640" lon="-5.6630910">
        <ele>1015.4</ele>
        <time>2019-07-21T07:18:37Z</time>
      </trkpt>
      <trkpt lat="42.8024210" lon="-5.6633800">
        <ele>1016.6</ele>
        <time>2019-07-21T07:18:42Z</time>
      </trkpt>
      <trkpt lat="42.8023760" lon="-5.6635990">
        <ele>1017.6</ele>
        <time>2019-07-21T07:18:46Z</time>
      </trkpt>
      <trkpt lat="42.8023200" lon="-5.6638580">
        <ele>1018.2</ele>
        <time>2019-07-21T07:18:51Z</time>
      </trkpt>
      <trkpt lat="42.8022860" lon="-5.6640180">
        <ele>1018.8</ele>
        <time>2019-07-21T07:18:54Z</time>
      </trkpt>
      <trkpt lat="42.8022310" lon="-5.6642430">
        <ele>1020.0</ele>
        <time>2019-07-21T07:18:58Z</time>
      </trkpt>
      <trkpt lat="42.8022160" lon="-5.6643010">
        <ele>1020.2</ele>
        <time>2019-07-21T07:18:59Z</time>
      </trkpt>
      <trkpt lat="42.8021580" lon="-5.6645190">
        <ele>1021.2</ele>
        <time>2019-07-21T07:19:03Z</time>
      </trkpt>
      <trkpt lat="42.8021420" lon="-5.6645770">
        <ele>1021.4</ele>
        <time>2019-07-21T07:19:04Z</time>
      </trkpt>
      <trkpt lat="42.8021280" lon="-5.6646350">
        <ele>1021.8</ele>
        <time>2019-07-21T07:19:05Z</time>
      </trkpt>
      <trkpt lat="42.8021000" lon="-5.6647510">
        <ele>1022.4</ele>
        <time>2019-07-21T07:19:07Z</time>
      </trkpt>
      <trkpt lat="42.8020610" lon="-5.6649290">
        <ele>1023.2</ele>
        <time>2019-07-21T07:19:10Z</time>
      </trkpt>
      <trkpt lat="42.8020390" lon="-5.6650440">
        <ele>1023.6</ele>
        <time>2019-07-21T07:19:12Z</time>
      </trkpt>
      <trkpt lat="42.8020270" lon="-5.6650990">
        <ele>1023.8</ele>
        <time>2019-07-21T07:19:13Z</time>
      </trkpt>
      <trkpt lat="42.8019960" lon="-5.6652700">
        <ele>1024.6</ele>
        <time>2019-07-21T07:19:16Z</time>
      </trkpt>
      <trkpt lat="42.8019610" lon="-5.6654990">
        <ele>1025.2</ele>
        <time>2019-07-21T07:19:20Z</time>
      </trkpt>
      <trkpt lat="42.8019500" lon="-5.6656180">
        <ele>1025.8</ele>
        <time>2019-07-21T07:19:22Z</time>
      </trkpt>
      <trkpt lat="42.8019220" lon="-5.6658550">
        <ele>1027.0</ele>
        <time>2019-07-21T07:19:26Z</time>
      </trkpt>
      <trkpt lat="42.8018980" lon="-5.6661500">
        <ele>1028.0</ele>
        <time>2019-07-21T07:19:31Z</time>
      </trkpt>
      <trkpt lat="42.8018880" lon="-5.6664640">
        <ele>1029.0</ele>
        <time>2019-07-21T07:19:36Z</time>
      </trkpt>
      <trkpt lat="42.8018900" lon="-5.6668370">
        <ele>1029.8</ele>
        <time>2019-07-21T07:19:42Z</time>
      </trkpt>
      <trkpt lat="42.8018920" lon="-5.6669670">
        <ele>1030.2</ele>
        <time>2019-07-21T07:19:44Z</time>
      </trkpt>
      <trkpt lat="42.8019130" lon="-5.6673470">
        <ele>1031.2</ele>
        <time>2019-07-21T07:19:50Z</time>
      </trkpt>
      <trkpt lat="42.8019350" lon="-5.6677360">
        <ele>1032.0</ele>
        <time>2019-07-21T07:19:56Z</time>
      </trkpt>
      <trkpt lat="42.8019480" lon="-5.6679320">
        <ele>1032.4</ele>
        <time>2019-07-21T07:19:59Z</time>
      </trkpt>
      <trkpt lat="42.8019680" lon="-5.6683350">
        <ele>1033.0</ele>
        <time>2019-07-21T07:20:05Z</time>
      </trkpt>
      <trkpt lat="42.8019720" lon="-5.6686240">
        <ele>1033.4</ele>
        <time>2019-07-21T07:20:09Z</time>
      </trkpt>
      <trkpt lat="42.8019710" lon="-5.6686960">
        <ele>1033.4</ele>
        <time>2019-07-21T07:20:10Z</time>
      </trkpt>
      <trkpt lat="42.8019470" lon="-5.6690660">
        <ele>1033.6</ele>
        <time>2019-07-21T07:20:15Z</time>
      </trkpt>
      <trkpt lat="42.8019130" lon="-5.6692940">
        <ele>1033.8</ele>
        <time>2019-07-21T07:20:18Z</time>
      </trkpt>
      <trkpt lat="42.8017980" lon="-5.6697630">
        <ele>1033.8</ele>
        <time>2019-07-21T07:20:24Z</time>
      </trkpt>
      <trkpt lat="42.8017140" lon="-5.6699980">
        <ele>1033.8</ele>
        <time>2019-07-21T07:20:27Z</time>
      </trkpt>
      <trkpt lat="42.8014900" lon="-5.6704680">
        <ele>1033.4</ele>
        <time>2019-07-21T07:20:33Z</time>
      </trkpt>
      <trkpt lat="42.8012490" lon="-5.6708440">
        <ele>1032.8</ele>
        <time>2019-07-21T07:20:38Z</time>
      </trkpt>
      <trkpt lat="42.8010800" lon="-5.6710660">
        <ele>1032.2</ele>
        <time>2019-07-21T07:20:41Z</time>
      </trkpt>
      <trkpt lat="42.8007850" lon="-5.6714580">
        <ele>1031.4</ele>
        <time>2019-07-21T07:20:46Z</time>
      </trkpt>
      <trkpt lat="42.8006700" lon="-5.6716270">
        <ele>1031.2</ele>
        <time>2019-07-21T07:20:48Z</time>
      </trkpt>
      <trkpt lat="42.8005160" lon="-5.6719100">
        <ele>1030.8</ele>
        <time>2019-07-21T07:20:51Z</time>
      </trkpt>
      <trkpt lat="42.8003520" lon="-5.6723500">
        <ele>1030.0</ele>
        <time>2019-07-21T07:20:55Z</time>
      </trkpt>
      <trkpt lat="42.8002440" lon="-5.6729700">
        <ele>1029.0</ele>
        <time>2019-07-21T07:21:00Z</time>
      </trkpt>
      <trkpt lat="42.8002370" lon="-5.6730950">
        <ele>1028.8</ele>
        <time>2019-07-21T07:21:01Z</time>
      </trkpt>
      <trkpt lat="42.8002300" lon="-5.6734600">
        <ele>1028.4</ele>
        <time>2019-07-21T07:21:04Z</time>
      </trkpt>
      <trkpt lat="42.8002280" lon="-5.6738040">
        <ele>1028.6</ele>
        <time>2019-07-21T07:21:07Z</time>
      </trkpt>
      <trkpt lat="42.8002280" lon="-5.6740260">
        <ele>1028.6</ele>
        <time>2019-07-21T07:21:09Z</time>
      </trkpt>
      <trkpt lat="42.8002230" lon="-5.6746230">
        <ele>1029.2</ele>
        <time>2019-07-21T07:21:15Z</time>
      </trkpt>
      <trkpt lat="42.8002180" lon="-5.6749440">
        <ele>1030.0</ele>
        <time>2019-07-21T07:21:19Z</time>
      </trkpt>
      <trkpt lat="42.8002170" lon="-5.6751690">
        <ele>1030.8</ele>
        <time>2019-07-21T07:21:22Z</time>
      </trkpt>
      <trkpt lat="42.8002170" lon="-5.6752410">
        <ele>1031.2</ele>
        <time>2019-07-21T07:21:23Z</time>
      </trkpt>
      <trkpt lat="42.8002160" lon="-5.6753840">
        <ele>1031.8</ele>
        <time>2019-07-21T07:21:25Z</time>
      </trkpt>
      <trkpt lat="42.8002160" lon="-5.6755250">
        <ele>1032.4</ele>
        <time>2019-07-21T07:21:27Z</time>
      </trkpt>
      <trkpt lat="42.8002150" lon="-5.6757320">
        <ele>1033.2</ele>
        <time>2019-07-21T07:21:30Z</time>
      </trkpt>
      <trkpt lat="42.8002140" lon="-5.6758000">
        <ele>1033.4</ele>
        <time>2019-07-21T07:21:31Z</time>
      </trkpt>
      <trkpt lat="42.8002120" lon="-5.6759370">
        <ele>1034.0</ele>
        <time>2019-07-21T07:21:33Z</time>
      </trkpt>
      <trkpt lat="42.8002110" lon="-5.6760040">
        <ele>1034.4</ele>
        <time>2019-07-21T07:21:34Z</time>
      </trkpt>
      <trkpt lat="42.8002110" lon="-5.6760700">
        <ele>1034.6</ele>
        <time>2019-07-21T07:21:35Z</time>
      </trkpt>
      <trkpt lat="42.8002100" lon="-5.6763390">
        <ele>1035.6</ele>
        <time>2019-07-21T07:21:39Z</time>
      </trkpt>
      <trkpt lat="42.8002060" lon="-5.6765960">
        <ele>1036.6</ele>
        <time>2019-07-21T07:21:43Z</time>
      </trkpt>
      <trkpt lat="42.8002060" lon="-5.6766600">
        <ele>1037.0</ele>
        <time>2019-07-21T07:21:44Z</time>
      </trkpt>
      <trkpt lat="42.8002040" lon="-5.6767940">
        <ele>1037.4</ele>
        <time>2019-07-21T07:21:46Z</time>
      </trkpt>
      <trkpt lat="42.8002050" lon="-5.6769330">
        <ele>1038.0</ele>
        <time>2019-07-21T07:21:48Z</time>
      </trkpt>
      <trkpt lat="42.8002030" lon="-5.6771490">
        <ele>1038.6</ele>
        <time>2019-07-21T07:21:51Z</time>
      </trkpt>
      <trkpt lat="42.8002020" lon="-5.6772880">
        <ele>1039.4</ele>
        <time>2019-07-21T07:21:53Z</time>
      </trkpt>
      <trkpt lat="42.8002010" lon="-5.6776390">
        <ele>1040.6</ele>
        <time>2019-07-21T07:21:58Z</time>
      </trkpt>
      <trkpt lat="42.8002020" lon="-5.6780380">
        <ele>1041.0</ele>
        <time>2019-07-21T07:22:04Z</time>
      </trkpt>
      <trkpt lat="42.8002050" lon="-5.6782760">
        <ele>1041.2</ele>
        <time>2019-07-21T07:22:08Z</time>
      </trkpt>
      <trkpt lat="42.8002050" lon="-5.6784410">
        <ele>1041.4</ele>
        <time>2019-07-21T07:22:11Z</time>
      </trkpt>
      <trkpt lat="42.8002040" lon="-5.6785900">
        <ele>1041.4</ele>
        <time>2019-07-21T07:22:14Z</time>
      </trkpt>
      <trkpt lat="42.8002030" lon="-5.6786440">
        <ele>1041.6</ele>
        <time>2019-07-21T07:22:15Z</time>
      </trkpt>
      <trkpt lat="42.8002020" lon="-5.6788160">
        <ele>1041.6</ele>
        <time>2019-07-21T07:22:18Z</time>
      </trkpt>
      <trkpt lat="42.8002030" lon="-5.6789350">
        <ele>1041.8</ele>
        <time>2019-07-21T07:22:20Z</time>
      </trkpt>
      <trkpt lat="42.8002040" lon="-5.6791200">
        <ele>1042.0</ele>
        <time>2019-07-21T07:22:23Z</time>
      </trkpt>
      <trkpt lat="42.8002020" lon="-5.6794450">
        <ele>1042.0</ele>
        <time>2019-07-21T07:22:28Z</time>
      </trkpt>
      <trkpt lat="42.8002000" lon="-5.6798300">
        <ele>1042.6</ele>
        <time>2019-07-21T07:22:34Z</time>
      </trkpt>
      <trkpt lat="42.8002040" lon="-5.6802060">
        <ele>1043.4</ele>
        <time>2019-07-21T07:22:40Z</time>
      </trkpt>
      <trkpt lat="42.8002050" lon="-5.6802640">
        <ele>1043.6</ele>
        <time>2019-07-21T07:22:41Z</time>
      </trkpt>
      <trkpt lat="42.8002040" lon="-5.6804320">
        <ele>1044.2</ele>
        <time>2019-07-21T07:22:44Z</time>
      </trkpt>
      <trkpt lat="42.8002060" lon="-5.6806050">
        <ele>1044.6</ele>
        <time>2019-07-21T07:22:47Z</time>
      </trkpt>
      <trkpt lat="42.8002010" lon="-5.6809130">
        <ele>1045.6</ele>
        <time>2019-07-21T07:22:53Z</time>
      </trkpt>
      <trkpt lat="42.8002050" lon="-5.6812070">
        <ele>1046.8</ele>
        <time>2019-07-21T07:22:59Z</time>
      </trkpt>
      <trkpt lat="42.8002070" lon="-5.6814200">
        <ele>1047.8</ele>
        <time>2019-07-21T07:23:03Z</time>
      </trkpt>
      <trkpt lat="42.8002070" lon="-5.6814740">
        <ele>1048.0</ele>
        <time>2019-07-21T07:23:04Z</time>
      </trkpt>
      <trkpt lat="42.8002080" lon="-5.6816960">
        <ele>1048.8</ele>
        <time>2019-07-21T07:23:08Z</time>
      </trkpt>
      <trkpt lat="42.8002070" lon="-5.6820390">
        <ele>1049.8</ele>
        <time>2019-07-21T07:23:14Z</time>
      </trkpt>
      <trkpt lat="42.8002080" lon="-5.6820970">
        <ele>1050.0</ele>
        <time>2019-07-21T07:23:15Z</time>
      </trkpt>
      <trkpt lat="42.8002090" lon="-5.6824520">
        <ele>1050.8</ele>
        <time>2019-07-21T07:23:21Z</time>
      </trkpt>
      <trkpt lat="42.8002010" lon="-5.6825740">
        <ele>1051.0</ele>
        <time>2019-07-21T07:23:23Z</time>
      </trkpt>
      <trkpt lat="42.8001800" lon="-5.6829510">
        <ele>1052.2</ele>
        <time>2019-07-21T07:23:29Z</time>
      </trkpt>
      <trkpt lat="42.8001550" lon="-5.6833150">
        <ele>1052.6</ele>
        <time>2019-07-21T07:23:35Z</time>
      </trkpt>
      <trkpt lat="42.8001200" lon="-5.6836120">
        <ele>1052.8</ele>
        <time>2019-07-21T07:23:41Z</time>
      </trkpt>
      <trkpt lat="42.8000820" lon="-5.6838040">
        <ele>1053.0</ele>
        <time>2019-07-21T07:23:45Z</time>
      </trkpt>
      <trkpt lat="42.8000250" lon="-5.6840430">
        <ele>1053.0</ele>
        <time>2019-07-21T07:23:50Z</time>
      </trkpt>
      <trkpt lat="42.7999360" lon="-5.6843430">
        <ele>1053.2</ele>
        <time>2019-07-21T07:23:56Z</time>
      </trkpt>
      <trkpt lat="42.7998480" lon="-5.6846570">
        <ele>1053.0</ele>
        <time>2019-07-21T07:24:02Z</time>
      </trkpt>
      <trkpt lat="42.7998180" lon="-5.6847730">
        <ele>1053.2</ele>
        <time>2019-07-21T07:24:04Z</time>
      </trkpt>
      <trkpt lat="42.7997070" lon="-5.6851580">
        <ele>1053.0</ele>
        <time>2019-07-21T07:24:10Z</time>
      </trkpt>
      <trkpt lat="42.7995830" lon="-5.6856020">
        <ele>1052.6</ele>
        <time>2019-07-21T07:24:16Z</time>
      </trkpt>
      <trkpt lat="42.7994310" lon="-5.6860540">
        <ele>1052.2</ele>
        <time>2019-07-21T07:24:22Z</time>
      </trkpt>
      <trkpt lat="42.7992440" lon="-5.6865060">
        <ele>1052.0</ele>
        <time>2019-07-21T07:24:28Z</time>
      </trkpt>
      <trkpt lat="42.7992180" lon="-5.6865820">
        <ele>1052.0</ele>
        <time>2019-07-21T07:24:29Z</time>
      </trkpt>
      <trkpt lat="42.7991600" lon="-5.6868130">
        <ele>1051.6</ele>
        <time>2019-07-21T07:24:32Z</time>
      </trkpt>
      <trkpt lat="42.7990400" lon="-5.6872150">
        <ele>1051.6</ele>
        <time>2019-07-21T07:24:38Z</time>
      </trkpt>
      <trkpt lat="42.7989260" lon="-5.6875430">
        <ele>1051.8</ele>
        <time>2019-07-21T07:24:43Z</time>
      </trkpt>
      <trkpt lat="42.7988210" lon="-5.6879570">
        <ele>1052.6</ele>
        <time>2019-07-21T07:24:49Z</time>
      </trkpt>
      <trkpt lat="42.7987910" lon="-5.6882450">
        <ele>1053.0</ele>
        <time>2019-07-21T07:24:53Z</time>
      </trkpt>
      <trkpt lat="42.7987810" lon="-5.6883880">
        <ele>1053.2</ele>
        <time>2019-07-21T07:24:55Z</time>
      </trkpt>
      <trkpt lat="42.7987610" lon="-5.6886640">
        <ele>1053.6</ele>
        <time>2019-07-21T07:24:59Z</time>
      </trkpt>
      <trkpt lat="42.7987460" lon="-5.6889380">
        <ele>1054.4</ele>
        <time>2019-07-21T07:25:03Z</time>
      </trkpt>
      <trkpt lat="42.7987100" lon="-5.6893650">
        <ele>1054.8</ele>
        <time>2019-07-21T07:25:09Z</time>
      </trkpt>
      <trkpt lat="42.7986290" lon="-5.6898340">
        <ele>1054.6</ele>
        <time>2019-07-21T07:25:15Z</time>
      </trkpt>
      <trkpt lat="42.7985640" lon="-5.6902490">
        <ele>1054.4</ele>
        <time>2019-07-21T07:25:20Z</time>
      </trkpt>
      <trkpt lat="42.7985410" lon="-5.6906660">
        <ele>1053.6</ele>
        <time>2019-07-21T07:25:25Z</time>
      </trkpt>
      <trkpt lat="42.7985280" lon="-5.6907500">
        <ele>1053.6</ele>
        <time>2019-07-21T07:25:26Z</time>
      </trkpt>
      <trkpt lat="42.7984700" lon="-5.6909050">
        <ele>1053.4</ele>
        <time>2019-07-21T07:25:28Z</time>
      </trkpt>
      <trkpt lat="42.7984270" lon="-5.6909740">
        <ele>1053.4</ele>
        <time>2019-07-21T07:25:29Z</time>
      </trkpt>
      <trkpt lat="42.7982890" lon="-5.6911900">
        <ele>1053.0</ele>
        <time>2019-07-21T07:25:32Z</time>
      </trkpt>
      <trkpt lat="42.7981890" lon="-5.6914380">
        <ele>1052.6</ele>
        <time>2019-07-21T07:25:35Z</time>
      </trkpt>
      <trkpt lat="42.7981030" lon="-5.6916910">
        <ele>1052.2</ele>
        <time>2019-07-21T07:25:38Z</time>
      </trkpt>
      <trkpt lat="42.7980750" lon="-5.6918720">
        <ele>1052.0</ele>
        <time>2019-07-21T07:25:40Z</time>
      </trkpt>
      <trkpt lat="42.7980690" lon="-5.6923480">
        <ele>1051.8</ele>
        <time>2019-07-21T07:25:46Z</time>
      </trkpt>
      <trkpt lat="42.7980770" lon="-5.6924830">
        <ele>1051.8</ele>
        <time>2019-07-21T07:25:48Z</time>
      </trkpt>
      <trkpt lat="42.7981130" lon="-5.6926090">
        <ele>1051.8</ele>
        <time>2019-07-21T07:25:50Z</time>
      </trkpt>
      <trkpt lat="42.7981790" lon="-5.6927230">
        <ele>1051.8</ele>
        <time>2019-07-21T07:25:52Z</time>
      </trkpt>
      <trkpt lat="42.7983570" lon="-5.6929290">
        <ele>1052.2</ele>
        <time>2019-07-21T07:25:57Z</time>
      </trkpt>
      <trkpt lat="42.7984160" lon="-5.6930010">
        <ele>1052.6</ele>
        <time>2019-07-21T07:25:59Z</time>
      </trkpt>
      <trkpt lat="42.7985040" lon="-5.6931030">
        <ele>1053.0</ele>
        <time>2019-07-21T07:26:02Z</time>
      </trkpt>
      <trkpt lat="42.7985580" lon="-5.6931630">
        <ele>1053.4</ele>
        <time>2019-07-21T07:26:04Z</time>
      </trkpt>
      <trkpt lat="42.7986090" lon="-5.6932240">
        <ele>1054.2</ele>
        <time>2019-07-21T07:26:06Z</time>
      </trkpt>
      <trkpt lat="42.7986350" lon="-5.6932530">
        <ele>1054.6</ele>
        <time>2019-07-21T07:26:07Z</time>
      </trkpt>
      <trkpt lat="42.7987670" lon="-5.6934120">
        <ele>1055.8</ele>
        <time>2019-07-21T07:26:12Z</time>
      </trkpt>
      <trkpt lat="42.7988780" lon="-5.6935330">
        <ele>1056.6</ele>
        <time>2019-07-21T07:26:16Z</time>
      </trkpt>
      <trkpt lat="42.7989080" lon="-5.6935660">
        <ele>1057.0</ele>
        <time>2019-07-21T07:26:17Z</time>
      </trkpt>
      <trkpt lat="42.7989860" lon="-5.6936810">
        <ele>1057.8</ele>
        <time>2019-07-21T07:26:20Z</time>
      </trkpt>
      <trkpt lat="42.7990150" lon="-5.6937110">
        <ele>1058.0</ele>
        <time>2019-07-21T07:26:21Z</time>
      </trkpt>
      <trkpt lat="42.7991600" lon="-5.6938670">
        <ele>1059.2</ele>
        <time>2019-07-21T07:26:26Z</time>
      </trkpt>
      <trkpt lat="42.7992610" lon="-5.6939950">
        <ele>1060.2</ele>
        <time>2019-07-21T07:26:30Z</time>
      </trkpt>
      <trkpt lat="42.7993450" lon="-5.6941460">
        <ele>1061.4</ele>
        <time>2019-07-21T07:26:34Z</time>
      </trkpt>
      <trkpt lat="42.7993390" lon="-5.6944450">
        <ele>1062.6</ele>
        <time>2019-07-21T07:26:40Z</time>
      </trkpt>
      <trkpt lat="42.7992870" lon="-5.6947160">
        <ele>1063.6</ele>
        <time>2019-07-21T07:26:45Z</time>
      </trkpt>
      <trkpt lat="42.7992920" lon="-5.6948420">
        <ele>1064.0</ele>
        <time>2019-07-21T07:26:47Z</time>
      </trkpt>
      <trkpt lat="42.7993260" lon="-5.6949460">
        <ele>1064.4</ele>
        <time>2019-07-21T07:26:49Z</time>
      </trkpt>
      <trkpt lat="42.7993490" lon="-5.6949900">
        <ele>1064.8</ele>
        <time>2019-07-21T07:26:50Z</time>
      </trkpt>
      <trkpt lat="42.7995160" lon="-5.6951970">
        <ele>1065.8</ele>
        <time>2019-07-21T07:26:56Z</time>
      </trkpt>
      <trkpt lat="42.7996410" lon="-5.6953130">
        <ele>1067.0</ele>
        <time>2019-07-21T07:27:00Z</time>
      </trkpt>
      <trkpt lat="42.7997250" lon="-5.6954050">
        <ele>1068.2</ele>
        <time>2019-07-21T07:27:03Z</time>
      </trkpt>
      <trkpt lat="42.7998530" lon="-5.6955360">
        <ele>1069.4</ele>
        <time>2019-07-21T07:27:08Z</time>
      </trkpt>
      <trkpt lat="42.7999730" lon="-5.6956580">
        <ele>1070.6</ele>
        <time>2019-07-21T07:27:13Z</time>
      </trkpt>
      <trkpt lat="42.8000730" lon="-5.6957660">
        <ele>1071.6</ele>
        <time>2019-07-21T07:27:17Z</time>
      </trkpt>
      <trkpt lat="42.8002040" lon="-5.6959090">
        <ele>1072.8</ele>
        <time>2019-07-21T07:27:22Z</time>
      </trkpt>
      <trkpt lat="42.8003340" lon="-5.6960470">
        <ele>1074.0</ele>
        <time>2019-07-21T07:27:27Z</time>
      </trkpt>
      <trkpt lat="42.8004310" lon="-5.6961530">
        <ele>1075.0</ele>
        <time>2019-07-21T07:27:31Z</time>
      </trkpt>
      <trkpt lat="42.8005290" lon="-5.6962600">
        <ele>1076.2</ele>
        <time>2019-07-21T07:27:35Z</time>
      </trkpt>
      <trkpt lat="42.8006550" lon="-5.6963920">
        <ele>1077.4</ele>
        <time>2019-07-21T07:27:40Z</time>
      </trkpt>
      <trkpt lat="42.8007840" lon="-5.6965360">
        <ele>1078.4</ele>
        <time>2019-07-21T07:27:45Z</time>
      </trkpt>
      <trkpt lat="42.8008900" lon="-5.6966520">
        <ele>1079.4</ele>
        <time>2019-07-21T07:27:49Z</time>
      </trkpt>
      <trkpt lat="42.8010260" lon="-5.6968010">
        <ele>1080.6</ele>
        <time>2019-07-21T07:27:54Z</time>
      </trkpt>
      <trkpt lat="42.8011980" lon="-5.6969840">
        <ele>1081.8</ele>
        <time>2019-07-21T07:28:00Z</time>
      </trkpt>
      <trkpt lat="42.8013360" lon="-5.6971260">
        <ele>1082.8</ele>
        <time>2019-07-21T07:28:05Z</time>
      </trkpt>
      <trkpt lat="42.8014720" lon="-5.6972710">
        <ele>1084.0</ele>
        <time>2019-07-21T07:28:10Z</time>
      </trkpt>
      <trkpt lat="42.8016500" lon="-5.6974610">
        <ele>1085.2</ele>
        <time>2019-07-21T07:28:16Z</time>
      </trkpt>
      <trkpt lat="42.8017730" lon="-5.6975910">
        <ele>1085.8</ele>
        <time>2019-07-21T07:28:20Z</time>
      </trkpt>
      <trkpt lat="42.8018870" lon="-5.6976690">
        <ele>1086.2</ele>
        <time>2019-07-21T07:28:23Z</time>
      </trkpt>
      <trkpt lat="42.8019670" lon="-5.6976990">
        <ele>1086.6</ele>
        <time>2019-07-21T07:28:25Z</time>
      </trkpt>
      <trkpt lat="42.8021250" lon="-5.6977400">
        <ele>1087.4</ele>
        <time>2019-07-21T07:28:29Z</time>
      </trkpt>
      <trkpt lat="42.8023630" lon="-5.6978300">
        <ele>1088.0</ele>
        <time>2019-07-21T07:28:35Z</time>
      </trkpt>
      <trkpt lat="42.8024290" lon="-5.6978970">
        <ele>1088.4</ele>
        <time>2019-07-21T07:28:37Z</time>
      </trkpt>
      <trkpt lat="42.8025880" lon="-5.6981810">
        <ele>1089.4</ele>
        <time>2019-07-21T07:28:43Z</time>
      </trkpt>
      <trkpt lat="42.8026160" lon="-5.6982290">
        <ele>1089.6</ele>
        <time>2019-07-21T07:28:44Z</time>
      </trkpt>
      <trkpt lat="42.8027080" lon="-5.6983520">
        <ele>1089.8</ele>
        <time>2019-07-21T07:28:47Z</time>
      </trkpt>
      <trkpt lat="42.8027800" lon="-5.6984200">
        <ele>1089.8</ele>
        <time>2019-07-21T07:28:49Z</time>
      </trkpt>
      <trkpt lat="42.8030340" lon="-5.6985760">
        <ele>1090.4</ele>
        <time>2019-07-21T07:28:55Z</time>
      </trkpt>
      <trkpt lat="42.8031160" lon="-5.6986180">
        <ele>1090.6</ele>
        <time>2019-07-21T07:28:57Z</time>
      </trkpt>
      <trkpt lat="42.8033520" lon="-5.6987060">
        <ele>1091.4</ele>
        <time>2019-07-21T07:29:03Z</time>
      </trkpt>
      <trkpt lat="42.8034620" lon="-5.6987090">
        <ele>1091.8</ele>
        <time>2019-07-21T07:29:06Z</time>
      </trkpt>
      <trkpt lat="42.8036070" lon="-5.6986530">
        <ele>1092.8</ele>
        <time>2019-07-21T07:29:10Z</time>
      </trkpt>
      <trkpt lat="42.8037600" lon="-5.6985920">
        <ele>1093.8</ele>
        <time>2019-07-21T07:29:14Z</time>
      </trkpt>
      <trkpt lat="42.8039470" lon="-5.6985760">
        <ele>1094.8</ele>
        <time>2019-07-21T07:29:19Z</time>
      </trkpt>
      <trkpt lat="42.8039830" lon="-5.6985900">
        <ele>1095.0</ele>
        <time>2019-07-21T07:29:20Z</time>
      </trkpt>
      <trkpt lat="42.8041250" lon="-5.6986630">
        <ele>1096.0</ele>
        <time>2019-07-21T07:29:24Z</time>
      </trkpt>
      <trkpt lat="42.8041560" lon="-5.6986850">
        <ele>1096.2</ele>
        <time>2019-07-21T07:29:25Z</time>
      </trkpt>
      <trkpt lat="42.8042790" lon="-5.6987910">
        <ele>1097.2</ele>
        <time>2019-07-21T07:29:29Z</time>
      </trkpt>
      <trkpt lat="42.8043120" lon="-5.6988160">
        <ele>1097.4</ele>
        <time>2019-07-21T07:29:30Z</time>
      </trkpt>
      <trkpt lat="42.8044660" lon="-5.6989590">
        <ele>1098.6</ele>
        <time>2019-07-21T07:29:35Z</time>
      </trkpt>
      <trkpt lat="42.8045950" lon="-5.6991340">
        <ele>1099.6</ele>
        <time>2019-07-21T07:29:40Z</time>
      </trkpt>
      <trkpt lat="42.8047080" lon="-5.6993160">
        <ele>1100.6</ele>
        <time>2019-07-21T07:29:45Z</time>
      </trkpt>
      <trkpt lat="42.8048450" lon="-5.6995330">
        <ele>1101.8</ele>
        <time>2019-07-21T07:29:51Z</time>
      </trkpt>
      <trkpt lat="42.8049520" lon="-5.6996910">
        <ele>1102.8</ele>
        <time>2019-07-21T07:29:56Z</time>
      </trkpt>
      <trkpt lat="42.8049760" lon="-5.6997210">
        <ele>1103.0</ele>
        <time>2019-07-21T07:29:57Z</time>
      </trkpt>
      <trkpt lat="42.8051070" lon="-5.6998720">
        <ele>1104.0</ele>
        <time>2019-07-21T07:30:02Z</time>
      </trkpt>
      <trkpt lat="42.8052120" lon="-5.6999890">
        <ele>1105.0</ele>
        <time>2019-07-21T07:30:06Z</time>
      </trkpt>
      <trkpt lat="42.8053350" lon="-5.7001580">
        <ele>1106.0</ele>
        <time>2019-07-21T07:30:11Z</time>
      </trkpt>
      <trkpt lat="42.8054000" lon="-5.7003890">
        <ele>1106.8</ele>
        <time>2019-07-21T07:30:16Z</time>
      </trkpt>
      <trkpt lat="42.8053730" lon="-5.7005030">
        <ele>1107.0</ele>
        <time>2019-07-21T07:30:18Z</time>
      </trkpt>
      <trkpt lat="42.8053120" lon="-5.7005930">
        <ele>1107.2</ele>
        <time>2019-07-21T07:30:20Z</time>
      </trkpt>
      <trkpt lat="42.8052240" lon="-5.7006400">
        <ele>1107.2</ele>
        <time>2019-07-21T07:30:22Z</time>
      </trkpt>
      <trkpt lat="42.8051320" lon="-5.7006240">
        <ele>1107.4</ele>
        <time>2019-07-21T07:30:24Z</time>
      </trkpt>
      <trkpt lat="42.8050360" lon="-5.7005350">
        <ele>1107.4</ele>
        <time>2019-07-21T07:30:26Z</time>
      </trkpt>
      <trkpt lat="42.8049900" lon="-5.7004780">
        <ele>1107.4</ele>
        <time>2019-07-21T07:30:27Z</time>
      </trkpt>
      <trkpt lat="42.8048940" lon="-5.7003580">
        <ele>1107.4</ele>
        <time>2019-07-21T07:30:29Z</time>
      </trkpt>
      <trkpt lat="42.8047430" lon="-5.7001760">
        <ele>1107.0</ele>
        <time>2019-07-21T07:30:32Z</time>
      </trkpt>
      <trkpt lat="42.8045870" lon="-5.6999910">
        <ele>1106.6</ele>
        <time>2019-07-21T07:30:35Z</time>
      </trkpt>
      <trkpt lat="42.8044790" lon="-5.6998560">
        <ele>1106.4</ele>
        <time>2019-07-21T07:30:37Z</time>
      </trkpt>
      <trkpt lat="42.8044260" lon="-5.6997880">
        <ele>1106.0</ele>
        <time>2019-07-21T07:30:38Z</time>
      </trkpt>
      <trkpt lat="42.8042480" lon="-5.6995850">
        <ele>1105.4</ele>
        <time>2019-07-21T07:30:41Z</time>
      </trkpt>
      <trkpt lat="42.8041850" lon="-5.6995240">
        <ele>1105.0</ele>
        <time>2019-07-21T07:30:42Z</time>
      </trkpt>
      <trkpt lat="42.8041210" lon="-5.6994660">
        <ele>1104.8</ele>
        <time>2019-07-21T07:30:43Z</time>
      </trkpt>
      <trkpt lat="42.8037900" lon="-5.6991860">
        <ele>1103.8</ele>
        <time>2019-07-21T07:30:48Z</time>
      </trkpt>
      <trkpt lat="42.8037190" lon="-5.6991410">
        <ele>1103.8</ele>
        <time>2019-07-21T07:30:49Z</time>
      </trkpt>
      <trkpt lat="42.8035740" lon="-5.6990960">
        <ele>1103.4</ele>
        <time>2019-07-21T07:30:51Z</time>
      </trkpt>
      <trkpt lat="42.8032880" lon="-5.6990970">
        <ele>1103.4</ele>
        <time>2019-07-21T07:30:55Z</time>
      </trkpt>
      <trkpt lat="42.8029180" lon="-5.6990920">
        <ele>1103.2</ele>
        <time>2019-07-21T07:31:01Z</time>
      </trkpt>
      <trkpt lat="42.8028800" lon="-5.6990880">
        <ele>1103.2</ele>
        <time>2019-07-21T07:31:02Z</time>
      </trkpt>
      <trkpt lat="42.8028100" lon="-5.6990840">
        <ele>1103.2</ele>
        <time>2019-07-21T07:31:04Z</time>
      </trkpt>
      <trkpt lat="42.8026290" lon="-5.6990710">
        <ele>1103.2</ele>
        <time>2019-07-21T07:31:09Z</time>
      </trkpt>
      <trkpt lat="42.8023810" lon="-5.6990490">
        <ele>1103.2</ele>
        <time>2019-07-21T07:31:15Z</time>
      </trkpt>
      <trkpt lat="42.8021900" lon="-5.6990380">
        <ele>1103.2</ele>
        <time>2019-07-21T07:31:19Z</time>
      </trkpt>
      <trkpt lat="42.8018420" lon="-5.6990690">
        <ele>1103.2</ele>
        <time>2019-07-21T07:31:25Z</time>
      </trkpt>
      <trkpt lat="42.8016520" lon="-5.6990920">
        <ele>1103.2</ele>
        <time>2019-07-21T07:31:28Z</time>
      </trkpt>
      <trkpt lat="42.8015270" lon="-5.6990600">
        <ele>1103.0</ele>
        <time>2019-07-21T07:31:30Z</time>
      </trkpt>
      <trkpt lat="42.8013480" lon="-5.6989510">
        <ele>1102.8</ele>
        <time>2019-07-21T07:31:33Z</time>
      </trkpt>
      <trkpt lat="42.8010010" lon="-5.6986970">
        <ele>1102.2</ele>
        <time>2019-07-21T07:31:39Z</time>
      </trkpt>
      <trkpt lat="42.8007150" lon="-5.6985830">
        <ele>1102.8</ele>
        <time>2019-07-21T07:31:45Z</time>
      </trkpt>
      <trkpt lat="42.8005920" lon="-5.6985550">
        <ele>1103.8</ele>
        <time>2019-07-21T07:31:48Z</time>
      </trkpt>
      <trkpt lat="42.8004060" lon="-5.6985130">
        <ele>1105.0</ele>
        <time>2019-07-21T07:31:53Z</time>
      </trkpt>
      <trkpt lat="42.8002970" lon="-5.6984900">
        <ele>1105.8</ele>
        <time>2019-07-21T07:31:56Z</time>
      </trkpt>
      <trkpt lat="42.8002620" lon="-5.6984820">
        <ele>1106.0</ele>
        <time>2019-07-21T07:31:57Z</time>
      </trkpt>
      <trkpt lat="42.8001500" lon="-5.6984610">
        <ele>1107.0</ele>
        <time>2019-07-21T07:32:00Z</time>
      </trkpt>
      <trkpt lat="42.8001160" lon="-5.6984600">
        <ele>1107.4</ele>
        <time>2019-07-21T07:32:01Z</time>
      </trkpt>
      <trkpt lat="42.8000230" lon="-5.6984790">
        <ele>1108.2</ele>
        <time>2019-07-21T07:32:04Z</time>
      </trkpt>
      <trkpt lat="42.7999890" lon="-5.6984940">
        <ele>1108.6</ele>
        <time>2019-07-21T07:32:05Z</time>
      </trkpt>
      <trkpt lat="42.7998990" lon="-5.6985860">
        <ele>1109.2</ele>
        <time>2019-07-21T07:32:08Z</time>
      </trkpt>
      <trkpt lat="42.7998650" lon="-5.6986850">
        <ele>1109.6</ele>
        <time>2019-07-21T07:32:10Z</time>
      </trkpt>
      <trkpt lat="42.7998630" lon="-5.6989240">
        <ele>1110.8</ele>
        <time>2019-07-21T07:32:15Z</time>
      </trkpt>
      <trkpt lat="42.7998850" lon="-5.6990880">
        <ele>1111.8</ele>
        <time>2019-07-21T07:32:19Z</time>
      </trkpt>
      <trkpt lat="42.7999060" lon="-5.6992620">
        <ele>1112.8</ele>
        <time>2019-07-21T07:32:23Z</time>
      </trkpt>
      <trkpt lat="42.7999280" lon="-5.6994360">
        <ele>1114.0</ele>
        <time>2019-07-21T07:32:27Z</time>
      </trkpt>
      <trkpt lat="42.7999380" lon="-5.6995220">
        <ele>1114.4</ele>
        <time>2019-07-21T07:32:29Z</time>
      </trkpt>
      <trkpt lat="42.7999610" lon="-5.6996460">
        <ele>1115.0</ele>
        <time>2019-07-21T07:32:32Z</time>
      </trkpt>
      <trkpt lat="42.7999800" lon="-5.6998540">
        <ele>1116.4</ele>
        <time>2019-07-21T07:32:37Z</time>
      </trkpt>
      <trkpt lat="42.7999720" lon="-5.7000730">
        <ele>1117.4</ele>
        <time>2019-07-21T07:32:42Z</time>
      </trkpt>
      <trkpt lat="42.7999750" lon="-5.7002590">
        <ele>1118.6</ele>
        <time>2019-07-21T07:32:46Z</time>
      </trkpt>
      <trkpt lat="42.7999570" lon="-5.7005110">
        <ele>1119.6</ele>
        <time>2019-07-21T07:32:51Z</time>
      </trkpt>
      <trkpt lat="42.7999460" lon="-5.7007440">
        <ele>1120.8</ele>
        <time>2019-07-21T07:32:56Z</time>
      </trkpt>
      <trkpt lat="42.7999480" lon="-5.7009260">
        <ele>1122.0</ele>
        <time>2019-07-21T07:33:00Z</time>
      </trkpt>
      <trkpt lat="42.7999490" lon="-5.7011080">
        <ele>1123.0</ele>
        <time>2019-07-21T07:33:04Z</time>
      </trkpt>
      <trkpt lat="42.7999530" lon="-5.7013890">
        <ele>1124.4</ele>
        <time>2019-07-21T07:33:10Z</time>
      </trkpt>
      <trkpt lat="42.7999300" lon="-5.7015840">
        <ele>1125.2</ele>
        <time>2019-07-21T07:33:14Z</time>
      </trkpt>
      <trkpt lat="42.7999200" lon="-5.7016320">
        <ele>1125.4</ele>
        <time>2019-07-21T07:33:15Z</time>
      </trkpt>
      <trkpt lat="42.7998650" lon="-5.7018160">
        <ele>1126.4</ele>
        <time>2019-07-21T07:33:19Z</time>
      </trkpt>
      <trkpt lat="42.7998340" lon="-5.7019090">
        <ele>1126.8</ele>
        <time>2019-07-21T07:33:21Z</time>
      </trkpt>
      <trkpt lat="42.7997880" lon="-5.7020970">
        <ele>1127.4</ele>
        <time>2019-07-21T07:33:25Z</time>
      </trkpt>
      <trkpt lat="42.7997800" lon="-5.7021430">
        <ele>1127.6</ele>
        <time>2019-07-21T07:33:26Z</time>
      </trkpt>
      <trkpt lat="42.7997530" lon="-5.7024290">
        <ele>1128.6</ele>
        <time>2019-07-21T07:33:32Z</time>
      </trkpt>
      <trkpt lat="42.7997640" lon="-5.7026630">
        <ele>1129.8</ele>
        <time>2019-07-21T07:33:37Z</time>
      </trkpt>
      <trkpt lat="42.7997370" lon="-5.7029050">
        <ele>1131.0</ele>
        <time>2019-07-21T07:33:42Z</time>
      </trkpt>
      <trkpt lat="42.7996690" lon="-5.7031260">
        <ele>1132.2</ele>
        <time>2019-07-21T07:33:47Z</time>
      </trkpt>
      <trkpt lat="42.7995720" lon="-5.7033750">
        <ele>1133.0</ele>
        <time>2019-07-21T07:33:53Z</time>
      </trkpt>
      <trkpt lat="42.7995560" lon="-5.7034150">
        <ele>1133.4</ele>
        <time>2019-07-21T07:33:54Z</time>
      </trkpt>
      <trkpt lat="42.7995000" lon="-5.7036040">
        <ele>1134.4</ele>
        <time>2019-07-21T07:33:58Z</time>
      </trkpt>
      <trkpt lat="42.7994730" lon="-5.7038110">
        <ele>1135.6</ele>
        <time>2019-07-21T07:34:02Z</time>
      </trkpt>
      <trkpt lat="42.7994750" lon="-5.7040750">
        <ele>1136.6</ele>
        <time>2019-07-21T07:34:07Z</time>
      </trkpt>
      <trkpt lat="42.7995020" lon="-5.7042760">
        <ele>1137.8</ele>
        <time>2019-07-21T07:34:11Z</time>
      </trkpt>
      <trkpt lat="42.7995310" lon="-5.7044740">
        <ele>1138.8</ele>
        <time>2019-07-21T07:34:15Z</time>
      </trkpt>
      <trkpt lat="42.7995390" lon="-5.7047400">
        <ele>1140.2</ele>
        <time>2019-07-21T07:34:20Z</time>
      </trkpt>
      <trkpt lat="42.7995110" lon="-5.7049880">
        <ele>1141.4</ele>
        <time>2019-07-21T07:34:25Z</time>
      </trkpt>
      <trkpt lat="42.7994660" lon="-5.7052210">
        <ele>1142.6</ele>
        <time>2019-07-21T07:34:30Z</time>
      </trkpt>
      <trkpt lat="42.7994310" lon="-5.7054040">
        <ele>1143.6</ele>
        <time>2019-07-21T07:34:34Z</time>
      </trkpt>
      <trkpt lat="42.7994090" lon="-5.7055960">
        <ele>1145.0</ele>
        <time>2019-07-21T07:34:38Z</time>
      </trkpt>
      <trkpt lat="42.7993770" lon="-5.7058470">
        <ele>1146.0</ele>
        <time>2019-07-21T07:34:43Z</time>
      </trkpt>
      <trkpt lat="42.7993450" lon="-5.7060900">
        <ele>1147.0</ele>
        <time>2019-07-21T07:34:48Z</time>
      </trkpt>
      <trkpt lat="42.7993370" lon="-5.7062840">
        <ele>1148.2</ele>
        <time>2019-07-21T07:34:52Z</time>
      </trkpt>
      <trkpt lat="42.7993420" lon="-5.7064760">
        <ele>1149.4</ele>
        <time>2019-07-21T07:34:56Z</time>
      </trkpt>
      <trkpt lat="42.7993390" lon="-5.7066680">
        <ele>1150.6</ele>
        <time>2019-07-21T07:35:00Z</time>
      </trkpt>
      <trkpt lat="42.7993370" lon="-5.7067190">
        <ele>1150.8</ele>
        <time>2019-07-21T07:35:01Z</time>
      </trkpt>
      <trkpt lat="42.7993200" lon="-5.7069240">
        <ele>1151.8</ele>
        <time>2019-07-21T07:35:05Z</time>
      </trkpt>
      <trkpt lat="42.7993170" lon="-5.7070820">
        <ele>1152.2</ele>
        <time>2019-07-21T07:35:08Z</time>
      </trkpt>
      <trkpt lat="42.7993260" lon="-5.7072540">
        <ele>1152.8</ele>
        <time>2019-07-21T07:35:11Z</time>
      </trkpt>
      <trkpt lat="42.7993310" lon="-5.7073130">
        <ele>1153.2</ele>
        <time>2019-07-21T07:35:12Z</time>
      </trkpt>
      <trkpt lat="42.7993460" lon="-5.7074320">
        <ele>1153.8</ele>
        <time>2019-07-21T07:35:14Z</time>
      </trkpt>
      <trkpt lat="42.7993910" lon="-5.7076730">
        <ele>1155.2</ele>
        <time>2019-07-21T07:35:18Z</time>
      </trkpt>
      <trkpt lat="42.7994430" lon="-5.7079330">
        <ele>1156.2</ele>
        <time>2019-07-21T07:35:22Z</time>
      </trkpt>
      <trkpt lat="42.7995140" lon="-5.7082840">
        <ele>1157.4</ele>
        <time>2019-07-21T07:35:27Z</time>
      </trkpt>
      <trkpt lat="42.7995900" lon="-5.7087000">
        <ele>1158.6</ele>
        <time>2019-07-21T07:35:33Z</time>
      </trkpt>
      <trkpt lat="42.7996490" lon="-5.7090460">
        <ele>1159.8</ele>
        <time>2019-07-21T07:35:38Z</time>
      </trkpt>
      <trkpt lat="42.7997110" lon="-5.7093190">
        <ele>1160.8</ele>
        <time>2019-07-21T07:35:42Z</time>
      </trkpt>
      <trkpt lat="42.7998000" lon="-5.7095800">
        <ele>1162.0</ele>
        <time>2019-07-21T07:35:46Z</time>
      </trkpt>
      <trkpt lat="42.7998500" lon="-5.7097030">
        <ele>1162.4</ele>
        <time>2019-07-21T07:35:48Z</time>
      </trkpt>
      <trkpt lat="42.7999270" lon="-5.7098820">
        <ele>1163.0</ele>
        <time>2019-07-21T07:35:51Z</time>
      </trkpt>
      <trkpt lat="42.8000250" lon="-5.7100970">
        <ele>1163.8</ele>
        <time>2019-07-21T07:35:55Z</time>
      </trkpt>
      <trkpt lat="42.8000470" lon="-5.7101470">
        <ele>1164.2</ele>
        <time>2019-07-21T07:35:56Z</time>
      </trkpt>
      <trkpt lat="42.8001140" lon="-5.7102940">
        <ele>1165.0</ele>
        <time>2019-07-21T07:35:59Z</time>
      </trkpt>
      <trkpt lat="42.8001650" lon="-5.7103940">
        <ele>1165.4</ele>
        <time>2019-07-21T07:36:01Z</time>
      </trkpt>
      <trkpt lat="42.8002940" lon="-5.7106300">
        <ele>1166.6</ele>
        <time>2019-07-21T07:36:06Z</time>
      </trkpt>
      <trkpt lat="42.8003980" lon="-5.7108100">
        <ele>1167.6</ele>
        <time>2019-07-21T07:36:10Z</time>
      </trkpt>
      <trkpt lat="42.8004700" lon="-5.7109630">
        <ele>1168.4</ele>
        <time>2019-07-21T07:36:13Z</time>
      </trkpt>
      <trkpt lat="42.8005020" lon="-5.7110780">
        <ele>1168.8</ele>
        <time>2019-07-21T07:36:15Z</time>
      </trkpt>
      <trkpt lat="42.8005400" lon="-5.7113700">
        <ele>1170.2</ele>
        <time>2019-07-21T07:36:20Z</time>
      </trkpt>
      <trkpt lat="42.8005430" lon="-5.7114310">
        <ele>1170.4</ele>
        <time>2019-07-21T07:36:21Z</time>
      </trkpt>
      <trkpt lat="42.8005280" lon="-5.7116170">
        <ele>1171.4</ele>
        <time>2019-07-21T07:36:24Z</time>
      </trkpt>
      <trkpt lat="42.8005160" lon="-5.7116820">
        <ele>1171.6</ele>
        <time>2019-07-21T07:36:25Z</time>
      </trkpt>
      <trkpt lat="42.8004700" lon="-5.7118140">
        <ele>1171.8</ele>
        <time>2019-07-21T07:36:27Z</time>
      </trkpt>
      <trkpt lat="42.8003860" lon="-5.7119250">
        <ele>1172.0</ele>
        <time>2019-07-21T07:36:29Z</time>
      </trkpt>
      <trkpt lat="42.8002720" lon="-5.7119880">
        <ele>1172.0</ele>
        <time>2019-07-21T07:36:31Z</time>
      </trkpt>
      <trkpt lat="42.8001470" lon="-5.7120150">
        <ele>1172.0</ele>
        <time>2019-07-21T07:36:33Z</time>
      </trkpt>
      <trkpt lat="42.8000230" lon="-5.7120040">
        <ele>1171.8</ele>
        <time>2019-07-21T07:36:35Z</time>
      </trkpt>
      <trkpt lat="42.7999080" lon="-5.7119520">
        <ele>1171.8</ele>
        <time>2019-07-21T07:36:37Z</time>
      </trkpt>
      <trkpt lat="42.7995810" lon="-5.7117170">
        <ele>1172.4</ele>
        <time>2019-07-21T07:36:43Z</time>
      </trkpt>
      <trkpt lat="42.7995230" lon="-5.7116960">
        <ele>1172.6</ele>
        <time>2019-07-21T07:36:44Z</time>
      </trkpt>
      <trkpt lat="42.7992490" lon="-5.7116790">
        <ele>1173.2</ele>
        <time>2019-07-21T07:36:49Z</time>
      </trkpt>
      <trkpt lat="42.7991500" lon="-5.7116910">
        <ele>1173.4</ele>
        <time>2019-07-21T07:36:51Z</time>
      </trkpt>
      <trkpt lat="42.7990570" lon="-5.7117090">
        <ele>1173.8</ele>
        <time>2019-07-21T07:36:53Z</time>
      </trkpt>
      <trkpt lat="42.7989340" lon="-5.7117670">
        <ele>1174.4</ele>
        <time>2019-07-21T07:36:56Z</time>
      </trkpt>
      <trkpt lat="42.7988970" lon="-5.7117970">
        <ele>1174.6</ele>
        <time>2019-07-21T07:36:57Z</time>
      </trkpt>
      <trkpt lat="42.7988360" lon="-5.7118660">
        <ele>1175.4</ele>
        <time>2019-07-21T07:36:59Z</time>
      </trkpt>
      <trkpt lat="42.7988100" lon="-5.7119010">
        <ele>1175.8</ele>
        <time>2019-07-21T07:37:00Z</time>
      </trkpt>
      <trkpt lat="42.7987580" lon="-5.7119730">
        <ele>1176.4</ele>
        <time>2019-07-21T07:37:02Z</time>
      </trkpt>
      <trkpt lat="42.7987360" lon="-5.7120160">
        <ele>1176.8</ele>
        <time>2019-07-21T07:37:03Z</time>
      </trkpt>
      <trkpt lat="42.7986790" lon="-5.7122040">
        <ele>1177.8</ele>
        <time>2019-07-21T07:37:07Z</time>
      </trkpt>
      <trkpt lat="42.7986150" lon="-5.7124600">
        <ele>1178.6</ele>
        <time>2019-07-21T07:37:12Z</time>
      </trkpt>
      <trkpt lat="42.7986030" lon="-5.7125110">
        <ele>1178.8</ele>
        <time>2019-07-21T07:37:13Z</time>
      </trkpt>
      <trkpt lat="42.7985740" lon="-5.7127120">
        <ele>1180.2</ele>
        <time>2019-07-21T07:37:17Z</time>
      </trkpt>
      <trkpt lat="42.7985550" lon="-5.7128640">
        <ele>1181.4</ele>
        <time>2019-07-21T07:37:20Z</time>
      </trkpt>
      <trkpt lat="42.7985500" lon="-5.7129660">
        <ele>1181.8</ele>
        <time>2019-07-21T07:37:22Z</time>
      </trkpt>
      <trkpt lat="42.7985510" lon="-5.7131290">
        <ele>1182.6</ele>
        <time>2019-07-21T07:37:25Z</time>
      </trkpt>
      <trkpt lat="42.7985520" lon="-5.7132440">
        <ele>1183.0</ele>
        <time>2019-07-21T07:37:27Z</time>
      </trkpt>
      <trkpt lat="42.7985500" lon="-5.7133610">
        <ele>1183.6</ele>
        <time>2019-07-21T07:37:29Z</time>
      </trkpt>
      <trkpt lat="42.7985590" lon="-5.7135380">
        <ele>1184.6</ele>
        <time>2019-07-21T07:37:32Z</time>
      </trkpt>
      <trkpt lat="42.7985580" lon="-5.7136550">
        <ele>1185.4</ele>
        <time>2019-07-21T07:37:34Z</time>
      </trkpt>
      <trkpt lat="42.7985390" lon="-5.7137790">
        <ele>1186.0</ele>
        <time>2019-07-21T07:37:36Z</time>
      </trkpt>
      <trkpt lat="42.7985210" lon="-5.7138410">
        <ele>1186.2</ele>
        <time>2019-07-21T07:37:37Z</time>
      </trkpt>
      <trkpt lat="42.7984370" lon="-5.7140340">
        <ele>1186.8</ele>
        <time>2019-07-21T07:37:40Z</time>
      </trkpt>
      <trkpt lat="42.7983100" lon="-5.7142940">
        <ele>1187.0</ele>
        <time>2019-07-21T07:37:44Z</time>
      </trkpt>
      <trkpt lat="42.7981270" lon="-5.7145680">
        <ele>1188.0</ele>
        <time>2019-07-21T07:37:49Z</time>
      </trkpt>
      <trkpt lat="42.7979670" lon="-5.7147020">
        <ele>1188.6</ele>
        <time>2019-07-21T07:37:52Z</time>
      </trkpt>
      <trkpt lat="42.7975750" lon="-5.7148530">
        <ele>1187.4</ele>
        <time>2019-07-21T07:37:58Z</time>
      </trkpt>
      <trkpt lat="42.7974420" lon="-5.7149130">
        <ele>1187.2</ele>
        <time>2019-07-21T07:38:00Z</time>
      </trkpt>
      <trkpt lat="42.7973270" lon="-5.7150110">
        <ele>1187.0</ele>
        <time>2019-07-21T07:38:02Z</time>
      </trkpt>
      <trkpt lat="42.7972470" lon="-5.7151600">
        <ele>1186.2</ele>
        <time>2019-07-21T07:38:04Z</time>
      </trkpt>
      <trkpt lat="42.7972300" lon="-5.7152470">
        <ele>1186.0</ele>
        <time>2019-07-21T07:38:05Z</time>
      </trkpt>
      <trkpt lat="42.7972260" lon="-5.7153350">
        <ele>1185.6</ele>
        <time>2019-07-21T07:38:06Z</time>
      </trkpt>
      <trkpt lat="42.7972610" lon="-5.7156530">
        <ele>1185.8</ele>
        <time>2019-07-21T07:38:10Z</time>
      </trkpt>
      <trkpt lat="42.7972980" lon="-5.7158640">
        <ele>1186.2</ele>
        <time>2019-07-21T07:38:13Z</time>
      </trkpt>
      <trkpt lat="42.7973640" lon="-5.7162280">
        <ele>1186.6</ele>
        <time>2019-07-21T07:38:18Z</time>
      </trkpt>
      <trkpt lat="42.7974150" lon="-5.7166740">
        <ele>1186.8</ele>
        <time>2019-07-21T07:38:24Z</time>
      </trkpt>
      <trkpt lat="42.7974190" lon="-5.7169070">
        <ele>1187.0</ele>
        <time>2019-07-21T07:38:27Z</time>
      </trkpt>
      <trkpt lat="42.7974100" lon="-5.7171420">
        <ele>1187.0</ele>
        <time>2019-07-21T07:38:30Z</time>
      </trkpt>
      <trkpt lat="42.7973590" lon="-5.7175460">
        <ele>1186.6</ele>
        <time>2019-07-21T07:38:35Z</time>
      </trkpt>
      <trkpt lat="42.7972680" lon="-5.7180880">
        <ele>1185.8</ele>
        <time>2019-07-21T07:38:41Z</time>
      </trkpt>
      <trkpt lat="42.7971590" lon="-5.7187310">
        <ele>1184.6</ele>
        <time>2019-07-21T07:38:47Z</time>
      </trkpt>
      <trkpt lat="42.7971390" lon="-5.7188470">
        <ele>1184.0</ele>
        <time>2019-07-21T07:38:48Z</time>
      </trkpt>
      <trkpt lat="42.7970940" lon="-5.7190890">
        <ele>1183.2</ele>
        <time>2019-07-21T07:38:50Z</time>
      </trkpt>
      <trkpt lat="42.7970180" lon="-5.7194930">
        <ele>1182.0</ele>
        <time>2019-07-21T07:38:53Z</time>
      </trkpt>
      <trkpt lat="42.7969620" lon="-5.7197870">
        <ele>1180.8</ele>
        <time>2019-07-21T07:38:55Z</time>
      </trkpt>
      <trkpt lat="42.7969010" lon="-5.7200970">
        <ele>1179.4</ele>
        <time>2019-07-21T07:38:57Z</time>
      </trkpt>
      <trkpt lat="42.7968710" lon="-5.7202590">
        <ele>1179.0</ele>
        <time>2019-07-21T07:38:58Z</time>
      </trkpt>
      <trkpt lat="42.7968390" lon="-5.7204260">
        <ele>1178.4</ele>
        <time>2019-07-21T07:38:59Z</time>
      </trkpt>
      <trkpt lat="42.7967760" lon="-5.7207680">
        <ele>1177.0</ele>
        <time>2019-07-21T07:39:01Z</time>
      </trkpt>
      <trkpt lat="42.7967140" lon="-5.7211220">
        <ele>1175.2</ele>
        <time>2019-07-21T07:39:03Z</time>
      </trkpt>
      <trkpt lat="42.7966680" lon="-5.7214730">
        <ele>1173.8</ele>
        <time>2019-07-21T07:39:05Z</time>
      </trkpt>
      <trkpt lat="42.7966520" lon="-5.7218020">
        <ele>1172.2</ele>
        <time>2019-07-21T07:39:07Z</time>
      </trkpt>
      <trkpt lat="42.7966520" lon="-5.7220730">
        <ele>1170.4</ele>
        <time>2019-07-21T07:39:09Z</time>
      </trkpt>
      <trkpt lat="42.7966480" lon="-5.7222920">
        <ele>1169.0</ele>
        <time>2019-07-21T07:39:11Z</time>
      </trkpt>
      <trkpt lat="42.7966470" lon="-5.7225200">
        <ele>1167.4</ele>
        <time>2019-07-21T07:39:13Z</time>
      </trkpt>
      <trkpt lat="42.7966490" lon="-5.7228870">
        <ele>1166.2</ele>
        <time>2019-07-21T07:39:16Z</time>
      </trkpt>
      <trkpt lat="42.7966550" lon="-5.7232920">
        <ele>1165.0</ele>
        <time>2019-07-21T07:39:19Z</time>
      </trkpt>
      <trkpt lat="42.7966640" lon="-5.7238880">
        <ele>1163.8</ele>
        <time>2019-07-21T07:39:23Z</time>
      </trkpt>
      <trkpt lat="42.7966770" lon="-5.7242030">
        <ele>1162.2</ele>
        <time>2019-07-21T07:39:25Z</time>
      </trkpt>
      <trkpt lat="42.7966840" lon="-5.7243470">
        <ele>1161.0</ele>
        <time>2019-07-21T07:39:26Z</time>
      </trkpt>
      <trkpt lat="42.7966870" lon="-5.7244770">
        <ele>1160.0</ele>
        <time>2019-07-21T07:39:27Z</time>
      </trkpt>
      <trkpt lat="42.7966900" lon="-5.7245960">
        <ele>1159.0</ele>
        <time>2019-07-21T07:39:28Z</time>
      </trkpt>
      <trkpt lat="42.7966940" lon="-5.7247060">
        <ele>1157.8</ele>
        <time>2019-07-21T07:39:29Z</time>
      </trkpt>
      <trkpt lat="42.7966960" lon="-5.7248150">
        <ele>1156.6</ele>
        <time>2019-07-21T07:39:30Z</time>
      </trkpt>
      <trkpt lat="42.7966900" lon="-5.7250230">
        <ele>1155.2</ele>
        <time>2019-07-21T07:39:32Z</time>
      </trkpt>
      <trkpt lat="42.7966750" lon="-5.7252360">
        <ele>1153.8</ele>
        <time>2019-07-21T07:39:34Z</time>
      </trkpt>
      <trkpt lat="42.7966600" lon="-5.7254580">
        <ele>1152.8</ele>
        <time>2019-07-21T07:39:36Z</time>
      </trkpt>
      <trkpt lat="42.7966180" lon="-5.7258180">
        <ele>1151.6</ele>
        <time>2019-07-21T07:39:39Z</time>
      </trkpt>
      <trkpt lat="42.7965990" lon="-5.7259450">
        <ele>1151.0</ele>
        <time>2019-07-21T07:39:40Z</time>
      </trkpt>
      <trkpt lat="42.7965790" lon="-5.7260710">
        <ele>1150.4</ele>
        <time>2019-07-21T07:39:41Z</time>
      </trkpt>
      <trkpt lat="42.7965330" lon="-5.7263250">
        <ele>1149.4</ele>
        <time>2019-07-21T07:39:43Z</time>
      </trkpt>
      <trkpt lat="42.7964760" lon="-5.7265800">
        <ele>1148.2</ele>
        <time>2019-07-21T07:39:45Z</time>
      </trkpt>
      <trkpt lat="42.7964210" lon="-5.7268160">
        <ele>1146.8</ele>
        <time>2019-07-21T07:39:47Z</time>
      </trkpt>
      <trkpt lat="42.7963750" lon="-5.7270400">
        <ele>1144.8</ele>
        <time>2019-07-21T07:39:49Z</time>
      </trkpt>
      <trkpt lat="42.7963300" lon="-5.7272640">
        <ele>1143.0</ele>
        <time>2019-07-21T07:39:51Z</time>
      </trkpt>
      <trkpt lat="42.7962830" lon="-5.7274940">
        <ele>1141.8</ele>
        <time>2019-07-21T07:39:53Z</time>
      </trkpt>
      <trkpt lat="42.7962490" lon="-5.7277540">
        <ele>1140.6</ele>
        <time>2019-07-21T07:39:55Z</time>
      </trkpt>
      <trkpt lat="42.7962320" lon="-5.7280220">
        <ele>1139.4</ele>
        <time>2019-07-21T07:39:57Z</time>
      </trkpt>
      <trkpt lat="42.7962340" lon="-5.7282950">
        <ele>1138.0</ele>
        <time>2019-07-21T07:39:59Z</time>
      </trkpt>
      <trkpt lat="42.7962460" lon="-5.7285550">
        <ele>1136.2</ele>
        <time>2019-07-21T07:40:01Z</time>
      </trkpt>
      <trkpt lat="42.7962620" lon="-5.7287950">
        <ele>1134.2</ele>
        <time>2019-07-21T07:40:03Z</time>
      </trkpt>
      <trkpt lat="42.7962820" lon="-5.7290250">
        <ele>1132.4</ele>
        <time>2019-07-21T07:40:05Z</time>
      </trkpt>
      <trkpt lat="42.7963070" lon="-5.7292520">
        <ele>1130.8</ele>
        <time>2019-07-21T07:40:07Z</time>
      </trkpt>
      <trkpt lat="42.7963310" lon="-5.7294850">
        <ele>1129.2</ele>
        <time>2019-07-21T07:40:09Z</time>
      </trkpt>
      <trkpt lat="42.7963530" lon="-5.7297370">
        <ele>1128.0</ele>
        <time>2019-07-21T07:40:11Z</time>
      </trkpt>
      <trkpt lat="42.7963800" lon="-5.7299930">
        <ele>1126.8</ele>
        <time>2019-07-21T07:40:13Z</time>
      </trkpt>
      <trkpt lat="42.7964080" lon="-5.7302450">
        <ele>1125.6</ele>
        <time>2019-07-21T07:40:15Z</time>
      </trkpt>
      <trkpt lat="42.7964320" lon="-5.7305090">
        <ele>1124.4</ele>
        <time>2019-07-21T07:40:17Z</time>
      </trkpt>
      <trkpt lat="42.7964690" lon="-5.7309180">
        <ele>1123.0</ele>
        <time>2019-07-21T07:40:20Z</time>
      </trkpt>
      <trkpt lat="42.7965000" lon="-5.7313060">
        <ele>1121.4</ele>
        <time>2019-07-21T07:40:23Z</time>
      </trkpt>
      <trkpt lat="42.7965020" lon="-5.7315650">
        <ele>1120.2</ele>
        <time>2019-07-21T07:40:25Z</time>
      </trkpt>
      <trkpt lat="42.7964830" lon="-5.7318330">
        <ele>1119.0</ele>
        <time>2019-07-21T07:40:27Z</time>
      </trkpt>
      <trkpt lat="42.7964440" lon="-5.7321020">
        <ele>1117.8</ele>
        <time>2019-07-21T07:40:29Z</time>
      </trkpt>
      <trkpt lat="42.7963810" lon="-5.7323640">
        <ele>1116.6</ele>
        <time>2019-07-21T07:40:31Z</time>
      </trkpt>
      <trkpt lat="42.7962580" lon="-5.7327130">
        <ele>1115.2</ele>
        <time>2019-07-21T07:40:34Z</time>
      </trkpt>
      <trkpt lat="42.7961630" lon="-5.7329170">
        <ele>1113.8</ele>
        <time>2019-07-21T07:40:36Z</time>
      </trkpt>
      <trkpt lat="42.7960490" lon="-5.7331140">
        <ele>1111.8</ele>
        <time>2019-07-21T07:40:38Z</time>
      </trkpt>
      <trkpt lat="42.7959120" lon="-5.7333000">
        <ele>1110.4</ele>
        <time>2019-07-21T07:40:40Z</time>
      </trkpt>
      <trkpt lat="42.7957540" lon="-5.7334780">
        <ele>1109.2</ele>
        <time>2019-07-21T07:40:42Z</time>
      </trkpt>
      <trkpt lat="42.7955770" lon="-5.7336390">
        <ele>1107.8</ele>
        <time>2019-07-21T07:40:44Z</time>
      </trkpt>
      <trkpt lat="42.7953910" lon="-5.7337650">
        <ele>1106.6</ele>
        <time>2019-07-21T07:40:46Z</time>
      </trkpt>
      <trkpt lat="42.7951960" lon="-5.7338600">
        <ele>1105.0</ele>
        <time>2019-07-21T07:40:48Z</time>
      </trkpt>
      <trkpt lat="42.7949960" lon="-5.7339390">
        <ele>1103.8</ele>
        <time>2019-07-21T07:40:50Z</time>
      </trkpt>
      <trkpt lat="42.7947950" lon="-5.7340260">
        <ele>1102.8</ele>
        <time>2019-07-21T07:40:52Z</time>
      </trkpt>
      <trkpt lat="42.7944930" lon="-5.7341910">
        <ele>1101.2</ele>
        <time>2019-07-21T07:40:55Z</time>
      </trkpt>
      <trkpt lat="42.7942960" lon="-5.7343490">
        <ele>1099.4</ele>
        <time>2019-07-21T07:40:57Z</time>
      </trkpt>
      <trkpt lat="42.7941080" lon="-5.7345280">
        <ele>1097.8</ele>
        <time>2019-07-21T07:40:59Z</time>
      </trkpt>
      <trkpt lat="42.7940200" lon="-5.7346220">
        <ele>1097.2</ele>
        <time>2019-07-21T07:41:00Z</time>
      </trkpt>
      <trkpt lat="42.7939360" lon="-5.7347170">
        <ele>1096.6</ele>
        <time>2019-07-21T07:41:01Z</time>
      </trkpt>
      <trkpt lat="42.7937700" lon="-5.7349010">
        <ele>1095.6</ele>
        <time>2019-07-21T07:41:03Z</time>
      </trkpt>
      <trkpt lat="42.7934750" lon="-5.7352300">
        <ele>1094.6</ele>
        <time>2019-07-21T07:41:07Z</time>
      </trkpt>
      <trkpt lat="42.7934060" lon="-5.7353070">
        <ele>1094.2</ele>
        <time>2019-07-21T07:41:08Z</time>
      </trkpt>
      <trkpt lat="42.7932640" lon="-5.7354640">
        <ele>1093.6</ele>
        <time>2019-07-21T07:41:10Z</time>
      </trkpt>
      <trkpt lat="42.7931220" lon="-5.7356200">
        <ele>1093.0</ele>
        <time>2019-07-21T07:41:12Z</time>
      </trkpt>
      <trkpt lat="42.7929820" lon="-5.7357780">
        <ele>1092.4</ele>
        <time>2019-07-21T07:41:14Z</time>
      </trkpt>
      <trkpt lat="42.7928420" lon="-5.7359350">
        <ele>1091.8</ele>
        <time>2019-07-21T07:41:16Z</time>
      </trkpt>
      <trkpt lat="42.7926280" lon="-5.7361650">
        <ele>1090.6</ele>
        <time>2019-07-21T07:41:19Z</time>
      </trkpt>
      <trkpt lat="42.7923490" lon="-5.7364770">
        <ele>1089.4</ele>
        <time>2019-07-21T07:41:23Z</time>
      </trkpt>
      <trkpt lat="42.7921470" lon="-5.7367080">
        <ele>1088.2</ele>
        <time>2019-07-21T07:41:26Z</time>
      </trkpt>
      <trkpt lat="42.7919700" lon="-5.7369040">
        <ele>1087.2</ele>
        <time>2019-07-21T07:41:29Z</time>
      </trkpt>
      <trkpt lat="42.7919110" lon="-5.7369740">
        <ele>1087.0</ele>
        <time>2019-07-21T07:41:30Z</time>
      </trkpt>
      <trkpt lat="42.7917860" lon="-5.7371200">
        <ele>1086.4</ele>
        <time>2019-07-21T07:41:32Z</time>
      </trkpt>
      <trkpt lat="42.7916500" lon="-5.7372690">
        <ele>1085.8</ele>
        <time>2019-07-21T07:41:34Z</time>
      </trkpt>
      <trkpt lat="42.7913600" lon="-5.7375880">
        <ele>1084.4</ele>
        <time>2019-07-21T07:41:38Z</time>
      </trkpt>
      <trkpt lat="42.7911360" lon="-5.7378380">
        <ele>1083.2</ele>
        <time>2019-07-21T07:41:41Z</time>
      </trkpt>
      <trkpt lat="42.7909210" lon="-5.7380790">
        <ele>1082.0</ele>
        <time>2019-07-21T07:41:44Z</time>
      </trkpt>
      <trkpt lat="42.7906600" lon="-5.7383640">
        <ele>1080.6</ele>
        <time>2019-07-21T07:41:48Z</time>
      </trkpt>
      <trkpt lat="42.7904770" lon="-5.7385710">
        <ele>1079.2</ele>
        <time>2019-07-21T07:41:51Z</time>
      </trkpt>
      <trkpt lat="42.7902200" lon="-5.7388650">
        <ele>1078.0</ele>
        <time>2019-07-21T07:41:55Z</time>
      </trkpt>
      <trkpt lat="42.7900200" lon="-5.7391190">
        <ele>1076.8</ele>
        <time>2019-07-21T07:41:58Z</time>
      </trkpt>
      <trkpt lat="42.7898380" lon="-5.7394200">
        <ele>1075.4</ele>
        <time>2019-07-21T07:42:01Z</time>
      </trkpt>
      <trkpt lat="42.7896900" lon="-5.7397760">
        <ele>1074.2</ele>
        <time>2019-07-21T07:42:04Z</time>
      </trkpt>
      <trkpt lat="42.7896080" lon="-5.7400210">
        <ele>1072.8</ele>
        <time>2019-07-21T07:42:06Z</time>
      </trkpt>
      <trkpt lat="42.7895430" lon="-5.7402650">
        <ele>1071.0</ele>
        <time>2019-07-21T07:42:08Z</time>
      </trkpt>
      <trkpt lat="42.7894650" lon="-5.7406380">
        <ele>1069.6</ele>
        <time>2019-07-21T07:42:11Z</time>
      </trkpt>
      <trkpt lat="42.7894250" lon="-5.7408930">
        <ele>1068.6</ele>
        <time>2019-07-21T07:42:13Z</time>
      </trkpt>
      <trkpt lat="42.7893870" lon="-5.7411400">
        <ele>1067.4</ele>
        <time>2019-07-21T07:42:15Z</time>
      </trkpt>
      <trkpt lat="42.7893480" lon="-5.7413660">
        <ele>1066.4</ele>
        <time>2019-07-21T07:42:17Z</time>
      </trkpt>
      <trkpt lat="42.7893110" lon="-5.7415900">
        <ele>1065.0</ele>
        <time>2019-07-21T07:42:19Z</time>
      </trkpt>
      <trkpt lat="42.7892750" lon="-5.7418250">
        <ele>1064.0</ele>
        <time>2019-07-21T07:42:21Z</time>
      </trkpt>
      <trkpt lat="42.7892560" lon="-5.7419480">
        <ele>1063.8</ele>
        <time>2019-07-21T07:42:22Z</time>
      </trkpt>
      <trkpt lat="42.7891960" lon="-5.7423180">
        <ele>1063.0</ele>
        <time>2019-07-21T07:42:25Z</time>
      </trkpt>
      <trkpt lat="42.7891570" lon="-5.7425710">
        <ele>1062.4</ele>
        <time>2019-07-21T07:42:27Z</time>
      </trkpt>
      <trkpt lat="42.7891150" lon="-5.7428300">
        <ele>1061.0</ele>
        <time>2019-07-21T07:42:29Z</time>
      </trkpt>
      <trkpt lat="42.7890500" lon="-5.7432300">
        <ele>1059.6</ele>
        <time>2019-07-21T07:42:32Z</time>
      </trkpt>
      <trkpt lat="42.7890080" lon="-5.7434940">
        <ele>1058.4</ele>
        <time>2019-07-21T07:42:34Z</time>
      </trkpt>
      <trkpt lat="42.7889410" lon="-5.7438670">
        <ele>1057.0</ele>
        <time>2019-07-21T07:42:37Z</time>
      </trkpt>
      <trkpt lat="42.7888320" lon="-5.7443220">
        <ele>1055.6</ele>
        <time>2019-07-21T07:42:41Z</time>
      </trkpt>
      <trkpt lat="42.7886150" lon="-5.7448640">
        <ele>1054.2</ele>
        <time>2019-07-21T07:42:46Z</time>
      </trkpt>
      <trkpt lat="42.7884910" lon="-5.7450820">
        <ele>1052.8</ele>
        <time>2019-07-21T07:42:48Z</time>
      </trkpt>
      <trkpt lat="42.7882610" lon="-5.7453940">
        <ele>1051.4</ele>
        <time>2019-07-21T07:42:51Z</time>
      </trkpt>
      <trkpt lat="42.7880040" lon="-5.7456740">
        <ele>1049.8</ele>
        <time>2019-07-21T07:42:54Z</time>
      </trkpt>
      <trkpt lat="42.7879190" lon="-5.7457640">
        <ele>1048.8</ele>
        <time>2019-07-21T07:42:55Z</time>
      </trkpt>
      <trkpt lat="42.7878360" lon="-5.7458580">
        <ele>1047.6</ele>
        <time>2019-07-21T07:42:56Z</time>
      </trkpt>
      <trkpt lat="42.7876810" lon="-5.7460580">
        <ele>1045.8</ele>
        <time>2019-07-21T07:42:58Z</time>
      </trkpt>
      <trkpt lat="42.7875450" lon="-5.7462960">
        <ele>1044.4</ele>
        <time>2019-07-21T07:43:00Z</time>
      </trkpt>
      <trkpt lat="42.7874880" lon="-5.7464310">
        <ele>1043.2</ele>
        <time>2019-07-21T07:43:01Z</time>
      </trkpt>
      <trkpt lat="42.7874050" lon="-5.7467180">
        <ele>1041.4</ele>
        <time>2019-07-21T07:43:03Z</time>
      </trkpt>
      <trkpt lat="42.7873620" lon="-5.7470130">
        <ele>1040.2</ele>
        <time>2019-07-21T07:43:05Z</time>
      </trkpt>
      <trkpt lat="42.7873430" lon="-5.7474450">
        <ele>1039.2</ele>
        <time>2019-07-21T07:43:08Z</time>
      </trkpt>
      <trkpt lat="42.7873440" lon="-5.7477300">
        <ele>1038.6</ele>
        <time>2019-07-21T07:43:10Z</time>
      </trkpt>
      <trkpt lat="42.7873460" lon="-5.7478740">
        <ele>1038.0</ele>
        <time>2019-07-21T07:43:11Z</time>
      </trkpt>
      <trkpt lat="42.7873490" lon="-5.7481620">
        <ele>1037.0</ele>
        <time>2019-07-21T07:43:13Z</time>
      </trkpt>
      <trkpt lat="42.7873460" lon="-5.7484510">
        <ele>1036.0</ele>
        <time>2019-07-21T07:43:15Z</time>
      </trkpt>
      <trkpt lat="42.7873450" lon="-5.7485940">
        <ele>1035.8</ele>
        <time>2019-07-21T07:43:16Z</time>
      </trkpt>
      <trkpt lat="42.7873440" lon="-5.7490120">
        <ele>1035.0</ele>
        <time>2019-07-21T07:43:19Z</time>
      </trkpt>
      <trkpt lat="42.7873420" lon="-5.7491450">
        <ele>1034.8</ele>
        <time>2019-07-21T07:43:20Z</time>
      </trkpt>
      <trkpt lat="42.7873280" lon="-5.7499120">
        <ele>1034.4</ele>
        <time>2019-07-21T07:43:26Z</time>
      </trkpt>
      <trkpt lat="42.7873090" lon="-5.7504770">
        <ele>1033.6</ele>
        <time>2019-07-21T07:43:31Z</time>
      </trkpt>
      <trkpt lat="42.7872830" lon="-5.7509530">
        <ele>1033.0</ele>
        <time>2019-07-21T07:43:35Z</time>
      </trkpt>
      <trkpt lat="42.7872640" lon="-5.7513370">
        <ele>1032.2</ele>
        <time>2019-07-21T07:43:38Z</time>
      </trkpt>
      <trkpt lat="42.7872560" lon="-5.7514720">
        <ele>1032.0</ele>
        <time>2019-07-21T07:43:39Z</time>
      </trkpt>
      <trkpt lat="42.7872490" lon="-5.7516080">
        <ele>1031.4</ele>
        <time>2019-07-21T07:43:40Z</time>
      </trkpt>
      <trkpt lat="42.7872400" lon="-5.7517460">
        <ele>1030.8</ele>
        <time>2019-07-21T07:43:41Z</time>
      </trkpt>
      <trkpt lat="42.7872230" lon="-5.7520220">
        <ele>1029.8</ele>
        <time>2019-07-21T07:43:43Z</time>
      </trkpt>
      <trkpt lat="42.7872030" lon="-5.7522980">
        <ele>1028.4</ele>
        <time>2019-07-21T07:43:45Z</time>
      </trkpt>
      <trkpt lat="42.7871640" lon="-5.7525610">
        <ele>1027.0</ele>
        <time>2019-07-21T07:43:47Z</time>
      </trkpt>
      <trkpt lat="42.7871100" lon="-5.7527900">
        <ele>1026.2</ele>
        <time>2019-07-21T07:43:49Z</time>
      </trkpt>
      <trkpt lat="42.7870840" lon="-5.7528870">
        <ele>1025.8</ele>
        <time>2019-07-21T07:43:50Z</time>
      </trkpt>
      <trkpt lat="42.7870370" lon="-5.7530730">
        <ele>1024.6</ele>
        <time>2019-07-21T07:43:52Z</time>
      </trkpt>
      <trkpt lat="42.7869640" lon="-5.7533610">
        <ele>1023.4</ele>
        <time>2019-07-21T07:43:55Z</time>
      </trkpt>
      <trkpt lat="42.7869100" lon="-5.7535550">
        <ele>1023.0</ele>
        <time>2019-07-21T07:43:57Z</time>
      </trkpt>
      <trkpt lat="42.7868300" lon="-5.7538580">
        <ele>1022.2</ele>
        <time>2019-07-21T07:44:00Z</time>
      </trkpt>
      <trkpt lat="42.7867750" lon="-5.7540730">
        <ele>1021.6</ele>
        <time>2019-07-21T07:44:02Z</time>
      </trkpt>
      <trkpt lat="42.7866540" lon="-5.7545170">
        <ele>1021.0</ele>
        <time>2019-07-21T07:44:06Z</time>
      </trkpt>
      <trkpt lat="42.7865280" lon="-5.7550020">
        <ele>1020.2</ele>
        <time>2019-07-21T07:44:10Z</time>
      </trkpt>
      <trkpt lat="42.7864580" lon="-5.7552550">
        <ele>1019.6</ele>
        <time>2019-07-21T07:44:12Z</time>
      </trkpt>
      <trkpt lat="42.7863880" lon="-5.7555140">
        <ele>1018.6</ele>
        <time>2019-07-21T07:44:14Z</time>
      </trkpt>
      <trkpt lat="42.7863160" lon="-5.7557780">
        <ele>1017.6</ele>
        <time>2019-07-21T07:44:16Z</time>
      </trkpt>
      <trkpt lat="42.7862420" lon="-5.7560490">
        <ele>1016.4</ele>
        <time>2019-07-21T07:44:18Z</time>
      </trkpt>
      <trkpt lat="42.7860960" lon="-5.7565760">
        <ele>1015.4</ele>
        <time>2019-07-21T07:44:22Z</time>
      </trkpt>
      <trkpt lat="42.7858440" lon="-5.7572520">
        <ele>1014.6</ele>
        <time>2019-07-21T07:44:28Z</time>
      </trkpt>
      <trkpt lat="42.7857280" lon="-5.7576260">
        <ele>1015.0</ele>
        <time>2019-07-21T07:44:32Z</time>
      </trkpt>
      <trkpt lat="42.7856430" lon="-5.7582710">
        <ele>1014.2</ele>
        <time>2019-07-21T07:44:38Z</time>
      </trkpt>
      <trkpt lat="42.7856240" lon="-5.7585040">
        <ele>1013.0</ele>
        <time>2019-07-21T07:44:40Z</time>
      </trkpt>
      <trkpt lat="42.7856000" lon="-5.7587380">
        <ele>1011.8</ele>
        <time>2019-07-21T07:44:42Z</time>
      </trkpt>
      <trkpt lat="42.7855680" lon="-5.7591090">
        <ele>1010.4</ele>
        <time>2019-07-21T07:44:45Z</time>
      </trkpt>
      <trkpt lat="42.7855430" lon="-5.7594980">
        <ele>1009.0</ele>
        <time>2019-07-21T07:44:48Z</time>
      </trkpt>
      <trkpt lat="42.7855280" lon="-5.7597600">
        <ele>1007.4</ele>
        <time>2019-07-21T07:44:50Z</time>
      </trkpt>
      <trkpt lat="42.7855100" lon="-5.7600300">
        <ele>1006.4</ele>
        <time>2019-07-21T07:44:52Z</time>
      </trkpt>
      <trkpt lat="42.7854920" lon="-5.7604660">
        <ele>1005.2</ele>
        <time>2019-07-21T07:44:55Z</time>
      </trkpt>
      <trkpt lat="42.7854830" lon="-5.7609270">
        <ele>1003.8</ele>
        <time>2019-07-21T07:44:58Z</time>
      </trkpt>
      <trkpt lat="42.7854750" lon="-5.7612450">
        <ele>1003.0</ele>
        <time>2019-07-21T07:45:00Z</time>
      </trkpt>
      <trkpt lat="42.7854730" lon="-5.7614070">
        <ele>1002.4</ele>
        <time>2019-07-21T07:45:01Z</time>
      </trkpt>
      <trkpt lat="42.7854750" lon="-5.7617380">
        <ele>1001.0</ele>
        <time>2019-07-21T07:45:03Z</time>
      </trkpt>
      <trkpt lat="42.7854830" lon="-5.7620700">
        <ele>1000.0</ele>
        <time>2019-07-21T07:45:05Z</time>
      </trkpt>
      <trkpt lat="42.7854910" lon="-5.7624050">
        <ele>999.2</ele>
        <time>2019-07-21T07:45:07Z</time>
      </trkpt>
      <trkpt lat="42.7855040" lon="-5.7627370">
        <ele>999.0</ele>
        <time>2019-07-21T07:45:09Z</time>
      </trkpt>
      <trkpt lat="42.7855100" lon="-5.7629040">
        <ele>999.0</ele>
        <time>2019-07-21T07:45:10Z</time>
      </trkpt>
      <trkpt lat="42.7855360" lon="-5.7634120">
        <ele>998.6</ele>
        <time>2019-07-21T07:45:13Z</time>
      </trkpt>
      <trkpt lat="42.7855620" lon="-5.7639210">
        <ele>998.4</ele>
        <time>2019-07-21T07:45:16Z</time>
      </trkpt>
      <trkpt lat="42.7855770" lon="-5.7642550">
        <ele>998.0</ele>
        <time>2019-07-21T07:45:18Z</time>
      </trkpt>
      <trkpt lat="42.7855860" lon="-5.7645780">
        <ele>997.6</ele>
        <time>2019-07-21T07:45:20Z</time>
      </trkpt>
      <trkpt lat="42.7856040" lon="-5.7650500">
        <ele>996.6</ele>
        <time>2019-07-21T07:45:23Z</time>
      </trkpt>
      <trkpt lat="42.7856360" lon="-5.7658970">
        <ele>995.6</ele>
        <time>2019-07-21T07:45:29Z</time>
      </trkpt>
      <trkpt lat="42.7856420" lon="-5.7661580">
        <ele>995.2</ele>
        <time>2019-07-21T07:45:31Z</time>
      </trkpt>
      <trkpt lat="42.7856490" lon="-5.7665370">
        <ele>994.2</ele>
        <time>2019-07-21T07:45:34Z</time>
      </trkpt>
      <trkpt lat="42.7856530" lon="-5.7666630">
        <ele>994.0</ele>
        <time>2019-07-21T07:45:35Z</time>
      </trkpt>
      <trkpt lat="42.7856580" lon="-5.7667870">
        <ele>994.0</ele>
        <time>2019-07-21T07:45:36Z</time>
      </trkpt>
      <trkpt lat="42.7856610" lon="-5.7669090">
        <ele>993.8</ele>
        <time>2019-07-21T07:45:37Z</time>
      </trkpt>
      <trkpt lat="42.7856650" lon="-5.7670320">
        <ele>993.8</ele>
        <time>2019-07-21T07:45:38Z</time>
      </trkpt>
      <trkpt lat="42.7856750" lon="-5.7672680">
        <ele>993.4</ele>
        <time>2019-07-21T07:45:40Z</time>
      </trkpt>
      <trkpt lat="42.7856780" lon="-5.7674980">
        <ele>993.0</ele>
        <time>2019-07-21T07:45:42Z</time>
      </trkpt>
      <trkpt lat="42.7856940" lon="-5.7681670">
        <ele>992.2</ele>
        <time>2019-07-21T07:45:48Z</time>
      </trkpt>
      <trkpt lat="42.7856980" lon="-5.7683840">
        <ele>992.0</ele>
        <time>2019-07-21T07:45:50Z</time>
      </trkpt>
      <trkpt lat="42.7856990" lon="-5.7684920">
        <ele>991.8</ele>
        <time>2019-07-21T07:45:51Z</time>
      </trkpt>
      <trkpt lat="42.7857200" lon="-5.7691440">
        <ele>991.4</ele>
        <time>2019-07-21T07:45:57Z</time>
      </trkpt>
      <trkpt lat="42.7857300" lon="-5.7698020">
        <ele>991.4</ele>
        <time>2019-07-21T07:46:03Z</time>
      </trkpt>
      <trkpt lat="42.7857510" lon="-5.7704590">
        <ele>991.4</ele>
        <time>2019-07-21T07:46:09Z</time>
      </trkpt>
      <trkpt lat="42.7857610" lon="-5.7706760">
        <ele>991.4</ele>
        <time>2019-07-21T07:46:11Z</time>
      </trkpt>
      <trkpt lat="42.7857820" lon="-5.7709960">
        <ele>991.4</ele>
        <time>2019-07-21T07:46:14Z</time>
      </trkpt>
      <trkpt lat="42.7858260" lon="-5.7716090">
        <ele>991.4</ele>
        <time>2019-07-21T07:46:20Z</time>
      </trkpt>
      <trkpt lat="42.7858660" lon="-5.7721920">
        <ele>991.4</ele>
        <time>2019-07-21T07:46:26Z</time>
      </trkpt>
      <trkpt lat="42.7858760" lon="-5.7723870">
        <ele>991.6</ele>
        <time>2019-07-21T07:46:28Z</time>
      </trkpt>
      <trkpt lat="42.7858820" lon="-5.7725810">
        <ele>991.8</ele>
        <time>2019-07-21T07:46:30Z</time>
      </trkpt>
      <trkpt lat="42.7858810" lon="-5.7731360">
        <ele>992.6</ele>
        <time>2019-07-21T07:46:36Z</time>
      </trkpt>
      <trkpt lat="42.7858640" lon="-5.7736720">
        <ele>993.0</ele>
        <time>2019-07-21T07:46:42Z</time>
      </trkpt>
      <trkpt lat="42.7858260" lon="-5.7741030">
        <ele>993.8</ele>
        <time>2019-07-21T07:46:47Z</time>
      </trkpt>
      <trkpt lat="42.7857990" lon="-5.7743610">
        <ele>994.2</ele>
        <time>2019-07-21T07:46:50Z</time>
      </trkpt>
      <trkpt lat="42.7857440" lon="-5.7748800">
        <ele>994.8</ele>
        <time>2019-07-21T07:46:56Z</time>
      </trkpt>
      <trkpt lat="42.7856910" lon="-5.7754290">
        <ele>994.8</ele>
        <time>2019-07-21T07:47:02Z</time>
      </trkpt>
      <trkpt lat="42.7856400" lon="-5.7759100">
        <ele>994.8</ele>
        <time>2019-07-21T07:47:07Z</time>
      </trkpt>
      <trkpt lat="42.7855840" lon="-5.7764260">
        <ele>994.2</ele>
        <time>2019-07-21T07:47:12Z</time>
      </trkpt>
      <trkpt lat="42.7855110" lon="-5.7770980">
        <ele>993.8</ele>
        <time>2019-07-21T07:47:18Z</time>
      </trkpt>
      <trkpt lat="42.7854740" lon="-5.7774390">
        <ele>993.4</ele>
        <time>2019-07-21T07:47:21Z</time>
      </trkpt>
      <trkpt lat="42.7854020" lon="-5.7781040">
        <ele>993.0</ele>
        <time>2019-07-21T07:47:27Z</time>
      </trkpt>
      <trkpt lat="42.7853090" lon="-5.7787400">
        <ele>992.0</ele>
        <time>2019-07-21T07:47:33Z</time>
      </trkpt>
      <trkpt lat="42.7853120" lon="-5.7788380">
        <ele>992.0</ele>
        <time>2019-07-21T07:47:34Z</time>
      </trkpt>
      <trkpt lat="42.7853310" lon="-5.7790290">
        <ele>992.0</ele>
        <time>2019-07-21T07:47:36Z</time>
      </trkpt>
      <trkpt lat="42.7852890" lon="-5.7792050">
        <ele>991.8</ele>
        <time>2019-07-21T07:47:38Z</time>
      </trkpt>
      <trkpt lat="42.7851490" lon="-5.7794410">
        <ele>991.4</ele>
        <time>2019-07-21T07:47:41Z</time>
      </trkpt>
      <trkpt lat="42.7850820" lon="-5.7796340">
        <ele>991.4</ele>
        <time>2019-07-21T07:47:43Z</time>
      </trkpt>
      <trkpt lat="42.7850310" lon="-5.7798430">
        <ele>991.2</ele>
        <time>2019-07-21T07:47:45Z</time>
      </trkpt>
      <trkpt lat="42.7849820" lon="-5.7800550">
        <ele>991.0</ele>
        <time>2019-07-21T07:47:47Z</time>
      </trkpt>
      <trkpt lat="42.7848400" lon="-5.7806930">
        <ele>990.2</ele>
        <time>2019-07-21T07:47:53Z</time>
      </trkpt>
      <trkpt lat="42.7847060" lon="-5.7812770">
        <ele>990.4</ele>
        <time>2019-07-21T07:47:59Z</time>
      </trkpt>
      <trkpt lat="42.7846210" lon="-5.7816520">
        <ele>990.8</ele>
        <time>2019-07-21T07:48:03Z</time>
      </trkpt>
      <trkpt lat="42.7845060" lon="-5.7821660">
        <ele>991.4</ele>
        <time>2019-07-21T07:48:09Z</time>
      </trkpt>
      <trkpt lat="42.7844130" lon="-5.7826790">
        <ele>991.8</ele>
        <time>2019-07-21T07:48:15Z</time>
      </trkpt>
      <trkpt lat="42.7844030" lon="-5.7828720">
        <ele>992.0</ele>
        <time>2019-07-21T07:48:17Z</time>
      </trkpt>
      <trkpt lat="42.7843990" lon="-5.7835000">
        <ele>991.6</ele>
        <time>2019-07-21T07:48:23Z</time>
      </trkpt>
      <trkpt lat="42.7843900" lon="-5.7838400">
        <ele>990.6</ele>
        <time>2019-07-21T07:48:26Z</time>
      </trkpt>
      <trkpt lat="42.7843640" lon="-5.7845560">
        <ele>989.4</ele>
        <time>2019-07-21T07:48:32Z</time>
      </trkpt>
      <trkpt lat="42.7843570" lon="-5.7850680">
        <ele>988.2</ele>
        <time>2019-07-21T07:48:36Z</time>
      </trkpt>
      <trkpt lat="42.7843480" lon="-5.7854700">
        <ele>987.6</ele>
        <time>2019-07-21T07:48:39Z</time>
      </trkpt>
      <trkpt lat="42.7843470" lon="-5.7856060">
        <ele>987.4</ele>
        <time>2019-07-21T07:48:40Z</time>
      </trkpt>
      <trkpt lat="42.7843440" lon="-5.7857430">
        <ele>987.2</ele>
        <time>2019-07-21T07:48:41Z</time>
      </trkpt>
      <trkpt lat="42.7843360" lon="-5.7860220">
        <ele>987.0</ele>
        <time>2019-07-21T07:48:43Z</time>
      </trkpt>
      <trkpt lat="42.7843280" lon="-5.7864520">
        <ele>986.2</ele>
        <time>2019-07-21T07:48:46Z</time>
      </trkpt>
      <trkpt lat="42.7843240" lon="-5.7867470">
        <ele>985.8</ele>
        <time>2019-07-21T07:48:48Z</time>
      </trkpt>
      <trkpt lat="42.7843130" lon="-5.7871950">
        <ele>985.2</ele>
        <time>2019-07-21T07:48:51Z</time>
      </trkpt>
      <trkpt lat="42.7842990" lon="-5.7878000">
        <ele>983.8</ele>
        <time>2019-07-21T07:48:55Z</time>
      </trkpt>
      <trkpt lat="42.7842870" lon="-5.7882440">
        <ele>982.6</ele>
        <time>2019-07-21T07:48:58Z</time>
      </trkpt>
      <trkpt lat="42.7842780" lon="-5.7886980">
        <ele>982.2</ele>
        <time>2019-07-21T07:49:01Z</time>
      </trkpt>
      <trkpt lat="42.7842660" lon="-5.7893070">
        <ele>981.6</ele>
        <time>2019-07-21T07:49:05Z</time>
      </trkpt>
      <trkpt lat="42.7842580" lon="-5.7897530">
        <ele>980.6</ele>
        <time>2019-07-21T07:49:08Z</time>
      </trkpt>
      <trkpt lat="42.7842530" lon="-5.7898990">
        <ele>980.4</ele>
        <time>2019-07-21T07:49:09Z</time>
      </trkpt>
      <trkpt lat="42.7842490" lon="-5.7900450">
        <ele>980.2</ele>
        <time>2019-07-21T07:49:10Z</time>
      </trkpt>
      <trkpt lat="42.7842300" lon="-5.7909010">
        <ele>979.4</ele>
        <time>2019-07-21T07:49:16Z</time>
      </trkpt>
      <trkpt lat="42.7842260" lon="-5.7910390">
        <ele>979.2</ele>
        <time>2019-07-21T07:49:17Z</time>
      </trkpt>
      <trkpt lat="42.7842190" lon="-5.7914470">
        <ele>978.6</ele>
        <time>2019-07-21T07:49:20Z</time>
      </trkpt>
      <trkpt lat="42.7842150" lon="-5.7915810">
        <ele>978.4</ele>
        <time>2019-07-21T07:49:21Z</time>
      </trkpt>
      <trkpt lat="42.7842120" lon="-5.7917140">
        <ele>978.2</ele>
        <time>2019-07-21T07:49:22Z</time>
      </trkpt>
      <trkpt lat="42.7841970" lon="-5.7923690">
        <ele>977.8</ele>
        <time>2019-07-21T07:49:27Z</time>
      </trkpt>
      <trkpt lat="42.7841790" lon="-5.7930220">
        <ele>977.4</ele>
        <time>2019-07-21T07:49:32Z</time>
      </trkpt>
      <trkpt lat="42.7841780" lon="-5.7932820">
        <ele>977.2</ele>
        <time>2019-07-21T07:49:34Z</time>
      </trkpt>
      <trkpt lat="42.7842060" lon="-5.7940730">
        <ele>976.2</ele>
        <time>2019-07-21T07:49:40Z</time>
      </trkpt>
      <trkpt lat="42.7842110" lon="-5.7942110">
        <ele>975.8</ele>
        <time>2019-07-21T07:49:41Z</time>
      </trkpt>
      <trkpt lat="42.7842550" lon="-5.7949110">
        <ele>974.4</ele>
        <time>2019-07-21T07:49:46Z</time>
      </trkpt>
      <trkpt lat="42.7842760" lon="-5.7953360">
        <ele>973.2</ele>
        <time>2019-07-21T07:49:49Z</time>
      </trkpt>
      <trkpt lat="42.7842980" lon="-5.7958960">
        <ele>972.0</ele>
        <time>2019-07-21T07:49:53Z</time>
      </trkpt>
      <trkpt lat="42.7843160" lon="-5.7962860">
        <ele>971.0</ele>
        <time>2019-07-21T07:49:56Z</time>
      </trkpt>
      <trkpt lat="42.7843420" lon="-5.7968860">
        <ele>970.2</ele>
        <time>2019-07-21T07:50:01Z</time>
      </trkpt>
      <trkpt lat="42.7843670" lon="-5.7974870">
        <ele>969.8</ele>
        <time>2019-07-21T07:50:07Z</time>
      </trkpt>
      <trkpt lat="42.7843680" lon="-5.7980650">
        <ele>969.8</ele>
        <time>2019-07-21T07:50:13Z</time>
      </trkpt>
      <trkpt lat="42.7843490" lon="-5.7986550">
        <ele>969.8</ele>
        <time>2019-07-21T07:50:19Z</time>
      </trkpt>
      <trkpt lat="42.7843200" lon="-5.7992400">
        <ele>969.2</ele>
        <time>2019-07-21T07:50:25Z</time>
      </trkpt>
      <trkpt lat="42.7843060" lon="-5.7995310">
        <ele>969.2</ele>
        <time>2019-07-21T07:50:28Z</time>
      </trkpt>
      <trkpt lat="42.7842790" lon="-5.8000350">
        <ele>969.6</ele>
        <time>2019-07-21T07:50:33Z</time>
      </trkpt>
      <trkpt lat="42.7842340" lon="-5.8006340">
        <ele>969.2</ele>
        <time>2019-07-21T07:50:39Z</time>
      </trkpt>
      <trkpt lat="42.7842000" lon="-5.8012200">
        <ele>969.2</ele>
        <time>2019-07-21T07:50:45Z</time>
      </trkpt>
      <trkpt lat="42.7841820" lon="-5.8017880">
        <ele>969.4</ele>
        <time>2019-07-21T07:50:51Z</time>
      </trkpt>
      <trkpt lat="42.7842400" lon="-5.8023760">
        <ele>969.4</ele>
        <time>2019-07-21T07:50:57Z</time>
      </trkpt>
      <trkpt lat="42.7843690" lon="-5.8029280">
        <ele>969.4</ele>
        <time>2019-07-21T07:51:03Z</time>
      </trkpt>
      <trkpt lat="42.7845150" lon="-5.8032430">
        <ele>969.6</ele>
        <time>2019-07-21T07:51:07Z</time>
      </trkpt>
      <trkpt lat="42.7846870" lon="-5.8035340">
        <ele>969.8</ele>
        <time>2019-07-21T07:51:11Z</time>
      </trkpt>
      <trkpt lat="42.7847610" lon="-5.8036760">
        <ele>970.4</ele>
        <time>2019-07-21T07:51:13Z</time>
      </trkpt>
      <trkpt lat="42.7847990" lon="-5.8038380">
        <ele>971.0</ele>
        <time>2019-07-21T07:51:15Z</time>
      </trkpt>
      <trkpt lat="42.7847890" lon="-5.8043200">
        <ele>972.2</ele>
        <time>2019-07-21T07:51:21Z</time>
      </trkpt>
      <trkpt lat="42.7847470" lon="-5.8048480">
        <ele>973.0</ele>
        <time>2019-07-21T07:51:27Z</time>
      </trkpt>
      <trkpt lat="42.7847250" lon="-5.8051920">
        <ele>973.2</ele>
        <time>2019-07-21T07:51:31Z</time>
      </trkpt>
      <trkpt lat="42.7846980" lon="-5.8057450">
        <ele>973.0</ele>
        <time>2019-07-21T07:51:37Z</time>
      </trkpt>
      <trkpt lat="42.7846730" lon="-5.8061290">
        <ele>972.4</ele>
        <time>2019-07-21T07:51:41Z</time>
      </trkpt>
      <trkpt lat="42.7846120" lon="-5.8067140">
        <ele>972.2</ele>
        <time>2019-07-21T07:51:47Z</time>
      </trkpt>
      <trkpt lat="42.7845450" lon="-5.8069000">
        <ele>972.0</ele>
        <time>2019-07-21T07:51:49Z</time>
      </trkpt>
      <trkpt lat="42.7844530" lon="-5.8070720">
        <ele>971.8</ele>
        <time>2019-07-21T07:51:51Z</time>
      </trkpt>
      <trkpt lat="42.7841060" lon="-5.8075070">
        <ele>971.4</ele>
        <time>2019-07-21T07:51:57Z</time>
      </trkpt>
      <trkpt lat="42.7839300" lon="-5.8077170">
        <ele>971.4</ele>
        <time>2019-07-21T07:52:00Z</time>
      </trkpt>
      <trkpt lat="42.7837560" lon="-5.8079230">
        <ele>971.0</ele>
        <time>2019-07-21T07:52:03Z</time>
      </trkpt>
      <trkpt lat="42.7835300" lon="-5.8081850">
        <ele>971.0</ele>
        <time>2019-07-21T07:52:07Z</time>
      </trkpt>
      <trkpt lat="42.7832110" lon="-5.8085830">
        <ele>971.2</ele>
        <time>2019-07-21T07:52:13Z</time>
      </trkpt>
      <trkpt lat="42.7830980" lon="-5.8087200">
        <ele>971.2</ele>
        <time>2019-07-21T07:52:15Z</time>
      </trkpt>
      <trkpt lat="42.7827320" lon="-5.8090810">
        <ele>972.0</ele>
        <time>2019-07-21T07:52:21Z</time>
      </trkpt>
      <trkpt lat="42.7826610" lon="-5.8091140">
        <ele>972.2</ele>
        <time>2019-07-21T07:52:22Z</time>
      </trkpt>
      <trkpt lat="42.7822210" lon="-5.8092440">
        <ele>972.4</ele>
        <time>2019-07-21T07:52:28Z</time>
      </trkpt>
      <trkpt lat="42.7818130" lon="-5.8095110">
        <ele>972.2</ele>
        <time>2019-07-21T07:52:34Z</time>
      </trkpt>
      <trkpt lat="42.7814090" lon="-5.8098400">
        <ele>972.4</ele>
        <time>2019-07-21T07:52:40Z</time>
      </trkpt>
      <trkpt lat="42.7812970" lon="-5.8099830">
        <ele>972.6</ele>
        <time>2019-07-21T07:52:42Z</time>
      </trkpt>
      <trkpt lat="42.7812140" lon="-5.8101550">
        <ele>972.8</ele>
        <time>2019-07-21T07:52:44Z</time>
      </trkpt>
      <trkpt lat="42.7811200" lon="-5.8105240">
        <ele>973.2</ele>
        <time>2019-07-21T07:52:48Z</time>
      </trkpt>
      <trkpt lat="42.7810230" lon="-5.8109040">
        <ele>973.8</ele>
        <time>2019-07-21T07:52:52Z</time>
      </trkpt>
      <trkpt lat="42.7809230" lon="-5.8112810">
        <ele>974.2</ele>
        <time>2019-07-21T07:52:56Z</time>
      </trkpt>
      <trkpt lat="42.7807910" lon="-5.8118640">
        <ele>974.8</ele>
        <time>2019-07-21T07:53:02Z</time>
      </trkpt>
      <trkpt lat="42.7807120" lon="-5.8123440">
        <ele>975.4</ele>
        <time>2019-07-21T07:53:07Z</time>
      </trkpt>
      <trkpt lat="42.7806290" lon="-5.8129140">
        <ele>976.0</ele>
        <time>2019-07-21T07:53:13Z</time>
      </trkpt>
      <trkpt lat="42.7805820" lon="-5.8132000">
        <ele>976.6</ele>
        <time>2019-07-21T07:53:16Z</time>
      </trkpt>
      <trkpt lat="42.7805270" lon="-5.8136040">
        <ele>977.6</ele>
        <time>2019-07-21T07:53:20Z</time>
      </trkpt>
      <trkpt lat="42.7805010" lon="-5.8138130">
        <ele>978.2</ele>
        <time>2019-07-21T07:53:22Z</time>
      </trkpt>
      <trkpt lat="42.7804630" lon="-5.8141330">
        <ele>978.8</ele>
        <time>2019-07-21T07:53:25Z</time>
      </trkpt>
      <trkpt lat="42.7803920" lon="-5.8145650">
        <ele>979.8</ele>
        <time>2019-07-21T07:53:29Z</time>
      </trkpt>
      <trkpt lat="42.7803050" lon="-5.8149790">
        <ele>980.6</ele>
        <time>2019-07-21T07:53:33Z</time>
      </trkpt>
      <trkpt lat="42.7802640" lon="-5.8151850">
        <ele>980.8</ele>
        <time>2019-07-21T07:53:35Z</time>
      </trkpt>
      <trkpt lat="42.7801530" lon="-5.8157930">
        <ele>981.2</ele>
        <time>2019-07-21T07:53:41Z</time>
      </trkpt>
      <trkpt lat="42.7800770" lon="-5.8163630">
        <ele>981.6</ele>
        <time>2019-07-21T07:53:47Z</time>
      </trkpt>
      <trkpt lat="42.7800380" lon="-5.8167370">
        <ele>981.8</ele>
        <time>2019-07-21T07:53:51Z</time>
      </trkpt>
      <trkpt lat="42.7800220" lon="-5.8169280">
        <ele>981.8</ele>
        <time>2019-07-21T07:53:53Z</time>
      </trkpt>
      <trkpt lat="42.7800010" lon="-5.8172070">
        <ele>982.4</ele>
        <time>2019-07-21T07:53:56Z</time>
      </trkpt>
      <trkpt lat="42.7799810" lon="-5.8177660">
        <ele>982.8</ele>
        <time>2019-07-21T07:54:02Z</time>
      </trkpt>
      <trkpt lat="42.7799810" lon="-5.8178570">
        <ele>983.2</ele>
        <time>2019-07-21T07:54:03Z</time>
      </trkpt>
      <trkpt lat="42.7799770" lon="-5.8181290">
        <ele>983.8</ele>
        <time>2019-07-21T07:54:06Z</time>
      </trkpt>
      <trkpt lat="42.7799780" lon="-5.8183090">
        <ele>984.2</ele>
        <time>2019-07-21T07:54:08Z</time>
      </trkpt>
      <trkpt lat="42.7799850" lon="-5.8187450">
        <ele>985.2</ele>
        <time>2019-07-21T07:54:13Z</time>
      </trkpt>
      <trkpt lat="42.7799920" lon="-5.8192700">
        <ele>986.2</ele>
        <time>2019-07-21T07:54:19Z</time>
      </trkpt>
      <trkpt lat="42.7799950" lon="-5.8193610">
        <ele>986.4</ele>
        <time>2019-07-21T07:54:20Z</time>
      </trkpt>
      <trkpt lat="42.7800000" lon="-5.8196280">
        <ele>987.0</ele>
        <time>2019-07-21T07:54:23Z</time>
      </trkpt>
      <trkpt lat="42.7799960" lon="-5.8198130">
        <ele>987.6</ele>
        <time>2019-07-21T07:54:25Z</time>
      </trkpt>
      <trkpt lat="42.7799700" lon="-5.8203920">
        <ele>988.4</ele>
        <time>2019-07-21T07:54:31Z</time>
      </trkpt>
      <trkpt lat="42.7799570" lon="-5.8205860">
        <ele>988.8</ele>
        <time>2019-07-21T07:54:33Z</time>
      </trkpt>
      <trkpt lat="42.7799230" lon="-5.8211490">
        <ele>989.0</ele>
        <time>2019-07-21T07:54:39Z</time>
      </trkpt>
      <trkpt lat="42.7798980" lon="-5.8215150">
        <ele>989.6</ele>
        <time>2019-07-21T07:54:43Z</time>
      </trkpt>
      <trkpt lat="42.7798930" lon="-5.8216090">
        <ele>989.8</ele>
        <time>2019-07-21T07:54:44Z</time>
      </trkpt>
      <trkpt lat="42.7798620" lon="-5.8221890">
        <ele>990.4</ele>
        <time>2019-07-21T07:54:50Z</time>
      </trkpt>
      <trkpt lat="42.7798540" lon="-5.8223830">
        <ele>991.0</ele>
        <time>2019-07-21T07:54:52Z</time>
      </trkpt>
      <trkpt lat="42.7798390" lon="-5.8226790">
        <ele>992.2</ele>
        <time>2019-07-21T07:54:55Z</time>
      </trkpt>
      <trkpt lat="42.7798170" lon="-5.8231670">
        <ele>993.4</ele>
        <time>2019-07-21T07:55:00Z</time>
      </trkpt>
      <trkpt lat="42.7797720" lon="-5.8237620">
        <ele>994.0</ele>
        <time>2019-07-21T07:55:06Z</time>
      </trkpt>
      <trkpt lat="42.7797260" lon="-5.8241730">
        <ele>994.4</ele>
        <time>2019-07-21T07:55:10Z</time>
      </trkpt>
      <trkpt lat="42.7796510" lon="-5.8247980">
        <ele>995.0</ele>
        <time>2019-07-21T07:55:16Z</time>
      </trkpt>
      <trkpt lat="42.7795950" lon="-5.8253210">
        <ele>995.4</ele>
        <time>2019-07-21T07:55:21Z</time>
      </trkpt>
      <trkpt lat="42.7795230" lon="-5.8259510">
        <ele>996.4</ele>
        <time>2019-07-21T07:55:27Z</time>
      </trkpt>
      <trkpt lat="42.7794540" lon="-5.8265550">
        <ele>996.4</ele>
        <time>2019-07-21T07:55:33Z</time>
      </trkpt>
      <trkpt lat="42.7793870" lon="-5.8271650">
        <ele>996.8</ele>
        <time>2019-07-21T07:55:39Z</time>
      </trkpt>
      <trkpt lat="42.7793290" lon="-5.8276740">
        <ele>997.4</ele>
        <time>2019-07-21T07:55:44Z</time>
      </trkpt>
      <trkpt lat="42.7792550" lon="-5.8282880">
        <ele>997.6</ele>
        <time>2019-07-21T07:55:50Z</time>
      </trkpt>
      <trkpt lat="42.7791840" lon="-5.8288980">
        <ele>998.2</ele>
        <time>2019-07-21T07:55:56Z</time>
      </trkpt>
      <trkpt lat="42.7791600" lon="-5.8291020">
        <ele>998.4</ele>
        <time>2019-07-21T07:55:58Z</time>
      </trkpt>
      <trkpt lat="42.7791110" lon="-5.8295090">
        <ele>999.6</ele>
        <time>2019-07-21T07:56:02Z</time>
      </trkpt>
      <trkpt lat="42.7790670" lon="-5.8299210">
        <ele>999.8</ele>
        <time>2019-07-21T07:56:06Z</time>
      </trkpt>
      <trkpt lat="42.7790080" lon="-5.8304340">
        <ele>1000.6</ele>
        <time>2019-07-21T07:56:11Z</time>
      </trkpt>
      <trkpt lat="42.7789290" lon="-5.8310440">
        <ele>1001.2</ele>
        <time>2019-07-21T07:56:17Z</time>
      </trkpt>
      <trkpt lat="42.7788980" lon="-5.8313600">
        <ele>1001.6</ele>
        <time>2019-07-21T07:56:20Z</time>
      </trkpt>
      <trkpt lat="42.7788490" lon="-5.8317850">
        <ele>1002.8</ele>
        <time>2019-07-21T07:56:24Z</time>
      </trkpt>
      <trkpt lat="42.7787730" lon="-5.8324400">
        <ele>1003.4</ele>
        <time>2019-07-21T07:56:30Z</time>
      </trkpt>
      <trkpt lat="42.7787220" lon="-5.8328920">
        <ele>1003.8</ele>
        <time>2019-07-21T07:56:34Z</time>
      </trkpt>
      <trkpt lat="42.7786400" lon="-5.8336020">
        <ele>1004.2</ele>
        <time>2019-07-21T07:56:40Z</time>
      </trkpt>
      <trkpt lat="42.7785580" lon="-5.8343110">
        <ele>1004.2</ele>
        <time>2019-07-21T07:56:46Z</time>
      </trkpt>
      <trkpt lat="42.7785040" lon="-5.8347560">
        <ele>1004.8</ele>
        <time>2019-07-21T07:56:50Z</time>
      </trkpt>
      <trkpt lat="42.7784220" lon="-5.8354210">
        <ele>1004.8</ele>
        <time>2019-07-21T07:56:56Z</time>
      </trkpt>
      <trkpt lat="42.7783470" lon="-5.8360890">
        <ele>1005.4</ele>
        <time>2019-07-21T07:57:02Z</time>
      </trkpt>
      <trkpt lat="42.7782770" lon="-5.8367470">
        <ele>1005.8</ele>
        <time>2019-07-21T07:57:08Z</time>
      </trkpt>
      <trkpt lat="42.7782660" lon="-5.8368600">
        <ele>1006.0</ele>
        <time>2019-07-21T07:57:09Z</time>
      </trkpt>
      <trkpt lat="42.7781910" lon="-5.8375140">
        <ele>1007.2</ele>
        <time>2019-07-21T07:57:15Z</time>
      </trkpt>
      <trkpt lat="42.7781430" lon="-5.8379320">
        <ele>1008.4</ele>
        <time>2019-07-21T07:57:19Z</time>
      </trkpt>
      <trkpt lat="42.7780850" lon="-5.8384460">
        <ele>1009.6</ele>
        <time>2019-07-21T07:57:24Z</time>
      </trkpt>
      <trkpt lat="42.7780150" lon="-5.8390620">
        <ele>1010.4</ele>
        <time>2019-07-21T07:57:30Z</time>
      </trkpt>
      <trkpt lat="42.7779890" lon="-5.8392760">
        <ele>1010.6</ele>
        <time>2019-07-21T07:57:32Z</time>
      </trkpt>
      <trkpt lat="42.7779060" lon="-5.8399170">
        <ele>1011.2</ele>
        <time>2019-07-21T07:57:38Z</time>
      </trkpt>
      <trkpt lat="42.7778710" lon="-5.8402160">
        <ele>1011.6</ele>
        <time>2019-07-21T07:57:41Z</time>
      </trkpt>
      <trkpt lat="42.7778060" lon="-5.8408410">
        <ele>1012.6</ele>
        <time>2019-07-21T07:57:47Z</time>
      </trkpt>
      <trkpt lat="42.7777950" lon="-5.8409490">
        <ele>1012.8</ele>
        <time>2019-07-21T07:57:48Z</time>
      </trkpt>
      <trkpt lat="42.7777100" lon="-5.8415720">
        <ele>1013.6</ele>
        <time>2019-07-21T07:57:54Z</time>
      </trkpt>
      <trkpt lat="42.7776830" lon="-5.8417850">
        <ele>1014.0</ele>
        <time>2019-07-21T07:57:56Z</time>
      </trkpt>
      <trkpt lat="42.7776510" lon="-5.8423140">
        <ele>1015.0</ele>
        <time>2019-07-21T07:58:01Z</time>
      </trkpt>
      <trkpt lat="42.7776600" lon="-5.8427240">
        <ele>1015.2</ele>
        <time>2019-07-21T07:58:05Z</time>
      </trkpt>
      <trkpt lat="42.7776730" lon="-5.8433080">
        <ele>1016.2</ele>
        <time>2019-07-21T07:58:11Z</time>
      </trkpt>
      <trkpt lat="42.7776940" lon="-5.8438860">
        <ele>1016.8</ele>
        <time>2019-07-21T07:58:17Z</time>
      </trkpt>
      <trkpt lat="42.7777030" lon="-5.8440720">
        <ele>1017.4</ele>
        <time>2019-07-21T07:58:19Z</time>
      </trkpt>
      <trkpt lat="42.7777290" lon="-5.8445400">
        <ele>1018.6</ele>
        <time>2019-07-21T07:58:24Z</time>
      </trkpt>
      <trkpt lat="42.7777430" lon="-5.8450060">
        <ele>1019.6</ele>
        <time>2019-07-21T07:58:29Z</time>
      </trkpt>
      <trkpt lat="42.7777510" lon="-5.8452000">
        <ele>1019.8</ele>
        <time>2019-07-21T07:58:31Z</time>
      </trkpt>
      <trkpt lat="42.7777580" lon="-5.8455040">
        <ele>1021.2</ele>
        <time>2019-07-21T07:58:34Z</time>
      </trkpt>
      <trkpt lat="42.7777650" lon="-5.8457970">
        <ele>1022.2</ele>
        <time>2019-07-21T07:58:37Z</time>
      </trkpt>
      <trkpt lat="42.7777780" lon="-5.8462750">
        <ele>1023.2</ele>
        <time>2019-07-21T07:58:42Z</time>
      </trkpt>
      <trkpt lat="42.7777960" lon="-5.8468360">
        <ele>1023.8</ele>
        <time>2019-07-21T07:58:48Z</time>
      </trkpt>
      <trkpt lat="42.7778090" lon="-5.8471220">
        <ele>1024.4</ele>
        <time>2019-07-21T07:58:51Z</time>
      </trkpt>
      <trkpt lat="42.7778680" lon="-5.8477100">
        <ele>1025.4</ele>
        <time>2019-07-21T07:58:57Z</time>
      </trkpt>
      <trkpt lat="42.7778850" lon="-5.8478070">
        <ele>1025.6</ele>
        <time>2019-07-21T07:58:58Z</time>
      </trkpt>
      <trkpt lat="42.7779450" lon="-5.8481840">
        <ele>1026.8</ele>
        <time>2019-07-21T07:59:02Z</time>
      </trkpt>
      <trkpt lat="42.7780080" lon="-5.8485600">
        <ele>1027.8</ele>
        <time>2019-07-21T07:59:06Z</time>
      </trkpt>
      <trkpt lat="42.7781010" lon="-5.8491330">
        <ele>1028.4</ele>
        <time>2019-07-21T07:59:12Z</time>
      </trkpt>
      <trkpt lat="42.7781440" lon="-5.8494370">
        <ele>1029.0</ele>
        <time>2019-07-21T07:59:15Z</time>
      </trkpt>
      <trkpt lat="42.7781900" lon="-5.8499480">
        <ele>1030.2</ele>
        <time>2019-07-21T07:59:20Z</time>
      </trkpt>
      <trkpt lat="42.7782020" lon="-5.8503690">
        <ele>1031.2</ele>
        <time>2019-07-21T07:59:24Z</time>
      </trkpt>
      <trkpt lat="42.7781890" lon="-5.8509970">
        <ele>1032.0</ele>
        <time>2019-07-21T07:59:30Z</time>
      </trkpt>
      <trkpt lat="42.7781850" lon="-5.8512030">
        <ele>1032.4</ele>
        <time>2019-07-21T07:59:32Z</time>
      </trkpt>
      <trkpt lat="42.7781770" lon="-5.8515130">
        <ele>1033.8</ele>
        <time>2019-07-21T07:59:35Z</time>
      </trkpt>
      <trkpt lat="42.7781680" lon="-5.8518190">
        <ele>1035.0</ele>
        <time>2019-07-21T07:59:38Z</time>
      </trkpt>
      <trkpt lat="42.7781600" lon="-5.8524330">
        <ele>1036.2</ele>
        <time>2019-07-21T07:59:44Z</time>
      </trkpt>
      <trkpt lat="42.7781470" lon="-5.8530550">
        <ele>1037.4</ele>
        <time>2019-07-21T07:59:50Z</time>
      </trkpt>
      <trkpt lat="42.7781260" lon="-5.8536540">
        <ele>1038.6</ele>
        <time>2019-07-21T07:59:56Z</time>
      </trkpt>
      <trkpt lat="42.7781210" lon="-5.8542510">
        <ele>1039.6</ele>
        <time>2019-07-21T08:00:02Z</time>
      </trkpt>
      <trkpt lat="42.7781160" lon="-5.8547550">
        <ele>1040.8</ele>
        <time>2019-07-21T08:00:07Z</time>
      </trkpt>
      <trkpt lat="42.7781130" lon="-5.8553420">
        <ele>1041.6</ele>
        <time>2019-07-21T08:00:13Z</time>
      </trkpt>
      <trkpt lat="42.7781130" lon="-5.8555290">
        <ele>1042.2</ele>
        <time>2019-07-21T08:00:15Z</time>
      </trkpt>
      <trkpt lat="42.7780970" lon="-5.8559750">
        <ele>1043.2</ele>
        <time>2019-07-21T08:00:20Z</time>
      </trkpt>
      <trkpt lat="42.7780880" lon="-5.8564070">
        <ele>1044.6</ele>
        <time>2019-07-21T08:00:25Z</time>
      </trkpt>
      <trkpt lat="42.7780850" lon="-5.8566690">
        <ele>1046.0</ele>
        <time>2019-07-21T08:00:28Z</time>
      </trkpt>
      <trkpt lat="42.7780750" lon="-5.8571060">
        <ele>1047.2</ele>
        <time>2019-07-21T08:00:33Z</time>
      </trkpt>
      <trkpt lat="42.7780700" lon="-5.8574590">
        <ele>1048.6</ele>
        <time>2019-07-21T08:00:37Z</time>
      </trkpt>
      <trkpt lat="42.7780700" lon="-5.8576390">
        <ele>1049.4</ele>
        <time>2019-07-21T08:00:39Z</time>
      </trkpt>
      <trkpt lat="42.7780690" lon="-5.8577290">
        <ele>1049.6</ele>
        <time>2019-07-21T08:00:40Z</time>
      </trkpt>
      <trkpt lat="42.7780620" lon="-5.8580930">
        <ele>1050.8</ele>
        <time>2019-07-21T08:00:44Z</time>
      </trkpt>
      <trkpt lat="42.7780470" lon="-5.8585610">
        <ele>1052.0</ele>
        <time>2019-07-21T08:00:49Z</time>
      </trkpt>
      <trkpt lat="42.7780410" lon="-5.8590470">
        <ele>1053.0</ele>
        <time>2019-07-21T08:00:54Z</time>
      </trkpt>
      <trkpt lat="42.7780300" lon="-5.8596230">
        <ele>1053.6</ele>
        <time>2019-07-21T08:01:00Z</time>
      </trkpt>
      <trkpt lat="42.7780210" lon="-5.8599070">
        <ele>1054.4</ele>
        <time>2019-07-21T08:01:03Z</time>
      </trkpt>
      <trkpt lat="42.7780140" lon="-5.8601780">
        <ele>1055.8</ele>
        <time>2019-07-21T08:01:06Z</time>
      </trkpt>
      <trkpt lat="42.7779680" lon="-5.8605990">
        <ele>1056.4</ele>
        <time>2019-07-21T08:01:11Z</time>
      </trkpt>
      <trkpt lat="42.7779440" lon="-5.8607700">
        <ele>1056.8</ele>
        <time>2019-07-21T08:01:13Z</time>
      </trkpt>
      <trkpt lat="42.7779160" lon="-5.8609330">
        <ele>1057.6</ele>
        <time>2019-07-21T08:01:15Z</time>
      </trkpt>
      <trkpt lat="42.7779060" lon="-5.8610130">
        <ele>1058.0</ele>
        <time>2019-07-21T08:01:16Z</time>
      </trkpt>
      <trkpt lat="42.7778630" lon="-5.8613290">
        <ele>1059.0</ele>
        <time>2019-07-21T08:01:20Z</time>
      </trkpt>
      <trkpt lat="42.7778050" lon="-5.8617180">
        <ele>1060.2</ele>
        <time>2019-07-21T08:01:25Z</time>
      </trkpt>
      <trkpt lat="42.7777290" lon="-5.8621150">
        <ele>1061.4</ele>
        <time>2019-07-21T08:01:30Z</time>
      </trkpt>
      <trkpt lat="42.7776560" lon="-5.8625740">
        <ele>1062.8</ele>
        <time>2019-07-21T08:01:36Z</time>
      </trkpt>
      <trkpt lat="42.7775930" lon="-5.8628770">
        <ele>1063.8</ele>
        <time>2019-07-21T08:01:40Z</time>
      </trkpt>
      <trkpt lat="42.7775330" lon="-5.8631790">
        <ele>1064.8</ele>
        <time>2019-07-21T08:01:44Z</time>
      </trkpt>
      <trkpt lat="42.7774570" lon="-5.8634840">
        <ele>1065.8</ele>
        <time>2019-07-21T08:01:48Z</time>
      </trkpt>
      <trkpt lat="42.7773800" lon="-5.8637760">
        <ele>1067.0</ele>
        <time>2019-07-21T08:01:52Z</time>
      </trkpt>
      <trkpt lat="42.7773000" lon="-5.8640720">
        <ele>1068.0</ele>
        <time>2019-07-21T08:01:56Z</time>
      </trkpt>
      <trkpt lat="42.7772010" lon="-5.8644420">
        <ele>1069.2</ele>
        <time>2019-07-21T08:02:01Z</time>
      </trkpt>
      <trkpt lat="42.7771180" lon="-5.8647390">
        <ele>1070.6</ele>
        <time>2019-07-21T08:02:05Z</time>
      </trkpt>
      <trkpt lat="42.7770030" lon="-5.8651090">
        <ele>1071.8</ele>
        <time>2019-07-21T08:02:10Z</time>
      </trkpt>
      <trkpt lat="42.7769860" lon="-5.8651830">
        <ele>1072.0</ele>
        <time>2019-07-21T08:02:11Z</time>
      </trkpt>
      <trkpt lat="42.7769410" lon="-5.8654180">
        <ele>1073.2</ele>
        <time>2019-07-21T08:02:14Z</time>
      </trkpt>
      <trkpt lat="42.7769040" lon="-5.8656650">
        <ele>1074.4</ele>
        <time>2019-07-21T08:02:17Z</time>
      </trkpt>
      <trkpt lat="42.7768780" lon="-5.8660110">
        <ele>1075.6</ele>
        <time>2019-07-21T08:02:21Z</time>
      </trkpt>
      <trkpt lat="42.7769050" lon="-5.8666030">
        <ele>1076.2</ele>
        <time>2019-07-21T08:02:27Z</time>
      </trkpt>
      <trkpt lat="42.7770260" lon="-5.8672760">
        <ele>1075.4</ele>
        <time>2019-07-21T08:02:33Z</time>
      </trkpt>
      <trkpt lat="42.7771110" lon="-5.8676510">
        <ele>1074.4</ele>
        <time>2019-07-21T08:02:36Z</time>
      </trkpt>
      <trkpt lat="42.7771970" lon="-5.8680510">
        <ele>1072.8</ele>
        <time>2019-07-21T08:02:39Z</time>
      </trkpt>
      <trkpt lat="42.7773190" lon="-5.8686130">
        <ele>1071.8</ele>
        <time>2019-07-21T08:02:43Z</time>
      </trkpt>
      <trkpt lat="42.7774510" lon="-5.8692130">
        <ele>1070.6</ele>
        <time>2019-07-21T08:02:47Z</time>
      </trkpt>
      <trkpt lat="42.7775220" lon="-5.8695300">
        <ele>1069.2</ele>
        <time>2019-07-21T08:02:49Z</time>
      </trkpt>
      <trkpt lat="42.7776270" lon="-5.8700150">
        <ele>1068.0</ele>
        <time>2019-07-21T08:02:52Z</time>
      </trkpt>
      <trkpt lat="42.7777010" lon="-5.8703450">
        <ele>1066.6</ele>
        <time>2019-07-21T08:02:54Z</time>
      </trkpt>
      <trkpt lat="42.7778810" lon="-5.8711610">
        <ele>1065.2</ele>
        <time>2019-07-21T08:02:59Z</time>
      </trkpt>
      <trkpt lat="42.7779830" lon="-5.8716380">
        <ele>1064.2</ele>
        <time>2019-07-21T08:03:02Z</time>
      </trkpt>
      <trkpt lat="42.7780810" lon="-5.8721100">
        <ele>1063.0</ele>
        <time>2019-07-21T08:03:05Z</time>
      </trkpt>
      <trkpt lat="42.7782180" lon="-5.8727260">
        <ele>1061.4</ele>
        <time>2019-07-21T08:03:09Z</time>
      </trkpt>
      <trkpt lat="42.7783560" lon="-5.8733450">
        <ele>1060.2</ele>
        <time>2019-07-21T08:03:13Z</time>
      </trkpt>
      <trkpt lat="42.7785290" lon="-5.8741290">
        <ele>1059.0</ele>
        <time>2019-07-21T08:03:18Z</time>
      </trkpt>
      <trkpt lat="42.7786350" lon="-5.8746010">
        <ele>1057.4</ele>
        <time>2019-07-21T08:03:21Z</time>
      </trkpt>
      <trkpt lat="42.7787420" lon="-5.8750660">
        <ele>1056.4</ele>
        <time>2019-07-21T08:03:24Z</time>
      </trkpt>
      <trkpt lat="42.7789140" lon="-5.8758560">
        <ele>1055.4</ele>
        <time>2019-07-21T08:03:29Z</time>
      </trkpt>
      <trkpt lat="42.7790510" lon="-5.8764830">
        <ele>1054.4</ele>
        <time>2019-07-21T08:03:33Z</time>
      </trkpt>
      <trkpt lat="42.7792160" lon="-5.8772390">
        <ele>1053.8</ele>
        <time>2019-07-21T08:03:38Z</time>
      </trkpt>
      <trkpt lat="42.7793760" lon="-5.8779550">
        <ele>1053.4</ele>
        <time>2019-07-21T08:03:43Z</time>
      </trkpt>
      <trkpt lat="42.7794060" lon="-5.8780930">
        <ele>1053.4</ele>
        <time>2019-07-21T08:03:44Z</time>
      </trkpt>
      <trkpt lat="42.7795590" lon="-5.8787890">
        <ele>1053.4</ele>
        <time>2019-07-21T08:03:49Z</time>
      </trkpt>
      <trkpt lat="42.7797380" lon="-5.8795920">
        <ele>1054.4</ele>
        <time>2019-07-21T08:03:55Z</time>
      </trkpt>
      <trkpt lat="42.7798890" lon="-5.8803360">
        <ele>1055.2</ele>
        <time>2019-07-21T08:04:01Z</time>
      </trkpt>
      <trkpt lat="42.7799090" lon="-5.8804560">
        <ele>1055.4</ele>
        <time>2019-07-21T08:04:02Z</time>
      </trkpt>
      <trkpt lat="42.7799640" lon="-5.8810490">
        <ele>1056.6</ele>
        <time>2019-07-21T08:04:07Z</time>
      </trkpt>
      <trkpt lat="42.7799600" lon="-5.8813950">
        <ele>1058.0</ele>
        <time>2019-07-21T08:04:10Z</time>
      </trkpt>
      <trkpt lat="42.7799110" lon="-5.8821100">
        <ele>1058.6</ele>
        <time>2019-07-21T08:04:16Z</time>
      </trkpt>
      <trkpt lat="42.7798430" lon="-5.8828320">
        <ele>1057.4</ele>
        <time>2019-07-21T08:04:22Z</time>
      </trkpt>
      <trkpt lat="42.7797990" lon="-5.8832810">
        <ele>1057.0</ele>
        <time>2019-07-21T08:04:26Z</time>
      </trkpt>
      <trkpt lat="42.7797880" lon="-5.8833910">
        <ele>1056.8</ele>
        <time>2019-07-21T08:04:27Z</time>
      </trkpt>
      <trkpt lat="42.7797440" lon="-5.8839590">
        <ele>1056.6</ele>
        <time>2019-07-21T08:04:32Z</time>
      </trkpt>
      <trkpt lat="42.7797120" lon="-5.8843910">
        <ele>1056.8</ele>
        <time>2019-07-21T08:04:36Z</time>
      </trkpt>
      <trkpt lat="42.7796870" lon="-5.8846960">
        <ele>1056.8</ele>
        <time>2019-07-21T08:04:39Z</time>
      </trkpt>
      <trkpt lat="42.7796710" lon="-5.8849530">
        <ele>1056.8</ele>
        <time>2019-07-21T08:04:42Z</time>
      </trkpt>
      <trkpt lat="42.7796650" lon="-5.8850290">
        <ele>1057.0</ele>
        <time>2019-07-21T08:04:43Z</time>
      </trkpt>
      <trkpt lat="42.7796480" lon="-5.8851820">
        <ele>1057.0</ele>
        <time>2019-07-21T08:04:45Z</time>
      </trkpt>
      <trkpt lat="42.7796530" lon="-5.8854220">
        <ele>1057.0</ele>
        <time>2019-07-21T08:04:48Z</time>
      </trkpt>
      <trkpt lat="42.7796650" lon="-5.8855880">
        <ele>1057.0</ele>
        <time>2019-07-21T08:04:50Z</time>
      </trkpt>
      <trkpt lat="42.7796130" lon="-5.8857320">
        <ele>1057.0</ele>
        <time>2019-07-21T08:04:52Z</time>
      </trkpt>
      <trkpt lat="42.7794180" lon="-5.8859250">
        <ele>1056.0</ele>
        <time>2019-07-21T08:04:56Z</time>
      </trkpt>
      <trkpt lat="42.7793620" lon="-5.8859780">
        <ele>1055.4</ele>
        <time>2019-07-21T08:04:57Z</time>
      </trkpt>
      <trkpt lat="42.7792270" lon="-5.8860660">
        <ele>1054.2</ele>
        <time>2019-07-21T08:04:59Z</time>
      </trkpt>
      <trkpt lat="42.7790780" lon="-5.8861470">
        <ele>1052.8</ele>
        <time>2019-07-21T08:05:01Z</time>
      </trkpt>
      <trkpt lat="42.7789330" lon="-5.8862230">
        <ele>1051.8</ele>
        <time>2019-07-21T08:05:03Z</time>
      </trkpt>
      <trkpt lat="42.7788050" lon="-5.8862860">
        <ele>1050.6</ele>
        <time>2019-07-21T08:05:05Z</time>
      </trkpt>
      <trkpt lat="42.7786780" lon="-5.8862640">
        <ele>1048.8</ele>
        <time>2019-07-21T08:05:07Z</time>
      </trkpt>
      <trkpt lat="42.7785870" lon="-5.8861260">
        <ele>1047.4</ele>
        <time>2019-07-21T08:05:09Z</time>
      </trkpt>
      <trkpt lat="42.7785280" lon="-5.8859610">
        <ele>1046.6</ele>
        <time>2019-07-21T08:05:11Z</time>
      </trkpt>
      <trkpt lat="42.7784790" lon="-5.8859060">
        <ele>1046.2</ele>
        <time>2019-07-21T08:05:12Z</time>
      </trkpt>
      <trkpt lat="42.7784110" lon="-5.8858870">
        <ele>1045.8</ele>
        <time>2019-07-21T08:05:13Z</time>
      </trkpt>
      <trkpt lat="42.7782590" lon="-5.8858960">
        <ele>1045.0</ele>
        <time>2019-07-21T08:05:15Z</time>
      </trkpt>
      <trkpt lat="42.7780080" lon="-5.8859430">
        <ele>1044.0</ele>
        <time>2019-07-21T08:05:18Z</time>
      </trkpt>
      <trkpt lat="42.7779200" lon="-5.8859500">
        <ele>1043.6</ele>
        <time>2019-07-21T08:05:19Z</time>
      </trkpt>
      <trkpt lat="42.7776470" lon="-5.8859320">
        <ele>1042.4</ele>
        <time>2019-07-21T08:05:22Z</time>
      </trkpt>
      <trkpt lat="42.7774630" lon="-5.8859100">
        <ele>1041.8</ele>
        <time>2019-07-21T08:05:24Z</time>
      </trkpt>
      <trkpt lat="42.7773700" lon="-5.8859090">
        <ele>1041.6</ele>
        <time>2019-07-21T08:05:25Z</time>
      </trkpt>
      <trkpt lat="42.7770080" lon="-5.8859820">
        <ele>1041.4</ele>
        <time>2019-07-21T08:05:29Z</time>
      </trkpt>
      <trkpt lat="42.7769210" lon="-5.8859950">
        <ele>1041.4</ele>
        <time>2019-07-21T08:05:30Z</time>
      </trkpt>
      <trkpt lat="42.7766580" lon="-5.8859970">
        <ele>1041.2</ele>
        <time>2019-07-21T08:05:33Z</time>
      </trkpt>
      <trkpt lat="42.7761870" lon="-5.8859890">
        <ele>1040.4</ele>
        <time>2019-07-21T08:05:38Z</time>
      </trkpt>
      <trkpt lat="42.7760870" lon="-5.8859890">
        <ele>1040.2</ele>
        <time>2019-07-21T08:05:39Z</time>
      </trkpt>
      <trkpt lat="42.7756070" lon="-5.8860310">
        <ele>1039.2</ele>
        <time>2019-07-21T08:05:44Z</time>
      </trkpt>
      <trkpt lat="42.7750790" lon="-5.8860060">
        <ele>1038.8</ele>
        <time>2019-07-21T08:05:50Z</time>
      </trkpt>
      <trkpt lat="42.7746520" lon="-5.8859600">
        <ele>1039.0</ele>
        <time>2019-07-21T08:05:55Z</time>
      </trkpt>
      <trkpt lat="42.7744840" lon="-5.8860240">
        <ele>1038.8</ele>
        <time>2019-07-21T08:05:57Z</time>
      </trkpt>
      <trkpt lat="42.7743260" lon="-5.8861430">
        <ele>1038.6</ele>
        <time>2019-07-21T08:05:59Z</time>
      </trkpt>
      <trkpt lat="42.7741160" lon="-5.8864180">
        <ele>1038.2</ele>
        <time>2019-07-21T08:06:02Z</time>
      </trkpt>
      <trkpt lat="42.7739840" lon="-5.8866270">
        <ele>1037.4</ele>
        <time>2019-07-21T08:06:04Z</time>
      </trkpt>
      <trkpt lat="42.7739070" lon="-5.8867270">
        <ele>1036.8</ele>
        <time>2019-07-21T08:06:05Z</time>
      </trkpt>
      <trkpt lat="42.7736570" lon="-5.8870670">
        <ele>1035.6</ele>
        <time>2019-07-21T08:06:08Z</time>
      </trkpt>
      <trkpt lat="42.7734670" lon="-5.8872700">
        <ele>1033.8</ele>
        <time>2019-07-21T08:06:10Z</time>
      </trkpt>
      <trkpt lat="42.7733720" lon="-5.8873630">
        <ele>1032.6</ele>
        <time>2019-07-21T08:06:11Z</time>
      </trkpt>
      <trkpt lat="42.7731940" lon="-5.8875570">
        <ele>1031.2</ele>
        <time>2019-07-21T08:06:13Z</time>
      </trkpt>
      <trkpt lat="42.7731170" lon="-5.8876680">
        <ele>1031.0</ele>
        <time>2019-07-21T08:06:14Z</time>
      </trkpt>
      <trkpt lat="42.7728200" lon="-5.8883110">
        <ele>1031.0</ele>
        <time>2019-07-21T08:06:19Z</time>
      </trkpt>
      <trkpt lat="42.7726200" lon="-5.8886570">
        <ele>1030.6</ele>
        <time>2019-07-21T08:06:22Z</time>
      </trkpt>
      <trkpt lat="42.7725430" lon="-5.8887550">
        <ele>1030.2</ele>
        <time>2019-07-21T08:06:23Z</time>
      </trkpt>
      <trkpt lat="42.7721450" lon="-5.8893490">
        <ele>1029.8</ele>
        <time>2019-07-21T08:06:29Z</time>
      </trkpt>
      <trkpt lat="42.7718830" lon="-5.8897700">
        <ele>1029.2</ele>
        <time>2019-07-21T08:06:34Z</time>
      </trkpt>
      <trkpt lat="42.7718220" lon="-5.8898010">
        <ele>1029.0</ele>
        <time>2019-07-21T08:06:35Z</time>
      </trkpt>
      <trkpt lat="42.7717580" lon="-5.8897990">
        <ele>1029.0</ele>
        <time>2019-07-21T08:06:36Z</time>
      </trkpt>
      <trkpt lat="42.7716310" lon="-5.8897700">
        <ele>1029.2</ele>
        <time>2019-07-21T08:06:38Z</time>
      </trkpt>
      <trkpt lat="42.7715020" lon="-5.8897810">
        <ele>1029.2</ele>
        <time>2019-07-21T08:06:40Z</time>
      </trkpt>
      <trkpt lat="42.7713690" lon="-5.8898090">
        <ele>1029.6</ele>
        <time>2019-07-21T08:06:42Z</time>
      </trkpt>
      <trkpt lat="42.7712380" lon="-5.8898430">
        <ele>1030.2</ele>
        <time>2019-07-21T08:06:44Z</time>
      </trkpt>
      <trkpt lat="42.7711060" lon="-5.8898800">
        <ele>1031.4</ele>
        <time>2019-07-21T08:06:46Z</time>
      </trkpt>
      <trkpt lat="42.7710420" lon="-5.8898950">
        <ele>1032.0</ele>
        <time>2019-07-21T08:06:47Z</time>
      </trkpt>
      <trkpt lat="42.7709830" lon="-5.8899070">
        <ele>1032.6</ele>
        <time>2019-07-21T08:06:48Z</time>
      </trkpt>
      <trkpt lat="42.7709280" lon="-5.8899160">
        <ele>1033.2</ele>
        <time>2019-07-21T08:06:49Z</time>
      </trkpt>
      <trkpt lat="42.7708740" lon="-5.8899260">
        <ele>1034.0</ele>
        <time>2019-07-21T08:06:50Z</time>
      </trkpt>
      <trkpt lat="42.7708240" lon="-5.8899310">
        <ele>1034.6</ele>
        <time>2019-07-21T08:06:51Z</time>
      </trkpt>
      <trkpt lat="42.7707750" lon="-5.8899350">
        <ele>1035.2</ele>
        <time>2019-07-21T08:06:52Z</time>
      </trkpt>
      <trkpt lat="42.7707260" lon="-5.8899370">
        <ele>1035.8</ele>
        <time>2019-07-21T08:06:53Z</time>
      </trkpt>
      <trkpt lat="42.7706760" lon="-5.8899360">
        <ele>1036.4</ele>
        <time>2019-07-21T08:06:54Z</time>
      </trkpt>
      <trkpt lat="42.7705750" lon="-5.8899400">
        <ele>1037.8</ele>
        <time>2019-07-21T08:06:56Z</time>
      </trkpt>
      <trkpt lat="42.7705250" lon="-5.8899410">
        <ele>1038.6</ele>
        <time>2019-07-21T08:06:57Z</time>
      </trkpt>
      <trkpt lat="42.7704780" lon="-5.8899270">
        <ele>1039.4</ele>
        <time>2019-07-21T08:06:58Z</time>
      </trkpt>
      <trkpt lat="42.7704410" lon="-5.8898950">
        <ele>1040.0</ele>
        <time>2019-07-21T08:06:59Z</time>
      </trkpt>
      <trkpt lat="42.7704160" lon="-5.8898540">
        <ele>1040.8</ele>
        <time>2019-07-21T08:07:00Z</time>
      </trkpt>
      <trkpt lat="42.7703950" lon="-5.8897700">
        <ele>1042.2</ele>
        <time>2019-07-21T08:07:02Z</time>
      </trkpt>
      <trkpt lat="42.7703940" lon="-5.8897240">
        <ele>1042.8</ele>
        <time>2019-07-21T08:07:03Z</time>
      </trkpt>
      <trkpt lat="42.7704030" lon="-5.8896790">
        <ele>1043.6</ele>
        <time>2019-07-21T08:07:04Z</time>
      </trkpt>
      <trkpt lat="42.7704260" lon="-5.8895820">
        <ele>1044.8</ele>
        <time>2019-07-21T08:07:06Z</time>
      </trkpt>
      <trkpt lat="42.7704420" lon="-5.8894490">
        <ele>1046.0</ele>
        <time>2019-07-21T08:07:09Z</time>
      </trkpt>
      <trkpt lat="42.7704380" lon="-5.8893370">
        <ele>1046.8</ele>
        <time>2019-07-21T08:07:11Z</time>
      </trkpt>
      <trkpt lat="42.7704270" lon="-5.8892770">
        <ele>1047.2</ele>
        <time>2019-07-21T08:07:12Z</time>
      </trkpt>
      <trkpt lat="42.7704040" lon="-5.8892270">
        <ele>1047.8</ele>
        <time>2019-07-21T08:07:13Z</time>
      </trkpt>
      <trkpt lat="42.7703370" lon="-5.8891600">
        <ele>1048.8</ele>
        <time>2019-07-21T08:07:15Z</time>
      </trkpt>
      <trkpt lat="42.7702240" lon="-5.8891640">
        <ele>1050.2</ele>
        <time>2019-07-21T08:07:18Z</time>
      </trkpt>
      <trkpt lat="42.7701520" lon="-5.8891970">
        <ele>1051.4</ele>
        <time>2019-07-21T08:07:20Z</time>
      </trkpt>
      <trkpt lat="42.7700500" lon="-5.8892750">
        <ele>1052.6</ele>
        <time>2019-07-21T08:07:23Z</time>
      </trkpt>
      <trkpt lat="42.7699480" lon="-5.8893520">
        <ele>1053.8</ele>
        <time>2019-07-21T08:07:26Z</time>
      </trkpt>
      <trkpt lat="42.7698500" lon="-5.8894280">
        <ele>1055.2</ele>
        <time>2019-07-21T08:07:29Z</time>
      </trkpt>
      <trkpt lat="42.7697440" lon="-5.8895000">
        <ele>1056.6</ele>
        <time>2019-07-21T08:07:32Z</time>
      </trkpt>
      <trkpt lat="42.7697050" lon="-5.8895180">
        <ele>1057.0</ele>
        <time>2019-07-21T08:07:33Z</time>
      </trkpt>
      <trkpt lat="42.7696260" lon="-5.8895200">
        <ele>1057.8</ele>
        <time>2019-07-21T08:07:35Z</time>
      </trkpt>
      <trkpt lat="42.7695460" lon="-5.8894550">
        <ele>1059.2</ele>
        <time>2019-07-21T08:07:38Z</time>
      </trkpt>
      <trkpt lat="42.7694660" lon="-5.8893350">
        <ele>1060.6</ele>
        <time>2019-07-21T08:07:42Z</time>
      </trkpt>
      <trkpt lat="42.7694360" lon="-5.8893110">
        <ele>1061.0</ele>
        <time>2019-07-21T08:07:43Z</time>
      </trkpt>
      <trkpt lat="42.7693700" lon="-5.8892730">
        <ele>1062.0</ele>
        <time>2019-07-21T08:07:45Z</time>
      </trkpt>
      <trkpt lat="42.7692590" lon="-5.8892260">
        <ele>1063.4</ele>
        <time>2019-07-21T08:07:48Z</time>
      </trkpt>
      <trkpt lat="42.7692180" lon="-5.8892150">
        <ele>1063.8</ele>
        <time>2019-07-21T08:07:49Z</time>
      </trkpt>
      <trkpt lat="42.7691440" lon="-5.8891960">
        <ele>1064.6</ele>
        <time>2019-07-21T08:07:51Z</time>
      </trkpt>
      <trkpt lat="42.7690060" lon="-5.8891560">
        <ele>1065.8</ele>
        <time>2019-07-21T08:07:55Z</time>
      </trkpt>
      <trkpt lat="42.7689170" lon="-5.8891340">
        <ele>1066.8</ele>
        <time>2019-07-21T08:07:58Z</time>
      </trkpt>
      <trkpt lat="42.7688000" lon="-5.8891010">
        <ele>1068.0</ele>
        <time>2019-07-21T08:08:02Z</time>
      </trkpt>
      <trkpt lat="42.7686920" lon="-5.8890810">
        <ele>1069.0</ele>
        <time>2019-07-21T08:08:05Z</time>
      </trkpt>
      <trkpt lat="42.7685810" lon="-5.8890640">
        <ele>1070.4</ele>
        <time>2019-07-21T08:08:08Z</time>
      </trkpt>
      <trkpt lat="42.7684720" lon="-5.8890320">
        <ele>1071.6</ele>
        <time>2019-07-21T08:08:11Z</time>
      </trkpt>
      <trkpt lat="42.7683600" lon="-5.8889940">
        <ele>1072.6</ele>
        <time>2019-07-21T08:08:14Z</time>
      </trkpt>
      <trkpt lat="42.7682130" lon="-5.8889490">
        <ele>1074.0</ele>
        <time>2019-07-21T08:08:18Z</time>
      </trkpt>
      <trkpt lat="42.7681050" lon="-5.8889250">
        <ele>1075.4</ele>
        <time>2019-07-21T08:08:21Z</time>
      </trkpt>
      <trkpt lat="42.7679980" lon="-5.8888980">
        <ele>1076.4</ele>
        <time>2019-07-21T08:08:24Z</time>
      </trkpt>
      <trkpt lat="42.7678520" lon="-5.8888650">
        <ele>1077.8</ele>
        <time>2019-07-21T08:08:28Z</time>
      </trkpt>
      <trkpt lat="42.7677460" lon="-5.8888330">
        <ele>1079.0</ele>
        <time>2019-07-21T08:08:31Z</time>
      </trkpt>
      <trkpt lat="42.7676440" lon="-5.8887970">
        <ele>1080.2</ele>
        <time>2019-07-21T08:08:34Z</time>
      </trkpt>
      <trkpt lat="42.7675150" lon="-5.8887540">
        <ele>1081.6</ele>
        <time>2019-07-21T08:08:38Z</time>
      </trkpt>
      <trkpt lat="42.7673990" lon="-5.8887210">
        <ele>1082.8</ele>
        <time>2019-07-21T08:08:42Z</time>
      </trkpt>
      <trkpt lat="42.7673110" lon="-5.8887110">
        <ele>1084.2</ele>
        <time>2019-07-21T08:08:45Z</time>
      </trkpt>
      <trkpt lat="42.7672000" lon="-5.8887550">
        <ele>1085.6</ele>
        <time>2019-07-21T08:08:49Z</time>
      </trkpt>
      <trkpt lat="42.7671510" lon="-5.8887930">
        <ele>1086.6</ele>
        <time>2019-07-21T08:08:51Z</time>
      </trkpt>
      <trkpt lat="42.7671260" lon="-5.8888160">
        <ele>1087.0</ele>
        <time>2019-07-21T08:08:52Z</time>
      </trkpt>
      <trkpt lat="42.7670780" lon="-5.8888680">
        <ele>1087.8</ele>
        <time>2019-07-21T08:08:54Z</time>
      </trkpt>
      <trkpt lat="42.7670040" lon="-5.8889590">
        <ele>1089.0</ele>
        <time>2019-07-21T08:08:57Z</time>
      </trkpt>
      <trkpt lat="42.7669330" lon="-5.8890530">
        <ele>1090.0</ele>
        <time>2019-07-21T08:09:00Z</time>
      </trkpt>
      <trkpt lat="42.7668640" lon="-5.8891500">
        <ele>1091.2</ele>
        <time>2019-07-21T08:09:03Z</time>
      </trkpt>
      <trkpt lat="42.7667660" lon="-5.8892910">
        <ele>1092.4</ele>
        <time>2019-07-21T08:09:07Z</time>
      </trkpt>
      <trkpt lat="42.7666840" lon="-5.8893730">
        <ele>1093.4</ele>
        <time>2019-07-21T08:09:10Z</time>
      </trkpt>
      <trkpt lat="42.7665670" lon="-5.8894450">
        <ele>1094.8</ele>
        <time>2019-07-21T08:09:14Z</time>
      </trkpt>
      <trkpt lat="42.7664430" lon="-5.8894820">
        <ele>1096.0</ele>
        <time>2019-07-21T08:09:18Z</time>
      </trkpt>
      <trkpt lat="42.7664140" lon="-5.8894960">
        <ele>1096.2</ele>
        <time>2019-07-21T08:09:19Z</time>
      </trkpt>
      <trkpt lat="42.7663230" lon="-5.8895310">
        <ele>1097.2</ele>
        <time>2019-07-21T08:09:22Z</time>
      </trkpt>
      <trkpt lat="42.7662150" lon="-5.8895640">
        <ele>1098.6</ele>
        <time>2019-07-21T08:09:26Z</time>
      </trkpt>
      <trkpt lat="42.7661380" lon="-5.8895870">
        <ele>1099.8</ele>
        <time>2019-07-21T08:09:29Z</time>
      </trkpt>
      <trkpt lat="42.7660590" lon="-5.8895840">
        <ele>1101.2</ele>
        <time>2019-07-21T08:09:32Z</time>
      </trkpt>
      <trkpt lat="42.7659800" lon="-5.8895750">
        <ele>1102.4</ele>
        <time>2019-07-21T08:09:35Z</time>
      </trkpt>
      <trkpt lat="42.7658980" lon="-5.8895640">
        <ele>1103.4</ele>
        <time>2019-07-21T08:09:38Z</time>
      </trkpt>
      <trkpt lat="42.7658260" lon="-5.8894970">
        <ele>1104.6</ele>
        <time>2019-07-21T08:09:41Z</time>
      </trkpt>
      <trkpt lat="42.7657940" lon="-5.8893940">
        <ele>1106.0</ele>
        <time>2019-07-21T08:09:44Z</time>
      </trkpt>
      <trkpt lat="42.7658140" lon="-5.8892860">
        <ele>1107.4</ele>
        <time>2019-07-21T08:09:47Z</time>
      </trkpt>
      <trkpt lat="42.7658490" lon="-5.8891740">
        <ele>1108.8</ele>
        <time>2019-07-21T08:09:50Z</time>
      </trkpt>
      <trkpt lat="42.7658780" lon="-5.8890540">
        <ele>1110.0</ele>
        <time>2019-07-21T08:09:53Z</time>
      </trkpt>
      <trkpt lat="42.7658920" lon="-5.8888760">
        <ele>1111.0</ele>
        <time>2019-07-21T08:09:57Z</time>
      </trkpt>
      <trkpt lat="42.7658420" lon="-5.8886760">
        <ele>1112.2</ele>
        <time>2019-07-21T08:10:02Z</time>
      </trkpt>
      <trkpt lat="42.7657730" lon="-5.8885380">
        <ele>1113.4</ele>
        <time>2019-07-21T08:10:06Z</time>
      </trkpt>
      <trkpt lat="42.7657030" lon="-5.8884010">
        <ele>1114.8</ele>
        <time>2019-07-21T08:10:10Z</time>
      </trkpt>
      <trkpt lat="42.7656210" lon="-5.8882840">
        <ele>1116.2</ele>
        <time>2019-07-21T08:10:14Z</time>
      </trkpt>
      <trkpt lat="42.7655270" lon="-5.8881890">
        <ele>1117.2</ele>
        <time>2019-07-21T08:10:18Z</time>
      </trkpt>
      <trkpt lat="42.7654260" lon="-5.8881190">
        <ele>1118.4</ele>
        <time>2019-07-21T08:10:22Z</time>
      </trkpt>
      <trkpt lat="42.7653140" lon="-5.8880810">
        <ele>1119.4</ele>
        <time>2019-07-21T08:10:26Z</time>
      </trkpt>
      <trkpt lat="42.7651960" lon="-5.8880540">
        <ele>1120.6</ele>
        <time>2019-07-21T08:10:30Z</time>
      </trkpt>
      <trkpt lat="42.7650870" lon="-5.8880400">
        <ele>1121.8</ele>
        <time>2019-07-21T08:10:34Z</time>
      </trkpt>
      <trkpt lat="42.7650100" lon="-5.8880040">
        <ele>1122.8</ele>
        <time>2019-07-21T08:10:37Z</time>
      </trkpt>
      <trkpt lat="42.7649370" lon="-5.8879590">
        <ele>1124.0</ele>
        <time>2019-07-21T08:10:40Z</time>
      </trkpt>
      <trkpt lat="42.7648570" lon="-5.8879380">
        <ele>1125.0</ele>
        <time>2019-07-21T08:10:43Z</time>
      </trkpt>
      <trkpt lat="42.7647510" lon="-5.8879040">
        <ele>1126.2</ele>
        <time>2019-07-21T08:10:47Z</time>
      </trkpt>
      <trkpt lat="42.7646450" lon="-5.8878590">
        <ele>1127.6</ele>
        <time>2019-07-21T08:10:51Z</time>
      </trkpt>
      <trkpt lat="42.7645610" lon="-5.8878470">
        <ele>1128.6</ele>
        <time>2019-07-21T08:10:54Z</time>
      </trkpt>
      <trkpt lat="42.7644480" lon="-5.8878440">
        <ele>1129.8</ele>
        <time>2019-07-21T08:10:58Z</time>
      </trkpt>
      <trkpt lat="42.7643340" lon="-5.8878430">
        <ele>1131.0</ele>
        <time>2019-07-21T08:11:02Z</time>
      </trkpt>
      <trkpt lat="42.7642520" lon="-5.8878660">
        <ele>1132.2</ele>
        <time>2019-07-21T08:11:05Z</time>
      </trkpt>
      <trkpt lat="42.7641370" lon="-5.8879060">
        <ele>1133.4</ele>
        <time>2019-07-21T08:11:09Z</time>
      </trkpt>
      <trkpt lat="42.7640260" lon="-5.8879120">
        <ele>1134.6</ele>
        <time>2019-07-21T08:11:13Z</time>
      </trkpt>
      <trkpt lat="42.7639190" lon="-5.8878720">
        <ele>1135.8</ele>
        <time>2019-07-21T08:11:17Z</time>
      </trkpt>
      <trkpt lat="42.7638340" lon="-5.8878420">
        <ele>1136.8</ele>
        <time>2019-07-21T08:11:20Z</time>
      </trkpt>
      <trkpt lat="42.7637260" lon="-5.8877910">
        <ele>1138.0</ele>
        <time>2019-07-21T08:11:24Z</time>
      </trkpt>
      <trkpt lat="42.7636200" lon="-5.8877410">
        <ele>1139.4</ele>
        <time>2019-07-21T08:11:28Z</time>
      </trkpt>
      <trkpt lat="42.7635190" lon="-5.8876930">
        <ele>1140.6</ele>
        <time>2019-07-21T08:11:32Z</time>
      </trkpt>
      <trkpt lat="42.7634170" lon="-5.8876540">
        <ele>1141.8</ele>
        <time>2019-07-21T08:11:36Z</time>
      </trkpt>
      <trkpt lat="42.7633120" lon="-5.8876200">
        <ele>1143.0</ele>
        <time>2019-07-21T08:11:40Z</time>
      </trkpt>
      <trkpt lat="42.7632320" lon="-5.8875890">
        <ele>1144.2</ele>
        <time>2019-07-21T08:11:43Z</time>
      </trkpt>
      <trkpt lat="42.7631240" lon="-5.8875800">
        <ele>1145.4</ele>
        <time>2019-07-21T08:11:47Z</time>
      </trkpt>
      <trkpt lat="42.7630230" lon="-5.8875540">
        <ele>1146.6</ele>
        <time>2019-07-21T08:11:51Z</time>
      </trkpt>
      <trkpt lat="42.7629190" lon="-5.8875280">
        <ele>1147.8</ele>
        <time>2019-07-21T08:11:55Z</time>
      </trkpt>
      <trkpt lat="42.7628070" lon="-5.8875120">
        <ele>1149.2</ele>
        <time>2019-07-21T08:11:59Z</time>
      </trkpt>
      <trkpt lat="42.7627040" lon="-5.8874870">
        <ele>1150.2</ele>
        <time>2019-07-21T08:12:03Z</time>
      </trkpt>
      <trkpt lat="42.7626790" lon="-5.8874830">
        <ele>1150.6</ele>
        <time>2019-07-21T08:12:04Z</time>
      </trkpt>
      <trkpt lat="42.7626280" lon="-5.8874740">
        <ele>1151.4</ele>
        <time>2019-07-21T08:12:06Z</time>
      </trkpt>
      <trkpt lat="42.7625000" lon="-5.8874510">
        <ele>1152.6</ele>
        <time>2019-07-21T08:12:11Z</time>
      </trkpt>
      <trkpt lat="42.7623890" lon="-5.8874680">
        <ele>1153.8</ele>
        <time>2019-07-21T08:12:15Z</time>
      </trkpt>
      <trkpt lat="42.7622760" lon="-5.8874770">
        <ele>1155.0</ele>
        <time>2019-07-21T08:12:19Z</time>
      </trkpt>
      <trkpt lat="42.7621920" lon="-5.8874730">
        <ele>1156.2</ele>
        <time>2019-07-21T08:12:22Z</time>
      </trkpt>
      <trkpt lat="42.7621060" lon="-5.8874890">
        <ele>1157.2</ele>
        <time>2019-07-21T08:12:25Z</time>
      </trkpt>
      <trkpt lat="42.7619990" lon="-5.8874890">
        <ele>1158.6</ele>
        <time>2019-07-21T08:12:29Z</time>
      </trkpt>
      <trkpt lat="42.7619160" lon="-5.8874740">
        <ele>1159.6</ele>
        <time>2019-07-21T08:12:32Z</time>
      </trkpt>
      <trkpt lat="42.7618100" lon="-5.8874460">
        <ele>1160.6</ele>
        <time>2019-07-21T08:12:36Z</time>
      </trkpt>
      <trkpt lat="42.7617090" lon="-5.8874160">
        <ele>1162.0</ele>
        <time>2019-07-21T08:12:40Z</time>
      </trkpt>
      <trkpt lat="42.7616070" lon="-5.8873760">
        <ele>1163.0</ele>
        <time>2019-07-21T08:12:44Z</time>
      </trkpt>
      <trkpt lat="42.7615330" lon="-5.8873480">
        <ele>1164.2</ele>
        <time>2019-07-21T08:12:47Z</time>
      </trkpt>
      <trkpt lat="42.7614360" lon="-5.8873120">
        <ele>1165.4</ele>
        <time>2019-07-21T08:12:51Z</time>
      </trkpt>
      <trkpt lat="42.7613150" lon="-5.8872590">
        <ele>1166.8</ele>
        <time>2019-07-21T08:12:56Z</time>
      </trkpt>
      <trkpt lat="42.7612220" lon="-5.8872110">
        <ele>1167.8</ele>
        <time>2019-07-21T08:13:00Z</time>
      </trkpt>
      <trkpt lat="42.7611330" lon="-5.8871320">
        <ele>1169.0</ele>
        <time>2019-07-21T08:13:04Z</time>
      </trkpt>
      <trkpt lat="42.7610730" lon="-5.8869810">
        <ele>1170.2</ele>
        <time>2019-07-21T08:13:09Z</time>
      </trkpt>
      <trkpt lat="42.7610340" lon="-5.8868040">
        <ele>1171.4</ele>
        <time>2019-07-21T08:13:14Z</time>
      </trkpt>
      <trkpt lat="42.7609630" lon="-5.8866870">
        <ele>1172.4</ele>
        <time>2019-07-21T08:13:18Z</time>
      </trkpt>
      <trkpt lat="42.7609130" lon="-5.8866650">
        <ele>1173.0</ele>
        <time>2019-07-21T08:13:20Z</time>
      </trkpt>
      <trkpt lat="42.7608580" lon="-5.8866800">
        <ele>1173.6</ele>
        <time>2019-07-21T08:13:22Z</time>
      </trkpt>
      <trkpt lat="42.7608330" lon="-5.8866990">
        <ele>1174.0</ele>
        <time>2019-07-21T08:13:23Z</time>
      </trkpt>
      <trkpt lat="42.7607920" lon="-5.8867920">
        <ele>1174.8</ele>
        <time>2019-07-21T08:13:26Z</time>
      </trkpt>
      <trkpt lat="42.7608490" lon="-5.8870360">
        <ele>1175.4</ele>
        <time>2019-07-21T08:13:32Z</time>
      </trkpt>
      <trkpt lat="42.7609390" lon="-5.8872190">
        <ele>1175.4</ele>
        <time>2019-07-21T08:13:36Z</time>
      </trkpt>
      <trkpt lat="42.7610710" lon="-5.8875070">
        <ele>1175.4</ele>
        <time>2019-07-21T08:13:42Z</time>
      </trkpt>
      <trkpt lat="42.7611190" lon="-5.8875930">
        <ele>1175.8</ele>
        <time>2019-07-21T08:13:44Z</time>
      </trkpt>
      <trkpt lat="42.7612580" lon="-5.8878500">
        <ele>1176.8</ele>
        <time>2019-07-21T08:13:50Z</time>
      </trkpt>
      <trkpt lat="42.7614030" lon="-5.8881050">
        <ele>1177.8</ele>
        <time>2019-07-21T08:13:56Z</time>
      </trkpt>
      <trkpt lat="42.7614250" lon="-5.8881480">
        <ele>1177.8</ele>
        <time>2019-07-21T08:13:57Z</time>
      </trkpt>
      <trkpt lat="42.7615270" lon="-5.8884240">
        <ele>1178.6</ele>
        <time>2019-07-21T08:14:03Z</time>
      </trkpt>
      <trkpt lat="42.7615500" lon="-5.8885230">
        <ele>1179.2</ele>
        <time>2019-07-21T08:14:05Z</time>
      </trkpt>
      <trkpt lat="42.7615750" lon="-5.8887340">
        <ele>1180.2</ele>
        <time>2019-07-21T08:14:09Z</time>
      </trkpt>
      <trkpt lat="42.7615680" lon="-5.8890550">
        <ele>1181.4</ele>
        <time>2019-07-21T08:14:15Z</time>
      </trkpt>
      <trkpt lat="42.7615340" lon="-5.8892020">
        <ele>1182.4</ele>
        <time>2019-07-21T08:14:18Z</time>
      </trkpt>
      <trkpt lat="42.7614700" lon="-5.8893350">
        <ele>1183.6</ele>
        <time>2019-07-21T08:14:21Z</time>
      </trkpt>
      <trkpt lat="42.7613690" lon="-5.8894950">
        <ele>1184.6</ele>
        <time>2019-07-21T08:14:25Z</time>
      </trkpt>
      <trkpt lat="42.7612880" lon="-5.8896050">
        <ele>1185.8</ele>
        <time>2019-07-21T08:14:28Z</time>
      </trkpt>
      <trkpt lat="42.7611800" lon="-5.8897550">
        <ele>1187.0</ele>
        <time>2019-07-21T08:14:32Z</time>
      </trkpt>
      <trkpt lat="42.7610920" lon="-5.8898700">
        <ele>1188.0</ele>
        <time>2019-07-21T08:14:35Z</time>
      </trkpt>
      <trkpt lat="42.7609560" lon="-5.8900690">
        <ele>1189.4</ele>
        <time>2019-07-21T08:14:40Z</time>
      </trkpt>
      <trkpt lat="42.7608220" lon="-5.8902780">
        <ele>1190.6</ele>
        <time>2019-07-21T08:14:45Z</time>
      </trkpt>
      <trkpt lat="42.7607730" lon="-5.8903730">
        <ele>1191.0</ele>
        <time>2019-07-21T08:14:47Z</time>
      </trkpt>
      <trkpt lat="42.7607290" lon="-5.8904720">
        <ele>1191.4</ele>
        <time>2019-07-21T08:14:49Z</time>
      </trkpt>
      <trkpt lat="42.7605600" lon="-5.8908240">
        <ele>1191.4</ele>
        <time>2019-07-21T08:14:55Z</time>
      </trkpt>
      <trkpt lat="42.7603410" lon="-5.8912950">
        <ele>1190.6</ele>
        <time>2019-07-21T08:15:01Z</time>
      </trkpt>
      <trkpt lat="42.7601810" lon="-5.8916890">
        <ele>1189.6</ele>
        <time>2019-07-21T08:15:05Z</time>
      </trkpt>
      <trkpt lat="42.7599290" lon="-5.8922980">
        <ele>1188.4</ele>
        <time>2019-07-21T08:15:11Z</time>
      </trkpt>
      <trkpt lat="42.7596420" lon="-5.8928670">
        <ele>1187.8</ele>
        <time>2019-07-21T08:15:17Z</time>
      </trkpt>
      <trkpt lat="42.7593190" lon="-5.8933070">
        <ele>1188.2</ele>
        <time>2019-07-21T08:15:23Z</time>
      </trkpt>
      <trkpt lat="42.7590190" lon="-5.8937650">
        <ele>1188.2</ele>
        <time>2019-07-21T08:15:29Z</time>
      </trkpt>
      <trkpt lat="42.7586860" lon="-5.8942710">
        <ele>1187.8</ele>
        <time>2019-07-21T08:15:35Z</time>
      </trkpt>
      <trkpt lat="42.7585480" lon="-5.8944180">
        <ele>1187.4</ele>
        <time>2019-07-21T08:15:37Z</time>
      </trkpt>
      <trkpt lat="42.7581570" lon="-5.8947900">
        <ele>1186.2</ele>
        <time>2019-07-21T08:15:42Z</time>
      </trkpt>
      <trkpt lat="42.7578750" lon="-5.8952210">
        <ele>1185.0</ele>
        <time>2019-07-21T08:15:46Z</time>
      </trkpt>
      <trkpt lat="42.7576750" lon="-5.8956220">
        <ele>1183.8</ele>
        <time>2019-07-21T08:15:49Z</time>
      </trkpt>
      <trkpt lat="42.7575120" lon="-5.8958970">
        <ele>1182.4</ele>
        <time>2019-07-21T08:15:51Z</time>
      </trkpt>
      <trkpt lat="42.7574140" lon="-5.8960190">
        <ele>1181.2</ele>
        <time>2019-07-21T08:15:52Z</time>
      </trkpt>
      <trkpt lat="42.7573060" lon="-5.8961250">
        <ele>1180.0</ele>
        <time>2019-07-21T08:15:53Z</time>
      </trkpt>
      <trkpt lat="42.7570620" lon="-5.8962580">
        <ele>1178.4</ele>
        <time>2019-07-21T08:15:55Z</time>
      </trkpt>
      <trkpt lat="42.7568140" lon="-5.8963160">
        <ele>1177.2</ele>
        <time>2019-07-21T08:15:57Z</time>
      </trkpt>
      <trkpt lat="42.7566950" lon="-5.8963490">
        <ele>1176.8</ele>
        <time>2019-07-21T08:15:58Z</time>
      </trkpt>
      <trkpt lat="42.7564840" lon="-5.8964640">
        <ele>1176.2</ele>
        <time>2019-07-21T08:16:00Z</time>
      </trkpt>
      <trkpt lat="42.7559350" lon="-5.8967610">
        <ele>1176.6</ele>
        <time>2019-07-21T08:16:06Z</time>
      </trkpt>
      <trkpt lat="42.7556960" lon="-5.8968670">
        <ele>1177.4</ele>
        <time>2019-07-21T08:16:09Z</time>
      </trkpt>
      <trkpt lat="42.7552350" lon="-5.8972050">
        <ele>1178.0</ele>
        <time>2019-07-21T08:16:15Z</time>
      </trkpt>
      <trkpt lat="42.7548000" lon="-5.8977120">
        <ele>1177.0</ele>
        <time>2019-07-21T08:16:21Z</time>
      </trkpt>
      <trkpt lat="42.7546280" lon="-5.8980460">
        <ele>1175.8</ele>
        <time>2019-07-21T08:16:24Z</time>
      </trkpt>
      <trkpt lat="42.7544610" lon="-5.8983850">
        <ele>1174.6</ele>
        <time>2019-07-21T08:16:27Z</time>
      </trkpt>
      <trkpt lat="42.7542330" lon="-5.8988320">
        <ele>1173.6</ele>
        <time>2019-07-21T08:16:31Z</time>
      </trkpt>
      <trkpt lat="42.7539340" lon="-5.8994020">
        <ele>1172.4</ele>
        <time>2019-07-21T08:16:36Z</time>
      </trkpt>
      <trkpt lat="42.7538170" lon="-5.8996470">
        <ele>1171.4</ele>
        <time>2019-07-21T08:16:38Z</time>
      </trkpt>
      <trkpt lat="42.7536500" lon="-5.9000360">
        <ele>1170.4</ele>
        <time>2019-07-21T08:16:41Z</time>
      </trkpt>
      <trkpt lat="42.7533730" lon="-5.9006960">
        <ele>1169.4</ele>
        <time>2019-07-21T08:16:46Z</time>
      </trkpt>
      <trkpt lat="42.7533080" lon="-5.9008230">
        <ele>1169.0</ele>
        <time>2019-07-21T08:16:47Z</time>
      </trkpt>
      <trkpt lat="42.7530060" lon="-5.9012940">
        <ele>1167.6</ele>
        <time>2019-07-21T08:16:51Z</time>
      </trkpt>
      <trkpt lat="42.7528410" lon="-5.9015160">
        <ele>1166.4</ele>
        <time>2019-07-21T08:16:53Z</time>
      </trkpt>
      <trkpt lat="42.7526810" lon="-5.9017370">
        <ele>1165.0</ele>
        <time>2019-07-21T08:16:55Z</time>
      </trkpt>
      <trkpt lat="42.7525960" lon="-5.9018360">
        <ele>1164.4</ele>
        <time>2019-07-21T08:16:56Z</time>
      </trkpt>
      <trkpt lat="42.7524000" lon="-5.9019860">
        <ele>1164.0</ele>
        <time>2019-07-21T08:16:58Z</time>
      </trkpt>
      <trkpt lat="42.7522940" lon="-5.9020310">
        <ele>1163.8</ele>
        <time>2019-07-21T08:16:59Z</time>
      </trkpt>
      <trkpt lat="42.7519780" lon="-5.9021050">
        <ele>1164.2</ele>
        <time>2019-07-21T08:17:02Z</time>
      </trkpt>
      <trkpt lat="42.7516010" lon="-5.9020560">
        <ele>1165.2</ele>
        <time>2019-07-21T08:17:06Z</time>
      </trkpt>
      <trkpt lat="42.7513320" lon="-5.9020220">
        <ele>1166.4</ele>
        <time>2019-07-21T08:17:09Z</time>
      </trkpt>
      <trkpt lat="42.7510590" lon="-5.9020030">
        <ele>1167.2</ele>
        <time>2019-07-21T08:17:12Z</time>
      </trkpt>
      <trkpt lat="42.7508830" lon="-5.9019760">
        <ele>1167.8</ele>
        <time>2019-07-21T08:17:14Z</time>
      </trkpt>
      <trkpt lat="42.7504730" lon="-5.9017680">
        <ele>1168.8</ele>
        <time>2019-07-21T08:17:19Z</time>
      </trkpt>
      <trkpt lat="42.7500120" lon="-5.9014450">
        <ele>1170.0</ele>
        <time>2019-07-21T08:17:25Z</time>
      </trkpt>
      <trkpt lat="42.7497040" lon="-5.9012480">
        <ele>1171.0</ele>
        <time>2019-07-21T08:17:29Z</time>
      </trkpt>
      <trkpt lat="42.7493400" lon="-5.9010150">
        <ele>1172.2</ele>
        <time>2019-07-21T08:17:34Z</time>
      </trkpt>
      <trkpt lat="42.7489770" lon="-5.9008080">
        <ele>1172.8</ele>
        <time>2019-07-21T08:17:39Z</time>
      </trkpt>
      <trkpt lat="42.7484220" lon="-5.9006300">
        <ele>1172.0</ele>
        <time>2019-07-21T08:17:45Z</time>
      </trkpt>
      <trkpt lat="42.7480760" lon="-5.9005480">
        <ele>1170.8</ele>
        <time>2019-07-21T08:17:48Z</time>
      </trkpt>
      <trkpt lat="42.7478270" lon="-5.9004850">
        <ele>1169.4</ele>
        <time>2019-07-21T08:17:50Z</time>
      </trkpt>
      <trkpt lat="42.7475760" lon="-5.9004250">
        <ele>1168.2</ele>
        <time>2019-07-21T08:17:52Z</time>
      </trkpt>
      <trkpt lat="42.7473300" lon="-5.9003710">
        <ele>1167.2</ele>
        <time>2019-07-21T08:17:54Z</time>
      </trkpt>
      <trkpt lat="42.7467450" lon="-5.9002560">
        <ele>1166.2</ele>
        <time>2019-07-21T08:17:59Z</time>
      </trkpt>
      <trkpt lat="42.7463130" lon="-5.9002180">
        <ele>1165.0</ele>
        <time>2019-07-21T08:18:03Z</time>
      </trkpt>
      <trkpt lat="42.7456970" lon="-5.9001970">
        <ele>1166.0</ele>
        <time>2019-07-21T08:18:09Z</time>
      </trkpt>
      <trkpt lat="42.7454890" lon="-5.9001980">
        <ele>1166.2</ele>
        <time>2019-07-21T08:18:11Z</time>
      </trkpt>
      <trkpt lat="42.7448620" lon="-5.9002310">
        <ele>1166.4</ele>
        <time>2019-07-21T08:18:17Z</time>
      </trkpt>
      <trkpt lat="42.7442660" lon="-5.9002310">
        <ele>1166.4</ele>
        <time>2019-07-21T08:18:23Z</time>
      </trkpt>
      <trkpt lat="42.7437060" lon="-5.9002170">
        <ele>1166.4</ele>
        <time>2019-07-21T08:18:29Z</time>
      </trkpt>
      <trkpt lat="42.7431480" lon="-5.9002070">
        <ele>1166.6</ele>
        <time>2019-07-21T08:18:35Z</time>
      </trkpt>
      <trkpt lat="42.7425570" lon="-5.9003060">
        <ele>1166.8</ele>
        <time>2019-07-21T08:18:41Z</time>
      </trkpt>
      <trkpt lat="42.7420050" lon="-5.9004100">
        <ele>1165.2</ele>
        <time>2019-07-21T08:18:46Z</time>
      </trkpt>
      <trkpt lat="42.7414240" lon="-5.9004600">
        <ele>1163.8</ele>
        <time>2019-07-21T08:18:51Z</time>
      </trkpt>
      <trkpt lat="42.7410730" lon="-5.9004740">
        <ele>1162.4</ele>
        <time>2019-07-21T08:18:54Z</time>
      </trkpt>
      <trkpt lat="42.7407320" lon="-5.9004990">
        <ele>1161.4</ele>
        <time>2019-07-21T08:18:57Z</time>
      </trkpt>
      <trkpt lat="42.7401630" lon="-5.9005050">
        <ele>1160.2</ele>
        <time>2019-07-21T08:19:02Z</time>
      </trkpt>
      <trkpt lat="42.7399310" lon="-5.9004600">
        <ele>1158.6</ele>
        <time>2019-07-21T08:19:04Z</time>
      </trkpt>
      <trkpt lat="42.7395790" lon="-5.9003630">
        <ele>1157.4</ele>
        <time>2019-07-21T08:19:07Z</time>
      </trkpt>
      <trkpt lat="42.7392200" lon="-5.9002470">
        <ele>1156.2</ele>
        <time>2019-07-21T08:19:10Z</time>
      </trkpt>
      <trkpt lat="42.7387420" lon="-5.9000860">
        <ele>1155.0</ele>
        <time>2019-07-21T08:19:14Z</time>
      </trkpt>
      <trkpt lat="42.7385180" lon="-5.9000120">
        <ele>1153.4</ele>
        <time>2019-07-21T08:19:16Z</time>
      </trkpt>
      <trkpt lat="42.7382920" lon="-5.8999490">
        <ele>1151.8</ele>
        <time>2019-07-21T08:19:18Z</time>
      </trkpt>
      <trkpt lat="42.7379680" lon="-5.8998790">
        <ele>1150.4</ele>
        <time>2019-07-21T08:19:21Z</time>
      </trkpt>
      <trkpt lat="42.7376790" lon="-5.8998770">
        <ele>1149.0</ele>
        <time>2019-07-21T08:19:24Z</time>
      </trkpt>
      <trkpt lat="42.7375230" lon="-5.8998780">
        <ele>1148.6</ele>
        <time>2019-07-21T08:19:26Z</time>
      </trkpt>
      <trkpt lat="42.7373820" lon="-5.8997780">
        <ele>1147.6</ele>
        <time>2019-07-21T08:19:28Z</time>
      </trkpt>
      <trkpt lat="42.7372780" lon="-5.8995720">
        <ele>1146.4</ele>
        <time>2019-07-21T08:19:30Z</time>
      </trkpt>
      <trkpt lat="42.7371370" lon="-5.8991950">
        <ele>1145.8</ele>
        <time>2019-07-21T08:19:33Z</time>
      </trkpt>
      <trkpt lat="42.7370210" lon="-5.8989300">
        <ele>1145.4</ele>
        <time>2019-07-21T08:19:35Z</time>
      </trkpt>
      <trkpt lat="42.7369210" lon="-5.8986430">
        <ele>1144.8</ele>
        <time>2019-07-21T08:19:37Z</time>
      </trkpt>
      <trkpt lat="42.7368120" lon="-5.8981680">
        <ele>1144.4</ele>
        <time>2019-07-21T08:19:40Z</time>
      </trkpt>
      <trkpt lat="42.7367430" lon="-5.8978320">
        <ele>1144.2</ele>
        <time>2019-07-21T08:19:42Z</time>
      </trkpt>
      <trkpt lat="42.7365670" lon="-5.8970230">
        <ele>1143.2</ele>
        <time>2019-07-21T08:19:47Z</time>
      </trkpt>
      <trkpt lat="42.7365030" lon="-5.8967710">
        <ele>1142.0</ele>
        <time>2019-07-21T08:19:49Z</time>
      </trkpt>
      <trkpt lat="42.7364670" lon="-5.8966770">
        <ele>1141.4</ele>
        <time>2019-07-21T08:19:50Z</time>
      </trkpt>
      <trkpt lat="42.7363370" lon="-5.8965820">
        <ele>1140.8</ele>
        <time>2019-07-21T08:19:52Z</time>
      </trkpt>
      <trkpt lat="42.7361910" lon="-5.8966690">
        <ele>1140.4</ele>
        <time>2019-07-21T08:19:54Z</time>
      </trkpt>
      <trkpt lat="42.7357780" lon="-5.8972850">
        <ele>1139.6</ele>
        <time>2019-07-21T08:20:00Z</time>
      </trkpt>
      <trkpt lat="42.7356140" lon="-5.8975030">
        <ele>1138.2</ele>
        <time>2019-07-21T08:20:02Z</time>
      </trkpt>
      <trkpt lat="42.7354450" lon="-5.8977180">
        <ele>1137.2</ele>
        <time>2019-07-21T08:20:04Z</time>
      </trkpt>
      <trkpt lat="42.7350420" lon="-5.8982660">
        <ele>1136.2</ele>
        <time>2019-07-21T08:20:09Z</time>
      </trkpt>
      <trkpt lat="42.7349680" lon="-5.8983720">
        <ele>1136.0</ele>
        <time>2019-07-21T08:20:10Z</time>
      </trkpt>
      <trkpt lat="42.7347400" lon="-5.8986700">
        <ele>1135.8</ele>
        <time>2019-07-21T08:20:13Z</time>
      </trkpt>
      <trkpt lat="42.7341960" lon="-5.8990070">
        <ele>1136.2</ele>
        <time>2019-07-21T08:20:19Z</time>
      </trkpt>
      <trkpt lat="42.7336490" lon="-5.8992090">
        <ele>1136.8</ele>
        <time>2019-07-21T08:20:25Z</time>
      </trkpt>
      <trkpt lat="42.7334980" lon="-5.8992250">
        <ele>1137.2</ele>
        <time>2019-07-21T08:20:27Z</time>
      </trkpt>
      <trkpt lat="42.7330660" lon="-5.8991730">
        <ele>1137.4</ele>
        <time>2019-07-21T08:20:33Z</time>
      </trkpt>
      <trkpt lat="42.7329850" lon="-5.8991540">
        <ele>1137.4</ele>
        <time>2019-07-21T08:20:34Z</time>
      </trkpt>
      <trkpt lat="42.7325910" lon="-5.8989560">
        <ele>1138.2</ele>
        <time>2019-07-21T08:20:39Z</time>
      </trkpt>
      <trkpt lat="42.7323770" lon="-5.8988700">
        <ele>1138.6</ele>
        <time>2019-07-21T08:20:42Z</time>
      </trkpt>
      <trkpt lat="42.7322780" lon="-5.8987520">
        <ele>1139.6</ele>
        <time>2019-07-21T08:20:44Z</time>
      </trkpt>
      <trkpt lat="42.7322050" lon="-5.8986000">
        <ele>1140.6</ele>
        <time>2019-07-21T08:20:46Z</time>
      </trkpt>
      <trkpt lat="42.7321370" lon="-5.8984480">
        <ele>1141.8</ele>
        <time>2019-07-21T08:20:48Z</time>
      </trkpt>
      <trkpt lat="42.7321110" lon="-5.8983700">
        <ele>1142.2</ele>
        <time>2019-07-21T08:20:49Z</time>
      </trkpt>
      <trkpt lat="42.7320870" lon="-5.8982170">
        <ele>1142.8</ele>
        <time>2019-07-21T08:20:51Z</time>
      </trkpt>
      <trkpt lat="42.7320660" lon="-5.8980650">
        <ele>1143.2</ele>
        <time>2019-07-21T08:20:53Z</time>
      </trkpt>
      <trkpt lat="42.7320180" lon="-5.8979660">
        <ele>1143.8</ele>
        <time>2019-07-21T08:20:55Z</time>
      </trkpt>
      <trkpt lat="42.7319830" lon="-5.8979660">
        <ele>1144.0</ele>
        <time>2019-07-21T08:20:56Z</time>
      </trkpt>
      <trkpt lat="42.7319140" lon="-5.8980950">
        <ele>1144.8</ele>
        <time>2019-07-21T08:20:59Z</time>
      </trkpt>
      <trkpt lat="42.7318800" lon="-5.8981390">
        <ele>1145.0</ele>
        <time>2019-07-21T08:21:00Z</time>
      </trkpt>
      <trkpt lat="42.7318390" lon="-5.8981740">
        <ele>1145.4</ele>
        <time>2019-07-21T08:21:01Z</time>
      </trkpt>
      <trkpt lat="42.7317480" lon="-5.8982190">
        <ele>1146.2</ele>
        <time>2019-07-21T08:21:03Z</time>
      </trkpt>
      <trkpt lat="42.7316540" lon="-5.8982520">
        <ele>1147.0</ele>
        <time>2019-07-21T08:21:05Z</time>
      </trkpt>
      <trkpt lat="42.7315680" lon="-5.8983150">
        <ele>1147.6</ele>
        <time>2019-07-21T08:21:07Z</time>
      </trkpt>
      <trkpt lat="42.7314530" lon="-5.8984110">
        <ele>1148.6</ele>
        <time>2019-07-21T08:21:10Z</time>
      </trkpt>
      <trkpt lat="42.7313600" lon="-5.8985050">
        <ele>1150.0</ele>
        <time>2019-07-21T08:21:13Z</time>
      </trkpt>
      <trkpt lat="42.7312830" lon="-5.8985780">
        <ele>1151.4</ele>
        <time>2019-07-21T08:21:16Z</time>
      </trkpt>
      <trkpt lat="42.7311860" lon="-5.8986850">
        <ele>1152.6</ele>
        <time>2019-07-21T08:21:19Z</time>
      </trkpt>
      <trkpt lat="42.7310540" lon="-5.8988280">
        <ele>1154.0</ele>
        <time>2019-07-21T08:21:23Z</time>
      </trkpt>
      <trkpt lat="42.7309510" lon="-5.8989430">
        <ele>1155.0</ele>
        <time>2019-07-21T08:21:26Z</time>
      </trkpt>
      <trkpt lat="42.7308060" lon="-5.8991040">
        <ele>1156.0</ele>
        <time>2019-07-21T08:21:30Z</time>
      </trkpt>
      <trkpt lat="42.7306530" lon="-5.8992840">
        <ele>1157.2</ele>
        <time>2019-07-21T08:21:34Z</time>
      </trkpt>
      <trkpt lat="42.7304110" lon="-5.8995490">
        <ele>1158.0</ele>
        <time>2019-07-21T08:21:40Z</time>
      </trkpt>
      <trkpt lat="42.7303690" lon="-5.8995920">
        <ele>1158.2</ele>
        <time>2019-07-21T08:21:41Z</time>
      </trkpt>
      <trkpt lat="42.7301180" lon="-5.8998510">
        <ele>1159.4</ele>
        <time>2019-07-21T08:21:46Z</time>
      </trkpt>
      <trkpt lat="42.7299970" lon="-5.8999480">
        <ele>1159.4</ele>
        <time>2019-07-21T08:21:48Z</time>
      </trkpt>
      <trkpt lat="42.7298660" lon="-5.9000160">
        <ele>1159.4</ele>
        <time>2019-07-21T08:21:50Z</time>
      </trkpt>
      <trkpt lat="42.7294810" lon="-5.9001000">
        <ele>1158.2</ele>
        <time>2019-07-21T08:21:55Z</time>
      </trkpt>
      <trkpt lat="42.7293050" lon="-5.9000650">
        <ele>1157.8</ele>
        <time>2019-07-21T08:21:57Z</time>
      </trkpt>
      <trkpt lat="42.7291410" lon="-5.8999550">
        <ele>1157.0</ele>
        <time>2019-07-21T08:21:59Z</time>
      </trkpt>
      <trkpt lat="42.7289200" lon="-5.8997560">
        <ele>1156.0</ele>
        <time>2019-07-21T08:22:02Z</time>
      </trkpt>
      <trkpt lat="42.7285380" lon="-5.8994550">
        <ele>1155.4</ele>
        <time>2019-07-21T08:22:07Z</time>
      </trkpt>
      <trkpt lat="42.7280850" lon="-5.8990100">
        <ele>1155.0</ele>
        <time>2019-07-21T08:22:13Z</time>
      </trkpt>
      <trkpt lat="42.7280160" lon="-5.8989310">
        <ele>1154.4</ele>
        <time>2019-07-21T08:22:14Z</time>
      </trkpt>
      <trkpt lat="42.7277840" lon="-5.8987040">
        <ele>1153.4</ele>
        <time>2019-07-21T08:22:17Z</time>
      </trkpt>
      <trkpt lat="42.7275350" lon="-5.8984530">
        <ele>1151.8</ele>
        <time>2019-07-21T08:22:20Z</time>
      </trkpt>
      <trkpt lat="42.7274570" lon="-5.8983520">
        <ele>1151.2</ele>
        <time>2019-07-21T08:22:21Z</time>
      </trkpt>
      <trkpt lat="42.7273850" lon="-5.8982400">
        <ele>1150.6</ele>
        <time>2019-07-21T08:22:22Z</time>
      </trkpt>
      <trkpt lat="42.7272430" lon="-5.8979860">
        <ele>1149.0</ele>
        <time>2019-07-21T08:22:24Z</time>
      </trkpt>
      <trkpt lat="42.7270970" lon="-5.8976910">
        <ele>1147.4</ele>
        <time>2019-07-21T08:22:26Z</time>
      </trkpt>
      <trkpt lat="42.7269340" lon="-5.8973840">
        <ele>1146.4</ele>
        <time>2019-07-21T08:22:28Z</time>
      </trkpt>
      <trkpt lat="42.7268540" lon="-5.8972300">
        <ele>1145.6</ele>
        <time>2019-07-21T08:22:29Z</time>
      </trkpt>
      <trkpt lat="42.7267850" lon="-5.8970640">
        <ele>1144.4</ele>
        <time>2019-07-21T08:22:30Z</time>
      </trkpt>
      <trkpt lat="42.7267310" lon="-5.8968870">
        <ele>1143.4</ele>
        <time>2019-07-21T08:22:31Z</time>
      </trkpt>
      <trkpt lat="42.7266950" lon="-5.8967060">
        <ele>1142.2</ele>
        <time>2019-07-21T08:22:32Z</time>
      </trkpt>
      <trkpt lat="42.7266710" lon="-5.8965280">
        <ele>1141.0</ele>
        <time>2019-07-21T08:22:33Z</time>
      </trkpt>
      <trkpt lat="42.7266540" lon="-5.8963510">
        <ele>1139.8</ele>
        <time>2019-07-21T08:22:34Z</time>
      </trkpt>
      <trkpt lat="42.7266290" lon="-5.8961740">
        <ele>1138.6</ele>
        <time>2019-07-21T08:22:35Z</time>
      </trkpt>
      <trkpt lat="42.7266010" lon="-5.8959970">
        <ele>1137.6</ele>
        <time>2019-07-21T08:22:36Z</time>
      </trkpt>
      <trkpt lat="42.7265130" lon="-5.8956530">
        <ele>1135.6</ele>
        <time>2019-07-21T08:22:38Z</time>
      </trkpt>
      <trkpt lat="42.7264510" lon="-5.8954790">
        <ele>1134.6</ele>
        <time>2019-07-21T08:22:39Z</time>
      </trkpt>
      <trkpt lat="42.7263850" lon="-5.8953080">
        <ele>1133.4</ele>
        <time>2019-07-21T08:22:40Z</time>
      </trkpt>
      <trkpt lat="42.7262320" lon="-5.8949650">
        <ele>1131.6</ele>
        <time>2019-07-21T08:22:42Z</time>
      </trkpt>
      <trkpt lat="42.7261360" lon="-5.8947960">
        <ele>1130.4</ele>
        <time>2019-07-21T08:22:43Z</time>
      </trkpt>
      <trkpt lat="42.7260300" lon="-5.8946270">
        <ele>1129.4</ele>
        <time>2019-07-21T08:22:44Z</time>
      </trkpt>
      <trkpt lat="42.7258170" lon="-5.8943010">
        <ele>1127.2</ele>
        <time>2019-07-21T08:22:46Z</time>
      </trkpt>
      <trkpt lat="42.7257130" lon="-5.8941430">
        <ele>1125.6</ele>
        <time>2019-07-21T08:22:47Z</time>
      </trkpt>
      <trkpt lat="42.7256150" lon="-5.8939980">
        <ele>1123.6</ele>
        <time>2019-07-21T08:22:48Z</time>
      </trkpt>
      <trkpt lat="42.7255220" lon="-5.8938630">
        <ele>1122.2</ele>
        <time>2019-07-21T08:22:49Z</time>
      </trkpt>
      <trkpt lat="42.7254340" lon="-5.8937350">
        <ele>1121.0</ele>
        <time>2019-07-21T08:22:50Z</time>
      </trkpt>
      <trkpt lat="42.7253520" lon="-5.8936100">
        <ele>1120.0</ele>
        <time>2019-07-21T08:22:51Z</time>
      </trkpt>
      <trkpt lat="42.7252710" lon="-5.8934900">
        <ele>1119.0</ele>
        <time>2019-07-21T08:22:52Z</time>
      </trkpt>
      <trkpt lat="42.7251900" lon="-5.8933850">
        <ele>1118.0</ele>
        <time>2019-07-21T08:22:53Z</time>
      </trkpt>
      <trkpt lat="42.7250040" lon="-5.8932440">
        <ele>1116.2</ele>
        <time>2019-07-21T08:22:55Z</time>
      </trkpt>
      <trkpt lat="42.7248040" lon="-5.8931630">
        <ele>1115.2</ele>
        <time>2019-07-21T08:22:57Z</time>
      </trkpt>
      <trkpt lat="42.7246440" lon="-5.8930420">
        <ele>1114.6</ele>
        <time>2019-07-21T08:22:59Z</time>
      </trkpt>
      <trkpt lat="42.7245940" lon="-5.8929580">
        <ele>1114.2</ele>
        <time>2019-07-21T08:23:00Z</time>
      </trkpt>
      <trkpt lat="42.7245680" lon="-5.8928600">
        <ele>1113.4</ele>
        <time>2019-07-21T08:23:01Z</time>
      </trkpt>
      <trkpt lat="42.7245710" lon="-5.8927530">
        <ele>1112.8</ele>
        <time>2019-07-21T08:23:02Z</time>
      </trkpt>
      <trkpt lat="42.7245980" lon="-5.8926430">
        <ele>1112.0</ele>
        <time>2019-07-21T08:23:03Z</time>
      </trkpt>
      <trkpt lat="42.7246310" lon="-5.8925280">
        <ele>1111.6</ele>
        <time>2019-07-21T08:23:04Z</time>
      </trkpt>
      <trkpt lat="42.7246620" lon="-5.8924010">
        <ele>1111.4</ele>
        <time>2019-07-21T08:23:05Z</time>
      </trkpt>
      <trkpt lat="42.7247030" lon="-5.8921230">
        <ele>1111.0</ele>
        <time>2019-07-21T08:23:07Z</time>
      </trkpt>
      <trkpt lat="42.7247400" lon="-5.8918190">
        <ele>1111.2</ele>
        <time>2019-07-21T08:23:09Z</time>
      </trkpt>
      <trkpt lat="42.7247740" lon="-5.8914990">
        <ele>1111.2</ele>
        <time>2019-07-21T08:23:11Z</time>
      </trkpt>
      <trkpt lat="42.7248220" lon="-5.8911720">
        <ele>1111.2</ele>
        <time>2019-07-21T08:23:13Z</time>
      </trkpt>
      <trkpt lat="42.7248790" lon="-5.8908400">
        <ele>1111.2</ele>
        <time>2019-07-21T08:23:15Z</time>
      </trkpt>
      <trkpt lat="42.7249180" lon="-5.8903300">
        <ele>1110.8</ele>
        <time>2019-07-21T08:23:18Z</time>
      </trkpt>
      <trkpt lat="42.7249220" lon="-5.8901630">
        <ele>1110.4</ele>
        <time>2019-07-21T08:23:19Z</time>
      </trkpt>
      <trkpt lat="42.7249650" lon="-5.8895060">
        <ele>1109.4</ele>
        <time>2019-07-21T08:23:23Z</time>
      </trkpt>
      <trkpt lat="42.7249790" lon="-5.8890160">
        <ele>1108.2</ele>
        <time>2019-07-21T08:23:26Z</time>
      </trkpt>
      <trkpt lat="42.7249250" lon="-5.8886950">
        <ele>1107.8</ele>
        <time>2019-07-21T08:23:28Z</time>
      </trkpt>
      <trkpt lat="42.7248070" lon="-5.8882300">
        <ele>1107.6</ele>
        <time>2019-07-21T08:23:31Z</time>
      </trkpt>
      <trkpt lat="42.7247820" lon="-5.8879130">
        <ele>1107.2</ele>
        <time>2019-07-21T08:23:33Z</time>
      </trkpt>
      <trkpt lat="42.7247990" lon="-5.8877520">
        <ele>1107.0</ele>
        <time>2019-07-21T08:23:34Z</time>
      </trkpt>
      <trkpt lat="42.7248360" lon="-5.8875930">
        <ele>1106.6</ele>
        <time>2019-07-21T08:23:35Z</time>
      </trkpt>
      <trkpt lat="42.7249490" lon="-5.8873200">
        <ele>1106.0</ele>
        <time>2019-07-21T08:23:37Z</time>
      </trkpt>
      <trkpt lat="42.7250320" lon="-5.8872090">
        <ele>1105.2</ele>
        <time>2019-07-21T08:23:38Z</time>
      </trkpt>
      <trkpt lat="42.7251290" lon="-5.8871170">
        <ele>1104.2</ele>
        <time>2019-07-21T08:23:39Z</time>
      </trkpt>
      <trkpt lat="42.7252330" lon="-5.8870410">
        <ele>1102.8</ele>
        <time>2019-07-21T08:23:40Z</time>
      </trkpt>
      <trkpt lat="42.7253400" lon="-5.8869700">
        <ele>1101.6</ele>
        <time>2019-07-21T08:23:41Z</time>
      </trkpt>
      <trkpt lat="42.7254400" lon="-5.8868900">
        <ele>1100.4</ele>
        <time>2019-07-21T08:23:42Z</time>
      </trkpt>
      <trkpt lat="42.7255230" lon="-5.8867860">
        <ele>1099.2</ele>
        <time>2019-07-21T08:23:43Z</time>
      </trkpt>
      <trkpt lat="42.7255840" lon="-5.8866590">
        <ele>1097.8</ele>
        <time>2019-07-21T08:23:44Z</time>
      </trkpt>
      <trkpt lat="42.7256190" lon="-5.8865100">
        <ele>1096.4</ele>
        <time>2019-07-21T08:23:45Z</time>
      </trkpt>
      <trkpt lat="42.7256160" lon="-5.8863400">
        <ele>1095.0</ele>
        <time>2019-07-21T08:23:46Z</time>
      </trkpt>
      <trkpt lat="42.7255770" lon="-5.8861750">
        <ele>1093.6</ele>
        <time>2019-07-21T08:23:47Z</time>
      </trkpt>
      <trkpt lat="42.7255060" lon="-5.8860270">
        <ele>1092.8</ele>
        <time>2019-07-21T08:23:48Z</time>
      </trkpt>
      <trkpt lat="42.7254110" lon="-5.8859040">
        <ele>1092.0</ele>
        <time>2019-07-21T08:23:49Z</time>
      </trkpt>
      <trkpt lat="42.7249540" lon="-5.8853510">
        <ele>1091.4</ele>
        <time>2019-07-21T08:23:54Z</time>
      </trkpt>
      <trkpt lat="42.7247050" lon="-5.8848910">
        <ele>1092.8</ele>
        <time>2019-07-21T08:23:58Z</time>
      </trkpt>
      <trkpt lat="42.7246550" lon="-5.8847750">
        <ele>1093.2</ele>
        <time>2019-07-21T08:23:59Z</time>
      </trkpt>
      <trkpt lat="42.7244860" lon="-5.8840640">
        <ele>1094.2</ele>
        <time>2019-07-21T08:24:05Z</time>
      </trkpt>
      <trkpt lat="42.7244190" lon="-5.8837050">
        <ele>1094.4</ele>
        <time>2019-07-21T08:24:08Z</time>
      </trkpt>
      <trkpt lat="42.7242140" lon="-5.8830290">
        <ele>1095.0</ele>
        <time>2019-07-21T08:24:14Z</time>
      </trkpt>
      <trkpt lat="42.7240820" lon="-5.8823550">
        <ele>1095.2</ele>
        <time>2019-07-21T08:24:20Z</time>
      </trkpt>
      <trkpt lat="42.7240540" lon="-5.8819930">
        <ele>1095.0</ele>
        <time>2019-07-21T08:24:23Z</time>
      </trkpt>
      <trkpt lat="42.7238550" lon="-5.8812940">
        <ele>1095.0</ele>
        <time>2019-07-21T08:24:29Z</time>
      </trkpt>
      <trkpt lat="42.7238090" lon="-5.8809310">
        <ele>1095.4</ele>
        <time>2019-07-21T08:24:32Z</time>
      </trkpt>
      <trkpt lat="42.7238040" lon="-5.8808090">
        <ele>1095.6</ele>
        <time>2019-07-21T08:24:33Z</time>
      </trkpt>
      <trkpt lat="42.7238630" lon="-5.8803220">
        <ele>1096.2</ele>
        <time>2019-07-21T08:24:37Z</time>
      </trkpt>
      <trkpt lat="42.7239700" lon="-5.8799720">
        <ele>1096.4</ele>
        <time>2019-07-21T08:24:40Z</time>
      </trkpt>
      <trkpt lat="42.7241740" lon="-5.8792460">
        <ele>1096.4</ele>
        <time>2019-07-21T08:24:46Z</time>
      </trkpt>
      <trkpt lat="42.7242040" lon="-5.8784740">
        <ele>1096.4</ele>
        <time>2019-07-21T08:24:52Z</time>
      </trkpt>
      <trkpt lat="42.7240610" lon="-5.8777050">
        <ele>1096.4</ele>
        <time>2019-07-21T08:24:58Z</time>
      </trkpt>
      <trkpt lat="42.7239190" lon="-5.8768940">
        <ele>1096.4</ele>
        <time>2019-07-21T08:25:04Z</time>
      </trkpt>
      <trkpt lat="42.7238350" lon="-5.8760940">
        <ele>1096.0</ele>
        <time>2019-07-21T08:25:10Z</time>
      </trkpt>
      <trkpt lat="42.7237850" lon="-5.8752970">
        <ele>1095.8</ele>
        <time>2019-07-21T08:25:16Z</time>
      </trkpt>
      <trkpt lat="42.7238450" lon="-5.8745000">
        <ele>1095.8</ele>
        <time>2019-07-21T08:25:22Z</time>
      </trkpt>
      <trkpt lat="42.7238760" lon="-5.8737490">
        <ele>1095.8</ele>
        <time>2019-07-21T08:25:28Z</time>
      </trkpt>
      <trkpt lat="42.7238680" lon="-5.8736260">
        <ele>1095.8</ele>
        <time>2019-07-21T08:25:29Z</time>
      </trkpt>
      <trkpt lat="42.7238190" lon="-5.8733830">
        <ele>1095.8</ele>
        <time>2019-07-21T08:25:31Z</time>
      </trkpt>
      <trkpt lat="42.7237130" lon="-5.8731470">
        <ele>1095.8</ele>
        <time>2019-07-21T08:25:33Z</time>
      </trkpt>
      <trkpt lat="42.7235650" lon="-5.8729370">
        <ele>1095.2</ele>
        <time>2019-07-21T08:25:35Z</time>
      </trkpt>
      <trkpt lat="42.7233340" lon="-5.8726150">
        <ele>1094.0</ele>
        <time>2019-07-21T08:25:38Z</time>
      </trkpt>
      <trkpt lat="42.7232670" lon="-5.8724930">
        <ele>1093.6</ele>
        <time>2019-07-21T08:25:39Z</time>
      </trkpt>
      <trkpt lat="42.7231610" lon="-5.8722240">
        <ele>1093.2</ele>
        <time>2019-07-21T08:25:41Z</time>
      </trkpt>
      <trkpt lat="42.7231210" lon="-5.8720740">
        <ele>1092.8</ele>
        <time>2019-07-21T08:25:42Z</time>
      </trkpt>
      <trkpt lat="42.7230920" lon="-5.8719150">
        <ele>1092.4</ele>
        <time>2019-07-21T08:25:43Z</time>
      </trkpt>
      <trkpt lat="42.7230620" lon="-5.8715790">
        <ele>1091.8</ele>
        <time>2019-07-21T08:25:45Z</time>
      </trkpt>
      <trkpt lat="42.7230760" lon="-5.8710420">
        <ele>1090.4</ele>
        <time>2019-07-21T08:25:48Z</time>
      </trkpt>
      <trkpt lat="42.7230890" lon="-5.8704920">
        <ele>1089.4</ele>
        <time>2019-07-21T08:25:51Z</time>
      </trkpt>
      <trkpt lat="42.7230930" lon="-5.8701250">
        <ele>1088.0</ele>
        <time>2019-07-21T08:25:53Z</time>
      </trkpt>
      <trkpt lat="42.7230910" lon="-5.8697610">
        <ele>1086.4</ele>
        <time>2019-07-21T08:25:55Z</time>
      </trkpt>
      <trkpt lat="42.7230930" lon="-5.8693910">
        <ele>1085.0</ele>
        <time>2019-07-21T08:25:57Z</time>
      </trkpt>
      <trkpt lat="42.7231190" lon="-5.8690080">
        <ele>1083.2</ele>
        <time>2019-07-21T08:25:59Z</time>
      </trkpt>
      <trkpt lat="42.7231700" lon="-5.8686200">
        <ele>1081.6</ele>
        <time>2019-07-21T08:26:01Z</time>
      </trkpt>
      <trkpt lat="42.7232360" lon="-5.8682370">
        <ele>1080.0</ele>
        <time>2019-07-21T08:26:03Z</time>
      </trkpt>
      <trkpt lat="42.7232950" lon="-5.8678500">
        <ele>1078.4</ele>
        <time>2019-07-21T08:26:05Z</time>
      </trkpt>
      <trkpt lat="42.7233890" lon="-5.8672630">
        <ele>1077.0</ele>
        <time>2019-07-21T08:26:08Z</time>
      </trkpt>
      <trkpt lat="42.7234520" lon="-5.8668810">
        <ele>1075.2</ele>
        <time>2019-07-21T08:26:10Z</time>
      </trkpt>
      <trkpt lat="42.7234810" lon="-5.8666920">
        <ele>1074.0</ele>
        <time>2019-07-21T08:26:11Z</time>
      </trkpt>
      <trkpt lat="42.7235110" lon="-5.8665000">
        <ele>1073.0</ele>
        <time>2019-07-21T08:26:12Z</time>
      </trkpt>
      <trkpt lat="42.7235730" lon="-5.8661050">
        <ele>1071.4</ele>
        <time>2019-07-21T08:26:14Z</time>
      </trkpt>
      <trkpt lat="42.7236350" lon="-5.8656950">
        <ele>1070.0</ele>
        <time>2019-07-21T08:26:16Z</time>
      </trkpt>
      <trkpt lat="42.7237190" lon="-5.8650640">
        <ele>1068.2</ele>
        <time>2019-07-21T08:26:19Z</time>
      </trkpt>
      <trkpt lat="42.7237720" lon="-5.8646330">
        <ele>1066.6</ele>
        <time>2019-07-21T08:26:21Z</time>
      </trkpt>
      <trkpt lat="42.7238240" lon="-5.8641930">
        <ele>1065.0</ele>
        <time>2019-07-21T08:26:23Z</time>
      </trkpt>
      <trkpt lat="42.7238500" lon="-5.8639720">
        <ele>1063.8</ele>
        <time>2019-07-21T08:26:24Z</time>
      </trkpt>
      <trkpt lat="42.7238800" lon="-5.8637480">
        <ele>1062.4</ele>
        <time>2019-07-21T08:26:25Z</time>
      </trkpt>
      <trkpt lat="42.7239110" lon="-5.8635200">
        <ele>1061.0</ele>
        <time>2019-07-21T08:26:26Z</time>
      </trkpt>
      <trkpt lat="42.7239340" lon="-5.8632880">
        <ele>1058.4</ele>
        <time>2019-07-21T08:26:27Z</time>
      </trkpt>
      <trkpt lat="42.7239460" lon="-5.8630490">
        <ele>1055.0</ele>
        <time>2019-07-21T08:26:28Z</time>
      </trkpt>
      <trkpt lat="42.7239540" lon="-5.8628050">
        <ele>1051.4</ele>
        <time>2019-07-21T08:26:29Z</time>
      </trkpt>
      <trkpt lat="42.7239540" lon="-5.8625640">
        <ele>1049.2</ele>
        <time>2019-07-21T08:26:30Z</time>
      </trkpt>
      <trkpt lat="42.7239390" lon="-5.8623260">
        <ele>1048.0</ele>
        <time>2019-07-21T08:26:31Z</time>
      </trkpt>
      <trkpt lat="42.7238990" lon="-5.8618470">
        <ele>1046.8</ele>
        <time>2019-07-21T08:26:33Z</time>
      </trkpt>
      <trkpt lat="42.7238820" lon="-5.8616110">
        <ele>1047.0</ele>
        <time>2019-07-21T08:26:34Z</time>
      </trkpt>
      <trkpt lat="42.7238290" lon="-5.8606840">
        <ele>1047.2</ele>
        <time>2019-07-21T08:26:38Z</time>
      </trkpt>
      <trkpt lat="42.7237970" lon="-5.8599920">
        <ele>1045.2</ele>
        <time>2019-07-21T08:26:41Z</time>
      </trkpt>
      <trkpt lat="42.7237870" lon="-5.8597610">
        <ele>1044.2</ele>
        <time>2019-07-21T08:26:42Z</time>
      </trkpt>
      <trkpt lat="42.7237800" lon="-5.8595300">
        <ele>1043.2</ele>
        <time>2019-07-21T08:26:43Z</time>
      </trkpt>
      <trkpt lat="42.7237860" lon="-5.8590710">
        <ele>1041.4</ele>
        <time>2019-07-21T08:26:45Z</time>
      </trkpt>
      <trkpt lat="42.7238280" lon="-5.8586240">
        <ele>1039.6</ele>
        <time>2019-07-21T08:26:47Z</time>
      </trkpt>
      <trkpt lat="42.7238570" lon="-5.8584030">
        <ele>1038.6</ele>
        <time>2019-07-21T08:26:48Z</time>
      </trkpt>
      <trkpt lat="42.7238900" lon="-5.8581890">
        <ele>1037.4</ele>
        <time>2019-07-21T08:26:49Z</time>
      </trkpt>
      <trkpt lat="42.7239300" lon="-5.8579830">
        <ele>1036.2</ele>
        <time>2019-07-21T08:26:50Z</time>
      </trkpt>
      <trkpt lat="42.7239760" lon="-5.8577790">
        <ele>1035.0</ele>
        <time>2019-07-21T08:26:51Z</time>
      </trkpt>
      <trkpt lat="42.7240250" lon="-5.8575740">
        <ele>1033.4</ele>
        <time>2019-07-21T08:26:52Z</time>
      </trkpt>
      <trkpt lat="42.7240770" lon="-5.8573720">
        <ele>1031.6</ele>
        <time>2019-07-21T08:26:53Z</time>
      </trkpt>
      <trkpt lat="42.7241320" lon="-5.8571730">
        <ele>1029.8</ele>
        <time>2019-07-21T08:26:54Z</time>
      </trkpt>
      <trkpt lat="42.7241870" lon="-5.8569740">
        <ele>1028.2</ele>
        <time>2019-07-21T08:26:55Z</time>
      </trkpt>
      <trkpt lat="42.7242420" lon="-5.8567760">
        <ele>1026.8</ele>
        <time>2019-07-21T08:26:56Z</time>
      </trkpt>
      <trkpt lat="42.7242920" lon="-5.8565760">
        <ele>1025.6</ele>
        <time>2019-07-21T08:26:57Z</time>
      </trkpt>
      <trkpt lat="42.7243270" lon="-5.8563710">
        <ele>1024.6</ele>
        <time>2019-07-21T08:26:58Z</time>
      </trkpt>
      <trkpt lat="42.7243420" lon="-5.8561610">
        <ele>1023.4</ele>
        <time>2019-07-21T08:26:59Z</time>
      </trkpt>
      <trkpt lat="42.7243460" lon="-5.8559490">
        <ele>1022.2</ele>
        <time>2019-07-21T08:27:00Z</time>
      </trkpt>
      <trkpt lat="42.7243530" lon="-5.8555140">
        <ele>1020.6</ele>
        <time>2019-07-21T08:27:02Z</time>
      </trkpt>
      <trkpt lat="42.7243550" lon="-5.8552930">
        <ele>1019.6</ele>
        <time>2019-07-21T08:27:03Z</time>
      </trkpt>
      <trkpt lat="42.7243560" lon="-5.8550720">
        <ele>1018.2</ele>
        <time>2019-07-21T08:27:04Z</time>
      </trkpt>
      <trkpt lat="42.7243590" lon="-5.8548550">
        <ele>1016.4</ele>
        <time>2019-07-21T08:27:05Z</time>
      </trkpt>
      <trkpt lat="42.7243700" lon="-5.8544220">
        <ele>1014.8</ele>
        <time>2019-07-21T08:27:07Z</time>
      </trkpt>
      <trkpt lat="42.7243880" lon="-5.8538040">
        <ele>1013.2</ele>
        <time>2019-07-21T08:27:10Z</time>
      </trkpt>
      <trkpt lat="42.7244000" lon="-5.8533960">
        <ele>1012.6</ele>
        <time>2019-07-21T08:27:12Z</time>
      </trkpt>
      <trkpt lat="42.7244050" lon="-5.8531940">
        <ele>1012.2</ele>
        <time>2019-07-21T08:27:13Z</time>
      </trkpt>
      <trkpt lat="42.7243870" lon="-5.8527870">
        <ele>1010.2</ele>
        <time>2019-07-21T08:27:15Z</time>
      </trkpt>
      <trkpt lat="42.7243520" lon="-5.8525810">
        <ele>1008.8</ele>
        <time>2019-07-21T08:27:16Z</time>
      </trkpt>
      <trkpt lat="42.7242990" lon="-5.8523820">
        <ele>1007.6</ele>
        <time>2019-07-21T08:27:17Z</time>
      </trkpt>
      <trkpt lat="42.7242370" lon="-5.8521900">
        <ele>1006.2</ele>
        <time>2019-07-21T08:27:18Z</time>
      </trkpt>
      <trkpt lat="42.7241840" lon="-5.8519980">
        <ele>1004.8</ele>
        <time>2019-07-21T08:27:19Z</time>
      </trkpt>
      <trkpt lat="42.7241200" lon="-5.8516060">
        <ele>1003.0</ele>
        <time>2019-07-21T08:27:21Z</time>
      </trkpt>
      <trkpt lat="42.7241200" lon="-5.8512160">
        <ele>1001.2</ele>
        <time>2019-07-21T08:27:23Z</time>
      </trkpt>
      <trkpt lat="42.7241510" lon="-5.8508210">
        <ele>1000.0</ele>
        <time>2019-07-21T08:27:25Z</time>
      </trkpt>
      <trkpt lat="42.7242170" lon="-5.8502140">
        <ele>998.8</ele>
        <time>2019-07-21T08:27:28Z</time>
      </trkpt>
      <trkpt lat="42.7242440" lon="-5.8498030">
        <ele>998.0</ele>
        <time>2019-07-21T08:27:30Z</time>
      </trkpt>
      <trkpt lat="42.7242490" lon="-5.8495990">
        <ele>997.4</ele>
        <time>2019-07-21T08:27:31Z</time>
      </trkpt>
      <trkpt lat="42.7242410" lon="-5.8491940">
        <ele>996.2</ele>
        <time>2019-07-21T08:27:33Z</time>
      </trkpt>
      <trkpt lat="42.7242090" lon="-5.8488020">
        <ele>995.0</ele>
        <time>2019-07-21T08:27:35Z</time>
      </trkpt>
      <trkpt lat="42.7241460" lon="-5.8482410">
        <ele>993.6</ele>
        <time>2019-07-21T08:27:38Z</time>
      </trkpt>
      <trkpt lat="42.7241680" lon="-5.8478850">
        <ele>992.4</ele>
        <time>2019-07-21T08:27:40Z</time>
      </trkpt>
      <trkpt lat="42.7242580" lon="-5.8475610">
        <ele>991.0</ele>
        <time>2019-07-21T08:27:42Z</time>
      </trkpt>
      <trkpt lat="42.7243520" lon="-5.8472490">
        <ele>990.2</ele>
        <time>2019-07-21T08:27:44Z</time>
      </trkpt>
      <trkpt lat="42.7243760" lon="-5.8470820">
        <ele>989.8</ele>
        <time>2019-07-21T08:27:45Z</time>
      </trkpt>
      <trkpt lat="42.7243830" lon="-5.8469130">
        <ele>989.4</ele>
        <time>2019-07-21T08:27:46Z</time>
      </trkpt>
      <trkpt lat="42.7243530" lon="-5.8465710">
        <ele>988.6</ele>
        <time>2019-07-21T08:27:48Z</time>
      </trkpt>
      <trkpt lat="42.7242460" lon="-5.8458590">
        <ele>987.0</ele>
        <time>2019-07-21T08:27:52Z</time>
      </trkpt>
      <trkpt lat="42.7242230" lon="-5.8456760">
        <ele>986.0</ele>
        <time>2019-07-21T08:27:53Z</time>
      </trkpt>
      <trkpt lat="42.7242000" lon="-5.8454950">
        <ele>985.0</ele>
        <time>2019-07-21T08:27:54Z</time>
      </trkpt>
      <trkpt lat="42.7241490" lon="-5.8451460">
        <ele>983.6</ele>
        <time>2019-07-21T08:27:56Z</time>
      </trkpt>
      <trkpt lat="42.7240750" lon="-5.8446260">
        <ele>982.6</ele>
        <time>2019-07-21T08:27:59Z</time>
      </trkpt>
      <trkpt lat="42.7240050" lon="-5.8441080">
        <ele>981.4</ele>
        <time>2019-07-21T08:28:02Z</time>
      </trkpt>
      <trkpt lat="42.7239700" lon="-5.8437570">
        <ele>979.8</ele>
        <time>2019-07-21T08:28:04Z</time>
      </trkpt>
      <trkpt lat="42.7239910" lon="-5.8434080">
        <ele>978.2</ele>
        <time>2019-07-21T08:28:06Z</time>
      </trkpt>
      <trkpt lat="42.7240600" lon="-5.8430580">
        <ele>976.2</ele>
        <time>2019-07-21T08:28:08Z</time>
      </trkpt>
      <trkpt lat="42.7240990" lon="-5.8428780">
        <ele>974.8</ele>
        <time>2019-07-21T08:28:09Z</time>
      </trkpt>
      <trkpt lat="42.7241390" lon="-5.8426930">
        <ele>973.8</ele>
        <time>2019-07-21T08:28:10Z</time>
      </trkpt>
      <trkpt lat="42.7241780" lon="-5.8425030">
        <ele>972.8</ele>
        <time>2019-07-21T08:28:11Z</time>
      </trkpt>
      <trkpt lat="42.7242190" lon="-5.8423110">
        <ele>971.6</ele>
        <time>2019-07-21T08:28:12Z</time>
      </trkpt>
      <trkpt lat="42.7242590" lon="-5.8421160">
        <ele>970.4</ele>
        <time>2019-07-21T08:28:13Z</time>
      </trkpt>
      <trkpt lat="42.7243420" lon="-5.8417300">
        <ele>968.8</ele>
        <time>2019-07-21T08:28:15Z</time>
      </trkpt>
      <trkpt lat="42.7244000" lon="-5.8415430">
        <ele>968.0</ele>
        <time>2019-07-21T08:28:16Z</time>
      </trkpt>
      <trkpt lat="42.7244700" lon="-5.8413650">
        <ele>966.8</ele>
        <time>2019-07-21T08:28:17Z</time>
      </trkpt>
      <trkpt lat="42.7245510" lon="-5.8412010">
        <ele>965.8</ele>
        <time>2019-07-21T08:28:18Z</time>
      </trkpt>
      <trkpt lat="42.7247180" lon="-5.8409010">
        <ele>964.2</ele>
        <time>2019-07-21T08:28:20Z</time>
      </trkpt>
      <trkpt lat="42.7248460" lon="-5.8406170">
        <ele>963.0</ele>
        <time>2019-07-21T08:28:22Z</time>
      </trkpt>
      <trkpt lat="42.7251030" lon="-5.8401060">
        <ele>962.0</ele>
        <time>2019-07-21T08:28:26Z</time>
      </trkpt>
      <trkpt lat="42.7252220" lon="-5.8398510">
        <ele>961.8</ele>
        <time>2019-07-21T08:28:28Z</time>
      </trkpt>
      <trkpt lat="42.7252840" lon="-5.8395570">
        <ele>961.4</ele>
        <time>2019-07-21T08:28:30Z</time>
      </trkpt>
      <trkpt lat="42.7253160" lon="-5.8392320">
        <ele>960.8</ele>
        <time>2019-07-21T08:28:32Z</time>
      </trkpt>
      <trkpt lat="42.7253920" lon="-5.8385490">
        <ele>960.4</ele>
        <time>2019-07-21T08:28:36Z</time>
      </trkpt>
      <trkpt lat="42.7254360" lon="-5.8383910">
        <ele>959.8</ele>
        <time>2019-07-21T08:28:37Z</time>
      </trkpt>
      <trkpt lat="42.7254970" lon="-5.8382420">
        <ele>959.2</ele>
        <time>2019-07-21T08:28:38Z</time>
      </trkpt>
      <trkpt lat="42.7255680" lon="-5.8380980">
        <ele>958.8</ele>
        <time>2019-07-21T08:28:39Z</time>
      </trkpt>
      <trkpt lat="42.7257120" lon="-5.8378160">
        <ele>957.8</ele>
        <time>2019-07-21T08:28:41Z</time>
      </trkpt>
      <trkpt lat="42.7258440" lon="-5.8375210">
        <ele>956.2</ele>
        <time>2019-07-21T08:28:43Z</time>
      </trkpt>
      <trkpt lat="42.7259490" lon="-5.8372090">
        <ele>954.6</ele>
        <time>2019-07-21T08:28:45Z</time>
      </trkpt>
      <trkpt lat="42.7260770" lon="-5.8367270">
        <ele>953.6</ele>
        <time>2019-07-21T08:28:48Z</time>
      </trkpt>
      <trkpt lat="42.7261870" lon="-5.8364290">
        <ele>953.2</ele>
        <time>2019-07-21T08:28:50Z</time>
      </trkpt>
      <trkpt lat="42.7263190" lon="-5.8361500">
        <ele>952.2</ele>
        <time>2019-07-21T08:28:52Z</time>
      </trkpt>
      <trkpt lat="42.7266050" lon="-5.8354580">
        <ele>952.2</ele>
        <time>2019-07-21T08:28:57Z</time>
      </trkpt>
      <trkpt lat="42.7266330" lon="-5.8351590">
        <ele>952.4</ele>
        <time>2019-07-21T08:28:59Z</time>
      </trkpt>
      <trkpt lat="42.7265890" lon="-5.8348750">
        <ele>952.8</ele>
        <time>2019-07-21T08:29:01Z</time>
      </trkpt>
      <trkpt lat="42.7264170" lon="-5.8340670">
        <ele>952.6</ele>
        <time>2019-07-21T08:29:07Z</time>
      </trkpt>
      <trkpt lat="42.7264040" lon="-5.8337780">
        <ele>952.0</ele>
        <time>2019-07-21T08:29:09Z</time>
      </trkpt>
      <trkpt lat="42.7264790" lon="-5.8332130">
        <ele>952.0</ele>
        <time>2019-07-21T08:29:13Z</time>
      </trkpt>
      <trkpt lat="42.7266110" lon="-5.8326770">
        <ele>951.6</ele>
        <time>2019-07-21T08:29:17Z</time>
      </trkpt>
      <trkpt lat="42.7267090" lon="-5.8318530">
        <ele>951.8</ele>
        <time>2019-07-21T08:29:23Z</time>
      </trkpt>
      <trkpt lat="42.7267470" lon="-5.8311700">
        <ele>951.8</ele>
        <time>2019-07-21T08:29:28Z</time>
      </trkpt>
      <trkpt lat="42.7268500" lon="-5.8303390">
        <ele>951.4</ele>
        <time>2019-07-21T08:29:34Z</time>
      </trkpt>
      <trkpt lat="42.7268820" lon="-5.8302020">
        <ele>951.0</ele>
        <time>2019-07-21T08:29:35Z</time>
      </trkpt>
      <trkpt lat="42.7270760" lon="-5.8293690">
        <ele>950.8</ele>
        <time>2019-07-21T08:29:41Z</time>
      </trkpt>
      <trkpt lat="42.7272330" lon="-5.8286820">
        <ele>950.0</ele>
        <time>2019-07-21T08:29:46Z</time>
      </trkpt>
      <trkpt lat="42.7273750" lon="-5.8280050">
        <ele>949.0</ele>
        <time>2019-07-21T08:29:51Z</time>
      </trkpt>
      <trkpt lat="42.7275210" lon="-5.8272040">
        <ele>948.6</ele>
        <time>2019-07-21T08:29:57Z</time>
      </trkpt>
      <trkpt lat="42.7276880" lon="-5.8264030">
        <ele>947.8</ele>
        <time>2019-07-21T08:30:03Z</time>
      </trkpt>
      <trkpt lat="42.7278030" lon="-5.8260360">
        <ele>947.2</ele>
        <time>2019-07-21T08:30:06Z</time>
      </trkpt>
      <trkpt lat="42.7278440" lon="-5.8257770">
        <ele>947.6</ele>
        <time>2019-07-21T08:30:08Z</time>
      </trkpt>
      <trkpt lat="42.7279020" lon="-5.8251270">
        <ele>948.8</ele>
        <time>2019-07-21T08:30:13Z</time>
      </trkpt>
      <trkpt lat="42.7279490" lon="-5.8243660">
        <ele>948.8</ele>
        <time>2019-07-21T08:30:19Z</time>
      </trkpt>
      <trkpt lat="42.7279620" lon="-5.8236280">
        <ele>948.6</ele>
        <time>2019-07-21T08:30:25Z</time>
      </trkpt>
      <trkpt lat="42.7279630" lon="-5.8228220">
        <ele>948.0</ele>
        <time>2019-07-21T08:30:31Z</time>
      </trkpt>
      <trkpt lat="42.7279640" lon="-5.8223680">
        <ele>947.8</ele>
        <time>2019-07-21T08:30:34Z</time>
      </trkpt>
      <trkpt lat="42.7279640" lon="-5.8218810">
        <ele>946.8</ele>
        <time>2019-07-21T08:30:37Z</time>
      </trkpt>
      <trkpt lat="42.7279620" lon="-5.8210120">
        <ele>945.4</ele>
        <time>2019-07-21T08:30:42Z</time>
      </trkpt>
      <trkpt lat="42.7279610" lon="-5.8206470">
        <ele>943.6</ele>
        <time>2019-07-21T08:30:44Z</time>
      </trkpt>
      <trkpt lat="42.7279610" lon="-5.8204650">
        <ele>942.4</ele>
        <time>2019-07-21T08:30:45Z</time>
      </trkpt>
      <trkpt lat="42.7279610" lon="-5.8201070">
        <ele>940.8</ele>
        <time>2019-07-21T08:30:47Z</time>
      </trkpt>
      <trkpt lat="42.7279480" lon="-5.8197620">
        <ele>939.6</ele>
        <time>2019-07-21T08:30:49Z</time>
      </trkpt>
      <trkpt lat="42.7279120" lon="-5.8194310">
        <ele>938.6</ele>
        <time>2019-07-21T08:30:51Z</time>
      </trkpt>
      <trkpt lat="42.7277210" lon="-5.8186900">
        <ele>937.6</ele>
        <time>2019-07-21T08:30:56Z</time>
      </trkpt>
      <trkpt lat="42.7276660" lon="-5.8185540">
        <ele>937.4</ele>
        <time>2019-07-21T08:30:57Z</time>
      </trkpt>
      <trkpt lat="42.7273170" lon="-5.8179450">
        <ele>936.8</ele>
        <time>2019-07-21T08:31:02Z</time>
      </trkpt>
      <trkpt lat="42.7269790" lon="-5.8175620">
        <ele>936.4</ele>
        <time>2019-07-21T08:31:06Z</time>
      </trkpt>
      <trkpt lat="42.7264670" lon="-5.8170300">
        <ele>936.2</ele>
        <time>2019-07-21T08:31:12Z</time>
      </trkpt>
      <trkpt lat="42.7261450" lon="-5.8164750">
        <ele>936.8</ele>
        <time>2019-07-21T08:31:17Z</time>
      </trkpt>
      <trkpt lat="42.7259140" lon="-5.8157500">
        <ele>936.6</ele>
        <time>2019-07-21T08:31:23Z</time>
      </trkpt>
      <trkpt lat="42.7258210" lon="-5.8149820">
        <ele>936.6</ele>
        <time>2019-07-21T08:31:29Z</time>
      </trkpt>
      <trkpt lat="42.7257860" lon="-5.8142280">
        <ele>937.0</ele>
        <time>2019-07-21T08:31:35Z</time>
      </trkpt>
      <trkpt lat="42.7257590" lon="-5.8134910">
        <ele>936.6</ele>
        <time>2019-07-21T08:31:41Z</time>
      </trkpt>
      <trkpt lat="42.7257180" lon="-5.8127490">
        <ele>936.2</ele>
        <time>2019-07-21T08:31:47Z</time>
      </trkpt>
      <trkpt lat="42.7256810" lon="-5.8119700">
        <ele>936.2</ele>
        <time>2019-07-21T08:31:53Z</time>
      </trkpt>
      <trkpt lat="42.7256380" lon="-5.8111320">
        <ele>936.2</ele>
        <time>2019-07-21T08:31:59Z</time>
      </trkpt>
      <trkpt lat="42.7256000" lon="-5.8102650">
        <ele>935.8</ele>
        <time>2019-07-21T08:32:05Z</time>
      </trkpt>
      <trkpt lat="42.7255840" lon="-5.8099730">
        <ele>935.2</ele>
        <time>2019-07-21T08:32:07Z</time>
      </trkpt>
      <trkpt lat="42.7255550" lon="-5.8093960">
        <ele>934.0</ele>
        <time>2019-07-21T08:32:11Z</time>
      </trkpt>
      <trkpt lat="42.7255270" lon="-5.8088460">
        <ele>933.0</ele>
        <time>2019-07-21T08:32:15Z</time>
      </trkpt>
      <trkpt lat="42.7255010" lon="-5.8083260">
        <ele>932.4</ele>
        <time>2019-07-21T08:32:19Z</time>
      </trkpt>
      <trkpt lat="42.7254670" lon="-5.8075520">
        <ele>932.0</ele>
        <time>2019-07-21T08:32:25Z</time>
      </trkpt>
      <trkpt lat="42.7254310" lon="-5.8067800">
        <ele>932.6</ele>
        <time>2019-07-21T08:32:31Z</time>
      </trkpt>
      <trkpt lat="42.7254140" lon="-5.8060380">
        <ele>933.2</ele>
        <time>2019-07-21T08:32:37Z</time>
      </trkpt>
      <trkpt lat="42.7254230" lon="-5.8059150">
        <ele>933.2</ele>
        <time>2019-07-21T08:32:38Z</time>
      </trkpt>
      <trkpt lat="42.7256470" lon="-5.8052210">
        <ele>933.4</ele>
        <time>2019-07-21T08:32:44Z</time>
      </trkpt>
      <trkpt lat="42.7257920" lon="-5.8048870">
        <ele>934.0</ele>
        <time>2019-07-21T08:32:47Z</time>
      </trkpt>
      <trkpt lat="42.7261000" lon="-5.8042880">
        <ele>934.2</ele>
        <time>2019-07-21T08:32:53Z</time>
      </trkpt>
      <trkpt lat="42.7265280" lon="-5.8038130">
        <ele>934.0</ele>
        <time>2019-07-21T08:32:59Z</time>
      </trkpt>
      <trkpt lat="42.7269370" lon="-5.8033050">
        <ele>934.8</ele>
        <time>2019-07-21T08:33:05Z</time>
      </trkpt>
      <trkpt lat="42.7270560" lon="-5.8030990">
        <ele>935.0</ele>
        <time>2019-07-21T08:33:07Z</time>
      </trkpt>
      <trkpt lat="42.7274530" lon="-5.8025570">
        <ele>935.2</ele>
        <time>2019-07-21T08:33:13Z</time>
      </trkpt>
      <trkpt lat="42.7278980" lon="-5.8021170">
        <ele>935.4</ele>
        <time>2019-07-21T08:33:19Z</time>
      </trkpt>
      <trkpt lat="42.7283310" lon="-5.8016440">
        <ele>935.4</ele>
        <time>2019-07-21T08:33:25Z</time>
      </trkpt>
      <trkpt lat="42.7286940" lon="-5.8012430">
        <ele>936.2</ele>
        <time>2019-07-21T08:33:30Z</time>
      </trkpt>
      <trkpt lat="42.7291360" lon="-5.8008090">
        <ele>936.6</ele>
        <time>2019-07-21T08:33:36Z</time>
      </trkpt>
      <trkpt lat="42.7294710" lon="-5.8003720">
        <ele>937.2</ele>
        <time>2019-07-21T08:33:41Z</time>
      </trkpt>
      <trkpt lat="42.7298110" lon="-5.7997450">
        <ele>938.2</ele>
        <time>2019-07-21T08:33:47Z</time>
      </trkpt>
      <trkpt lat="42.7300750" lon="-5.7990520">
        <ele>939.0</ele>
        <time>2019-07-21T08:33:53Z</time>
      </trkpt>
      <trkpt lat="42.7303120" lon="-5.7983310">
        <ele>938.8</ele>
        <time>2019-07-21T08:33:59Z</time>
      </trkpt>
      <trkpt lat="42.7303460" lon="-5.7980730">
        <ele>938.4</ele>
        <time>2019-07-21T08:34:01Z</time>
      </trkpt>
      <trkpt lat="42.7303120" lon="-5.7975370">
        <ele>938.2</ele>
        <time>2019-07-21T08:34:05Z</time>
      </trkpt>
      <trkpt lat="42.7300960" lon="-5.7967830">
        <ele>939.0</ele>
        <time>2019-07-21T08:34:11Z</time>
      </trkpt>
      <trkpt lat="42.7298590" lon="-5.7960390">
        <ele>938.6</ele>
        <time>2019-07-21T08:34:17Z</time>
      </trkpt>
      <trkpt lat="42.7296270" lon="-5.7952740">
        <ele>939.6</ele>
        <time>2019-07-21T08:34:23Z</time>
      </trkpt>
      <trkpt lat="42.7295060" lon="-5.7948980">
        <ele>940.8</ele>
        <time>2019-07-21T08:34:26Z</time>
      </trkpt>
      <trkpt lat="42.7292560" lon="-5.7941630">
        <ele>941.2</ele>
        <time>2019-07-21T08:34:32Z</time>
      </trkpt>
      <trkpt lat="42.7292110" lon="-5.7940410">
        <ele>941.2</ele>
        <time>2019-07-21T08:34:33Z</time>
      </trkpt>
      <trkpt lat="42.7289300" lon="-5.7933060">
        <ele>941.6</ele>
        <time>2019-07-21T08:34:39Z</time>
      </trkpt>
      <trkpt lat="42.7288820" lon="-5.7931840">
        <ele>941.8</ele>
        <time>2019-07-21T08:34:40Z</time>
      </trkpt>
      <trkpt lat="42.7286050" lon="-5.7924830">
        <ele>941.8</ele>
        <time>2019-07-21T08:34:46Z</time>
      </trkpt>
      <trkpt lat="42.7285270" lon="-5.7922890">
        <ele>941.8</ele>
        <time>2019-07-21T08:34:48Z</time>
      </trkpt>
      <trkpt lat="42.7284770" lon="-5.7921460">
        <ele>942.0</ele>
        <time>2019-07-21T08:34:50Z</time>
      </trkpt>
      <trkpt lat="42.7284880" lon="-5.7920310">
        <ele>942.2</ele>
        <time>2019-07-21T08:34:52Z</time>
      </trkpt>
      <trkpt lat="42.7287460" lon="-5.7919470">
        <ele>942.8</ele>
        <time>2019-07-21T08:34:57Z</time>
      </trkpt>
      <trkpt lat="42.7291120" lon="-5.7918250">
        <ele>943.0</ele>
        <time>2019-07-21T08:35:03Z</time>
      </trkpt>
      <trkpt lat="42.7294160" lon="-5.7916300">
        <ele>943.8</ele>
        <time>2019-07-21T08:35:08Z</time>
      </trkpt>
      <trkpt lat="42.7298150" lon="-5.7913450">
        <ele>944.4</ele>
        <time>2019-07-21T08:35:14Z</time>
      </trkpt>
      <trkpt lat="42.7302870" lon="-5.7909740">
        <ele>943.4</ele>
        <time>2019-07-21T08:35:20Z</time>
      </trkpt>
      <trkpt lat="42.7303670" lon="-5.7908980">
        <ele>943.0</ele>
        <time>2019-07-21T08:35:21Z</time>
      </trkpt>
      <trkpt lat="42.7304350" lon="-5.7908040">
        <ele>942.8</ele>
        <time>2019-07-21T08:35:22Z</time>
      </trkpt>
      <trkpt lat="42.7306100" lon="-5.7904830">
        <ele>942.4</ele>
        <time>2019-07-21T08:35:25Z</time>
      </trkpt>
      <trkpt lat="42.7308860" lon="-5.7897780">
        <ele>943.4</ele>
        <time>2019-07-21T08:35:31Z</time>
      </trkpt>
      <trkpt lat="42.7309430" lon="-5.7896770">
        <ele>943.6</ele>
        <time>2019-07-21T08:35:32Z</time>
      </trkpt>
      <trkpt lat="42.7310930" lon="-5.7895140">
        <ele>943.8</ele>
        <time>2019-07-21T08:35:34Z</time>
      </trkpt>
      <trkpt lat="42.7311790" lon="-5.7894490">
        <ele>943.8</ele>
        <time>2019-07-21T08:35:35Z</time>
      </trkpt>
      <trkpt lat="42.7317310" lon="-5.7890650">
        <ele>942.8</ele>
        <time>2019-07-21T08:35:41Z</time>
      </trkpt>
      <trkpt lat="42.7318450" lon="-5.7888550">
        <ele>942.4</ele>
        <time>2019-07-21T08:35:43Z</time>
      </trkpt>
      <trkpt lat="42.7318470" lon="-5.7885980">
        <ele>942.2</ele>
        <time>2019-07-21T08:35:45Z</time>
      </trkpt>
      <trkpt lat="42.7317930" lon="-5.7883410">
        <ele>941.6</ele>
        <time>2019-07-21T08:35:47Z</time>
      </trkpt>
      <trkpt lat="42.7317480" lon="-5.7880930">
        <ele>941.6</ele>
        <time>2019-07-21T08:35:49Z</time>
      </trkpt>
      <trkpt lat="42.7317650" lon="-5.7878460">
        <ele>942.0</ele>
        <time>2019-07-21T08:35:51Z</time>
      </trkpt>
      <trkpt lat="42.7318810" lon="-5.7876510">
        <ele>942.4</ele>
        <time>2019-07-21T08:35:53Z</time>
      </trkpt>
      <trkpt lat="42.7320480" lon="-5.7875110">
        <ele>942.8</ele>
        <time>2019-07-21T08:35:55Z</time>
      </trkpt>
      <trkpt lat="42.7325460" lon="-5.7871600">
        <ele>942.2</ele>
        <time>2019-07-21T08:36:01Z</time>
      </trkpt>
      <trkpt lat="42.7329970" lon="-5.7868530">
        <ele>942.2</ele>
        <time>2019-07-21T08:36:07Z</time>
      </trkpt>
      <trkpt lat="42.7334900" lon="-5.7865020">
        <ele>941.6</ele>
        <time>2019-07-21T08:36:13Z</time>
      </trkpt>
      <trkpt lat="42.7340300" lon="-5.7861290">
        <ele>941.6</ele>
        <time>2019-07-21T08:36:19Z</time>
      </trkpt>
      <trkpt lat="42.7345620" lon="-5.7857710">
        <ele>941.6</ele>
        <time>2019-07-21T08:36:25Z</time>
      </trkpt>
      <trkpt lat="42.7350300" lon="-5.7854160">
        <ele>941.6</ele>
        <time>2019-07-21T08:36:31Z</time>
      </trkpt>
      <trkpt lat="42.7354660" lon="-5.7850050">
        <ele>941.4</ele>
        <time>2019-07-21T08:36:37Z</time>
      </trkpt>
      <trkpt lat="42.7358810" lon="-5.7846110">
        <ele>941.8</ele>
        <time>2019-07-21T08:36:43Z</time>
      </trkpt>
      <trkpt lat="42.7363290" lon="-5.7843020">
        <ele>942.6</ele>
        <time>2019-07-21T08:36:49Z</time>
      </trkpt>
      <trkpt lat="42.7364130" lon="-5.7842640">
        <ele>942.8</ele>
        <time>2019-07-21T08:36:50Z</time>
      </trkpt>
      <trkpt lat="42.7369090" lon="-5.7840190">
        <ele>943.0</ele>
        <time>2019-07-21T08:36:56Z</time>
      </trkpt>
      <trkpt lat="42.7374130" lon="-5.7837770">
        <ele>943.4</ele>
        <time>2019-07-21T08:37:02Z</time>
      </trkpt>
      <trkpt lat="42.7376640" lon="-5.7836620">
        <ele>943.8</ele>
        <time>2019-07-21T08:37:05Z</time>
      </trkpt>
      <trkpt lat="42.7381580" lon="-5.7834130">
        <ele>944.4</ele>
        <time>2019-07-21T08:37:11Z</time>
      </trkpt>
      <trkpt lat="42.7384030" lon="-5.7832720">
        <ele>944.8</ele>
        <time>2019-07-21T08:37:14Z</time>
      </trkpt>
      <trkpt lat="42.7388800" lon="-5.7829400">
        <ele>945.8</ele>
        <time>2019-07-21T08:37:20Z</time>
      </trkpt>
      <trkpt lat="42.7390880" lon="-5.7827410">
        <ele>946.0</ele>
        <time>2019-07-21T08:37:23Z</time>
      </trkpt>
      <trkpt lat="42.7394940" lon="-5.7823440">
        <ele>946.2</ele>
        <time>2019-07-21T08:37:29Z</time>
      </trkpt>
      <trkpt lat="42.7397670" lon="-5.7820720">
        <ele>947.0</ele>
        <time>2019-07-21T08:37:33Z</time>
      </trkpt>
      <trkpt lat="42.7399780" lon="-5.7818710">
        <ele>948.2</ele>
        <time>2019-07-21T08:37:36Z</time>
      </trkpt>
      <trkpt lat="42.7403260" lon="-5.7815510">
        <ele>949.2</ele>
        <time>2019-07-21T08:37:41Z</time>
      </trkpt>
      <trkpt lat="42.7405860" lon="-5.7813120">
        <ele>950.6</ele>
        <time>2019-07-21T08:37:45Z</time>
      </trkpt>
      <trkpt lat="42.7408450" lon="-5.7810810">
        <ele>951.6</ele>
        <time>2019-07-21T08:37:49Z</time>
      </trkpt>
      <trkpt lat="42.7410480" lon="-5.7809020">
        <ele>953.0</ele>
        <time>2019-07-21T08:37:52Z</time>
      </trkpt>
      <trkpt lat="42.7413810" lon="-5.7806130">
        <ele>954.0</ele>
        <time>2019-07-21T08:37:57Z</time>
      </trkpt>
      <trkpt lat="42.7417810" lon="-5.7803070">
        <ele>955.4</ele>
        <time>2019-07-21T08:38:03Z</time>
      </trkpt>
      <trkpt lat="42.7420390" lon="-5.7801100">
        <ele>956.6</ele>
        <time>2019-07-21T08:38:07Z</time>
      </trkpt>
      <trkpt lat="42.7423570" lon="-5.7798600">
        <ele>958.0</ele>
        <time>2019-07-21T08:38:12Z</time>
      </trkpt>
      <trkpt lat="42.7426540" lon="-5.7796140">
        <ele>959.2</ele>
        <time>2019-07-21T08:38:17Z</time>
      </trkpt>
      <trkpt lat="42.7429410" lon="-5.7793900">
        <ele>960.2</ele>
        <time>2019-07-21T08:38:22Z</time>
      </trkpt>
      <trkpt lat="42.7431700" lon="-5.7791970">
        <ele>961.0</ele>
        <time>2019-07-21T08:38:26Z</time>
      </trkpt>
      <trkpt lat="42.7432290" lon="-5.7791460">
        <ele>961.0</ele>
        <time>2019-07-21T08:38:27Z</time>
      </trkpt>
      <trkpt lat="42.7432910" lon="-5.7790940">
        <ele>961.2</ele>
        <time>2019-07-21T08:38:28Z</time>
      </trkpt>
      <trkpt lat="42.7435360" lon="-5.7788940">
        <ele>962.4</ele>
        <time>2019-07-21T08:38:32Z</time>
      </trkpt>
      <trkpt lat="42.7438360" lon="-5.7786430">
        <ele>963.4</ele>
        <time>2019-07-21T08:38:37Z</time>
      </trkpt>
      <trkpt lat="42.7438950" lon="-5.7785960">
        <ele>963.6</ele>
        <time>2019-07-21T08:38:38Z</time>
      </trkpt>
      <trkpt lat="42.7441320" lon="-5.7784080">
        <ele>964.6</ele>
        <time>2019-07-21T08:38:42Z</time>
      </trkpt>
      <trkpt lat="42.7443040" lon="-5.7782660">
        <ele>965.8</ele>
        <time>2019-07-21T08:38:45Z</time>
      </trkpt>
      <trkpt lat="42.7445250" lon="-5.7780860">
        <ele>967.0</ele>
        <time>2019-07-21T08:38:49Z</time>
      </trkpt>
      <trkpt lat="42.7448690" lon="-5.7777900">
        <ele>968.0</ele>
        <time>2019-07-21T08:38:55Z</time>
      </trkpt>
      <trkpt lat="42.7452200" lon="-5.7774740">
        <ele>968.8</ele>
        <time>2019-07-21T08:39:01Z</time>
      </trkpt>
      <trkpt lat="42.7452780" lon="-5.7774200">
        <ele>969.0</ele>
        <time>2019-07-21T08:39:02Z</time>
      </trkpt>
      <trkpt lat="42.7456020" lon="-5.7771230">
        <ele>970.0</ele>
        <time>2019-07-21T08:39:08Z</time>
      </trkpt>
      <trkpt lat="42.7456510" lon="-5.7770790">
        <ele>970.4</ele>
        <time>2019-07-21T08:39:09Z</time>
      </trkpt>
      <trkpt lat="42.7457500" lon="-5.7769910">
        <ele>971.0</ele>
        <time>2019-07-21T08:39:11Z</time>
      </trkpt>
      <trkpt lat="42.7459930" lon="-5.7767640">
        <ele>972.2</ele>
        <time>2019-07-21T08:39:16Z</time>
      </trkpt>
      <trkpt lat="42.7461440" lon="-5.7766230">
        <ele>973.2</ele>
        <time>2019-07-21T08:39:19Z</time>
      </trkpt>
      <trkpt lat="42.7464350" lon="-5.7763460">
        <ele>974.4</ele>
        <time>2019-07-21T08:39:25Z</time>
      </trkpt>
      <trkpt lat="42.7465780" lon="-5.7762150">
        <ele>975.8</ele>
        <time>2019-07-21T08:39:28Z</time>
      </trkpt>
      <trkpt lat="42.7467640" lon="-5.7760270">
        <ele>976.8</ele>
        <time>2019-07-21T08:39:32Z</time>
      </trkpt>
      <trkpt lat="42.7468840" lon="-5.7758550">
        <ele>978.0</ele>
        <time>2019-07-21T08:39:35Z</time>
      </trkpt>
      <trkpt lat="42.7470290" lon="-5.7756070">
        <ele>979.0</ele>
        <time>2019-07-21T08:39:39Z</time>
      </trkpt>
      <trkpt lat="42.7471620" lon="-5.7753520">
        <ele>980.2</ele>
        <time>2019-07-21T08:39:43Z</time>
      </trkpt>
      <trkpt lat="42.7472890" lon="-5.7750790">
        <ele>981.2</ele>
        <time>2019-07-21T08:39:47Z</time>
      </trkpt>
      <trkpt lat="42.7474600" lon="-5.7747260">
        <ele>982.4</ele>
        <time>2019-07-21T08:39:52Z</time>
      </trkpt>
      <trkpt lat="42.7476410" lon="-5.7743390">
        <ele>983.6</ele>
        <time>2019-07-21T08:39:57Z</time>
      </trkpt>
      <trkpt lat="42.7477680" lon="-5.7740050">
        <ele>984.6</ele>
        <time>2019-07-21T08:40:01Z</time>
      </trkpt>
      <trkpt lat="42.7479230" lon="-5.7734990">
        <ele>986.0</ele>
        <time>2019-07-21T08:40:07Z</time>
      </trkpt>
      <trkpt lat="42.7479450" lon="-5.7734120">
        <ele>986.4</ele>
        <time>2019-07-21T08:40:08Z</time>
      </trkpt>
      <trkpt lat="42.7480130" lon="-5.7731520">
        <ele>987.0</ele>
        <time>2019-07-21T08:40:11Z</time>
      </trkpt>
      <trkpt lat="42.7481070" lon="-5.7728030">
        <ele>988.0</ele>
        <time>2019-07-21T08:40:15Z</time>
      </trkpt>
      <trkpt lat="42.7482980" lon="-5.7723180">
        <ele>989.0</ele>
        <time>2019-07-21T08:40:21Z</time>
      </trkpt>
      <trkpt lat="42.7485220" lon="-5.7719540">
        <ele>990.2</ele>
        <time>2019-07-21T08:40:26Z</time>
      </trkpt>
      <trkpt lat="42.7488930" lon="-5.7715680">
        <ele>990.2</ele>
        <time>2019-07-21T08:40:32Z</time>
      </trkpt>
      <trkpt lat="42.7493280" lon="-5.7713280">
        <ele>990.4</ele>
        <time>2019-07-21T08:40:38Z</time>
      </trkpt>
      <trkpt lat="42.7497930" lon="-5.7711410">
        <ele>990.4</ele>
        <time>2019-07-21T08:40:44Z</time>
      </trkpt>
      <trkpt lat="42.7502600" lon="-5.7710120">
        <ele>990.4</ele>
        <time>2019-07-21T08:40:50Z</time>
      </trkpt>
      <trkpt lat="42.7507510" lon="-5.7710830">
        <ele>990.6</ele>
        <time>2019-07-21T08:40:56Z</time>
      </trkpt>
      <trkpt lat="42.7511380" lon="-5.7713240">
        <ele>991.2</ele>
        <time>2019-07-21T08:41:01Z</time>
      </trkpt>
      <trkpt lat="42.7514340" lon="-5.7716810">
        <ele>992.2</ele>
        <time>2019-07-21T08:41:06Z</time>
      </trkpt>
      <trkpt lat="42.7516060" lon="-5.7719870">
        <ele>993.6</ele>
        <time>2019-07-21T08:41:10Z</time>
      </trkpt>
      <trkpt lat="42.7516400" lon="-5.7720680">
        <ele>994.0</ele>
        <time>2019-07-21T08:41:11Z</time>
      </trkpt>
      <trkpt lat="42.7516940" lon="-5.7722350">
        <ele>995.2</ele>
        <time>2019-07-21T08:41:13Z</time>
      </trkpt>
      <trkpt lat="42.7517510" lon="-5.7724970">
        <ele>996.4</ele>
        <time>2019-07-21T08:41:16Z</time>
      </trkpt>
      <trkpt lat="42.7517890" lon="-5.7728630">
        <ele>997.6</ele>
        <time>2019-07-21T08:41:20Z</time>
      </trkpt>
      <trkpt lat="42.7517950" lon="-5.7730440">
        <ele>998.4</ele>
        <time>2019-07-21T08:41:22Z</time>
      </trkpt>
      <trkpt lat="42.7517840" lon="-5.7732250">
        <ele>998.8</ele>
        <time>2019-07-21T08:41:24Z</time>
      </trkpt>
      <trkpt lat="42.7517310" lon="-5.7735720">
        <ele>999.8</ele>
        <time>2019-07-21T08:41:28Z</time>
      </trkpt>
      <trkpt lat="42.7516680" lon="-5.7739170">
        <ele>1001.0</ele>
        <time>2019-07-21T08:41:32Z</time>
      </trkpt>
      <trkpt lat="42.7516270" lon="-5.7741780">
        <ele>1002.2</ele>
        <time>2019-07-21T08:41:35Z</time>
      </trkpt>
      <trkpt lat="42.7515790" lon="-5.7744320">
        <ele>1003.4</ele>
        <time>2019-07-21T08:41:38Z</time>
      </trkpt>
      <trkpt lat="42.7515320" lon="-5.7746950">
        <ele>1004.6</ele>
        <time>2019-07-21T08:41:41Z</time>
      </trkpt>
      <trkpt lat="42.7514830" lon="-5.7749650">
        <ele>1005.6</ele>
        <time>2019-07-21T08:41:44Z</time>
      </trkpt>
      <trkpt lat="42.7514660" lon="-5.7750550">
        <ele>1006.0</ele>
        <time>2019-07-21T08:41:45Z</time>
      </trkpt>
      <trkpt lat="42.7514320" lon="-5.7753260">
        <ele>1007.2</ele>
        <time>2019-07-21T08:41:48Z</time>
      </trkpt>
      <trkpt lat="42.7514090" lon="-5.7756020">
        <ele>1008.6</ele>
        <time>2019-07-21T08:41:51Z</time>
      </trkpt>
      <trkpt lat="42.7513980" lon="-5.7758880">
        <ele>1010.0</ele>
        <time>2019-07-21T08:41:54Z</time>
      </trkpt>
      <trkpt lat="42.7514090" lon="-5.7761710">
        <ele>1011.2</ele>
        <time>2019-07-21T08:41:57Z</time>
      </trkpt>
      <trkpt lat="42.7514510" lon="-5.7765310">
        <ele>1012.4</ele>
        <time>2019-07-21T08:42:01Z</time>
      </trkpt>
      <trkpt lat="42.7515100" lon="-5.7766920">
        <ele>1013.0</ele>
        <time>2019-07-21T08:42:03Z</time>
      </trkpt>
      <trkpt lat="42.7516150" lon="-5.7768080">
        <ele>1013.4</ele>
        <time>2019-07-21T08:42:05Z</time>
      </trkpt>
      <trkpt lat="42.7517510" lon="-5.7768390">
        <ele>1014.0</ele>
        <time>2019-07-21T08:42:07Z</time>
      </trkpt>
      <trkpt lat="42.7518170" lon="-5.7768380">
        <ele>1014.6</ele>
        <time>2019-07-21T08:42:08Z</time>
      </trkpt>
      <trkpt lat="42.7520090" lon="-5.7768210">
        <ele>1015.6</ele>
        <time>2019-07-21T08:42:11Z</time>
      </trkpt>
      <trkpt lat="42.7520700" lon="-5.7768090">
        <ele>1015.8</ele>
        <time>2019-07-21T08:42:12Z</time>
      </trkpt>
      <trkpt lat="42.7521910" lon="-5.7767730">
        <ele>1016.0</ele>
        <time>2019-07-21T08:42:14Z</time>
      </trkpt>
      <trkpt lat="42.7523060" lon="-5.7766800">
        <ele>1016.2</ele>
        <time>2019-07-21T08:42:16Z</time>
      </trkpt>
      <trkpt lat="42.7523950" lon="-5.7765010">
        <ele>1016.0</ele>
        <time>2019-07-21T08:42:18Z</time>
      </trkpt>
      <trkpt lat="42.7525040" lon="-5.7761720">
        <ele>1015.4</ele>
        <time>2019-07-21T08:42:21Z</time>
      </trkpt>
      <trkpt lat="42.7527380" lon="-5.7757500">
        <ele>1014.4</ele>
        <time>2019-07-21T08:42:25Z</time>
      </trkpt>
      <trkpt lat="42.7529680" lon="-5.7754490">
        <ele>1013.0</ele>
        <time>2019-07-21T08:42:28Z</time>
      </trkpt>
      <trkpt lat="42.7531380" lon="-5.7752450">
        <ele>1011.8</ele>
        <time>2019-07-21T08:42:30Z</time>
      </trkpt>
      <trkpt lat="42.7533240" lon="-5.7750500">
        <ele>1010.4</ele>
        <time>2019-07-21T08:42:32Z</time>
      </trkpt>
      <trkpt lat="42.7535350" lon="-5.7748830">
        <ele>1009.2</ele>
        <time>2019-07-21T08:42:34Z</time>
      </trkpt>
      <trkpt lat="42.7538610" lon="-5.7746370">
        <ele>1007.8</ele>
        <time>2019-07-21T08:42:37Z</time>
      </trkpt>
      <trkpt lat="42.7543000" lon="-5.7742980">
        <ele>1006.2</ele>
        <time>2019-07-21T08:42:41Z</time>
      </trkpt>
      <trkpt lat="42.7545220" lon="-5.7741260">
        <ele>1004.8</ele>
        <time>2019-07-21T08:42:43Z</time>
      </trkpt>
      <trkpt lat="42.7547500" lon="-5.7739560">
        <ele>1003.2</ele>
        <time>2019-07-21T08:42:45Z</time>
      </trkpt>
      <trkpt lat="42.7548720" lon="-5.7738840">
        <ele>1002.0</ele>
        <time>2019-07-21T08:42:46Z</time>
      </trkpt>
      <trkpt lat="42.7550010" lon="-5.7738290">
        <ele>1000.8</ele>
        <time>2019-07-21T08:42:47Z</time>
      </trkpt>
      <trkpt lat="42.7551370" lon="-5.7737940">
        <ele>999.8</ele>
        <time>2019-07-21T08:42:48Z</time>
      </trkpt>
      <trkpt lat="42.7552780" lon="-5.7737830">
        <ele>999.0</ele>
        <time>2019-07-21T08:42:49Z</time>
      </trkpt>
      <trkpt lat="42.7555670" lon="-5.7737960">
        <ele>997.8</ele>
        <time>2019-07-21T08:42:51Z</time>
      </trkpt>
      <trkpt lat="42.7558600" lon="-5.7738210">
        <ele>996.4</ele>
        <time>2019-07-21T08:42:53Z</time>
      </trkpt>
      <trkpt lat="42.7561550" lon="-5.7738610">
        <ele>994.8</ele>
        <time>2019-07-21T08:42:55Z</time>
      </trkpt>
      <trkpt lat="42.7563060" lon="-5.7738830">
        <ele>993.8</ele>
        <time>2019-07-21T08:42:56Z</time>
      </trkpt>
      <trkpt lat="42.7564580" lon="-5.7739070">
        <ele>992.6</ele>
        <time>2019-07-21T08:42:57Z</time>
      </trkpt>
      <trkpt lat="42.7566110" lon="-5.7739290">
        <ele>991.4</ele>
        <time>2019-07-21T08:42:58Z</time>
      </trkpt>
      <trkpt lat="42.7567650" lon="-5.7739510">
        <ele>990.4</ele>
        <time>2019-07-21T08:42:59Z</time>
      </trkpt>
      <trkpt lat="42.7570620" lon="-5.7739910">
        <ele>988.6</ele>
        <time>2019-07-21T08:43:01Z</time>
      </trkpt>
      <trkpt lat="42.7572110" lon="-5.7740110">
        <ele>987.6</ele>
        <time>2019-07-21T08:43:02Z</time>
      </trkpt>
      <trkpt lat="42.7573600" lon="-5.7740370">
        <ele>986.4</ele>
        <time>2019-07-21T08:43:03Z</time>
      </trkpt>
      <trkpt lat="42.7575100" lon="-5.7740730">
        <ele>985.2</ele>
        <time>2019-07-21T08:43:04Z</time>
      </trkpt>
      <trkpt lat="42.7576580" lon="-5.7741220">
        <ele>984.6</ele>
        <time>2019-07-21T08:43:05Z</time>
      </trkpt>
      <trkpt lat="42.7578030" lon="-5.7741810">
        <ele>984.2</ele>
        <time>2019-07-21T08:43:06Z</time>
      </trkpt>
      <trkpt lat="42.7580860" lon="-5.7743070">
        <ele>982.8</ele>
        <time>2019-07-21T08:43:08Z</time>
      </trkpt>
      <trkpt lat="42.7583560" lon="-5.7744320">
        <ele>981.6</ele>
        <time>2019-07-21T08:43:10Z</time>
      </trkpt>
      <trkpt lat="42.7586190" lon="-5.7745640">
        <ele>980.6</ele>
        <time>2019-07-21T08:43:12Z</time>
      </trkpt>
      <trkpt lat="42.7588790" lon="-5.7747230">
        <ele>979.4</ele>
        <time>2019-07-21T08:43:14Z</time>
      </trkpt>
      <trkpt lat="42.7591300" lon="-5.7749210">
        <ele>977.6</ele>
        <time>2019-07-21T08:43:16Z</time>
      </trkpt>
      <trkpt lat="42.7592480" lon="-5.7750310">
        <ele>976.4</ele>
        <time>2019-07-21T08:43:17Z</time>
      </trkpt>
      <trkpt lat="42.7594670" lon="-5.7752700">
        <ele>975.2</ele>
        <time>2019-07-21T08:43:19Z</time>
      </trkpt>
      <trkpt lat="42.7599010" lon="-5.7758890">
        <ele>974.4</ele>
        <time>2019-07-21T08:43:24Z</time>
      </trkpt>
      <trkpt lat="42.7600950" lon="-5.7762720">
        <ele>974.6</ele>
        <time>2019-07-21T08:43:27Z</time>
      </trkpt>
      <trkpt lat="42.7602720" lon="-5.7766540">
        <ele>975.8</ele>
        <time>2019-07-21T08:43:30Z</time>
      </trkpt>
      <trkpt lat="42.7603320" lon="-5.7767740">
        <ele>976.2</ele>
        <time>2019-07-21T08:43:31Z</time>
      </trkpt>
      <trkpt lat="42.7605110" lon="-5.7771360">
        <ele>977.2</ele>
        <time>2019-07-21T08:43:34Z</time>
      </trkpt>
      <trkpt lat="42.7605700" lon="-5.7772560">
        <ele>977.4</ele>
        <time>2019-07-21T08:43:35Z</time>
      </trkpt>
      <trkpt lat="42.7607480" lon="-5.7776230">
        <ele>977.6</ele>
        <time>2019-07-21T08:43:38Z</time>
      </trkpt>
      <trkpt lat="42.7609830" lon="-5.7781050">
        <ele>978.6</ele>
        <time>2019-07-21T08:43:42Z</time>
      </trkpt>
      <trkpt lat="42.7614260" lon="-5.7787000">
        <ele>978.6</ele>
        <time>2019-07-21T08:43:48Z</time>
      </trkpt>
      <trkpt lat="42.7618640" lon="-5.7789550">
        <ele>979.6</ele>
        <time>2019-07-21T08:43:53Z</time>
      </trkpt>
      <trkpt lat="42.7621230" lon="-5.7790130">
        <ele>980.8</ele>
        <time>2019-07-21T08:43:56Z</time>
      </trkpt>
      <trkpt lat="42.7622940" lon="-5.7790220">
        <ele>981.2</ele>
        <time>2019-07-21T08:43:58Z</time>
      </trkpt>
      <trkpt lat="42.7625410" lon="-5.7789970">
        <ele>982.0</ele>
        <time>2019-07-21T08:44:01Z</time>
      </trkpt>
      <trkpt lat="42.7627780" lon="-5.7789200">
        <ele>983.2</ele>
        <time>2019-07-21T08:44:04Z</time>
      </trkpt>
      <trkpt lat="42.7630170" lon="-5.7787860">
        <ele>984.2</ele>
        <time>2019-07-21T08:44:07Z</time>
      </trkpt>
      <trkpt lat="42.7634950" lon="-5.7783360">
        <ele>985.2</ele>
        <time>2019-07-21T08:44:13Z</time>
      </trkpt>
      <trkpt lat="42.7639120" lon="-5.7777920">
        <ele>983.2</ele>
        <time>2019-07-21T08:44:18Z</time>
      </trkpt>
      <trkpt lat="42.7641640" lon="-5.7773760">
        <ele>982.0</ele>
        <time>2019-07-21T08:44:21Z</time>
      </trkpt>
      <trkpt lat="42.7644360" lon="-5.7770020">
        <ele>980.6</ele>
        <time>2019-07-21T08:44:24Z</time>
      </trkpt>
      <trkpt lat="42.7646770" lon="-5.7768580">
        <ele>978.2</ele>
        <time>2019-07-21T08:44:26Z</time>
      </trkpt>
      <trkpt lat="42.7648090" lon="-5.7768210">
        <ele>977.0</ele>
        <time>2019-07-21T08:44:27Z</time>
      </trkpt>
      <trkpt lat="42.7649430" lon="-5.7767990">
        <ele>976.0</ele>
        <time>2019-07-21T08:44:28Z</time>
      </trkpt>
      <trkpt lat="42.7650780" lon="-5.7768010">
        <ele>974.8</ele>
        <time>2019-07-21T08:44:29Z</time>
      </trkpt>
      <trkpt lat="42.7653330" lon="-5.7769010">
        <ele>973.0</ele>
        <time>2019-07-21T08:44:31Z</time>
      </trkpt>
      <trkpt lat="42.7655270" lon="-5.7771370">
        <ele>971.8</ele>
        <time>2019-07-21T08:44:33Z</time>
      </trkpt>
      <trkpt lat="42.7656230" lon="-5.7774660">
        <ele>970.4</ele>
        <time>2019-07-21T08:44:35Z</time>
      </trkpt>
      <trkpt lat="42.7656110" lon="-5.7778220">
        <ele>969.8</ele>
        <time>2019-07-21T08:44:37Z</time>
      </trkpt>
      <trkpt lat="42.7655690" lon="-5.7783410">
        <ele>969.4</ele>
        <time>2019-07-21T08:44:40Z</time>
      </trkpt>
      <trkpt lat="42.7655790" lon="-5.7785050">
        <ele>969.4</ele>
        <time>2019-07-21T08:44:41Z</time>
      </trkpt>
      <trkpt lat="42.7656110" lon="-5.7786590">
        <ele>969.4</ele>
        <time>2019-07-21T08:44:42Z</time>
      </trkpt>
      <trkpt lat="42.7657360" lon="-5.7789090">
        <ele>969.0</ele>
        <time>2019-07-21T08:44:44Z</time>
      </trkpt>
      <trkpt lat="42.7659180" lon="-5.7790520">
        <ele>968.8</ele>
        <time>2019-07-21T08:44:46Z</time>
      </trkpt>
      <trkpt lat="42.7661220" lon="-5.7790890">
        <ele>968.8</ele>
        <time>2019-07-21T08:44:48Z</time>
      </trkpt>
      <trkpt lat="42.7667130" lon="-5.7788510">
        <ele>969.2</ele>
        <time>2019-07-21T08:44:54Z</time>
      </trkpt>
      <trkpt lat="42.7668140" lon="-5.7788200">
        <ele>969.4</ele>
        <time>2019-07-21T08:44:55Z</time>
      </trkpt>
      <trkpt lat="42.7670210" lon="-5.7788000">
        <ele>969.6</ele>
        <time>2019-07-21T08:44:57Z</time>
      </trkpt>
      <trkpt lat="42.7672290" lon="-5.7788490">
        <ele>969.8</ele>
        <time>2019-07-21T08:44:59Z</time>
      </trkpt>
      <trkpt lat="42.7674260" lon="-5.7789650">
        <ele>969.8</ele>
        <time>2019-07-21T08:45:01Z</time>
      </trkpt>
      <trkpt lat="42.7675980" lon="-5.7791560">
        <ele>969.6</ele>
        <time>2019-07-21T08:45:03Z</time>
      </trkpt>
      <trkpt lat="42.7679150" lon="-5.7798250">
        <ele>968.8</ele>
        <time>2019-07-21T08:45:08Z</time>
      </trkpt>
      <trkpt lat="42.7681490" lon="-5.7803910">
        <ele>968.0</ele>
        <time>2019-07-21T08:45:12Z</time>
      </trkpt>
      <trkpt lat="42.7684620" lon="-5.7810810">
        <ele>967.2</ele>
        <time>2019-07-21T08:45:17Z</time>
      </trkpt>
      <trkpt lat="42.7685380" lon="-5.7812070">
        <ele>966.8</ele>
        <time>2019-07-21T08:45:18Z</time>
      </trkpt>
      <trkpt lat="42.7689930" lon="-5.7817250">
        <ele>966.0</ele>
        <time>2019-07-21T08:45:23Z</time>
      </trkpt>
      <trkpt lat="42.7692010" lon="-5.7818860">
        <ele>965.8</ele>
        <time>2019-07-21T08:45:25Z</time>
      </trkpt>
      <trkpt lat="42.7697170" lon="-5.7822950">
        <ele>965.4</ele>
        <time>2019-07-21T08:45:30Z</time>
      </trkpt>
      <trkpt lat="42.7700300" lon="-5.7825440">
        <ele>964.6</ele>
        <time>2019-07-21T08:45:33Z</time>
      </trkpt>
      <trkpt lat="42.7703350" lon="-5.7827890">
        <ele>963.4</ele>
        <time>2019-07-21T08:45:36Z</time>
      </trkpt>
      <trkpt lat="42.7708340" lon="-5.7831720">
        <ele>963.8</ele>
        <time>2019-07-21T08:45:41Z</time>
      </trkpt>
      <trkpt lat="42.7712990" lon="-5.7835450">
        <ele>964.0</ele>
        <time>2019-07-21T08:45:46Z</time>
      </trkpt>
      <trkpt lat="42.7718340" lon="-5.7839790">
        <ele>963.6</ele>
        <time>2019-07-21T08:45:52Z</time>
      </trkpt>
      <trkpt lat="42.7722840" lon="-5.7842680">
        <ele>962.8</ele>
        <time>2019-07-21T08:45:57Z</time>
      </trkpt>
      <trkpt lat="42.7724880" lon="-5.7842900">
        <ele>962.6</ele>
        <time>2019-07-21T08:45:59Z</time>
      </trkpt>
      <trkpt lat="42.7726900" lon="-5.7842330">
        <ele>962.4</ele>
        <time>2019-07-21T08:46:01Z</time>
      </trkpt>
      <trkpt lat="42.7728740" lon="-5.7841020">
        <ele>962.4</ele>
        <time>2019-07-21T08:46:03Z</time>
      </trkpt>
      <trkpt lat="42.7733280" lon="-5.7835410">
        <ele>963.0</ele>
        <time>2019-07-21T08:46:09Z</time>
      </trkpt>
      <trkpt lat="42.7734920" lon="-5.7833850">
        <ele>963.2</ele>
        <time>2019-07-21T08:46:11Z</time>
      </trkpt>
      <trkpt lat="42.7740540" lon="-5.7831190">
        <ele>963.4</ele>
        <time>2019-07-21T08:46:17Z</time>
      </trkpt>
      <trkpt lat="42.7746000" lon="-5.7828500">
        <ele>964.0</ele>
        <time>2019-07-21T08:46:23Z</time>
      </trkpt>
      <trkpt lat="42.7749500" lon="-5.7827330">
        <ele>964.6</ele>
        <time>2019-07-21T08:46:27Z</time>
      </trkpt>
      <trkpt lat="42.7754780" lon="-5.7826760">
        <ele>965.8</ele>
        <time>2019-07-21T08:46:33Z</time>
      </trkpt>
      <trkpt lat="42.7758200" lon="-5.7827350">
        <ele>967.2</ele>
        <time>2019-07-21T08:46:37Z</time>
      </trkpt>
      <trkpt lat="42.7760740" lon="-5.7828110">
        <ele>968.6</ele>
        <time>2019-07-21T08:46:40Z</time>
      </trkpt>
      <trkpt lat="42.7766340" lon="-5.7830160">
        <ele>969.0</ele>
        <time>2019-07-21T08:46:46Z</time>
      </trkpt>
      <trkpt lat="42.7771960" lon="-5.7834330">
        <ele>968.6</ele>
        <time>2019-07-21T08:46:52Z</time>
      </trkpt>
      <trkpt lat="42.7775520" lon="-5.7837900">
        <ele>967.2</ele>
        <time>2019-07-21T08:46:56Z</time>
      </trkpt>
      <trkpt lat="42.7779920" lon="-5.7844180">
        <ele>966.6</ele>
        <time>2019-07-21T08:47:02Z</time>
      </trkpt>
      <trkpt lat="42.7782600" lon="-5.7850800">
        <ele>967.2</ele>
        <time>2019-07-21T08:47:07Z</time>
      </trkpt>
      <trkpt lat="42.7784320" lon="-5.7858140">
        <ele>967.2</ele>
        <time>2019-07-21T08:47:12Z</time>
      </trkpt>
      <trkpt lat="42.7785870" lon="-5.7865590">
        <ele>966.6</ele>
        <time>2019-07-21T08:47:17Z</time>
      </trkpt>
      <trkpt lat="42.7786990" lon="-5.7870000">
        <ele>965.8</ele>
        <time>2019-07-21T08:47:20Z</time>
      </trkpt>
      <trkpt lat="42.7789640" lon="-5.7876620">
        <ele>965.0</ele>
        <time>2019-07-21T08:47:25Z</time>
      </trkpt>
      <trkpt lat="42.7793380" lon="-5.7883980">
        <ele>965.0</ele>
        <time>2019-07-21T08:47:31Z</time>
      </trkpt>
      <trkpt lat="42.7794520" lon="-5.7886540">
        <ele>964.8</ele>
        <time>2019-07-21T08:47:33Z</time>
      </trkpt>
      <trkpt lat="42.7796950" lon="-5.7893170">
        <ele>964.4</ele>
        <time>2019-07-21T08:47:38Z</time>
      </trkpt>
      <trkpt lat="42.7798430" lon="-5.7896890">
        <ele>965.0</ele>
        <time>2019-07-21T08:47:41Z</time>
      </trkpt>
      <trkpt lat="42.7799720" lon="-5.7898970">
        <ele>965.2</ele>
        <time>2019-07-21T08:47:43Z</time>
      </trkpt>
      <trkpt lat="42.7801340" lon="-5.7900430">
        <ele>965.4</ele>
        <time>2019-07-21T08:47:45Z</time>
      </trkpt>
      <trkpt lat="42.7803110" lon="-5.7901240">
        <ele>965.6</ele>
        <time>2019-07-21T08:47:47Z</time>
      </trkpt>
      <trkpt lat="42.7805690" lon="-5.7901810">
        <ele>965.8</ele>
        <time>2019-07-21T08:47:51Z</time>
      </trkpt>
      <trkpt lat="42.7806420" lon="-5.7902660">
        <ele>965.8</ele>
        <time>2019-07-21T08:47:53Z</time>
      </trkpt>
      <trkpt lat="42.7806490" lon="-5.7904120">
        <ele>965.6</ele>
        <time>2019-07-21T08:47:55Z</time>
      </trkpt>
      <trkpt lat="42.7805880" lon="-5.7906940">
        <ele>965.2</ele>
        <time>2019-07-21T08:47:59Z</time>
      </trkpt>
      <trkpt lat="42.7805720" lon="-5.7907680">
        <ele>964.8</ele>
        <time>2019-07-21T08:48:01Z</time>
      </trkpt>
      <trkpt lat="42.7805640" lon="-5.7908100">
        <ele>964.4</ele>
        <time>2019-07-21T08:48:03Z</time>
      </trkpt>
      <trkpt lat="42.7805640" lon="-5.7908200">
        <ele>964.2</ele>
        <time>2019-07-21T08:48:04Z</time>
      </trkpt>
      <trkpt lat="42.7807230" lon="-5.7901730">
        <ele>963.8</ele>
        <time>2019-07-21T09:21:35Z</time>
      </trkpt>
      <trkpt lat="42.7807560" lon="-5.7901480">
        <ele>963.8</ele>
        <time>2019-07-21T09:21:36Z</time>
      </trkpt>
      <trkpt lat="42.7808260" lon="-5.7901260">
        <ele>964.2</ele>
        <time>2019-07-21T09:21:38Z</time>
      </trkpt>
      <trkpt lat="42.7808970" lon="-5.7901360">
        <ele>964.2</ele>
        <time>2019-07-21T09:21:40Z</time>
      </trkpt>
      <trkpt lat="42.7811080" lon="-5.7901690">
        <ele>964.2</ele>
        <time>2019-07-21T09:21:46Z</time>
      </trkpt>
      <trkpt lat="42.7813440" lon="-5.7902110">
        <ele>964.2</ele>
        <time>2019-07-21T09:21:52Z</time>
      </trkpt>
      <trkpt lat="42.7815560" lon="-5.7903040">
        <ele>964.0</ele>
        <time>2019-07-21T09:21:58Z</time>
      </trkpt>
      <trkpt lat="42.7817520" lon="-5.7904990">
        <ele>964.2</ele>
        <time>2019-07-21T09:22:04Z</time>
      </trkpt>
      <trkpt lat="42.7819290" lon="-5.7907760">
        <ele>964.4</ele>
        <time>2019-07-21T09:22:10Z</time>
      </trkpt>
      <trkpt lat="42.7819880" lon="-5.7908700">
        <ele>964.4</ele>
        <time>2019-07-21T09:22:12Z</time>
      </trkpt>
      <trkpt lat="42.7820180" lon="-5.7909170">
        <ele>964.2</ele>
        <time>2019-07-21T09:22:13Z</time>
      </trkpt>
      <trkpt lat="42.7821830" lon="-5.7912370">
        <ele>964.4</ele>
        <time>2019-07-21T09:22:19Z</time>
      </trkpt>
      <trkpt lat="42.7822490" lon="-5.7913680">
        <ele>964.8</ele>
        <time>2019-07-21T09:22:21Z</time>
      </trkpt>
      <trkpt lat="42.7823610" lon="-5.7915560">
        <ele>965.0</ele>
        <time>2019-07-21T09:22:24Z</time>
      </trkpt>
      <trkpt lat="42.7825140" lon="-5.7917940">
        <ele>965.2</ele>
        <time>2019-07-21T09:22:28Z</time>
      </trkpt>
      <trkpt lat="42.7827280" lon="-5.7921570">
        <ele>965.4</ele>
        <time>2019-07-21T09:22:34Z</time>
      </trkpt>
      <trkpt lat="42.7829320" lon="-5.7924970">
        <ele>965.6</ele>
        <time>2019-07-21T09:22:40Z</time>
      </trkpt>
      <trkpt lat="42.7829970" lon="-5.7926060">
        <ele>965.8</ele>
        <time>2019-07-21T09:22:42Z</time>
      </trkpt>
      <trkpt lat="42.7831860" lon="-5.7929240">
        <ele>966.4</ele>
        <time>2019-07-21T09:22:48Z</time>
      </trkpt>
      <trkpt lat="42.7833490" lon="-5.7932040">
        <ele>966.6</ele>
        <time>2019-07-21T09:22:53Z</time>
      </trkpt>
      <trkpt lat="42.7834550" lon="-5.7934000">
        <ele>966.8</ele>
        <time>2019-07-21T09:22:56Z</time>
      </trkpt>
      <trkpt lat="42.7836080" lon="-5.7937950">
        <ele>967.4</ele>
        <time>2019-07-21T09:23:02Z</time>
      </trkpt>
      <trkpt lat="42.7837430" lon="-5.7942510">
        <ele>967.6</ele>
        <time>2019-07-21T09:23:08Z</time>
      </trkpt>
      <trkpt lat="42.7838900" lon="-5.7947310">
        <ele>967.8</ele>
        <time>2019-07-21T09:23:14Z</time>
      </trkpt>
      <trkpt lat="42.7839130" lon="-5.7948090">
        <ele>968.0</ele>
        <time>2019-07-21T09:23:15Z</time>
      </trkpt>
      <trkpt lat="42.7840410" lon="-5.7952830">
        <ele>968.2</ele>
        <time>2019-07-21T09:23:21Z</time>
      </trkpt>
      <trkpt lat="42.7840650" lon="-5.7953510">
        <ele>968.2</ele>
        <time>2019-07-21T09:23:22Z</time>
      </trkpt>
      <trkpt lat="42.7841300" lon="-5.7954510">
        <ele>968.0</ele>
        <time>2019-07-21T09:23:24Z</time>
      </trkpt>
      <trkpt lat="42.7842170" lon="-5.7955630">
        <ele>968.2</ele>
        <time>2019-07-21T09:23:27Z</time>
      </trkpt>
      <trkpt lat="42.7842440" lon="-5.7956870">
        <ele>968.4</ele>
        <time>2019-07-21T09:23:29Z</time>
      </trkpt>
      <trkpt lat="42.7842750" lon="-5.7960360">
        <ele>968.8</ele>
        <time>2019-07-21T09:23:33Z</time>
      </trkpt>
      <trkpt lat="42.7842940" lon="-5.7963110">
        <ele>969.0</ele>
        <time>2019-07-21T09:23:36Z</time>
      </trkpt>
      <trkpt lat="42.7843020" lon="-5.7965960">
        <ele>969.2</ele>
        <time>2019-07-21T09:23:39Z</time>
      </trkpt>
      <trkpt lat="42.7843230" lon="-5.7971640">
        <ele>969.2</ele>
        <time>2019-07-21T09:23:45Z</time>
      </trkpt>
      <trkpt lat="42.7843410" lon="-5.7977080">
        <ele>969.2</ele>
        <time>2019-07-21T09:23:51Z</time>
      </trkpt>
      <trkpt lat="42.7843350" lon="-5.7981610">
        <ele>968.6</ele>
        <time>2019-07-21T09:23:56Z</time>
      </trkpt>
      <trkpt lat="42.7843280" lon="-5.7984190">
        <ele>968.4</ele>
        <time>2019-07-21T09:23:59Z</time>
      </trkpt>
      <trkpt lat="42.7843180" lon="-5.7986680">
        <ele>968.2</ele>
        <time>2019-07-21T09:24:02Z</time>
      </trkpt>
      <trkpt lat="42.7843050" lon="-5.7989080">
        <ele>968.0</ele>
        <time>2019-07-21T09:24:05Z</time>
      </trkpt>
      <trkpt lat="42.7842970" lon="-5.7991480">
        <ele>967.8</ele>
        <time>2019-07-21T09:24:08Z</time>
      </trkpt>
      <trkpt lat="42.7842800" lon="-5.7994710">
        <ele>967.8</ele>
        <time>2019-07-21T09:24:12Z</time>
      </trkpt>
      <trkpt lat="42.7842590" lon="-5.7998560">
        <ele>967.8</ele>
        <time>2019-07-21T09:24:17Z</time>
      </trkpt>
      <trkpt lat="42.7842320" lon="-5.8003320">
        <ele>967.6</ele>
        <time>2019-07-21T09:24:23Z</time>
      </trkpt>
      <trkpt lat="42.7842230" lon="-5.8004940">
        <ele>967.8</ele>
        <time>2019-07-21T09:24:25Z</time>
      </trkpt>
      <trkpt lat="42.7842140" lon="-5.8006540">
        <ele>967.8</ele>
        <time>2019-07-21T09:24:27Z</time>
      </trkpt>
      <trkpt lat="42.7841780" lon="-5.8011170">
        <ele>967.8</ele>
        <time>2019-07-21T09:24:33Z</time>
      </trkpt>
      <trkpt lat="42.7841550" lon="-5.8014870">
        <ele>967.8</ele>
        <time>2019-07-21T09:24:38Z</time>
      </trkpt>
      <trkpt lat="42.7841380" lon="-5.8019460">
        <ele>967.8</ele>
        <time>2019-07-21T09:24:44Z</time>
      </trkpt>
      <trkpt lat="42.7841930" lon="-5.8024010">
        <ele>968.0</ele>
        <time>2019-07-21T09:24:50Z</time>
      </trkpt>
      <trkpt lat="42.7842900" lon="-5.8028440">
        <ele>968.0</ele>
        <time>2019-07-21T09:24:56Z</time>
      </trkpt>
      <trkpt lat="42.7843650" lon="-5.8030570">
        <ele>968.0</ele>
        <time>2019-07-21T09:24:59Z</time>
      </trkpt>
      <trkpt lat="42.7844130" lon="-5.8031780">
        <ele>968.0</ele>
        <time>2019-07-21T09:25:01Z</time>
      </trkpt>
      <trkpt lat="42.7844720" lon="-5.8032880">
        <ele>968.2</ele>
        <time>2019-07-21T09:25:03Z</time>
      </trkpt>
      <trkpt lat="42.7845390" lon="-5.8033910">
        <ele>968.4</ele>
        <time>2019-07-21T09:25:05Z</time>
      </trkpt>
      <trkpt lat="42.7846020" lon="-5.8034870">
        <ele>968.8</ele>
        <time>2019-07-21T09:25:07Z</time>
      </trkpt>
      <trkpt lat="42.7846610" lon="-5.8035820">
        <ele>969.0</ele>
        <time>2019-07-21T09:25:09Z</time>
      </trkpt>
      <trkpt lat="42.7846900" lon="-5.8036280">
        <ele>969.2</ele>
        <time>2019-07-21T09:25:10Z</time>
      </trkpt>
      <trkpt lat="42.7847160" lon="-5.8036810">
        <ele>969.2</ele>
        <time>2019-07-21T09:25:11Z</time>
      </trkpt>
      <trkpt lat="42.7847450" lon="-5.8037310">
        <ele>969.4</ele>
        <time>2019-07-21T09:25:12Z</time>
      </trkpt>
      <trkpt lat="42.7847760" lon="-5.8037760">
        <ele>969.6</ele>
        <time>2019-07-21T09:25:13Z</time>
      </trkpt>
      <trkpt lat="42.7848580" lon="-5.8038320">
        <ele>969.8</ele>
        <time>2019-07-21T09:25:15Z</time>
      </trkpt>
      <trkpt lat="42.7849090" lon="-5.8038470">
        <ele>970.0</ele>
        <time>2019-07-21T09:25:16Z</time>
      </trkpt>
      <trkpt lat="42.7849660" lon="-5.8038540">
        <ele>970.2</ele>
        <time>2019-07-21T09:25:17Z</time>
      </trkpt>
      <trkpt lat="42.7850860" lon="-5.8038620">
        <ele>970.2</ele>
        <time>2019-07-21T09:25:19Z</time>
      </trkpt>
      <trkpt lat="42.7852690" lon="-5.8038950">
        <ele>970.2</ele>
        <time>2019-07-21T09:25:22Z</time>
      </trkpt>
      <trkpt lat="42.7856260" lon="-5.8040550">
        <ele>969.8</ele>
        <time>2019-07-21T09:25:28Z</time>
      </trkpt>
      <trkpt lat="42.7860030" lon="-5.8042120">
        <ele>969.6</ele>
        <time>2019-07-21T09:25:34Z</time>
      </trkpt>
      <trkpt lat="42.7863610" lon="-5.8043060">
        <ele>969.8</ele>
        <time>2019-07-21T09:25:40Z</time>
      </trkpt>
      <trkpt lat="42.7867190" lon="-5.8044200">
        <ele>969.8</ele>
        <time>2019-07-21T09:25:46Z</time>
      </trkpt>
      <trkpt lat="42.7868360" lon="-5.8044560">
        <ele>969.8</ele>
        <time>2019-07-21T09:25:48Z</time>
      </trkpt>
      <trkpt lat="42.7872030" lon="-5.8045300">
        <ele>970.2</ele>
        <time>2019-07-21T09:25:54Z</time>
      </trkpt>
      <trkpt lat="42.7873280" lon="-5.8045660">
        <ele>970.4</ele>
        <time>2019-07-21T09:25:56Z</time>
      </trkpt>
      <trkpt lat="42.7875520" lon="-5.8046900">
        <ele>970.8</ele>
        <time>2019-07-21T09:26:00Z</time>
      </trkpt>
      <trkpt lat="42.7878810" lon="-5.8048630">
        <ele>971.0</ele>
        <time>2019-07-21T09:26:06Z</time>
      </trkpt>
      <trkpt lat="42.7882170" lon="-5.8050330">
        <ele>971.0</ele>
        <time>2019-07-21T09:26:12Z</time>
      </trkpt>
      <trkpt lat="42.7885600" lon="-5.8052170">
        <ele>971.6</ele>
        <time>2019-07-21T09:26:18Z</time>
      </trkpt>
      <trkpt lat="42.7888450" lon="-5.8053570">
        <ele>971.6</ele>
        <time>2019-07-21T09:26:23Z</time>
      </trkpt>
      <trkpt lat="42.7892110" lon="-5.8054440">
        <ele>971.8</ele>
        <time>2019-07-21T09:26:29Z</time>
      </trkpt>
      <trkpt lat="42.7894600" lon="-5.8054690">
        <ele>972.2</ele>
        <time>2019-07-21T09:26:33Z</time>
      </trkpt>
      <trkpt lat="42.7897010" lon="-5.8055140">
        <ele>972.6</ele>
        <time>2019-07-21T09:26:37Z</time>
      </trkpt>
      <trkpt lat="42.7898180" lon="-5.8055720">
        <ele>972.6</ele>
        <time>2019-07-21T09:26:39Z</time>
      </trkpt>
      <trkpt lat="42.7899280" lon="-5.8056590">
        <ele>973.0</ele>
        <time>2019-07-21T09:26:41Z</time>
      </trkpt>
      <trkpt lat="42.7900330" lon="-5.8057680">
        <ele>973.0</ele>
        <time>2019-07-21T09:26:43Z</time>
      </trkpt>
      <trkpt lat="42.7901380" lon="-5.8058790">
        <ele>973.2</ele>
        <time>2019-07-21T09:26:45Z</time>
      </trkpt>
      <trkpt lat="42.7904650" lon="-5.8062070">
        <ele>973.0</ele>
        <time>2019-07-21T09:26:51Z</time>
      </trkpt>
      <trkpt lat="42.7907870" lon="-5.8065310">
        <ele>973.0</ele>
        <time>2019-07-21T09:26:57Z</time>
      </trkpt>
      <trkpt lat="42.7911030" lon="-5.8068900">
        <ele>973.2</ele>
        <time>2019-07-21T09:27:03Z</time>
      </trkpt>
      <trkpt lat="42.7913240" lon="-5.8073860">
        <ele>973.0</ele>
        <time>2019-07-21T09:27:09Z</time>
      </trkpt>
      <trkpt lat="42.7914490" lon="-5.8079640">
        <ele>972.8</ele>
        <time>2019-07-21T09:27:15Z</time>
      </trkpt>
      <trkpt lat="42.7914850" lon="-5.8082640">
        <ele>972.8</ele>
        <time>2019-07-21T09:27:18Z</time>
      </trkpt>
      <trkpt lat="42.7915590" lon="-5.8088380">
        <ele>972.6</ele>
        <time>2019-07-21T09:27:24Z</time>
      </trkpt>
      <trkpt lat="42.7916100" lon="-5.8093280">
        <ele>972.4</ele>
        <time>2019-07-21T09:27:29Z</time>
      </trkpt>
      <trkpt lat="42.7916330" lon="-5.8095200">
        <ele>972.2</ele>
        <time>2019-07-21T09:27:31Z</time>
      </trkpt>
      <trkpt lat="42.7917490" lon="-5.8100850">
        <ele>972.4</ele>
        <time>2019-07-21T09:27:37Z</time>
      </trkpt>
      <trkpt lat="42.7917840" lon="-5.8101750">
        <ele>972.4</ele>
        <time>2019-07-21T09:27:38Z</time>
      </trkpt>
      <trkpt lat="42.7918680" lon="-5.8103350">
        <ele>972.4</ele>
        <time>2019-07-21T09:27:40Z</time>
      </trkpt>
      <trkpt lat="42.7921370" lon="-5.8107410">
        <ele>972.6</ele>
        <time>2019-07-21T09:27:46Z</time>
      </trkpt>
      <trkpt lat="42.7921820" lon="-5.8108030">
        <ele>972.8</ele>
        <time>2019-07-21T09:27:47Z</time>
      </trkpt>
      <trkpt lat="42.7924300" lon="-5.8111510">
        <ele>973.6</ele>
        <time>2019-07-21T09:27:53Z</time>
      </trkpt>
      <trkpt lat="42.7927020" lon="-5.8115330">
        <ele>974.2</ele>
        <time>2019-07-21T09:27:59Z</time>
      </trkpt>
      <trkpt lat="42.7930220" lon="-5.8119340">
        <ele>973.6</ele>
        <time>2019-07-21T09:28:05Z</time>
      </trkpt>
      <trkpt lat="42.7933980" lon="-5.8122180">
        <ele>973.2</ele>
        <time>2019-07-21T09:28:11Z</time>
      </trkpt>
      <trkpt lat="42.7937610" lon="-5.8124670">
        <ele>973.2</ele>
        <time>2019-07-21T09:28:17Z</time>
      </trkpt>
      <trkpt lat="42.7939930" lon="-5.8126260">
        <ele>973.4</ele>
        <time>2019-07-21T09:28:21Z</time>
      </trkpt>
      <trkpt lat="42.7943380" lon="-5.8128890">
        <ele>974.0</ele>
        <time>2019-07-21T09:28:27Z</time>
      </trkpt>
      <trkpt lat="42.7943890" lon="-5.8129470">
        <ele>974.0</ele>
        <time>2019-07-21T09:28:28Z</time>
      </trkpt>
      <trkpt lat="42.7944380" lon="-5.8130080">
        <ele>974.2</ele>
        <time>2019-07-21T09:28:29Z</time>
      </trkpt>
      <trkpt lat="42.7947140" lon="-5.8133690">
        <ele>974.8</ele>
        <time>2019-07-21T09:28:35Z</time>
      </trkpt>
      <trkpt lat="42.7948360" lon="-5.8135440">
        <ele>975.2</ele>
        <time>2019-07-21T09:28:38Z</time>
      </trkpt>
      <trkpt lat="42.7950670" lon="-5.8139060">
        <ele>975.4</ele>
        <time>2019-07-21T09:28:44Z</time>
      </trkpt>
      <trkpt lat="42.7951380" lon="-5.8140510">
        <ele>975.6</ele>
        <time>2019-07-21T09:28:46Z</time>
      </trkpt>
      <trkpt lat="42.7952720" lon="-5.8145950">
        <ele>975.6</ele>
        <time>2019-07-21T09:28:52Z</time>
      </trkpt>
      <trkpt lat="42.7953580" lon="-5.8151540">
        <ele>975.6</ele>
        <time>2019-07-21T09:28:58Z</time>
      </trkpt>
      <trkpt lat="42.7954790" lon="-5.8156450">
        <ele>976.0</ele>
        <time>2019-07-21T09:29:04Z</time>
      </trkpt>
      <trkpt lat="42.7955380" lon="-5.8158170">
        <ele>976.2</ele>
        <time>2019-07-21T09:29:06Z</time>
      </trkpt>
      <trkpt lat="42.7957240" lon="-5.8163380">
        <ele>976.2</ele>
        <time>2019-07-21T09:29:12Z</time>
      </trkpt>
      <trkpt lat="42.7959030" lon="-5.8168270">
        <ele>976.2</ele>
        <time>2019-07-21T09:29:18Z</time>
      </trkpt>
      <trkpt lat="42.7960790" lon="-5.8173020">
        <ele>976.6</ele>
        <time>2019-07-21T09:29:24Z</time>
      </trkpt>
      <trkpt lat="42.7963000" lon="-5.8177720">
        <ele>976.8</ele>
        <time>2019-07-21T09:29:30Z</time>
      </trkpt>
      <trkpt lat="42.7965560" lon="-5.8181960">
        <ele>977.0</ele>
        <time>2019-07-21T09:29:36Z</time>
      </trkpt>
      <trkpt lat="42.7968550" lon="-5.8185790">
        <ele>977.2</ele>
        <time>2019-07-21T09:29:42Z</time>
      </trkpt>
      <trkpt lat="42.7969640" lon="-5.8186900">
        <ele>977.2</ele>
        <time>2019-07-21T09:29:44Z</time>
      </trkpt>
      <trkpt lat="42.7972600" lon="-5.8189080">
        <ele>977.4</ele>
        <time>2019-07-21T09:29:49Z</time>
      </trkpt>
      <trkpt lat="42.7975580" lon="-5.8190760">
        <ele>977.6</ele>
        <time>2019-07-21T09:29:54Z</time>
      </trkpt>
      <trkpt lat="42.7979600" lon="-5.8191410">
        <ele>978.0</ele>
        <time>2019-07-21T09:30:00Z</time>
      </trkpt>
      <trkpt lat="42.7981500" lon="-5.8192050">
        <ele>978.4</ele>
        <time>2019-07-21T09:30:03Z</time>
      </trkpt>
      <trkpt lat="42.7982090" lon="-5.8192390">
        <ele>978.4</ele>
        <time>2019-07-21T09:30:04Z</time>
      </trkpt>
      <trkpt lat="42.7983840" lon="-5.8193640">
        <ele>978.6</ele>
        <time>2019-07-21T09:30:07Z</time>
      </trkpt>
      <trkpt lat="42.7987280" lon="-5.8196530">
        <ele>978.8</ele>
        <time>2019-07-21T09:30:13Z</time>
      </trkpt>
      <trkpt lat="42.7990160" lon="-5.8200130">
        <ele>979.2</ele>
        <time>2019-07-21T09:30:19Z</time>
      </trkpt>
      <trkpt lat="42.7991900" lon="-5.8202780">
        <ele>979.4</ele>
        <time>2019-07-21T09:30:23Z</time>
      </trkpt>
      <trkpt lat="42.7993390" lon="-5.8205690">
        <ele>979.8</ele>
        <time>2019-07-21T09:30:27Z</time>
      </trkpt>
      <trkpt lat="42.7995320" lon="-5.8210300">
        <ele>980.2</ele>
        <time>2019-07-21T09:30:33Z</time>
      </trkpt>
      <trkpt lat="42.7997100" lon="-5.8215030">
        <ele>980.4</ele>
        <time>2019-07-21T09:30:39Z</time>
      </trkpt>
      <trkpt lat="42.7998240" lon="-5.8218260">
        <ele>980.4</ele>
        <time>2019-07-21T09:30:43Z</time>
      </trkpt>
      <trkpt lat="42.8000030" lon="-5.8223140">
        <ele>980.6</ele>
        <time>2019-07-21T09:30:49Z</time>
      </trkpt>
      <trkpt lat="42.8002040" lon="-5.8227470">
        <ele>981.6</ele>
        <time>2019-07-21T09:30:55Z</time>
      </trkpt>
      <trkpt lat="42.8004190" lon="-5.8231100">
        <ele>982.6</ele>
        <time>2019-07-21T09:31:01Z</time>
      </trkpt>
      <trkpt lat="42.8005300" lon="-5.8232720">
        <ele>983.2</ele>
        <time>2019-07-21T09:31:04Z</time>
      </trkpt>
      <trkpt lat="42.8006130" lon="-5.8233580">
        <ele>984.0</ele>
        <time>2019-07-21T09:31:06Z</time>
      </trkpt>
      <trkpt lat="42.8007340" lon="-5.8234910">
        <ele>984.6</ele>
        <time>2019-07-21T09:31:09Z</time>
      </trkpt>
      <trkpt lat="42.8008140" lon="-5.8235760">
        <ele>985.0</ele>
        <time>2019-07-21T09:31:11Z</time>
      </trkpt>
      <trkpt lat="42.8009900" lon="-5.8237290">
        <ele>986.2</ele>
        <time>2019-07-21T09:31:15Z</time>
      </trkpt>
      <trkpt lat="42.8010820" lon="-5.8237920">
        <ele>986.8</ele>
        <time>2019-07-21T09:31:17Z</time>
      </trkpt>
      <trkpt lat="42.8012070" lon="-5.8238910">
        <ele>987.2</ele>
        <time>2019-07-21T09:31:20Z</time>
      </trkpt>
      <trkpt lat="42.8013750" lon="-5.8240170">
        <ele>988.6</ele>
        <time>2019-07-21T09:31:24Z</time>
      </trkpt>
      <trkpt lat="42.8015590" lon="-5.8241220">
        <ele>989.6</ele>
        <time>2019-07-21T09:31:28Z</time>
      </trkpt>
      <trkpt lat="42.8017880" lon="-5.8242430">
        <ele>990.8</ele>
        <time>2019-07-21T09:31:33Z</time>
      </trkpt>
      <trkpt lat="42.8019690" lon="-5.8243430">
        <ele>992.0</ele>
        <time>2019-07-21T09:31:37Z</time>
      </trkpt>
      <trkpt lat="42.8021850" lon="-5.8244850">
        <ele>993.4</ele>
        <time>2019-07-21T09:31:42Z</time>
      </trkpt>
      <trkpt lat="42.8023360" lon="-5.8246350">
        <ele>994.6</ele>
        <time>2019-07-21T09:31:46Z</time>
      </trkpt>
      <trkpt lat="42.8025270" lon="-5.8248330">
        <ele>995.6</ele>
        <time>2019-07-21T09:31:51Z</time>
      </trkpt>
      <trkpt lat="42.8025680" lon="-5.8248670">
        <ele>996.0</ele>
        <time>2019-07-21T09:31:52Z</time>
      </trkpt>
      <trkpt lat="42.8026980" lon="-5.8249310">
        <ele>996.6</ele>
        <time>2019-07-21T09:31:55Z</time>
      </trkpt>
      <trkpt lat="42.8027420" lon="-5.8249390">
        <ele>997.0</ele>
        <time>2019-07-21T09:31:56Z</time>
      </trkpt>
      <trkpt lat="42.8027860" lon="-5.8249410">
        <ele>997.2</ele>
        <time>2019-07-21T09:31:57Z</time>
      </trkpt>
      <trkpt lat="42.8029170" lon="-5.8249250">
        <ele>998.0</ele>
        <time>2019-07-21T09:32:00Z</time>
      </trkpt>
      <trkpt lat="42.8030070" lon="-5.8249010">
        <ele>998.8</ele>
        <time>2019-07-21T09:32:02Z</time>
      </trkpt>
      <trkpt lat="42.8030990" lon="-5.8248660">
        <ele>999.2</ele>
        <time>2019-07-21T09:32:04Z</time>
      </trkpt>
      <trkpt lat="42.8032810" lon="-5.8248100">
        <ele>1000.2</ele>
        <time>2019-07-21T09:32:08Z</time>
      </trkpt>
      <trkpt lat="42.8033260" lon="-5.8247940">
        <ele>1000.4</ele>
        <time>2019-07-21T09:32:09Z</time>
      </trkpt>
      <trkpt lat="42.8035120" lon="-5.8247000">
        <ele>1001.6</ele>
        <time>2019-07-21T09:32:13Z</time>
      </trkpt>
      <trkpt lat="42.8035540" lon="-5.8246650">
        <ele>1001.8</ele>
        <time>2019-07-21T09:32:14Z</time>
      </trkpt>
      <trkpt lat="42.8037090" lon="-5.8244980">
        <ele>1002.6</ele>
        <time>2019-07-21T09:32:18Z</time>
      </trkpt>
      <trkpt lat="42.8038860" lon="-5.8242620">
        <ele>1003.8</ele>
        <time>2019-07-21T09:32:23Z</time>
      </trkpt>
      <trkpt lat="42.8041130" lon="-5.8239910">
        <ele>1004.8</ele>
        <time>2019-07-21T09:32:29Z</time>
      </trkpt>
      <trkpt lat="42.8043440" lon="-5.8237190">
        <ele>1006.0</ele>
        <time>2019-07-21T09:32:35Z</time>
      </trkpt>
      <trkpt lat="42.8045470" lon="-5.8234960">
        <ele>1006.8</ele>
        <time>2019-07-21T09:32:40Z</time>
      </trkpt>
      <trkpt lat="42.8045890" lon="-5.8234650">
        <ele>1007.0</ele>
        <time>2019-07-21T09:32:41Z</time>
      </trkpt>
      <trkpt lat="42.8046860" lon="-5.8234170">
        <ele>1007.4</ele>
        <time>2019-07-21T09:32:43Z</time>
      </trkpt>
      <trkpt lat="42.8048340" lon="-5.8233590">
        <ele>1007.8</ele>
        <time>2019-07-21T09:32:46Z</time>
      </trkpt>
      <trkpt lat="42.8049850" lon="-5.8232680">
        <ele>1008.2</ele>
        <time>2019-07-21T09:32:49Z</time>
      </trkpt>
      <trkpt lat="42.8050810" lon="-5.8231720">
        <ele>1008.4</ele>
        <time>2019-07-21T09:32:51Z</time>
      </trkpt>
      <trkpt lat="42.8053200" lon="-5.8228140">
        <ele>1008.6</ele>
        <time>2019-07-21T09:32:57Z</time>
      </trkpt>
      <trkpt lat="42.8054070" lon="-5.8227080">
        <ele>1008.8</ele>
        <time>2019-07-21T09:32:59Z</time>
      </trkpt>
      <trkpt lat="42.8055140" lon="-5.8226440">
        <ele>1009.0</ele>
        <time>2019-07-21T09:33:01Z</time>
      </trkpt>
      <trkpt lat="42.8056370" lon="-5.8226530">
        <ele>1009.2</ele>
        <time>2019-07-21T09:33:03Z</time>
      </trkpt>
      <trkpt lat="42.8057560" lon="-5.8227330">
        <ele>1009.2</ele>
        <time>2019-07-21T09:33:05Z</time>
      </trkpt>
      <trkpt lat="42.8059410" lon="-5.8230050">
        <ele>1009.2</ele>
        <time>2019-07-21T09:33:09Z</time>
      </trkpt>
      <trkpt lat="42.8060360" lon="-5.8231530">
        <ele>1008.8</ele>
        <time>2019-07-21T09:33:11Z</time>
      </trkpt>
      <trkpt lat="42.8063410" lon="-5.8235220">
        <ele>1008.0</ele>
        <time>2019-07-21T09:33:16Z</time>
      </trkpt>
      <trkpt lat="42.8064740" lon="-5.8236560">
        <ele>1007.2</ele>
        <time>2019-07-21T09:33:18Z</time>
      </trkpt>
      <trkpt lat="42.8065420" lon="-5.8237140">
        <ele>1006.8</ele>
        <time>2019-07-21T09:33:19Z</time>
      </trkpt>
      <trkpt lat="42.8066130" lon="-5.8237610">
        <ele>1006.4</ele>
        <time>2019-07-21T09:33:20Z</time>
      </trkpt>
      <trkpt lat="42.8067650" lon="-5.8238140">
        <ele>1005.4</ele>
        <time>2019-07-21T09:33:22Z</time>
      </trkpt>
      <trkpt lat="42.8069160" lon="-5.8238180">
        <ele>1004.8</ele>
        <time>2019-07-21T09:33:24Z</time>
      </trkpt>
      <trkpt lat="42.8070710" lon="-5.8238000">
        <ele>1004.4</ele>
        <time>2019-07-21T09:33:26Z</time>
      </trkpt>
      <trkpt lat="42.8074040" lon="-5.8237940">
        <ele>1003.2</ele>
        <time>2019-07-21T09:33:30Z</time>
      </trkpt>
      <trkpt lat="42.8076730" lon="-5.8238270">
        <ele>1002.2</ele>
        <time>2019-07-21T09:33:33Z</time>
      </trkpt>
      <trkpt lat="42.8077620" lon="-5.8238400">
        <ele>1001.8</ele>
        <time>2019-07-21T09:33:34Z</time>
      </trkpt>
      <trkpt lat="42.8079490" lon="-5.8238670">
        <ele>1000.8</ele>
        <time>2019-07-21T09:33:36Z</time>
      </trkpt>
      <trkpt lat="42.8080480" lon="-5.8238770">
        <ele>1000.4</ele>
        <time>2019-07-21T09:33:37Z</time>
      </trkpt>
      <trkpt lat="42.8083330" lon="-5.8239280">
        <ele>999.4</ele>
        <time>2019-07-21T09:33:40Z</time>
      </trkpt>
      <trkpt lat="42.8085150" lon="-5.8239610">
        <ele>998.2</ele>
        <time>2019-07-21T09:33:42Z</time>
      </trkpt>
      <trkpt lat="42.8087130" lon="-5.8239910">
        <ele>997.0</ele>
        <time>2019-07-21T09:33:44Z</time>
      </trkpt>
      <trkpt lat="42.8090140" lon="-5.8240420">
        <ele>995.4</ele>
        <time>2019-07-21T09:33:47Z</time>
      </trkpt>
      <trkpt lat="42.8092040" lon="-5.8240730">
        <ele>994.4</ele>
        <time>2019-07-21T09:33:49Z</time>
      </trkpt>
      <trkpt lat="42.8093890" lon="-5.8240600">
        <ele>993.6</ele>
        <time>2019-07-21T09:33:51Z</time>
      </trkpt>
      <trkpt lat="42.8094760" lon="-5.8240390">
        <ele>993.2</ele>
        <time>2019-07-21T09:33:52Z</time>
      </trkpt>
      <trkpt lat="42.8097370" lon="-5.8239720">
        <ele>991.8</ele>
        <time>2019-07-21T09:33:55Z</time>
      </trkpt>
      <trkpt lat="42.8099100" lon="-5.8240270">
        <ele>991.2</ele>
        <time>2019-07-21T09:33:57Z</time>
      </trkpt>
      <trkpt lat="42.8100650" lon="-5.8241670">
        <ele>990.6</ele>
        <time>2019-07-21T09:33:59Z</time>
      </trkpt>
      <trkpt lat="42.8103570" lon="-5.8244440">
        <ele>989.6</ele>
        <time>2019-07-21T09:34:03Z</time>
      </trkpt>
      <trkpt lat="42.8104290" lon="-5.8245140">
        <ele>989.4</ele>
        <time>2019-07-21T09:34:04Z</time>
      </trkpt>
      <trkpt lat="42.8108740" lon="-5.8249600">
        <ele>988.6</ele>
        <time>2019-07-21T09:34:10Z</time>
      </trkpt>
      <trkpt lat="42.8110330" lon="-5.8251260">
        <ele>988.4</ele>
        <time>2019-07-21T09:34:12Z</time>
      </trkpt>
      <trkpt lat="42.8113960" lon="-5.8255320">
        <ele>987.4</ele>
        <time>2019-07-21T09:34:17Z</time>
      </trkpt>
      <trkpt lat="42.8116920" lon="-5.8260490">
        <ele>986.8</ele>
        <time>2019-07-21T09:34:23Z</time>
      </trkpt>
      <trkpt lat="42.8117240" lon="-5.8261380">
        <ele>986.8</ele>
        <time>2019-07-21T09:34:24Z</time>
      </trkpt>
      <trkpt lat="42.8118140" lon="-5.8265140">
        <ele>986.8</ele>
        <time>2019-07-21T09:34:28Z</time>
      </trkpt>
      <trkpt lat="42.8118420" lon="-5.8268070">
        <ele>986.8</ele>
        <time>2019-07-21T09:34:31Z</time>
      </trkpt>
      <trkpt lat="42.8118490" lon="-5.8271010">
        <ele>986.8</ele>
        <time>2019-07-21T09:34:34Z</time>
      </trkpt>
      <trkpt lat="42.8118490" lon="-5.8277010">
        <ele>986.8</ele>
        <time>2019-07-21T09:34:40Z</time>
      </trkpt>
      <trkpt lat="42.8118440" lon="-5.8282990">
        <ele>986.8</ele>
        <time>2019-07-21T09:34:46Z</time>
      </trkpt>
      <trkpt lat="42.8118380" lon="-5.8285970">
        <ele>986.6</ele>
        <time>2019-07-21T09:34:49Z</time>
      </trkpt>
      <trkpt lat="42.8118320" lon="-5.8290090">
        <ele>987.0</ele>
        <time>2019-07-21T09:34:53Z</time>
      </trkpt>
      <trkpt lat="42.8118290" lon="-5.8295980">
        <ele>987.2</ele>
        <time>2019-07-21T09:34:59Z</time>
      </trkpt>
      <trkpt lat="42.8118520" lon="-5.8301770">
        <ele>987.0</ele>
        <time>2019-07-21T09:35:05Z</time>
      </trkpt>
      <trkpt lat="42.8119650" lon="-5.8307190">
        <ele>986.8</ele>
        <time>2019-07-21T09:35:11Z</time>
      </trkpt>
      <trkpt lat="42.8119950" lon="-5.8307980">
        <ele>987.0</ele>
        <time>2019-07-21T09:35:12Z</time>
      </trkpt>
      <trkpt lat="42.8121140" lon="-5.8310160">
        <ele>986.8</ele>
        <time>2019-07-21T09:35:15Z</time>
      </trkpt>
      <trkpt lat="42.8122140" lon="-5.8311430">
        <ele>986.8</ele>
        <time>2019-07-21T09:35:17Z</time>
      </trkpt>
      <trkpt lat="42.8123290" lon="-5.8312560">
        <ele>986.8</ele>
        <time>2019-07-21T09:35:19Z</time>
      </trkpt>
      <trkpt lat="42.8125270" lon="-5.8313880">
        <ele>986.8</ele>
        <time>2019-07-21T09:35:22Z</time>
      </trkpt>
      <trkpt lat="42.8127400" lon="-5.8314580">
        <ele>986.8</ele>
        <time>2019-07-21T09:35:25Z</time>
      </trkpt>
      <trkpt lat="42.8131300" lon="-5.8314860">
        <ele>987.4</ele>
        <time>2019-07-21T09:35:31Z</time>
      </trkpt>
      <trkpt lat="42.8133120" lon="-5.8314870">
        <ele>987.8</ele>
        <time>2019-07-21T09:35:34Z</time>
      </trkpt>
      <trkpt lat="42.8134280" lon="-5.8314850">
        <ele>988.4</ele>
        <time>2019-07-21T09:35:36Z</time>
      </trkpt>
      <trkpt lat="42.8134820" lon="-5.8314910">
        <ele>988.6</ele>
        <time>2019-07-21T09:35:37Z</time>
      </trkpt>
      <trkpt lat="42.8138250" lon="-5.8315150">
        <ele>989.2</ele>
        <time>2019-07-21T09:35:43Z</time>
      </trkpt>
      <trkpt lat="42.8138830" lon="-5.8315250">
        <ele>989.4</ele>
        <time>2019-07-21T09:35:44Z</time>
      </trkpt>
      <trkpt lat="42.8139380" lon="-5.8315400">
        <ele>989.6</ele>
        <time>2019-07-21T09:35:45Z</time>
      </trkpt>
      <trkpt lat="42.8140480" lon="-5.8315830">
        <ele>990.0</ele>
        <time>2019-07-21T09:35:47Z</time>
      </trkpt>
      <trkpt lat="42.8141620" lon="-5.8316430">
        <ele>990.2</ele>
        <time>2019-07-21T09:35:49Z</time>
      </trkpt>
      <trkpt lat="42.8142140" lon="-5.8316810">
        <ele>990.4</ele>
        <time>2019-07-21T09:35:50Z</time>
      </trkpt>
      <trkpt lat="42.8143640" lon="-5.8318280">
        <ele>991.0</ele>
        <time>2019-07-21T09:35:53Z</time>
      </trkpt>
      <trkpt lat="42.8145090" lon="-5.8320000">
        <ele>991.4</ele>
        <time>2019-07-21T09:35:56Z</time>
      </trkpt>
      <trkpt lat="42.8148400" lon="-5.8323580">
        <ele>991.4</ele>
        <time>2019-07-21T09:36:02Z</time>
      </trkpt>
      <trkpt lat="42.8151900" lon="-5.8327260">
        <ele>991.2</ele>
        <time>2019-07-21T09:36:08Z</time>
      </trkpt>
      <trkpt lat="42.8155850" lon="-5.8330320">
        <ele>990.8</ele>
        <time>2019-07-21T09:36:14Z</time>
      </trkpt>
      <trkpt lat="42.8160250" lon="-5.8332070">
        <ele>990.6</ele>
        <time>2019-07-21T09:36:20Z</time>
      </trkpt>
      <trkpt lat="42.8161030" lon="-5.8332260">
        <ele>990.4</ele>
        <time>2019-07-21T09:36:21Z</time>
      </trkpt>
      <trkpt lat="42.8164100" lon="-5.8332850">
        <ele>990.2</ele>
        <time>2019-07-21T09:36:25Z</time>
      </trkpt>
      <trkpt lat="42.8166340" lon="-5.8333120">
        <ele>990.0</ele>
        <time>2019-07-21T09:36:28Z</time>
      </trkpt>
      <trkpt lat="42.8167770" lon="-5.8333280">
        <ele>990.0</ele>
        <time>2019-07-21T09:36:30Z</time>
      </trkpt>
      <trkpt lat="42.8169130" lon="-5.8333460">
        <ele>990.0</ele>
        <time>2019-07-21T09:36:32Z</time>
      </trkpt>
      <trkpt lat="42.8172540" lon="-5.8333960">
        <ele>990.2</ele>
        <time>2019-07-21T09:36:37Z</time>
      </trkpt>
      <trkpt lat="42.8173900" lon="-5.8334150">
        <ele>990.6</ele>
        <time>2019-07-21T09:36:39Z</time>
      </trkpt>
      <trkpt lat="42.8175320" lon="-5.8334320">
        <ele>990.8</ele>
        <time>2019-07-21T09:36:41Z</time>
      </trkpt>
      <trkpt lat="42.8178060" lon="-5.8334740">
        <ele>991.4</ele>
        <time>2019-07-21T09:36:45Z</time>
      </trkpt>
      <trkpt lat="42.8181940" lon="-5.8335150">
        <ele>992.4</ele>
        <time>2019-07-21T09:36:51Z</time>
      </trkpt>
      <trkpt lat="42.8182610" lon="-5.8335210">
        <ele>992.6</ele>
        <time>2019-07-21T09:36:52Z</time>
      </trkpt>
      <trkpt lat="42.8186480" lon="-5.8336920">
        <ele>993.2</ele>
        <time>2019-07-21T09:36:58Z</time>
      </trkpt>
      <trkpt lat="42.8188960" lon="-5.8338690">
        <ele>993.6</ele>
        <time>2019-07-21T09:37:02Z</time>
      </trkpt>
      <trkpt lat="42.8192760" lon="-5.8341240">
        <ele>993.8</ele>
        <time>2019-07-21T09:37:08Z</time>
      </trkpt>
      <trkpt lat="42.8195950" lon="-5.8342690">
        <ele>994.4</ele>
        <time>2019-07-21T09:37:13Z</time>
      </trkpt>
      <trkpt lat="42.8199990" lon="-5.8344450">
        <ele>994.6</ele>
        <time>2019-07-21T09:37:19Z</time>
      </trkpt>
      <trkpt lat="42.8200680" lon="-5.8344790">
        <ele>994.6</ele>
        <time>2019-07-21T09:37:20Z</time>
      </trkpt>
      <trkpt lat="42.8202040" lon="-5.8345520">
        <ele>994.6</ele>
        <time>2019-07-21T09:37:22Z</time>
      </trkpt>
      <trkpt lat="42.8203330" lon="-5.8346430">
        <ele>994.6</ele>
        <time>2019-07-21T09:37:24Z</time>
      </trkpt>
      <trkpt lat="42.8207090" lon="-5.8349310">
        <ele>994.8</ele>
        <time>2019-07-21T09:37:30Z</time>
      </trkpt>
      <trkpt lat="42.8210310" lon="-5.8351760">
        <ele>995.0</ele>
        <time>2019-07-21T09:37:35Z</time>
      </trkpt>
      <trkpt lat="42.8214110" lon="-5.8354770">
        <ele>995.2</ele>
        <time>2019-07-21T09:37:41Z</time>
      </trkpt>
      <trkpt lat="42.8217760" lon="-5.8357640">
        <ele>995.6</ele>
        <time>2019-07-21T09:37:47Z</time>
      </trkpt>
      <trkpt lat="42.8220520" lon="-5.8359980">
        <ele>996.8</ele>
        <time>2019-07-21T09:37:52Z</time>
      </trkpt>
      <trkpt lat="42.8222520" lon="-5.8362180">
        <ele>997.2</ele>
        <time>2019-07-21T09:37:56Z</time>
      </trkpt>
      <trkpt lat="42.8223840" lon="-5.8364170">
        <ele>997.8</ele>
        <time>2019-07-21T09:37:59Z</time>
      </trkpt>
      <trkpt lat="42.8226090" lon="-5.8367530">
        <ele>998.8</ele>
        <time>2019-07-21T09:38:04Z</time>
      </trkpt>
      <trkpt lat="42.8228800" lon="-5.8371550">
        <ele>1000.0</ele>
        <time>2019-07-21T09:38:10Z</time>
      </trkpt>
      <trkpt lat="42.8229480" lon="-5.8373170">
        <ele>1000.0</ele>
        <time>2019-07-21T09:38:12Z</time>
      </trkpt>
      <trkpt lat="42.8229910" lon="-5.8375160">
        <ele>1000.2</ele>
        <time>2019-07-21T09:38:14Z</time>
      </trkpt>
      <trkpt lat="42.8230290" lon="-5.8381300">
        <ele>999.2</ele>
        <time>2019-07-21T09:38:19Z</time>
      </trkpt>
      <trkpt lat="42.8230350" lon="-5.8382610">
        <ele>998.8</ele>
        <time>2019-07-21T09:38:20Z</time>
      </trkpt>
      <trkpt lat="42.8230480" lon="-5.8385300">
        <ele>997.6</ele>
        <time>2019-07-21T09:38:22Z</time>
      </trkpt>
      <trkpt lat="42.8230580" lon="-5.8388160">
        <ele>996.8</ele>
        <time>2019-07-21T09:38:24Z</time>
      </trkpt>
      <trkpt lat="42.8230460" lon="-5.8390910">
        <ele>996.4</ele>
        <time>2019-07-21T09:38:26Z</time>
      </trkpt>
      <trkpt lat="42.8229740" lon="-5.8398920">
        <ele>995.2</ele>
        <time>2019-07-21T09:38:32Z</time>
      </trkpt>
      <trkpt lat="42.8229210" lon="-5.8401340">
        <ele>995.0</ele>
        <time>2019-07-21T09:38:34Z</time>
      </trkpt>
      <trkpt lat="42.8228040" lon="-5.8404710">
        <ele>995.0</ele>
        <time>2019-07-21T09:38:37Z</time>
      </trkpt>
      <trkpt lat="42.8227100" lon="-5.8406660">
        <ele>995.0</ele>
        <time>2019-07-21T09:38:39Z</time>
      </trkpt>
      <trkpt lat="42.8224090" lon="-5.8411050">
        <ele>996.0</ele>
        <time>2019-07-21T09:38:45Z</time>
      </trkpt>
      <trkpt lat="42.8223550" lon="-5.8411660">
        <ele>996.2</ele>
        <time>2019-07-21T09:38:46Z</time>
      </trkpt>
      <trkpt lat="42.8223030" lon="-5.8412340">
        <ele>996.4</ele>
        <time>2019-07-21T09:38:47Z</time>
      </trkpt>
      <trkpt lat="42.8221920" lon="-5.8413530">
        <ele>997.2</ele>
        <time>2019-07-21T09:38:49Z</time>
      </trkpt>
      <trkpt lat="42.8221360" lon="-5.8414190">
        <ele>997.8</ele>
        <time>2019-07-21T09:38:50Z</time>
      </trkpt>
      <trkpt lat="42.8219870" lon="-5.8416060">
        <ele>998.8</ele>
        <time>2019-07-21T09:38:53Z</time>
      </trkpt>
      <trkpt lat="42.8219380" lon="-5.8416670">
        <ele>999.2</ele>
        <time>2019-07-21T09:38:54Z</time>
      </trkpt>
      <trkpt lat="42.8218300" lon="-5.8417920">
        <ele>999.6</ele>
        <time>2019-07-21T09:38:56Z</time>
      </trkpt>
      <trkpt lat="42.8216670" lon="-5.8419990">
        <ele>1000.0</ele>
        <time>2019-07-21T09:38:59Z</time>
      </trkpt>
      <trkpt lat="42.8213700" lon="-5.8424700">
        <ele>1000.8</ele>
        <time>2019-07-21T09:39:05Z</time>
      </trkpt>
      <trkpt lat="42.8212930" lon="-5.8426420">
        <ele>1001.0</ele>
        <time>2019-07-21T09:39:07Z</time>
      </trkpt>
      <trkpt lat="42.8211090" lon="-5.8431750">
        <ele>1001.6</ele>
        <time>2019-07-21T09:39:13Z</time>
      </trkpt>
      <trkpt lat="42.8209930" lon="-5.8435300">
        <ele>1002.0</ele>
        <time>2019-07-21T09:39:17Z</time>
      </trkpt>
      <trkpt lat="42.8207980" lon="-5.8441000">
        <ele>1002.6</ele>
        <time>2019-07-21T09:39:23Z</time>
      </trkpt>
      <trkpt lat="42.8205880" lon="-5.8447210">
        <ele>1002.2</ele>
        <time>2019-07-21T09:39:29Z</time>
      </trkpt>
      <trkpt lat="42.8204460" lon="-5.8451350">
        <ele>1001.6</ele>
        <time>2019-07-21T09:39:33Z</time>
      </trkpt>
      <trkpt lat="42.8203390" lon="-5.8454470">
        <ele>1001.4</ele>
        <time>2019-07-21T09:39:36Z</time>
      </trkpt>
      <trkpt lat="42.8202710" lon="-5.8456490">
        <ele>1001.2</ele>
        <time>2019-07-21T09:39:38Z</time>
      </trkpt>
      <trkpt lat="42.8202470" lon="-5.8457530">
        <ele>1001.0</ele>
        <time>2019-07-21T09:39:39Z</time>
      </trkpt>
      <trkpt lat="42.8202410" lon="-5.8458650">
        <ele>1000.8</ele>
        <time>2019-07-21T09:39:40Z</time>
      </trkpt>
      <trkpt lat="42.8202580" lon="-5.8459750">
        <ele>1000.8</ele>
        <time>2019-07-21T09:39:41Z</time>
      </trkpt>
      <trkpt lat="42.8203540" lon="-5.8461650">
        <ele>1000.6</ele>
        <time>2019-07-21T09:39:43Z</time>
      </trkpt>
      <trkpt lat="42.8208060" lon="-5.8465720">
        <ele>1000.6</ele>
        <time>2019-07-21T09:39:49Z</time>
      </trkpt>
      <trkpt lat="42.8210540" lon="-5.8466860">
        <ele>1000.4</ele>
        <time>2019-07-21T09:39:52Z</time>
      </trkpt>
      <trkpt lat="42.8212140" lon="-5.8467480">
        <ele>1000.2</ele>
        <time>2019-07-21T09:39:54Z</time>
      </trkpt>
      <trkpt lat="42.8215260" lon="-5.8469510">
        <ele>1000.2</ele>
        <time>2019-07-21T09:39:58Z</time>
      </trkpt>
      <trkpt lat="42.8216620" lon="-5.8471120">
        <ele>1000.4</ele>
        <time>2019-07-21T09:40:00Z</time>
      </trkpt>
      <trkpt lat="42.8217720" lon="-5.8473040">
        <ele>1000.6</ele>
        <time>2019-07-21T09:40:02Z</time>
      </trkpt>
      <trkpt lat="42.8219790" lon="-5.8479740">
        <ele>1000.4</ele>
        <time>2019-07-21T09:40:08Z</time>
      </trkpt>
      <trkpt lat="42.8221780" lon="-5.8486250">
        <ele>1000.0</ele>
        <time>2019-07-21T09:40:14Z</time>
      </trkpt>
      <trkpt lat="42.8222080" lon="-5.8487350">
        <ele>999.8</ele>
        <time>2019-07-21T09:40:15Z</time>
      </trkpt>
      <trkpt lat="42.8223340" lon="-5.8491610">
        <ele>999.6</ele>
        <time>2019-07-21T09:40:19Z</time>
      </trkpt>
      <trkpt lat="42.8225310" lon="-5.8498090">
        <ele>999.6</ele>
        <time>2019-07-21T09:40:25Z</time>
      </trkpt>
      <trkpt lat="42.8226840" lon="-5.8503280">
        <ele>999.8</ele>
        <time>2019-07-21T09:40:30Z</time>
      </trkpt>
      <trkpt lat="42.8227120" lon="-5.8504240">
        <ele>999.8</ele>
        <time>2019-07-21T09:40:31Z</time>
      </trkpt>
      <trkpt lat="42.8228810" lon="-5.8510000">
        <ele>1000.0</ele>
        <time>2019-07-21T09:40:37Z</time>
      </trkpt>
      <trkpt lat="42.8229420" lon="-5.8511950">
        <ele>1000.2</ele>
        <time>2019-07-21T09:40:39Z</time>
      </trkpt>
      <trkpt lat="42.8230840" lon="-5.8516810">
        <ele>1000.4</ele>
        <time>2019-07-21T09:40:44Z</time>
      </trkpt>
      <trkpt lat="42.8232620" lon="-5.8522700">
        <ele>1000.4</ele>
        <time>2019-07-21T09:40:50Z</time>
      </trkpt>
      <trkpt lat="42.8233280" lon="-5.8524620">
        <ele>1000.6</ele>
        <time>2019-07-21T09:40:52Z</time>
      </trkpt>
      <trkpt lat="42.8235550" lon="-5.8530600">
        <ele>1000.8</ele>
        <time>2019-07-21T09:40:58Z</time>
      </trkpt>
      <trkpt lat="42.8236360" lon="-5.8532490">
        <ele>1000.8</ele>
        <time>2019-07-21T09:41:00Z</time>
      </trkpt>
      <trkpt lat="42.8238720" lon="-5.8537950">
        <ele>1001.0</ele>
        <time>2019-07-21T09:41:06Z</time>
      </trkpt>
      <trkpt lat="42.8240200" lon="-5.8541750">
        <ele>1001.0</ele>
        <time>2019-07-21T09:41:10Z</time>
      </trkpt>
      <trkpt lat="42.8242020" lon="-5.8546480">
        <ele>1001.6</ele>
        <time>2019-07-21T09:41:15Z</time>
      </trkpt>
      <trkpt lat="42.8244220" lon="-5.8552420">
        <ele>1001.8</ele>
        <time>2019-07-21T09:41:21Z</time>
      </trkpt>
      <trkpt lat="42.8245610" lon="-5.8556490">
        <ele>1002.0</ele>
        <time>2019-07-21T09:41:25Z</time>
      </trkpt>
      <trkpt lat="42.8247830" lon="-5.8562110">
        <ele>1002.2</ele>
        <time>2019-07-21T09:41:31Z</time>
      </trkpt>
      <trkpt lat="42.8250320" lon="-5.8566370">
        <ele>1002.6</ele>
        <time>2019-07-21T09:41:36Z</time>
      </trkpt>
      <trkpt lat="42.8252820" lon="-5.8569070">
        <ele>1003.0</ele>
        <time>2019-07-21T09:41:40Z</time>
      </trkpt>
      <trkpt lat="42.8256880" lon="-5.8572760">
        <ele>1003.2</ele>
        <time>2019-07-21T09:41:46Z</time>
      </trkpt>
      <trkpt lat="42.8259690" lon="-5.8576810">
        <ele>1004.0</ele>
        <time>2019-07-21T09:41:51Z</time>
      </trkpt>
      <trkpt lat="42.8260140" lon="-5.8577690">
        <ele>1004.2</ele>
        <time>2019-07-21T09:41:52Z</time>
      </trkpt>
      <trkpt lat="42.8262590" lon="-5.8583330">
        <ele>1005.0</ele>
        <time>2019-07-21T09:41:58Z</time>
      </trkpt>
      <trkpt lat="42.8263030" lon="-5.8584310">
        <ele>1005.0</ele>
        <time>2019-07-21T09:41:59Z</time>
      </trkpt>
      <trkpt lat="42.8263520" lon="-5.8585260">
        <ele>1005.2</ele>
        <time>2019-07-21T09:42:00Z</time>
      </trkpt>
      <trkpt lat="42.8266080" lon="-5.8589810">
        <ele>1005.0</ele>
        <time>2019-07-21T09:42:05Z</time>
      </trkpt>
      <trkpt lat="42.8269300" lon="-5.8595010">
        <ele>1005.2</ele>
        <time>2019-07-21T09:42:11Z</time>
      </trkpt>
      <trkpt lat="42.8272360" lon="-5.8600450">
        <ele>1005.2</ele>
        <time>2019-07-21T09:42:17Z</time>
      </trkpt>
      <trkpt lat="42.8275020" lon="-5.8606140">
        <ele>1006.0</ele>
        <time>2019-07-21T09:42:23Z</time>
      </trkpt>
      <trkpt lat="42.8275430" lon="-5.8607080">
        <ele>1006.2</ele>
        <time>2019-07-21T09:42:24Z</time>
      </trkpt>
      <trkpt lat="42.8277720" lon="-5.8612620">
        <ele>1007.0</ele>
        <time>2019-07-21T09:42:30Z</time>
      </trkpt>
      <trkpt lat="42.8278060" lon="-5.8613530">
        <ele>1007.2</ele>
        <time>2019-07-21T09:42:31Z</time>
      </trkpt>
      <trkpt lat="42.8279610" lon="-5.8619190">
        <ele>1007.6</ele>
        <time>2019-07-21T09:42:37Z</time>
      </trkpt>
      <trkpt lat="42.8280540" lon="-5.8624200">
        <ele>1008.2</ele>
        <time>2019-07-21T09:42:42Z</time>
      </trkpt>
      <trkpt lat="42.8281560" lon="-5.8630360">
        <ele>1009.2</ele>
        <time>2019-07-21T09:42:48Z</time>
      </trkpt>
      <trkpt lat="42.8281730" lon="-5.8631410">
        <ele>1009.2</ele>
        <time>2019-07-21T09:42:49Z</time>
      </trkpt>
      <trkpt lat="42.8282890" lon="-5.8637570">
        <ele>1010.2</ele>
        <time>2019-07-21T09:42:55Z</time>
      </trkpt>
      <trkpt lat="42.8283230" lon="-5.8639360">
        <ele>1010.4</ele>
        <time>2019-07-21T09:42:57Z</time>
      </trkpt>
      <trkpt lat="42.8283390" lon="-5.8640220">
        <ele>1010.6</ele>
        <time>2019-07-21T09:42:58Z</time>
      </trkpt>
      <trkpt lat="42.8283800" lon="-5.8642600">
        <ele>1011.6</ele>
        <time>2019-07-21T09:43:01Z</time>
      </trkpt>
      <trkpt lat="42.8284120" lon="-5.8644820">
        <ele>1012.8</ele>
        <time>2019-07-21T09:43:04Z</time>
      </trkpt>
      <trkpt lat="42.8284400" lon="-5.8646230">
        <ele>1014.0</ele>
        <time>2019-07-21T09:43:06Z</time>
      </trkpt>
      <trkpt lat="42.8284680" lon="-5.8648430">
        <ele>1014.8</ele>
        <time>2019-07-21T09:43:09Z</time>
      </trkpt>
      <trkpt lat="42.8284690" lon="-5.8649200">
        <ele>1015.0</ele>
        <time>2019-07-21T09:43:10Z</time>
      </trkpt>
      <trkpt lat="42.8284510" lon="-5.8651610">
        <ele>1015.8</ele>
        <time>2019-07-21T09:43:13Z</time>
      </trkpt>
      <trkpt lat="42.8284390" lon="-5.8652520">
        <ele>1016.0</ele>
        <time>2019-07-21T09:43:14Z</time>
      </trkpt>
      <trkpt lat="42.8283620" lon="-5.8658010">
        <ele>1017.2</ele>
        <time>2019-07-21T09:43:20Z</time>
      </trkpt>
      <trkpt lat="42.8282690" lon="-5.8663800">
        <ele>1017.2</ele>
        <time>2019-07-21T09:43:26Z</time>
      </trkpt>
      <trkpt lat="42.8281170" lon="-5.8669660">
        <ele>1016.8</ele>
        <time>2019-07-21T09:43:32Z</time>
      </trkpt>
      <trkpt lat="42.8279510" lon="-5.8675150">
        <ele>1016.8</ele>
        <time>2019-07-21T09:43:38Z</time>
      </trkpt>
      <trkpt lat="42.8277500" lon="-5.8680560">
        <ele>1017.0</ele>
        <time>2019-07-21T09:43:44Z</time>
      </trkpt>
      <trkpt lat="42.8275960" lon="-5.8684060">
        <ele>1016.8</ele>
        <time>2019-07-21T09:43:48Z</time>
      </trkpt>
      <trkpt lat="42.8274850" lon="-5.8686740">
        <ele>1016.8</ele>
        <time>2019-07-21T09:43:51Z</time>
      </trkpt>
      <trkpt lat="42.8273140" lon="-5.8692040">
        <ele>1017.6</ele>
        <time>2019-07-21T09:43:57Z</time>
      </trkpt>
      <trkpt lat="42.8272510" lon="-5.8694480">
        <ele>1018.4</ele>
        <time>2019-07-21T09:44:00Z</time>
      </trkpt>
      <trkpt lat="42.8271810" lon="-5.8697670">
        <ele>1019.4</ele>
        <time>2019-07-21T09:44:04Z</time>
      </trkpt>
      <trkpt lat="42.8271180" lon="-5.8701040">
        <ele>1020.6</ele>
        <time>2019-07-21T09:44:08Z</time>
      </trkpt>
      <trkpt lat="42.8270960" lon="-5.8703660">
        <ele>1021.2</ele>
        <time>2019-07-21T09:44:11Z</time>
      </trkpt>
      <trkpt lat="42.8271010" lon="-5.8705450">
        <ele>1021.8</ele>
        <time>2019-07-21T09:44:13Z</time>
      </trkpt>
      <trkpt lat="42.8271310" lon="-5.8709030">
        <ele>1022.8</ele>
        <time>2019-07-21T09:44:17Z</time>
      </trkpt>
      <trkpt lat="42.8271980" lon="-5.8712470">
        <ele>1023.8</ele>
        <time>2019-07-21T09:44:21Z</time>
      </trkpt>
      <trkpt lat="42.8274170" lon="-5.8717320">
        <ele>1024.8</ele>
        <time>2019-07-21T09:44:27Z</time>
      </trkpt>
      <trkpt lat="42.8275310" lon="-5.8718620">
        <ele>1025.0</ele>
        <time>2019-07-21T09:44:29Z</time>
      </trkpt>
      <trkpt lat="42.8276830" lon="-5.8719150">
        <ele>1025.0</ele>
        <time>2019-07-21T09:44:31Z</time>
      </trkpt>
      <trkpt lat="42.8278520" lon="-5.8718090">
        <ele>1025.6</ele>
        <time>2019-07-21T09:44:33Z</time>
      </trkpt>
      <trkpt lat="42.8282190" lon="-5.8712230">
        <ele>1025.6</ele>
        <time>2019-07-21T09:44:39Z</time>
      </trkpt>
      <trkpt lat="42.8285690" lon="-5.8707060">
        <ele>1023.6</ele>
        <time>2019-07-21T09:44:44Z</time>
      </trkpt>
      <trkpt lat="42.8287800" lon="-5.8703660">
        <ele>1022.6</ele>
        <time>2019-07-21T09:44:47Z</time>
      </trkpt>
      <trkpt lat="42.8290110" lon="-5.8700520">
        <ele>1021.8</ele>
        <time>2019-07-21T09:44:50Z</time>
      </trkpt>
      <trkpt lat="42.8291040" lon="-5.8699710">
        <ele>1021.6</ele>
        <time>2019-07-21T09:44:51Z</time>
      </trkpt>
      <trkpt lat="42.8292040" lon="-5.8699050">
        <ele>1021.4</ele>
        <time>2019-07-21T09:44:52Z</time>
      </trkpt>
      <trkpt lat="42.8294220" lon="-5.8698270">
        <ele>1020.8</ele>
        <time>2019-07-21T09:44:54Z</time>
      </trkpt>
      <trkpt lat="42.8295280" lon="-5.8697920">
        <ele>1020.4</ele>
        <time>2019-07-21T09:44:55Z</time>
      </trkpt>
      <trkpt lat="42.8297330" lon="-5.8697290">
        <ele>1020.0</ele>
        <time>2019-07-21T09:44:57Z</time>
      </trkpt>
      <trkpt lat="42.8298340" lon="-5.8696970">
        <ele>1019.8</ele>
        <time>2019-07-21T09:44:58Z</time>
      </trkpt>
      <trkpt lat="42.8299330" lon="-5.8696680">
        <ele>1019.4</ele>
        <time>2019-07-21T09:44:59Z</time>
      </trkpt>
      <trkpt lat="42.8302210" lon="-5.8695890">
        <ele>1018.6</ele>
        <time>2019-07-21T09:45:02Z</time>
      </trkpt>
      <trkpt lat="42.8303160" lon="-5.8695650">
        <ele>1018.4</ele>
        <time>2019-07-21T09:45:03Z</time>
      </trkpt>
      <trkpt lat="42.8304060" lon="-5.8695470">
        <ele>1018.4</ele>
        <time>2019-07-21T09:45:04Z</time>
      </trkpt>
      <trkpt lat="42.8306720" lon="-5.8695200">
        <ele>1018.0</ele>
        <time>2019-07-21T09:45:07Z</time>
      </trkpt>
      <trkpt lat="42.8308510" lon="-5.8695240">
        <ele>1018.0</ele>
        <time>2019-07-21T09:45:09Z</time>
      </trkpt>
      <trkpt lat="42.8312970" lon="-5.8695730">
        <ele>1017.2</ele>
        <time>2019-07-21T09:45:14Z</time>
      </trkpt>
      <trkpt lat="42.8318560" lon="-5.8696480">
        <ele>1016.4</ele>
        <time>2019-07-21T09:45:20Z</time>
      </trkpt>
      <trkpt lat="42.8322480" lon="-5.8697090">
        <ele>1016.0</ele>
        <time>2019-07-21T09:45:24Z</time>
      </trkpt>
      <trkpt lat="42.8325480" lon="-5.8697480">
        <ele>1015.8</ele>
        <time>2019-07-21T09:45:27Z</time>
      </trkpt>
      <trkpt lat="42.8330920" lon="-5.8698460">
        <ele>1015.2</ele>
        <time>2019-07-21T09:45:33Z</time>
      </trkpt>
      <trkpt lat="42.8332590" lon="-5.8698670">
        <ele>1015.0</ele>
        <time>2019-07-21T09:45:35Z</time>
      </trkpt>
      <trkpt lat="42.8336940" lon="-5.8699170">
        <ele>1014.6</ele>
        <time>2019-07-21T09:45:40Z</time>
      </trkpt>
      <trkpt lat="42.8338750" lon="-5.8699460">
        <ele>1014.6</ele>
        <time>2019-07-21T09:45:42Z</time>
      </trkpt>
      <trkpt lat="42.8340530" lon="-5.8699690">
        <ele>1014.6</ele>
        <time>2019-07-21T09:45:44Z</time>
      </trkpt>
      <trkpt lat="42.8345380" lon="-5.8700510">
        <ele>1015.2</ele>
        <time>2019-07-21T09:45:50Z</time>
      </trkpt>
      <trkpt lat="42.8349140" lon="-5.8701190">
        <ele>1016.0</ele>
        <time>2019-07-21T09:45:55Z</time>
      </trkpt>
      <trkpt lat="42.8352470" lon="-5.8701750">
        <ele>1017.2</ele>
        <time>2019-07-21T09:46:00Z</time>
      </trkpt>
      <trkpt lat="42.8355020" lon="-5.8702330">
        <ele>1017.8</ele>
        <time>2019-07-21T09:46:04Z</time>
      </trkpt>
      <trkpt lat="42.8357090" lon="-5.8702630">
        <ele>1018.4</ele>
        <time>2019-07-21T09:46:07Z</time>
      </trkpt>
      <trkpt lat="42.8358400" lon="-5.8702730">
        <ele>1018.8</ele>
        <time>2019-07-21T09:46:09Z</time>
      </trkpt>
      <trkpt lat="42.8362660" lon="-5.8702550">
        <ele>1018.8</ele>
        <time>2019-07-21T09:46:15Z</time>
      </trkpt>
      <trkpt lat="42.8365230" lon="-5.8702620">
        <ele>1019.0</ele>
        <time>2019-07-21T09:46:19Z</time>
      </trkpt>
      <trkpt lat="42.8366880" lon="-5.8702680">
        <ele>1019.4</ele>
        <time>2019-07-21T09:46:22Z</time>
      </trkpt>
      <trkpt lat="42.8369460" lon="-5.8702430">
        <ele>1020.6</ele>
        <time>2019-07-21T09:46:27Z</time>
      </trkpt>
      <trkpt lat="42.8369950" lon="-5.8702310">
        <ele>1021.2</ele>
        <time>2019-07-21T09:46:28Z</time>
      </trkpt>
      <trkpt lat="42.8370970" lon="-5.8701890">
        <ele>1021.8</ele>
        <time>2019-07-21T09:46:30Z</time>
      </trkpt>
      <trkpt lat="42.8371920" lon="-5.8701470">
        <ele>1022.0</ele>
        <time>2019-07-21T09:46:32Z</time>
      </trkpt>
      <trkpt lat="42.8373470" lon="-5.8700790">
        <ele>1022.8</ele>
        <time>2019-07-21T09:46:35Z</time>
      </trkpt>
      <trkpt lat="42.8375030" lon="-5.8699910">
        <ele>1024.0</ele>
        <time>2019-07-21T09:46:38Z</time>
      </trkpt>
      <trkpt lat="42.8377000" lon="-5.8698610">
        <ele>1025.2</ele>
        <time>2019-07-21T09:46:42Z</time>
      </trkpt>
      <trkpt lat="42.8378860" lon="-5.8697470">
        <ele>1026.2</ele>
        <time>2019-07-21T09:46:46Z</time>
      </trkpt>
      <trkpt lat="42.8379300" lon="-5.8697160">
        <ele>1026.4</ele>
        <time>2019-07-21T09:46:47Z</time>
      </trkpt>
      <trkpt lat="42.8381990" lon="-5.8695060">
        <ele>1027.6</ele>
        <time>2019-07-21T09:46:53Z</time>
      </trkpt>
      <trkpt lat="42.8384230" lon="-5.8693510">
        <ele>1028.8</ele>
        <time>2019-07-21T09:46:58Z</time>
      </trkpt>
      <trkpt lat="42.8386890" lon="-5.8691760">
        <ele>1029.8</ele>
        <time>2019-07-21T09:47:04Z</time>
      </trkpt>
      <trkpt lat="42.8389700" lon="-5.8689580">
        <ele>1031.0</ele>
        <time>2019-07-21T09:47:10Z</time>
      </trkpt>
      <trkpt lat="42.8392520" lon="-5.8687010">
        <ele>1032.0</ele>
        <time>2019-07-21T09:47:16Z</time>
      </trkpt>
      <trkpt lat="42.8394840" lon="-5.8683950">
        <ele>1032.8</ele>
        <time>2019-07-21T09:47:22Z</time>
      </trkpt>
      <trkpt lat="42.8395580" lon="-5.8682880">
        <ele>1033.2</ele>
        <time>2019-07-21T09:47:24Z</time>
      </trkpt>
      <trkpt lat="42.8397750" lon="-5.8679560">
        <ele>1034.2</ele>
        <time>2019-07-21T09:47:30Z</time>
      </trkpt>
      <trkpt lat="42.8399710" lon="-5.8676200">
        <ele>1035.4</ele>
        <time>2019-07-21T09:47:36Z</time>
      </trkpt>
      <trkpt lat="42.8401060" lon="-5.8673390">
        <ele>1036.6</ele>
        <time>2019-07-21T09:47:41Z</time>
      </trkpt>
      <trkpt lat="42.8401770" lon="-5.8670980">
        <ele>1037.4</ele>
        <time>2019-07-21T09:47:45Z</time>
      </trkpt>
      <trkpt lat="42.8401910" lon="-5.8670350">
        <ele>1037.8</ele>
        <time>2019-07-21T09:47:46Z</time>
      </trkpt>
      <trkpt lat="42.8402200" lon="-5.8669100">
        <ele>1038.4</ele>
        <time>2019-07-21T09:47:48Z</time>
      </trkpt>
      <trkpt lat="42.8402400" lon="-5.8667970">
        <ele>1038.8</ele>
        <time>2019-07-21T09:47:50Z</time>
      </trkpt>
      <trkpt lat="42.8402820" lon="-5.8665320">
        <ele>1040.0</ele>
        <time>2019-07-21T09:47:55Z</time>
      </trkpt>
      <trkpt lat="42.8403160" lon="-5.8663140">
        <ele>1041.0</ele>
        <time>2019-07-21T09:47:59Z</time>
      </trkpt>
      <trkpt lat="42.8403370" lon="-5.8661900">
        <ele>1041.8</ele>
        <time>2019-07-21T09:48:01Z</time>
      </trkpt>
      <trkpt lat="42.8403450" lon="-5.8661270">
        <ele>1042.2</ele>
        <time>2019-07-21T09:48:02Z</time>
      </trkpt>
      <trkpt lat="42.8403870" lon="-5.8658630">
        <ele>1043.0</ele>
        <time>2019-07-21T09:48:06Z</time>
      </trkpt>
      <trkpt lat="42.8404020" lon="-5.8657340">
        <ele>1043.6</ele>
        <time>2019-07-21T09:48:08Z</time>
      </trkpt>
      <trkpt lat="42.8404090" lon="-5.8656710">
        <ele>1044.0</ele>
        <time>2019-07-21T09:48:09Z</time>
      </trkpt>
      <trkpt lat="42.8404220" lon="-5.8655490">
        <ele>1044.6</ele>
        <time>2019-07-21T09:48:11Z</time>
      </trkpt>
      <trkpt lat="42.8404350" lon="-5.8654830">
        <ele>1044.8</ele>
        <time>2019-07-21T09:48:12Z</time>
      </trkpt>
      <trkpt lat="42.8404750" lon="-5.8652860">
        <ele>1045.2</ele>
        <time>2019-07-21T09:48:15Z</time>
      </trkpt>
      <trkpt lat="42.8404870" lon="-5.8651720">
        <ele>1046.0</ele>
        <time>2019-07-21T09:48:17Z</time>
      </trkpt>
      <trkpt lat="42.8405100" lon="-5.8650170">
        <ele>1047.2</ele>
        <time>2019-07-21T09:48:20Z</time>
      </trkpt>
      <trkpt lat="42.8405170" lon="-5.8649610">
        <ele>1047.4</ele>
        <time>2019-07-21T09:48:21Z</time>
      </trkpt>
      <trkpt lat="42.8405370" lon="-5.8647860">
        <ele>1048.2</ele>
        <time>2019-07-21T09:48:24Z</time>
      </trkpt>
      <trkpt lat="42.8405410" lon="-5.8645950">
        <ele>1049.0</ele>
        <time>2019-07-21T09:48:27Z</time>
      </trkpt>
      <trkpt lat="42.8405380" lon="-5.8645260">
        <ele>1049.4</ele>
        <time>2019-07-21T09:48:28Z</time>
      </trkpt>
      <trkpt lat="42.8405260" lon="-5.8642690">
        <ele>1050.4</ele>
        <time>2019-07-21T09:48:32Z</time>
      </trkpt>
      <trkpt lat="42.8405120" lon="-5.8641060">
        <ele>1051.2</ele>
        <time>2019-07-21T09:48:35Z</time>
      </trkpt>
      <trkpt lat="42.8405090" lon="-5.8640510">
        <ele>1051.4</ele>
        <time>2019-07-21T09:48:36Z</time>
      </trkpt>
      <trkpt lat="42.8405090" lon="-5.8639930">
        <ele>1051.8</ele>
        <time>2019-07-21T09:48:37Z</time>
      </trkpt>
      <trkpt lat="42.8405180" lon="-5.8638180">
        <ele>1052.6</ele>
        <time>2019-07-21T09:48:40Z</time>
      </trkpt>
      <trkpt lat="42.8405420" lon="-5.8637070">
        <ele>1053.0</ele>
        <time>2019-07-21T09:48:42Z</time>
      </trkpt>
      <trkpt lat="42.8405980" lon="-5.8635490">
        <ele>1053.8</ele>
        <time>2019-07-21T09:48:45Z</time>
      </trkpt>
      <trkpt lat="42.8406990" lon="-5.8633370">
        <ele>1055.0</ele>
        <time>2019-07-21T09:48:49Z</time>
      </trkpt>
      <trkpt lat="42.8408210" lon="-5.8630860">
        <ele>1056.0</ele>
        <time>2019-07-21T09:48:54Z</time>
      </trkpt>
      <trkpt lat="42.8409020" lon="-5.8629320">
        <ele>1056.8</ele>
        <time>2019-07-21T09:48:57Z</time>
      </trkpt>
      <trkpt lat="42.8409300" lon="-5.8628810">
        <ele>1057.0</ele>
        <time>2019-07-21T09:48:58Z</time>
      </trkpt>
      <trkpt lat="42.8410260" lon="-5.8626550">
        <ele>1058.4</ele>
        <time>2019-07-21T09:49:02Z</time>
      </trkpt>
      <trkpt lat="42.8410540" lon="-5.8625990">
        <ele>1058.8</ele>
        <time>2019-07-21T09:49:03Z</time>
      </trkpt>
      <trkpt lat="42.8411400" lon="-5.8624200">
        <ele>1059.4</ele>
        <time>2019-07-21T09:49:06Z</time>
      </trkpt>
      <trkpt lat="42.8412760" lon="-5.8621660">
        <ele>1060.6</ele>
        <time>2019-07-21T09:49:11Z</time>
      </trkpt>
      <trkpt lat="42.8413900" lon="-5.8619620">
        <ele>1061.8</ele>
        <time>2019-07-21T09:49:15Z</time>
      </trkpt>
      <trkpt lat="42.8415730" lon="-5.8617190">
        <ele>1062.8</ele>
        <time>2019-07-21T09:49:20Z</time>
      </trkpt>
      <trkpt lat="42.8418140" lon="-5.8614620">
        <ele>1064.0</ele>
        <time>2019-07-21T09:49:26Z</time>
      </trkpt>
      <trkpt lat="42.8419130" lon="-5.8613590">
        <ele>1064.6</ele>
        <time>2019-07-21T09:49:29Z</time>
      </trkpt>
      <trkpt lat="42.8419440" lon="-5.8613230">
        <ele>1065.0</ele>
        <time>2019-07-21T09:49:30Z</time>
      </trkpt>
      <trkpt lat="42.8420470" lon="-5.8612040">
        <ele>1065.8</ele>
        <time>2019-07-21T09:49:33Z</time>
      </trkpt>
      <trkpt lat="42.8421200" lon="-5.8611270">
        <ele>1066.2</ele>
        <time>2019-07-21T09:49:35Z</time>
      </trkpt>
      <trkpt lat="42.8421590" lon="-5.8610930">
        <ele>1066.4</ele>
        <time>2019-07-21T09:49:36Z</time>
      </trkpt>
      <trkpt lat="42.8422330" lon="-5.8610180">
        <ele>1067.0</ele>
        <time>2019-07-21T09:49:38Z</time>
      </trkpt>
      <trkpt lat="42.8422680" lon="-5.8609750">
        <ele>1067.2</ele>
        <time>2019-07-21T09:49:39Z</time>
      </trkpt>
      <trkpt lat="42.8423310" lon="-5.8608850">
        <ele>1068.0</ele>
        <time>2019-07-21T09:49:41Z</time>
      </trkpt>
      <trkpt lat="42.8423610" lon="-5.8608290">
        <ele>1068.4</ele>
        <time>2019-07-21T09:49:42Z</time>
      </trkpt>
      <trkpt lat="42.8423870" lon="-5.8607710">
        <ele>1068.8</ele>
        <time>2019-07-21T09:49:43Z</time>
      </trkpt>
      <trkpt lat="42.8424410" lon="-5.8605990">
        <ele>1069.2</ele>
        <time>2019-07-21T09:49:46Z</time>
      </trkpt>
      <trkpt lat="42.8424530" lon="-5.8605360">
        <ele>1069.6</ele>
        <time>2019-07-21T09:49:47Z</time>
      </trkpt>
      <trkpt lat="42.8424610" lon="-5.8604690">
        <ele>1069.8</ele>
        <time>2019-07-21T09:49:48Z</time>
      </trkpt>
      <trkpt lat="42.8424600" lon="-5.8603210">
        <ele>1070.4</ele>
        <time>2019-07-21T09:49:50Z</time>
      </trkpt>
      <trkpt lat="42.8424270" lon="-5.8601740">
        <ele>1070.6</ele>
        <time>2019-07-21T09:49:52Z</time>
      </trkpt>
      <trkpt lat="42.8423870" lon="-5.8600240">
        <ele>1071.0</ele>
        <time>2019-07-21T09:49:54Z</time>
      </trkpt>
      <trkpt lat="42.8422880" lon="-5.8595940">
        <ele>1071.4</ele>
        <time>2019-07-21T09:50:00Z</time>
      </trkpt>
      <trkpt lat="42.8422850" lon="-5.8594440">
        <ele>1071.6</ele>
        <time>2019-07-21T09:50:02Z</time>
      </trkpt>
      <trkpt lat="42.8423000" lon="-5.8593030">
        <ele>1072.0</ele>
        <time>2019-07-21T09:50:04Z</time>
      </trkpt>
      <trkpt lat="42.8423410" lon="-5.8591840">
        <ele>1072.6</ele>
        <time>2019-07-21T09:50:06Z</time>
      </trkpt>
      <trkpt lat="42.8423690" lon="-5.8591340">
        <ele>1072.8</ele>
        <time>2019-07-21T09:50:07Z</time>
      </trkpt>
      <trkpt lat="42.8424310" lon="-5.8590450">
        <ele>1073.2</ele>
        <time>2019-07-21T09:50:09Z</time>
      </trkpt>
      <trkpt lat="42.8425440" lon="-5.8589670">
        <ele>1074.0</ele>
        <time>2019-07-21T09:50:12Z</time>
      </trkpt>
      <trkpt lat="42.8426350" lon="-5.8589310">
        <ele>1074.6</ele>
        <time>2019-07-21T09:50:14Z</time>
      </trkpt>
      <trkpt lat="42.8427310" lon="-5.8589160">
        <ele>1075.4</ele>
        <time>2019-07-21T09:50:16Z</time>
      </trkpt>
      <trkpt lat="42.8428870" lon="-5.8589330">
        <ele>1076.6</ele>
        <time>2019-07-21T09:50:19Z</time>
      </trkpt>
      <trkpt lat="42.8429410" lon="-5.8589460">
        <ele>1077.0</ele>
        <time>2019-07-21T09:50:20Z</time>
      </trkpt>
      <trkpt lat="42.8430430" lon="-5.8589930">
        <ele>1078.0</ele>
        <time>2019-07-21T09:50:22Z</time>
      </trkpt>
      <trkpt lat="42.8431460" lon="-5.8590490">
        <ele>1078.8</ele>
        <time>2019-07-21T09:50:24Z</time>
      </trkpt>
      <trkpt lat="42.8432010" lon="-5.8590720">
        <ele>1079.2</ele>
        <time>2019-07-21T09:50:25Z</time>
      </trkpt>
      <trkpt lat="42.8433170" lon="-5.8591020">
        <ele>1080.4</ele>
        <time>2019-07-21T09:50:27Z</time>
      </trkpt>
      <trkpt lat="42.8434920" lon="-5.8591250">
        <ele>1081.6</ele>
        <time>2019-07-21T09:50:30Z</time>
      </trkpt>
      <trkpt lat="42.8436630" lon="-5.8591010">
        <ele>1082.4</ele>
        <time>2019-07-21T09:50:33Z</time>
      </trkpt>
      <trkpt lat="42.8437660" lon="-5.8590620">
        <ele>1082.8</ele>
        <time>2019-07-21T09:50:35Z</time>
      </trkpt>
      <trkpt lat="42.8439760" lon="-5.8589150">
        <ele>1084.0</ele>
        <time>2019-07-21T09:50:40Z</time>
      </trkpt>
      <trkpt lat="42.8441920" lon="-5.8587670">
        <ele>1085.0</ele>
        <time>2019-07-21T09:50:45Z</time>
      </trkpt>
      <trkpt lat="42.8442430" lon="-5.8587490">
        <ele>1085.2</ele>
        <time>2019-07-21T09:50:46Z</time>
      </trkpt>
      <trkpt lat="42.8442940" lon="-5.8587360">
        <ele>1085.2</ele>
        <time>2019-07-21T09:50:47Z</time>
      </trkpt>
      <trkpt lat="42.8444930" lon="-5.8587260">
        <ele>1086.2</ele>
        <time>2019-07-21T09:50:51Z</time>
      </trkpt>
      <trkpt lat="42.8445930" lon="-5.8587310">
        <ele>1086.8</ele>
        <time>2019-07-21T09:50:53Z</time>
      </trkpt>
      <trkpt lat="42.8447410" lon="-5.8587550">
        <ele>1087.4</ele>
        <time>2019-07-21T09:50:56Z</time>
      </trkpt>
      <trkpt lat="42.8449400" lon="-5.8587690">
        <ele>1088.6</ele>
        <time>2019-07-21T09:51:00Z</time>
      </trkpt>
      <trkpt lat="42.8451330" lon="-5.8587820">
        <ele>1089.6</ele>
        <time>2019-07-21T09:51:04Z</time>
      </trkpt>
      <trkpt lat="42.8454340" lon="-5.8587880">
        <ele>1090.8</ele>
        <time>2019-07-21T09:51:10Z</time>
      </trkpt>
      <trkpt lat="42.8456260" lon="-5.8588020">
        <ele>1092.2</ele>
        <time>2019-07-21T09:51:14Z</time>
      </trkpt>
      <trkpt lat="42.8457680" lon="-5.8588330">
        <ele>1093.4</ele>
        <time>2019-07-21T09:51:17Z</time>
      </trkpt>
      <trkpt lat="42.8459630" lon="-5.8588880">
        <ele>1094.4</ele>
        <time>2019-07-21T09:51:21Z</time>
      </trkpt>
      <trkpt lat="42.8462210" lon="-5.8590020">
        <ele>1095.6</ele>
        <time>2019-07-21T09:51:26Z</time>
      </trkpt>
      <trkpt lat="42.8463200" lon="-5.8590580">
        <ele>1095.8</ele>
        <time>2019-07-21T09:51:28Z</time>
      </trkpt>
      <trkpt lat="42.8466420" lon="-5.8592020">
        <ele>1096.6</ele>
        <time>2019-07-21T09:51:34Z</time>
      </trkpt>
      <trkpt lat="42.8467020" lon="-5.8592260">
        <ele>1096.6</ele>
        <time>2019-07-21T09:51:35Z</time>
      </trkpt>
      <trkpt lat="42.8469380" lon="-5.8592990">
        <ele>1097.0</ele>
        <time>2019-07-21T09:51:39Z</time>
      </trkpt>
      <trkpt lat="42.8472900" lon="-5.8594020">
        <ele>1097.2</ele>
        <time>2019-07-21T09:51:45Z</time>
      </trkpt>
      <trkpt lat="42.8475300" lon="-5.8594540">
        <ele>1096.8</ele>
        <time>2019-07-21T09:51:49Z</time>
      </trkpt>
      <trkpt lat="42.8478890" lon="-5.8594860">
        <ele>1097.0</ele>
        <time>2019-07-21T09:51:55Z</time>
      </trkpt>
      <trkpt lat="42.8482690" lon="-5.8594950">
        <ele>1097.4</ele>
        <time>2019-07-21T09:52:01Z</time>
      </trkpt>
      <trkpt lat="42.8483910" lon="-5.8594880">
        <ele>1097.8</ele>
        <time>2019-07-21T09:52:03Z</time>
      </trkpt>
      <trkpt lat="42.8485110" lon="-5.8594510">
        <ele>1098.0</ele>
        <time>2019-07-21T09:52:05Z</time>
      </trkpt>
      <trkpt lat="42.8486320" lon="-5.8593630">
        <ele>1098.2</ele>
        <time>2019-07-21T09:52:07Z</time>
      </trkpt>
      <trkpt lat="42.8487870" lon="-5.8591620">
        <ele>1098.2</ele>
        <time>2019-07-21T09:52:10Z</time>
      </trkpt>
      <trkpt lat="42.8489720" lon="-5.8586690">
        <ele>1098.2</ele>
        <time>2019-07-21T09:52:16Z</time>
      </trkpt>
      <trkpt lat="42.8490280" lon="-5.8583990">
        <ele>1098.2</ele>
        <time>2019-07-21T09:52:19Z</time>
      </trkpt>
      <trkpt lat="42.8490520" lon="-5.8581140">
        <ele>1098.2</ele>
        <time>2019-07-21T09:52:22Z</time>
      </trkpt>
      <trkpt lat="42.8490470" lon="-5.8576260">
        <ele>1098.6</ele>
        <time>2019-07-21T09:52:27Z</time>
      </trkpt>
      <trkpt lat="42.8490450" lon="-5.8574330">
        <ele>1098.8</ele>
        <time>2019-07-21T09:52:29Z</time>
      </trkpt>
      <trkpt lat="42.8490320" lon="-5.8568990">
        <ele>1099.6</ele>
        <time>2019-07-21T09:52:35Z</time>
      </trkpt>
      <trkpt lat="42.8490320" lon="-5.8568140">
        <ele>1099.8</ele>
        <time>2019-07-21T09:52:36Z</time>
      </trkpt>
      <trkpt lat="42.8490580" lon="-5.8564000">
        <ele>1101.0</ele>
        <time>2019-07-21T09:52:41Z</time>
      </trkpt>
      <trkpt lat="42.8490860" lon="-5.8562440">
        <ele>1101.6</ele>
        <time>2019-07-21T09:52:43Z</time>
      </trkpt>
      <trkpt lat="42.8491430" lon="-5.8560950">
        <ele>1102.4</ele>
        <time>2019-07-21T09:52:45Z</time>
      </trkpt>
      <trkpt lat="42.8492360" lon="-5.8559540">
        <ele>1103.0</ele>
        <time>2019-07-21T09:52:47Z</time>
      </trkpt>
      <trkpt lat="42.8493510" lon="-5.8558530">
        <ele>1103.4</ele>
        <time>2019-07-21T09:52:49Z</time>
      </trkpt>
      <trkpt lat="42.8494780" lon="-5.8557960">
        <ele>1103.8</ele>
        <time>2019-07-21T09:52:51Z</time>
      </trkpt>
      <trkpt lat="42.8496140" lon="-5.8557850">
        <ele>1103.8</ele>
        <time>2019-07-21T09:52:53Z</time>
      </trkpt>
      <trkpt lat="42.8497500" lon="-5.8558290">
        <ele>1103.8</ele>
        <time>2019-07-21T09:52:55Z</time>
      </trkpt>
      <trkpt lat="42.8498650" lon="-5.8559210">
        <ele>1104.2</ele>
        <time>2019-07-21T09:52:57Z</time>
      </trkpt>
      <trkpt lat="42.8499140" lon="-5.8559790">
        <ele>1104.6</ele>
        <time>2019-07-21T09:52:58Z</time>
      </trkpt>
      <trkpt lat="42.8499550" lon="-5.8560440">
        <ele>1104.8</ele>
        <time>2019-07-21T09:52:59Z</time>
      </trkpt>
      <trkpt lat="42.8500210" lon="-5.8561890">
        <ele>1105.2</ele>
        <time>2019-07-21T09:53:01Z</time>
      </trkpt>
      <trkpt lat="42.8500680" lon="-5.8563420">
        <ele>1105.6</ele>
        <time>2019-07-21T09:53:03Z</time>
      </trkpt>
      <trkpt lat="42.8500930" lon="-5.8565010">
        <ele>1106.0</ele>
        <time>2019-07-21T09:53:05Z</time>
      </trkpt>
      <trkpt lat="42.8501090" lon="-5.8567440">
        <ele>1106.8</ele>
        <time>2019-07-21T09:53:08Z</time>
      </trkpt>
      <trkpt lat="42.8501380" lon="-5.8569890">
        <ele>1107.8</ele>
        <time>2019-07-21T09:53:11Z</time>
      </trkpt>
      <trkpt lat="42.8501740" lon="-5.8571640">
        <ele>1108.6</ele>
        <time>2019-07-21T09:53:13Z</time>
      </trkpt>
      <trkpt lat="42.8502030" lon="-5.8572480">
        <ele>1109.0</ele>
        <time>2019-07-21T09:53:14Z</time>
      </trkpt>
      <trkpt lat="42.8503410" lon="-5.8575530">
        <ele>1110.0</ele>
        <time>2019-07-21T09:53:18Z</time>
      </trkpt>
      <trkpt lat="42.8504800" lon="-5.8578310">
        <ele>1110.2</ele>
        <time>2019-07-21T09:53:22Z</time>
      </trkpt>
      <trkpt lat="42.8506570" lon="-5.8581590">
        <ele>1111.2</ele>
        <time>2019-07-21T09:53:27Z</time>
      </trkpt>
      <trkpt lat="42.8508070" lon="-5.8584080">
        <ele>1112.2</ele>
        <time>2019-07-21T09:53:31Z</time>
      </trkpt>
      <trkpt lat="42.8509710" lon="-5.8586590">
        <ele>1113.4</ele>
        <time>2019-07-21T09:53:35Z</time>
      </trkpt>
      <trkpt lat="42.8511480" lon="-5.8588550">
        <ele>1114.6</ele>
        <time>2019-07-21T09:53:39Z</time>
      </trkpt>
      <trkpt lat="42.8513220" lon="-5.8589790">
        <ele>1115.6</ele>
        <time>2019-07-21T09:53:42Z</time>
      </trkpt>
      <trkpt lat="42.8513880" lon="-5.8590140">
        <ele>1116.0</ele>
        <time>2019-07-21T09:53:43Z</time>
      </trkpt>
      <trkpt lat="42.8515200" lon="-5.8590670">
        <ele>1117.0</ele>
        <time>2019-07-21T09:53:45Z</time>
      </trkpt>
      <trkpt lat="42.8517460" lon="-5.8591890">
        <ele>1118.0</ele>
        <time>2019-07-21T09:53:49Z</time>
      </trkpt>
      <trkpt lat="42.8518450" lon="-5.8592930">
        <ele>1118.4</ele>
        <time>2019-07-21T09:53:51Z</time>
      </trkpt>
      <trkpt lat="42.8519600" lon="-5.8594980">
        <ele>1118.8</ele>
        <time>2019-07-21T09:53:54Z</time>
      </trkpt>
      <trkpt lat="42.8520720" lon="-5.8599250">
        <ele>1119.2</ele>
        <time>2019-07-21T09:53:59Z</time>
      </trkpt>
      <trkpt lat="42.8521760" lon="-5.8602760">
        <ele>1120.0</ele>
        <time>2019-07-21T09:54:03Z</time>
      </trkpt>
      <trkpt lat="42.8522140" lon="-5.8603540">
        <ele>1120.4</ele>
        <time>2019-07-21T09:54:04Z</time>
      </trkpt>
      <trkpt lat="42.8524950" lon="-5.8607610">
        <ele>1121.6</ele>
        <time>2019-07-21T09:54:10Z</time>
      </trkpt>
      <trkpt lat="42.8528050" lon="-5.8611120">
        <ele>1122.6</ele>
        <time>2019-07-21T09:54:16Z</time>
      </trkpt>
      <trkpt lat="42.8528590" lon="-5.8611690">
        <ele>1122.8</ele>
        <time>2019-07-21T09:54:17Z</time>
      </trkpt>
      <trkpt lat="42.8531840" lon="-5.8614940">
        <ele>1123.6</ele>
        <time>2019-07-21T09:54:23Z</time>
      </trkpt>
      <trkpt lat="42.8532420" lon="-5.8615500">
        <ele>1124.0</ele>
        <time>2019-07-21T09:54:24Z</time>
      </trkpt>
      <trkpt lat="42.8534160" lon="-5.8617160">
        <ele>1124.8</ele>
        <time>2019-07-21T09:54:27Z</time>
      </trkpt>
      <trkpt lat="42.8534740" lon="-5.8617700">
        <ele>1125.2</ele>
        <time>2019-07-21T09:54:28Z</time>
      </trkpt>
      <trkpt lat="42.8537220" lon="-5.8619560">
        <ele>1126.4</ele>
        <time>2019-07-21T09:54:32Z</time>
      </trkpt>
      <trkpt lat="42.8540600" lon="-5.8621240">
        <ele>1127.2</ele>
        <time>2019-07-21T09:54:37Z</time>
      </trkpt>
      <trkpt lat="42.8541320" lon="-5.8621370">
        <ele>1127.6</ele>
        <time>2019-07-21T09:54:38Z</time>
      </trkpt>
      <trkpt lat="42.8542050" lon="-5.8621380">
        <ele>1127.8</ele>
        <time>2019-07-21T09:54:39Z</time>
      </trkpt>
      <trkpt lat="42.8544840" lon="-5.8621120">
        <ele>1128.6</ele>
        <time>2019-07-21T09:54:43Z</time>
      </trkpt>
      <trkpt lat="42.8548870" lon="-5.8620810">
        <ele>1129.2</ele>
        <time>2019-07-21T09:54:49Z</time>
      </trkpt>
      <trkpt lat="42.8550210" lon="-5.8620710">
        <ele>1130.0</ele>
        <time>2019-07-21T09:54:51Z</time>
      </trkpt>
      <trkpt lat="42.8550880" lon="-5.8620700">
        <ele>1130.2</ele>
        <time>2019-07-21T09:54:52Z</time>
      </trkpt>
      <trkpt lat="42.8552220" lon="-5.8620630">
        <ele>1131.0</ele>
        <time>2019-07-21T09:54:54Z</time>
      </trkpt>
      <trkpt lat="42.8554230" lon="-5.8620460">
        <ele>1132.2</ele>
        <time>2019-07-21T09:54:57Z</time>
      </trkpt>
      <trkpt lat="42.8556210" lon="-5.8619750">
        <ele>1132.6</ele>
        <time>2019-07-21T09:55:00Z</time>
      </trkpt>
      <trkpt lat="42.8558120" lon="-5.8618430">
        <ele>1133.2</ele>
        <time>2019-07-21T09:55:03Z</time>
      </trkpt>
      <trkpt lat="42.8561860" lon="-5.8615810">
        <ele>1133.8</ele>
        <time>2019-07-21T09:55:09Z</time>
      </trkpt>
      <trkpt lat="42.8563080" lon="-5.8614880">
        <ele>1134.4</ele>
        <time>2019-07-21T09:55:11Z</time>
      </trkpt>
      <trkpt lat="42.8566070" lon="-5.8612170">
        <ele>1135.4</ele>
        <time>2019-07-21T09:55:16Z</time>
      </trkpt>
      <trkpt lat="42.8567780" lon="-5.8610160">
        <ele>1136.0</ele>
        <time>2019-07-21T09:55:19Z</time>
      </trkpt>
      <trkpt lat="42.8568840" lon="-5.8608850">
        <ele>1136.4</ele>
        <time>2019-07-21T09:55:21Z</time>
      </trkpt>
      <trkpt lat="42.8570860" lon="-5.8606150">
        <ele>1137.4</ele>
        <time>2019-07-21T09:55:25Z</time>
      </trkpt>
      <trkpt lat="42.8573510" lon="-5.8602790">
        <ele>1138.6</ele>
        <time>2019-07-21T09:55:30Z</time>
      </trkpt>
      <trkpt lat="42.8577620" lon="-5.8599620">
        <ele>1139.0</ele>
        <time>2019-07-21T09:55:36Z</time>
      </trkpt>
      <trkpt lat="42.8581940" lon="-5.8597070">
        <ele>1138.0</ele>
        <time>2019-07-21T09:55:41Z</time>
      </trkpt>
      <trkpt lat="42.8582950" lon="-5.8596970">
        <ele>1137.6</ele>
        <time>2019-07-21T09:55:42Z</time>
      </trkpt>
      <trkpt lat="42.8584050" lon="-5.8597110">
        <ele>1137.0</ele>
        <time>2019-07-21T09:55:43Z</time>
      </trkpt>
      <trkpt lat="42.8585170" lon="-5.8597540">
        <ele>1136.4</ele>
        <time>2019-07-21T09:55:44Z</time>
      </trkpt>
      <trkpt lat="42.8586250" lon="-5.8598300">
        <ele>1135.8</ele>
        <time>2019-07-21T09:55:45Z</time>
      </trkpt>
      <trkpt lat="42.8587260" lon="-5.8599320">
        <ele>1135.4</ele>
        <time>2019-07-21T09:55:46Z</time>
      </trkpt>
      <trkpt lat="42.8588150" lon="-5.8600610">
        <ele>1134.8</ele>
        <time>2019-07-21T09:55:47Z</time>
      </trkpt>
      <trkpt lat="42.8589800" lon="-5.8603430">
        <ele>1133.6</ele>
        <time>2019-07-21T09:55:49Z</time>
      </trkpt>
      <trkpt lat="42.8591450" lon="-5.8606420">
        <ele>1132.2</ele>
        <time>2019-07-21T09:55:51Z</time>
      </trkpt>
      <trkpt lat="42.8592500" lon="-5.8609930">
        <ele>1131.0</ele>
        <time>2019-07-21T09:55:53Z</time>
      </trkpt>
      <trkpt lat="42.8592690" lon="-5.8613800">
        <ele>1129.2</ele>
        <time>2019-07-21T09:55:55Z</time>
      </trkpt>
      <trkpt lat="42.8592620" lon="-5.8615730">
        <ele>1128.2</ele>
        <time>2019-07-21T09:55:56Z</time>
      </trkpt>
      <trkpt lat="42.8592330" lon="-5.8619660">
        <ele>1125.8</ele>
        <time>2019-07-21T09:55:58Z</time>
      </trkpt>
      <trkpt lat="42.8592130" lon="-5.8621660">
        <ele>1124.4</ele>
        <time>2019-07-21T09:55:59Z</time>
      </trkpt>
      <trkpt lat="42.8591990" lon="-5.8623640">
        <ele>1123.2</ele>
        <time>2019-07-21T09:56:00Z</time>
      </trkpt>
      <trkpt lat="42.8592010" lon="-5.8625600">
        <ele>1122.4</ele>
        <time>2019-07-21T09:56:01Z</time>
      </trkpt>
      <trkpt lat="42.8592280" lon="-5.8627480">
        <ele>1121.8</ele>
        <time>2019-07-21T09:56:02Z</time>
      </trkpt>
      <trkpt lat="42.8592800" lon="-5.8629220">
        <ele>1121.0</ele>
        <time>2019-07-21T09:56:03Z</time>
      </trkpt>
      <trkpt lat="42.8593670" lon="-5.8630700">
        <ele>1120.2</ele>
        <time>2019-07-21T09:56:04Z</time>
      </trkpt>
      <trkpt lat="42.8594820" lon="-5.8631850">
        <ele>1119.2</ele>
        <time>2019-07-21T09:56:05Z</time>
      </trkpt>
      <trkpt lat="42.8596100" lon="-5.8632780">
        <ele>1118.4</ele>
        <time>2019-07-21T09:56:06Z</time>
      </trkpt>
      <trkpt lat="42.8598570" lon="-5.8634780">
        <ele>1116.8</ele>
        <time>2019-07-21T09:56:08Z</time>
      </trkpt>
      <trkpt lat="42.8600760" lon="-5.8637420">
        <ele>1115.8</ele>
        <time>2019-07-21T09:56:10Z</time>
      </trkpt>
      <trkpt lat="42.8601790" lon="-5.8638920">
        <ele>1115.0</ele>
        <time>2019-07-21T09:56:11Z</time>
      </trkpt>
      <trkpt lat="42.8603920" lon="-5.8642000">
        <ele>1113.0</ele>
        <time>2019-07-21T09:56:13Z</time>
      </trkpt>
      <trkpt lat="42.8606200" lon="-5.8645040">
        <ele>1111.8</ele>
        <time>2019-07-21T09:56:15Z</time>
      </trkpt>
      <trkpt lat="42.8608590" lon="-5.8648060">
        <ele>1110.4</ele>
        <time>2019-07-21T09:56:17Z</time>
      </trkpt>
      <trkpt lat="42.8611050" lon="-5.8651410">
        <ele>1107.6</ele>
        <time>2019-07-21T09:56:19Z</time>
      </trkpt>
      <trkpt lat="42.8612040" lon="-5.8652870">
        <ele>1105.2</ele>
        <time>2019-07-21T09:56:20Z</time>
      </trkpt>
      <trkpt lat="42.8613070" lon="-5.8654340">
        <ele>1102.6</ele>
        <time>2019-07-21T09:56:21Z</time>
      </trkpt>
      <trkpt lat="42.8614480" lon="-5.8655350">
        <ele>1100.4</ele>
        <time>2019-07-21T09:56:22Z</time>
      </trkpt>
      <trkpt lat="42.8615960" lon="-5.8656260">
        <ele>1098.6</ele>
        <time>2019-07-21T09:56:23Z</time>
      </trkpt>
      <trkpt lat="42.8618950" lon="-5.8657110">
        <ele>1097.2</ele>
        <time>2019-07-21T09:56:25Z</time>
      </trkpt>
      <trkpt lat="42.8621630" lon="-5.8655860">
        <ele>1097.4</ele>
        <time>2019-07-21T09:56:27Z</time>
      </trkpt>
      <trkpt lat="42.8622590" lon="-5.8654460">
        <ele>1098.6</ele>
        <time>2019-07-21T09:56:28Z</time>
      </trkpt>
      <trkpt lat="42.8623210" lon="-5.8652910">
        <ele>1099.8</ele>
        <time>2019-07-21T09:56:29Z</time>
      </trkpt>
      <trkpt lat="42.8623860" lon="-5.8649800">
        <ele>1101.2</ele>
        <time>2019-07-21T09:56:31Z</time>
      </trkpt>
      <trkpt lat="42.8624020" lon="-5.8648380">
        <ele>1101.8</ele>
        <time>2019-07-21T09:56:32Z</time>
      </trkpt>
      <trkpt lat="42.8624120" lon="-5.8647050">
        <ele>1102.2</ele>
        <time>2019-07-21T09:56:33Z</time>
      </trkpt>
      <trkpt lat="42.8624280" lon="-5.8644820">
        <ele>1103.6</ele>
        <time>2019-07-21T09:56:35Z</time>
      </trkpt>
      <trkpt lat="42.8624960" lon="-5.8641780">
        <ele>1104.8</ele>
        <time>2019-07-21T09:56:38Z</time>
      </trkpt>
      <trkpt lat="42.8625860" lon="-5.8640260">
        <ele>1105.4</ele>
        <time>2019-07-21T09:56:40Z</time>
      </trkpt>
      <trkpt lat="42.8626940" lon="-5.8639080">
        <ele>1106.2</ele>
        <time>2019-07-21T09:56:42Z</time>
      </trkpt>
      <trkpt lat="42.8628650" lon="-5.8637690">
        <ele>1106.8</ele>
        <time>2019-07-21T09:56:45Z</time>
      </trkpt>
      <trkpt lat="42.8629710" lon="-5.8637120">
        <ele>1107.4</ele>
        <time>2019-07-21T09:56:47Z</time>
      </trkpt>
      <trkpt lat="42.8631470" lon="-5.8636210">
        <ele>1108.4</ele>
        <time>2019-07-21T09:56:50Z</time>
      </trkpt>
      <trkpt lat="42.8633780" lon="-5.8635040">
        <ele>1109.6</ele>
        <time>2019-07-21T09:56:54Z</time>
      </trkpt>
      <trkpt lat="42.8635550" lon="-5.8634330">
        <ele>1111.0</ele>
        <time>2019-07-21T09:56:57Z</time>
      </trkpt>
      <trkpt lat="42.8636690" lon="-5.8633950">
        <ele>1112.0</ele>
        <time>2019-07-21T09:56:59Z</time>
      </trkpt>
      <trkpt lat="42.8638430" lon="-5.8633440">
        <ele>1113.2</ele>
        <time>2019-07-21T09:57:02Z</time>
      </trkpt>
      <trkpt lat="42.8640790" lon="-5.8632790">
        <ele>1114.6</ele>
        <time>2019-07-21T09:57:06Z</time>
      </trkpt>
      <trkpt lat="42.8642550" lon="-5.8632050">
        <ele>1115.6</ele>
        <time>2019-07-21T09:57:09Z</time>
      </trkpt>
      <trkpt lat="42.8644140" lon="-5.8630880">
        <ele>1116.4</ele>
        <time>2019-07-21T09:57:12Z</time>
      </trkpt>
      <trkpt lat="42.8644640" lon="-5.8630380">
        <ele>1116.8</ele>
        <time>2019-07-21T09:57:13Z</time>
      </trkpt>
      <trkpt lat="42.8646160" lon="-5.8628770">
        <ele>1117.8</ele>
        <time>2019-07-21T09:57:16Z</time>
      </trkpt>
      <trkpt lat="42.8648240" lon="-5.8626660">
        <ele>1119.0</ele>
        <time>2019-07-21T09:57:20Z</time>
      </trkpt>
      <trkpt lat="42.8650490" lon="-5.8624880">
        <ele>1120.0</ele>
        <time>2019-07-21T09:57:24Z</time>
      </trkpt>
      <trkpt lat="42.8653890" lon="-5.8621650">
        <ele>1120.4</ele>
        <time>2019-07-21T09:57:30Z</time>
      </trkpt>
      <trkpt lat="42.8654380" lon="-5.8620880">
        <ele>1120.4</ele>
        <time>2019-07-21T09:57:31Z</time>
      </trkpt>
      <trkpt lat="42.8656910" lon="-5.8616330">
        <ele>1119.8</ele>
        <time>2019-07-21T09:57:36Z</time>
      </trkpt>
      <trkpt lat="42.8659500" lon="-5.8612480">
        <ele>1118.8</ele>
        <time>2019-07-21T09:57:40Z</time>
      </trkpt>
      <trkpt lat="42.8662030" lon="-5.8610110">
        <ele>1117.8</ele>
        <time>2019-07-21T09:57:43Z</time>
      </trkpt>
      <trkpt lat="42.8665910" lon="-5.8607440">
        <ele>1116.4</ele>
        <time>2019-07-21T09:57:47Z</time>
      </trkpt>
      <trkpt lat="42.8667900" lon="-5.8606090">
        <ele>1115.2</ele>
        <time>2019-07-21T09:57:49Z</time>
      </trkpt>
      <trkpt lat="42.8670750" lon="-5.8603720">
        <ele>1114.4</ele>
        <time>2019-07-21T09:57:52Z</time>
      </trkpt>
      <trkpt lat="42.8672610" lon="-5.8601990">
        <ele>1114.0</ele>
        <time>2019-07-21T09:57:54Z</time>
      </trkpt>
      <trkpt lat="42.8674380" lon="-5.8600050">
        <ele>1113.4</ele>
        <time>2019-07-21T09:57:56Z</time>
      </trkpt>
      <trkpt lat="42.8675780" lon="-5.8597510">
        <ele>1112.8</ele>
        <time>2019-07-21T09:57:58Z</time>
      </trkpt>
      <trkpt lat="42.8677890" lon="-5.8591510">
        <ele>1111.4</ele>
        <time>2019-07-21T09:58:02Z</time>
      </trkpt>
      <trkpt lat="42.8678740" lon="-5.8588370">
        <ele>1110.6</ele>
        <time>2019-07-21T09:58:04Z</time>
      </trkpt>
      <trkpt lat="42.8678940" lon="-5.8586760">
        <ele>1110.0</ele>
        <time>2019-07-21T09:58:05Z</time>
      </trkpt>
      <trkpt lat="42.8678900" lon="-5.8585120">
        <ele>1109.6</ele>
        <time>2019-07-21T09:58:06Z</time>
      </trkpt>
      <trkpt lat="42.8678200" lon="-5.8580110">
        <ele>1108.8</ele>
        <time>2019-07-21T09:58:09Z</time>
      </trkpt>
      <trkpt lat="42.8677720" lon="-5.8576720">
        <ele>1107.6</ele>
        <time>2019-07-21T09:58:11Z</time>
      </trkpt>
      <trkpt lat="42.8677070" lon="-5.8571840">
        <ele>1106.4</ele>
        <time>2019-07-21T09:58:14Z</time>
      </trkpt>
      <trkpt lat="42.8676910" lon="-5.8568770">
        <ele>1106.0</ele>
        <time>2019-07-21T09:58:16Z</time>
      </trkpt>
      <trkpt lat="42.8677430" lon="-5.8565830">
        <ele>1105.8</ele>
        <time>2019-07-21T09:58:18Z</time>
      </trkpt>
      <trkpt lat="42.8678730" lon="-5.8563390">
        <ele>1105.4</ele>
        <time>2019-07-21T09:58:20Z</time>
      </trkpt>
      <trkpt lat="42.8680540" lon="-5.8561920">
        <ele>1105.0</ele>
        <time>2019-07-21T09:58:22Z</time>
      </trkpt>
      <trkpt lat="42.8682730" lon="-5.8561600">
        <ele>1104.8</ele>
        <time>2019-07-21T09:58:24Z</time>
      </trkpt>
      <trkpt lat="42.8684870" lon="-5.8562340">
        <ele>1104.8</ele>
        <time>2019-07-21T09:58:26Z</time>
      </trkpt>
      <trkpt lat="42.8689990" lon="-5.8565650">
        <ele>1105.8</ele>
        <time>2019-07-21T09:58:32Z</time>
      </trkpt>
      <trkpt lat="42.8692070" lon="-5.8567110">
        <ele>1106.6</ele>
        <time>2019-07-21T09:58:35Z</time>
      </trkpt>
      <trkpt lat="42.8694000" lon="-5.8568450">
        <ele>1107.8</ele>
        <time>2019-07-21T09:58:38Z</time>
      </trkpt>
      <trkpt lat="42.8695230" lon="-5.8569280">
        <ele>1108.8</ele>
        <time>2019-07-21T09:58:40Z</time>
      </trkpt>
      <trkpt lat="42.8696920" lon="-5.8570380">
        <ele>1110.2</ele>
        <time>2019-07-21T09:58:43Z</time>
      </trkpt>
      <trkpt lat="42.8698600" lon="-5.8571390">
        <ele>1111.6</ele>
        <time>2019-07-21T09:58:46Z</time>
      </trkpt>
      <trkpt lat="42.8700270" lon="-5.8572250">
        <ele>1112.8</ele>
        <time>2019-07-21T09:58:49Z</time>
      </trkpt>
      <trkpt lat="42.8700830" lon="-5.8572440">
        <ele>1113.2</ele>
        <time>2019-07-21T09:58:50Z</time>
      </trkpt>
      <trkpt lat="42.8701990" lon="-5.8572540">
        <ele>1113.8</ele>
        <time>2019-07-21T09:58:52Z</time>
      </trkpt>
      <trkpt lat="42.8702580" lon="-5.8572460">
        <ele>1114.2</ele>
        <time>2019-07-21T09:58:53Z</time>
      </trkpt>
      <trkpt lat="42.8703140" lon="-5.8572300">
        <ele>1114.4</ele>
        <time>2019-07-21T09:58:54Z</time>
      </trkpt>
      <trkpt lat="42.8704280" lon="-5.8571660">
        <ele>1115.4</ele>
        <time>2019-07-21T09:58:56Z</time>
      </trkpt>
      <trkpt lat="42.8704830" lon="-5.8571250">
        <ele>1116.0</ele>
        <time>2019-07-21T09:58:57Z</time>
      </trkpt>
      <trkpt lat="42.8705870" lon="-5.8570020">
        <ele>1116.8</ele>
        <time>2019-07-21T09:58:59Z</time>
      </trkpt>
      <trkpt lat="42.8707230" lon="-5.8567770">
        <ele>1117.8</ele>
        <time>2019-07-21T09:59:02Z</time>
      </trkpt>
      <trkpt lat="42.8708950" lon="-5.8564650">
        <ele>1119.0</ele>
        <time>2019-07-21T09:59:06Z</time>
      </trkpt>
      <trkpt lat="42.8710560" lon="-5.8561450">
        <ele>1120.0</ele>
        <time>2019-07-21T09:59:10Z</time>
      </trkpt>
      <trkpt lat="42.8711430" lon="-5.8558830">
        <ele>1120.4</ele>
        <time>2019-07-21T09:59:13Z</time>
      </trkpt>
      <trkpt lat="42.8711680" lon="-5.8556830">
        <ele>1120.8</ele>
        <time>2019-07-21T09:59:15Z</time>
      </trkpt>
      <trkpt lat="42.8711620" lon="-5.8554790">
        <ele>1121.2</ele>
        <time>2019-07-21T09:59:17Z</time>
      </trkpt>
      <trkpt lat="42.8711280" lon="-5.8550520">
        <ele>1121.2</ele>
        <time>2019-07-21T09:59:21Z</time>
      </trkpt>
      <trkpt lat="42.8711410" lon="-5.8548160">
        <ele>1121.2</ele>
        <time>2019-07-21T09:59:23Z</time>
      </trkpt>
      <trkpt lat="42.8712060" lon="-5.8545830">
        <ele>1121.2</ele>
        <time>2019-07-21T09:59:25Z</time>
      </trkpt>
      <trkpt lat="42.8713450" lon="-5.8543820">
        <ele>1121.0</ele>
        <time>2019-07-21T09:59:27Z</time>
      </trkpt>
      <trkpt lat="42.8715410" lon="-5.8542460">
        <ele>1120.2</ele>
        <time>2019-07-21T09:59:29Z</time>
      </trkpt>
      <trkpt lat="42.8718660" lon="-5.8541190">
        <ele>1118.8</ele>
        <time>2019-07-21T09:59:32Z</time>
      </trkpt>
      <trkpt lat="42.8720890" lon="-5.8540260">
        <ele>1117.6</ele>
        <time>2019-07-21T09:59:34Z</time>
      </trkpt>
      <trkpt lat="42.8721970" lon="-5.8539670">
        <ele>1117.2</ele>
        <time>2019-07-21T09:59:35Z</time>
      </trkpt>
      <trkpt lat="42.8723830" lon="-5.8537660">
        <ele>1116.6</ele>
        <time>2019-07-21T09:59:37Z</time>
      </trkpt>
      <trkpt lat="42.8724460" lon="-5.8536270">
        <ele>1116.4</ele>
        <time>2019-07-21T09:59:38Z</time>
      </trkpt>
      <trkpt lat="42.8724920" lon="-5.8534710">
        <ele>1116.2</ele>
        <time>2019-07-21T09:59:39Z</time>
      </trkpt>
      <trkpt lat="42.8726160" lon="-5.8529850">
        <ele>1114.6</ele>
        <time>2019-07-21T09:59:42Z</time>
      </trkpt>
      <trkpt lat="42.8727820" lon="-5.8527260">
        <ele>1112.6</ele>
        <time>2019-07-21T09:59:44Z</time>
      </trkpt>
      <trkpt lat="42.8728900" lon="-5.8526230">
        <ele>1111.6</ele>
        <time>2019-07-21T09:59:45Z</time>
      </trkpt>
      <trkpt lat="42.8731270" lon="-5.8524470">
        <ele>1109.4</ele>
        <time>2019-07-21T09:59:47Z</time>
      </trkpt>
      <trkpt lat="42.8733600" lon="-5.8523200">
        <ele>1108.0</ele>
        <time>2019-07-21T09:59:49Z</time>
      </trkpt>
      <trkpt lat="42.8735920" lon="-5.8523060">
        <ele>1107.0</ele>
        <time>2019-07-21T09:59:51Z</time>
      </trkpt>
      <trkpt lat="42.8737060" lon="-5.8523460">
        <ele>1106.2</ele>
        <time>2019-07-21T09:59:52Z</time>
      </trkpt>
      <trkpt lat="42.8738130" lon="-5.8524110">
        <ele>1105.0</ele>
        <time>2019-07-21T09:59:53Z</time>
      </trkpt>
      <trkpt lat="42.8739120" lon="-5.8525040">
        <ele>1104.0</ele>
        <time>2019-07-21T09:59:54Z</time>
      </trkpt>
      <trkpt lat="42.8740970" lon="-5.8527250">
        <ele>1102.6</ele>
        <time>2019-07-21T09:59:56Z</time>
      </trkpt>
      <trkpt lat="42.8745520" lon="-5.8532770">
        <ele>1102.4</ele>
        <time>2019-07-21T10:00:01Z</time>
      </trkpt>
      <trkpt lat="42.8748680" lon="-5.8536460">
        <ele>1103.4</ele>
        <time>2019-07-21T10:00:05Z</time>
      </trkpt>
      <trkpt lat="42.8749400" lon="-5.8537370">
        <ele>1103.6</ele>
        <time>2019-07-21T10:00:06Z</time>
      </trkpt>
      <trkpt lat="42.8751670" lon="-5.8541330">
        <ele>1104.6</ele>
        <time>2019-07-21T10:00:10Z</time>
      </trkpt>
      <trkpt lat="42.8752090" lon="-5.8542370">
        <ele>1104.8</ele>
        <time>2019-07-21T10:00:11Z</time>
      </trkpt>
      <trkpt lat="42.8753370" lon="-5.8547660">
        <ele>1105.8</ele>
        <time>2019-07-21T10:00:16Z</time>
      </trkpt>
      <trkpt lat="42.8753600" lon="-5.8553180">
        <ele>1107.0</ele>
        <time>2019-07-21T10:00:21Z</time>
      </trkpt>
      <trkpt lat="42.8753680" lon="-5.8558880">
        <ele>1108.2</ele>
        <time>2019-07-21T10:00:26Z</time>
      </trkpt>
      <trkpt lat="42.8753690" lon="-5.8562200">
        <ele>1109.4</ele>
        <time>2019-07-21T10:00:29Z</time>
      </trkpt>
      <trkpt lat="42.8753800" lon="-5.8566670">
        <ele>1110.6</ele>
        <time>2019-07-21T10:00:33Z</time>
      </trkpt>
      <trkpt lat="42.8753950" lon="-5.8573660">
        <ele>1111.2</ele>
        <time>2019-07-21T10:00:39Z</time>
      </trkpt>
      <trkpt lat="42.8753730" lon="-5.8580590">
        <ele>1110.8</ele>
        <time>2019-07-21T10:00:45Z</time>
      </trkpt>
      <trkpt lat="42.8753000" lon="-5.8586530">
        <ele>1111.6</ele>
        <time>2019-07-21T10:00:50Z</time>
      </trkpt>
      <trkpt lat="42.8752080" lon="-5.8593570">
        <ele>1111.4</ele>
        <time>2019-07-21T10:00:56Z</time>
      </trkpt>
      <trkpt lat="42.8751160" lon="-5.8600480">
        <ele>1112.0</ele>
        <time>2019-07-21T10:01:02Z</time>
      </trkpt>
      <trkpt lat="42.8749620" lon="-5.8607280">
        <ele>1111.8</ele>
        <time>2019-07-21T10:01:08Z</time>
      </trkpt>
      <trkpt lat="42.8748100" lon="-5.8614150">
        <ele>1112.2</ele>
        <time>2019-07-21T10:01:14Z</time>
      </trkpt>
      <trkpt lat="42.8747480" lon="-5.8619000">
        <ele>1112.6</ele>
        <time>2019-07-21T10:01:18Z</time>
      </trkpt>
      <trkpt lat="42.8746630" lon="-5.8626350">
        <ele>1113.2</ele>
        <time>2019-07-21T10:01:24Z</time>
      </trkpt>
      <trkpt lat="42.8746160" lon="-5.8631150">
        <ele>1113.8</ele>
        <time>2019-07-21T10:01:28Z</time>
      </trkpt>
      <trkpt lat="42.8745550" lon="-5.8638540">
        <ele>1114.6</ele>
        <time>2019-07-21T10:01:34Z</time>
      </trkpt>
      <trkpt lat="42.8745420" lon="-5.8643640">
        <ele>1114.8</ele>
        <time>2019-07-21T10:01:38Z</time>
      </trkpt>
      <trkpt lat="42.8745510" lon="-5.8651010">
        <ele>1115.6</ele>
        <time>2019-07-21T10:01:44Z</time>
      </trkpt>
      <trkpt lat="42.8746160" lon="-5.8653390">
        <ele>1115.8</ele>
        <time>2019-07-21T10:01:46Z</time>
      </trkpt>
      <trkpt lat="42.8749700" lon="-5.8659360">
        <ele>1116.2</ele>
        <time>2019-07-21T10:01:52Z</time>
      </trkpt>
      <trkpt lat="42.8753180" lon="-5.8664440">
        <ele>1116.2</ele>
        <time>2019-07-21T10:01:58Z</time>
      </trkpt>
      <trkpt lat="42.8754220" lon="-5.8666010">
        <ele>1116.4</ele>
        <time>2019-07-21T10:02:00Z</time>
      </trkpt>
      <trkpt lat="42.8755780" lon="-5.8668140">
        <ele>1116.6</ele>
        <time>2019-07-21T10:02:03Z</time>
      </trkpt>
      <trkpt lat="42.8757690" lon="-5.8669870">
        <ele>1116.8</ele>
        <time>2019-07-21T10:02:06Z</time>
      </trkpt>
      <trkpt lat="42.8759120" lon="-5.8670900">
        <ele>1116.8</ele>
        <time>2019-07-21T10:02:08Z</time>
      </trkpt>
      <trkpt lat="42.8760700" lon="-5.8671580">
        <ele>1116.8</ele>
        <time>2019-07-21T10:02:10Z</time>
      </trkpt>
      <trkpt lat="42.8763180" lon="-5.8671800">
        <ele>1116.6</ele>
        <time>2019-07-21T10:02:13Z</time>
      </trkpt>
      <trkpt lat="42.8764800" lon="-5.8671300">
        <ele>1116.6</ele>
        <time>2019-07-21T10:02:15Z</time>
      </trkpt>
      <trkpt lat="42.8766990" lon="-5.8669630">
        <ele>1116.4</ele>
        <time>2019-07-21T10:02:18Z</time>
      </trkpt>
      <trkpt lat="42.8769500" lon="-5.8666470">
        <ele>1116.4</ele>
        <time>2019-07-21T10:02:22Z</time>
      </trkpt>
      <trkpt lat="42.8772080" lon="-5.8660820">
        <ele>1118.0</ele>
        <time>2019-07-21T10:02:28Z</time>
      </trkpt>
      <trkpt lat="42.8773150" lon="-5.8658050">
        <ele>1119.0</ele>
        <time>2019-07-21T10:02:31Z</time>
      </trkpt>
      <trkpt lat="42.8774580" lon="-5.8654530">
        <ele>1120.2</ele>
        <time>2019-07-21T10:02:35Z</time>
      </trkpt>
      <trkpt lat="42.8775760" lon="-5.8652190">
        <ele>1121.2</ele>
        <time>2019-07-21T10:02:38Z</time>
      </trkpt>
      <trkpt lat="42.8776730" lon="-5.8650810">
        <ele>1122.0</ele>
        <time>2019-07-21T10:02:40Z</time>
      </trkpt>
      <trkpt lat="42.8777300" lon="-5.8650290">
        <ele>1122.2</ele>
        <time>2019-07-21T10:02:41Z</time>
      </trkpt>
      <trkpt lat="42.8777940" lon="-5.8649890">
        <ele>1122.6</ele>
        <time>2019-07-21T10:02:42Z</time>
      </trkpt>
      <trkpt lat="42.8779330" lon="-5.8649450">
        <ele>1123.4</ele>
        <time>2019-07-21T10:02:44Z</time>
      </trkpt>
      <trkpt lat="42.8780750" lon="-5.8649550">
        <ele>1124.0</ele>
        <time>2019-07-21T10:02:46Z</time>
      </trkpt>
      <trkpt lat="42.8782040" lon="-5.8650410">
        <ele>1124.4</ele>
        <time>2019-07-21T10:02:48Z</time>
      </trkpt>
      <trkpt lat="42.8783140" lon="-5.8651790">
        <ele>1124.6</ele>
        <time>2019-07-21T10:02:50Z</time>
      </trkpt>
      <trkpt lat="42.8785190" lon="-5.8656350">
        <ele>1125.4</ele>
        <time>2019-07-21T10:02:55Z</time>
      </trkpt>
      <trkpt lat="42.8787430" lon="-5.8661790">
        <ele>1126.4</ele>
        <time>2019-07-21T10:03:01Z</time>
      </trkpt>
      <trkpt lat="42.8789410" lon="-5.8666300">
        <ele>1127.6</ele>
        <time>2019-07-21T10:03:06Z</time>
      </trkpt>
      <trkpt lat="42.8791790" lon="-5.8671770">
        <ele>1128.6</ele>
        <time>2019-07-21T10:03:12Z</time>
      </trkpt>
      <trkpt lat="42.8793850" lon="-5.8676130">
        <ele>1129.8</ele>
        <time>2019-07-21T10:03:17Z</time>
      </trkpt>
      <trkpt lat="42.8795140" lon="-5.8678490">
        <ele>1130.4</ele>
        <time>2019-07-21T10:03:20Z</time>
      </trkpt>
      <trkpt lat="42.8796570" lon="-5.8680920">
        <ele>1131.0</ele>
        <time>2019-07-21T10:03:23Z</time>
      </trkpt>
      <trkpt lat="42.8798140" lon="-5.8683150">
        <ele>1131.6</ele>
        <time>2019-07-21T10:03:26Z</time>
      </trkpt>
      <trkpt lat="42.8799430" lon="-5.8684290">
        <ele>1131.8</ele>
        <time>2019-07-21T10:03:28Z</time>
      </trkpt>
      <trkpt lat="42.8801070" lon="-5.8684750">
        <ele>1131.8</ele>
        <time>2019-07-21T10:03:30Z</time>
      </trkpt>
      <trkpt lat="42.8802830" lon="-5.8684250">
        <ele>1131.8</ele>
        <time>2019-07-21T10:03:32Z</time>
      </trkpt>
      <trkpt lat="42.8804470" lon="-5.8682730">
        <ele>1131.4</ele>
        <time>2019-07-21T10:03:34Z</time>
      </trkpt>
      <trkpt lat="42.8805790" lon="-5.8680400">
        <ele>1130.8</ele>
        <time>2019-07-21T10:03:36Z</time>
      </trkpt>
      <trkpt lat="42.8806930" lon="-5.8677660">
        <ele>1129.8</ele>
        <time>2019-07-21T10:03:38Z</time>
      </trkpt>
      <trkpt lat="42.8808100" lon="-5.8674720">
        <ele>1128.8</ele>
        <time>2019-07-21T10:03:40Z</time>
      </trkpt>
      <trkpt lat="42.8809290" lon="-5.8671610">
        <ele>1127.4</ele>
        <time>2019-07-21T10:03:42Z</time>
      </trkpt>
      <trkpt lat="42.8810860" lon="-5.8666690">
        <ele>1126.2</ele>
        <time>2019-07-21T10:03:45Z</time>
      </trkpt>
      <trkpt lat="42.8811760" lon="-5.8663280">
        <ele>1124.8</ele>
        <time>2019-07-21T10:03:47Z</time>
      </trkpt>
      <trkpt lat="42.8812490" lon="-5.8659920">
        <ele>1122.8</ele>
        <time>2019-07-21T10:03:49Z</time>
      </trkpt>
      <trkpt lat="42.8812800" lon="-5.8658210">
        <ele>1121.8</ele>
        <time>2019-07-21T10:03:50Z</time>
      </trkpt>
      <trkpt lat="42.8813110" lon="-5.8656450">
        <ele>1120.8</ele>
        <time>2019-07-21T10:03:51Z</time>
      </trkpt>
      <trkpt lat="42.8813380" lon="-5.8654710">
        <ele>1119.6</ele>
        <time>2019-07-21T10:03:52Z</time>
      </trkpt>
      <trkpt lat="42.8813620" lon="-5.8652950">
        <ele>1118.6</ele>
        <time>2019-07-21T10:03:53Z</time>
      </trkpt>
      <trkpt lat="42.8813970" lon="-5.8649380">
        <ele>1117.0</ele>
        <time>2019-07-21T10:03:55Z</time>
      </trkpt>
      <trkpt lat="42.8814190" lon="-5.8645700">
        <ele>1115.8</ele>
        <time>2019-07-21T10:03:57Z</time>
      </trkpt>
      <trkpt lat="42.8814200" lon="-5.8641900">
        <ele>1114.2</ele>
        <time>2019-07-21T10:03:59Z</time>
      </trkpt>
      <trkpt lat="42.8814180" lon="-5.8638050">
        <ele>1112.8</ele>
        <time>2019-07-21T10:04:01Z</time>
      </trkpt>
      <trkpt lat="42.8814820" lon="-5.8634430">
        <ele>1111.2</ele>
        <time>2019-07-21T10:04:03Z</time>
      </trkpt>
      <trkpt lat="42.8816520" lon="-5.8631480">
        <ele>1109.6</ele>
        <time>2019-07-21T10:04:05Z</time>
      </trkpt>
      <trkpt lat="42.8818890" lon="-5.8630000">
        <ele>1108.6</ele>
        <time>2019-07-21T10:04:07Z</time>
      </trkpt>
      <trkpt lat="42.8820200" lon="-5.8629890">
        <ele>1108.2</ele>
        <time>2019-07-21T10:04:08Z</time>
      </trkpt>
      <trkpt lat="42.8821530" lon="-5.8630180">
        <ele>1107.4</ele>
        <time>2019-07-21T10:04:09Z</time>
      </trkpt>
      <trkpt lat="42.8822750" lon="-5.8630850">
        <ele>1106.6</ele>
        <time>2019-07-21T10:04:10Z</time>
      </trkpt>
      <trkpt lat="42.8825110" lon="-5.8632720">
        <ele>1105.0</ele>
        <time>2019-07-21T10:04:12Z</time>
      </trkpt>
      <trkpt lat="42.8827580" lon="-5.8634520">
        <ele>1104.0</ele>
        <time>2019-07-21T10:04:14Z</time>
      </trkpt>
      <trkpt lat="42.8828850" lon="-5.8635160">
        <ele>1103.4</ele>
        <time>2019-07-21T10:04:15Z</time>
      </trkpt>
      <trkpt lat="42.8830200" lon="-5.8635560">
        <ele>1102.6</ele>
        <time>2019-07-21T10:04:16Z</time>
      </trkpt>
      <trkpt lat="42.8832820" lon="-5.8636120">
        <ele>1101.4</ele>
        <time>2019-07-21T10:04:18Z</time>
      </trkpt>
      <trkpt lat="42.8835360" lon="-5.8636570">
        <ele>1100.2</ele>
        <time>2019-07-21T10:04:20Z</time>
      </trkpt>
      <trkpt lat="42.8836510" lon="-5.8637020">
        <ele>1099.8</ele>
        <time>2019-07-21T10:04:21Z</time>
      </trkpt>
      <trkpt lat="42.8838580" lon="-5.8638670">
        <ele>1099.6</ele>
        <time>2019-07-21T10:04:23Z</time>
      </trkpt>
      <trkpt lat="42.8839880" lon="-5.8641280">
        <ele>1099.8</ele>
        <time>2019-07-21T10:04:25Z</time>
      </trkpt>
      <trkpt lat="42.8840620" lon="-5.8644130">
        <ele>1100.6</ele>
        <time>2019-07-21T10:04:27Z</time>
      </trkpt>
      <trkpt lat="42.8841110" lon="-5.8647080">
        <ele>1101.4</ele>
        <time>2019-07-21T10:04:29Z</time>
      </trkpt>
      <trkpt lat="42.8841320" lon="-5.8648560">
        <ele>1102.0</ele>
        <time>2019-07-21T10:04:30Z</time>
      </trkpt>
      <trkpt lat="42.8841530" lon="-5.8650040">
        <ele>1102.6</ele>
        <time>2019-07-21T10:04:31Z</time>
      </trkpt>
      <trkpt lat="42.8842100" lon="-5.8652930">
        <ele>1103.2</ele>
        <time>2019-07-21T10:04:33Z</time>
      </trkpt>
      <trkpt lat="42.8842900" lon="-5.8655660">
        <ele>1103.4</ele>
        <time>2019-07-21T10:04:35Z</time>
      </trkpt>
      <trkpt lat="42.8843320" lon="-5.8656980">
        <ele>1103.6</ele>
        <time>2019-07-21T10:04:36Z</time>
      </trkpt>
      <trkpt lat="42.8844080" lon="-5.8659610">
        <ele>1103.6</ele>
        <time>2019-07-21T10:04:38Z</time>
      </trkpt>
      <trkpt lat="42.8845120" lon="-5.8664950">
        <ele>1104.2</ele>
        <time>2019-07-21T10:04:42Z</time>
      </trkpt>
      <trkpt lat="42.8845550" lon="-5.8667640">
        <ele>1104.6</ele>
        <time>2019-07-21T10:04:44Z</time>
      </trkpt>
      <trkpt lat="42.8846350" lon="-5.8672860">
        <ele>1105.4</ele>
        <time>2019-07-21T10:04:48Z</time>
      </trkpt>
      <trkpt lat="42.8846630" lon="-5.8674100">
        <ele>1105.8</ele>
        <time>2019-07-21T10:04:49Z</time>
      </trkpt>
      <trkpt lat="42.8846990" lon="-5.8675270">
        <ele>1106.2</ele>
        <time>2019-07-21T10:04:50Z</time>
      </trkpt>
      <trkpt lat="42.8847960" lon="-5.8677430">
        <ele>1106.8</ele>
        <time>2019-07-21T10:04:52Z</time>
      </trkpt>
      <trkpt lat="42.8848650" lon="-5.8678300">
        <ele>1107.0</ele>
        <time>2019-07-21T10:04:53Z</time>
      </trkpt>
      <trkpt lat="42.8849500" lon="-5.8678970">
        <ele>1107.2</ele>
        <time>2019-07-21T10:04:54Z</time>
      </trkpt>
      <trkpt lat="42.8851570" lon="-5.8679500">
        <ele>1107.2</ele>
        <time>2019-07-21T10:04:56Z</time>
      </trkpt>
      <trkpt lat="42.8853850" lon="-5.8678590">
        <ele>1107.0</ele>
        <time>2019-07-21T10:04:58Z</time>
      </trkpt>
      <trkpt lat="42.8856970" lon="-5.8675500">
        <ele>1105.4</ele>
        <time>2019-07-21T10:05:01Z</time>
      </trkpt>
      <trkpt lat="42.8858130" lon="-5.8674640">
        <ele>1104.4</ele>
        <time>2019-07-21T10:05:02Z</time>
      </trkpt>
      <trkpt lat="42.8859390" lon="-5.8674150">
        <ele>1103.4</ele>
        <time>2019-07-21T10:05:03Z</time>
      </trkpt>
      <trkpt lat="42.8860690" lon="-5.8674090">
        <ele>1102.8</ele>
        <time>2019-07-21T10:05:04Z</time>
      </trkpt>
      <trkpt lat="42.8861920" lon="-5.8674460">
        <ele>1102.0</ele>
        <time>2019-07-21T10:05:05Z</time>
      </trkpt>
      <trkpt lat="42.8863010" lon="-5.8675220">
        <ele>1101.4</ele>
        <time>2019-07-21T10:05:06Z</time>
      </trkpt>
      <trkpt lat="42.8863910" lon="-5.8676290">
        <ele>1100.8</ele>
        <time>2019-07-21T10:05:07Z</time>
      </trkpt>
      <trkpt lat="42.8864660" lon="-5.8677500">
        <ele>1100.4</ele>
        <time>2019-07-21T10:05:08Z</time>
      </trkpt>
      <trkpt lat="42.8865160" lon="-5.8678870">
        <ele>1100.2</ele>
        <time>2019-07-21T10:05:09Z</time>
      </trkpt>
      <trkpt lat="42.8866310" lon="-5.8685880">
        <ele>1101.2</ele>
        <time>2019-07-21T10:05:14Z</time>
      </trkpt>
      <trkpt lat="42.8866350" lon="-5.8687280">
        <ele>1102.0</ele>
        <time>2019-07-21T10:05:15Z</time>
      </trkpt>
      <trkpt lat="42.8866320" lon="-5.8688690">
        <ele>1102.4</ele>
        <time>2019-07-21T10:05:16Z</time>
      </trkpt>
      <trkpt lat="42.8866090" lon="-5.8691460">
        <ele>1103.4</ele>
        <time>2019-07-21T10:05:18Z</time>
      </trkpt>
      <trkpt lat="42.8865710" lon="-5.8695560">
        <ele>1104.6</ele>
        <time>2019-07-21T10:05:21Z</time>
      </trkpt>
      <trkpt lat="42.8865360" lon="-5.8699620">
        <ele>1104.8</ele>
        <time>2019-07-21T10:05:24Z</time>
      </trkpt>
      <trkpt lat="42.8864670" lon="-5.8707730">
        <ele>1105.2</ele>
        <time>2019-07-21T10:05:30Z</time>
      </trkpt>
      <trkpt lat="42.8864650" lon="-5.8714690">
        <ele>1105.6</ele>
        <time>2019-07-21T10:05:35Z</time>
      </trkpt>
      <trkpt lat="42.8865350" lon="-5.8717330">
        <ele>1105.6</ele>
        <time>2019-07-21T10:05:37Z</time>
      </trkpt>
      <trkpt lat="42.8869020" lon="-5.8724470">
        <ele>1105.4</ele>
        <time>2019-07-21T10:05:43Z</time>
      </trkpt>
      <trkpt lat="42.8872270" lon="-5.8732050">
        <ele>1104.6</ele>
        <time>2019-07-21T10:05:49Z</time>
      </trkpt>
      <trkpt lat="42.8873520" lon="-5.8734390">
        <ele>1104.0</ele>
        <time>2019-07-21T10:05:51Z</time>
      </trkpt>
      <trkpt lat="42.8875250" lon="-5.8736130">
        <ele>1103.2</ele>
        <time>2019-07-21T10:05:53Z</time>
      </trkpt>
      <trkpt lat="42.8879070" lon="-5.8739170">
        <ele>1102.4</ele>
        <time>2019-07-21T10:05:57Z</time>
      </trkpt>
      <trkpt lat="42.8880490" lon="-5.8741320">
        <ele>1102.4</ele>
        <time>2019-07-21T10:05:59Z</time>
      </trkpt>
      <trkpt lat="42.8882230" lon="-5.8746700">
        <ele>1102.2</ele>
        <time>2019-07-21T10:06:03Z</time>
      </trkpt>
      <trkpt lat="42.8882160" lon="-5.8749850">
        <ele>1102.0</ele>
        <time>2019-07-21T10:06:05Z</time>
      </trkpt>
      <trkpt lat="42.8881410" lon="-5.8752680">
        <ele>1101.8</ele>
        <time>2019-07-21T10:06:07Z</time>
      </trkpt>
      <trkpt lat="42.8878610" lon="-5.8760370">
        <ele>1101.4</ele>
        <time>2019-07-21T10:06:13Z</time>
      </trkpt>
      <trkpt lat="42.8877940" lon="-5.8763010">
        <ele>1101.6</ele>
        <time>2019-07-21T10:06:15Z</time>
      </trkpt>
      <trkpt lat="42.8877810" lon="-5.8771390">
        <ele>1102.4</ele>
        <time>2019-07-21T10:06:21Z</time>
      </trkpt>
      <trkpt lat="42.8878660" lon="-5.8779810">
        <ele>1102.6</ele>
        <time>2019-07-21T10:06:27Z</time>
      </trkpt>
      <trkpt lat="42.8878280" lon="-5.8783740">
        <ele>1103.4</ele>
        <time>2019-07-21T10:06:30Z</time>
      </trkpt>
      <trkpt lat="42.8877640" lon="-5.8788600">
        <ele>1104.6</ele>
        <time>2019-07-21T10:06:34Z</time>
      </trkpt>
      <trkpt lat="42.8877650" lon="-5.8793360">
        <ele>1105.6</ele>
        <time>2019-07-21T10:06:38Z</time>
      </trkpt>
      <trkpt lat="42.8877980" lon="-5.8799170">
        <ele>1106.6</ele>
        <time>2019-07-21T10:06:43Z</time>
      </trkpt>
      <trkpt lat="42.8878150" lon="-5.8804080">
        <ele>1108.0</ele>
        <time>2019-07-21T10:06:47Z</time>
      </trkpt>
      <trkpt lat="42.8878540" lon="-5.8808870">
        <ele>1109.0</ele>
        <time>2019-07-21T10:06:51Z</time>
      </trkpt>
      <trkpt lat="42.8878730" lon="-5.8810020">
        <ele>1109.2</ele>
        <time>2019-07-21T10:06:52Z</time>
      </trkpt>
      <trkpt lat="42.8879350" lon="-5.8812120">
        <ele>1109.4</ele>
        <time>2019-07-21T10:06:54Z</time>
      </trkpt>
      <trkpt lat="42.8880370" lon="-5.8813840">
        <ele>1109.6</ele>
        <time>2019-07-21T10:06:56Z</time>
      </trkpt>
      <trkpt lat="42.8882310" lon="-5.8815700">
        <ele>1110.4</ele>
        <time>2019-07-21T10:06:59Z</time>
      </trkpt>
      <trkpt lat="42.8883010" lon="-5.8816190">
        <ele>1110.8</ele>
        <time>2019-07-21T10:07:00Z</time>
      </trkpt>
      <trkpt lat="42.8884560" lon="-5.8816830">
        <ele>1111.8</ele>
        <time>2019-07-21T10:07:02Z</time>
      </trkpt>
      <trkpt lat="42.8889830" lon="-5.8817260">
        <ele>1112.2</ele>
        <time>2019-07-21T10:07:08Z</time>
      </trkpt>
      <trkpt lat="42.8895540" lon="-5.8817680">
        <ele>1112.8</ele>
        <time>2019-07-21T10:07:14Z</time>
      </trkpt>
      <trkpt lat="42.8897440" lon="-5.8818140">
        <ele>1112.8</ele>
        <time>2019-07-21T10:07:16Z</time>
      </trkpt>
      <trkpt lat="42.8903030" lon="-5.8819930">
        <ele>1112.2</ele>
        <time>2019-07-21T10:07:22Z</time>
      </trkpt>
      <trkpt lat="42.8908660" lon="-5.8820100">
        <ele>1112.2</ele>
        <time>2019-07-21T10:07:28Z</time>
      </trkpt>
      <trkpt lat="42.8913290" lon="-5.8820030">
        <ele>1112.4</ele>
        <time>2019-07-21T10:07:33Z</time>
      </trkpt>
      <trkpt lat="42.8919070" lon="-5.8818080">
        <ele>1113.2</ele>
        <time>2019-07-21T10:07:39Z</time>
      </trkpt>
      <trkpt lat="42.8925240" lon="-5.8817690">
        <ele>1112.4</ele>
        <time>2019-07-21T10:07:45Z</time>
      </trkpt>
      <trkpt lat="42.8927350" lon="-5.8816730">
        <ele>1112.0</ele>
        <time>2019-07-21T10:07:47Z</time>
      </trkpt>
      <trkpt lat="42.8929040" lon="-5.8814500">
        <ele>1111.6</ele>
        <time>2019-07-21T10:07:49Z</time>
      </trkpt>
      <trkpt lat="42.8931610" lon="-5.8808160">
        <ele>1110.4</ele>
        <time>2019-07-21T10:07:53Z</time>
      </trkpt>
      <trkpt lat="42.8932810" lon="-5.8804780">
        <ele>1108.4</ele>
        <time>2019-07-21T10:07:55Z</time>
      </trkpt>
      <trkpt lat="42.8933870" lon="-5.8801170">
        <ele>1106.8</ele>
        <time>2019-07-21T10:07:57Z</time>
      </trkpt>
      <trkpt lat="42.8934610" lon="-5.8797610">
        <ele>1104.8</ele>
        <time>2019-07-21T10:07:59Z</time>
      </trkpt>
      <trkpt lat="42.8935330" lon="-5.8794280">
        <ele>1103.6</ele>
        <time>2019-07-21T10:08:01Z</time>
      </trkpt>
      <trkpt lat="42.8936820" lon="-5.8787870">
        <ele>1102.8</ele>
        <time>2019-07-21T10:08:05Z</time>
      </trkpt>
      <trkpt lat="42.8937380" lon="-5.8786370">
        <ele>1102.4</ele>
        <time>2019-07-21T10:08:06Z</time>
      </trkpt>
      <trkpt lat="42.8938990" lon="-5.8782270">
        <ele>1101.4</ele>
        <time>2019-07-21T10:08:09Z</time>
      </trkpt>
      <trkpt lat="42.8939410" lon="-5.8780900">
        <ele>1101.2</ele>
        <time>2019-07-21T10:08:10Z</time>
      </trkpt>
      <trkpt lat="42.8939730" lon="-5.8779510">
        <ele>1101.2</ele>
        <time>2019-07-21T10:08:11Z</time>
      </trkpt>
      <trkpt lat="42.8939940" lon="-5.8776700">
        <ele>1101.0</ele>
        <time>2019-07-21T10:08:13Z</time>
      </trkpt>
      <trkpt lat="42.8939680" lon="-5.8774020">
        <ele>1101.8</ele>
        <time>2019-07-21T10:08:15Z</time>
      </trkpt>
      <trkpt lat="42.8939090" lon="-5.8771600">
        <ele>1102.6</ele>
        <time>2019-07-21T10:08:17Z</time>
      </trkpt>
      <trkpt lat="42.8938700" lon="-5.8770510">
        <ele>1102.8</ele>
        <time>2019-07-21T10:08:18Z</time>
      </trkpt>
      <trkpt lat="42.8936870" lon="-5.8765460">
        <ele>1104.0</ele>
        <time>2019-07-21T10:08:23Z</time>
      </trkpt>
      <trkpt lat="42.8936520" lon="-5.8761130">
        <ele>1105.2</ele>
        <time>2019-07-21T10:08:27Z</time>
      </trkpt>
      <trkpt lat="42.8936460" lon="-5.8757730">
        <ele>1106.2</ele>
        <time>2019-07-21T10:08:30Z</time>
      </trkpt>
      <trkpt lat="42.8936540" lon="-5.8756550">
        <ele>1106.4</ele>
        <time>2019-07-21T10:08:31Z</time>
      </trkpt>
      <trkpt lat="42.8937130" lon="-5.8754370">
        <ele>1107.0</ele>
        <time>2019-07-21T10:08:33Z</time>
      </trkpt>
      <trkpt lat="42.8937610" lon="-5.8753400">
        <ele>1107.2</ele>
        <time>2019-07-21T10:08:34Z</time>
      </trkpt>
      <trkpt lat="42.8940950" lon="-5.8747590">
        <ele>1107.2</ele>
        <time>2019-07-21T10:08:40Z</time>
      </trkpt>
      <trkpt lat="42.8941390" lon="-5.8746410">
        <ele>1107.2</ele>
        <time>2019-07-21T10:08:41Z</time>
      </trkpt>
      <trkpt lat="42.8941770" lon="-5.8743810">
        <ele>1107.0</ele>
        <time>2019-07-21T10:08:43Z</time>
      </trkpt>
      <trkpt lat="42.8941900" lon="-5.8739730">
        <ele>1106.8</ele>
        <time>2019-07-21T10:08:46Z</time>
      </trkpt>
      <trkpt lat="42.8942610" lon="-5.8737120">
        <ele>1106.6</ele>
        <time>2019-07-21T10:08:48Z</time>
      </trkpt>
      <trkpt lat="42.8945060" lon="-5.8732510">
        <ele>1106.4</ele>
        <time>2019-07-21T10:08:52Z</time>
      </trkpt>
      <trkpt lat="42.8946830" lon="-5.8731000">
        <ele>1106.6</ele>
        <time>2019-07-21T10:08:54Z</time>
      </trkpt>
      <trkpt lat="42.8953050" lon="-5.8729180">
        <ele>1106.2</ele>
        <time>2019-07-21T10:09:00Z</time>
      </trkpt>
      <trkpt lat="42.8954960" lon="-5.8727730">
        <ele>1105.2</ele>
        <time>2019-07-21T10:09:02Z</time>
      </trkpt>
      <trkpt lat="42.8955760" lon="-5.8726640">
        <ele>1104.8</ele>
        <time>2019-07-21T10:09:03Z</time>
      </trkpt>
      <trkpt lat="42.8956460" lon="-5.8725410">
        <ele>1104.6</ele>
        <time>2019-07-21T10:09:04Z</time>
      </trkpt>
      <trkpt lat="42.8957900" lon="-5.8722960">
        <ele>1104.2</ele>
        <time>2019-07-21T10:09:06Z</time>
      </trkpt>
      <trkpt lat="42.8959740" lon="-5.8721140">
        <ele>1104.2</ele>
        <time>2019-07-21T10:09:08Z</time>
      </trkpt>
      <trkpt lat="42.8965260" lon="-5.8718920">
        <ele>1104.4</ele>
        <time>2019-07-21T10:09:13Z</time>
      </trkpt>
      <trkpt lat="42.8969930" lon="-5.8717780">
        <ele>1103.8</ele>
        <time>2019-07-21T10:09:17Z</time>
      </trkpt>
      <trkpt lat="42.8973420" lon="-5.8717100">
        <ele>1103.8</ele>
        <time>2019-07-21T10:09:20Z</time>
      </trkpt>
      <trkpt lat="42.8975600" lon="-5.8716040">
        <ele>1103.6</ele>
        <time>2019-07-21T10:09:22Z</time>
      </trkpt>
      <trkpt lat="42.8980440" lon="-5.8712430">
        <ele>1102.6</ele>
        <time>2019-07-21T10:09:27Z</time>
      </trkpt>
      <trkpt lat="42.8981390" lon="-5.8711910">
        <ele>1102.4</ele>
        <time>2019-07-21T10:09:28Z</time>
      </trkpt>
      <trkpt lat="42.8983280" lon="-5.8711840">
        <ele>1102.0</ele>
        <time>2019-07-21T10:09:30Z</time>
      </trkpt>
      <trkpt lat="42.8984840" lon="-5.8713060">
        <ele>1101.6</ele>
        <time>2019-07-21T10:09:32Z</time>
      </trkpt>
      <trkpt lat="42.8986040" lon="-5.8714790">
        <ele>1101.6</ele>
        <time>2019-07-21T10:09:34Z</time>
      </trkpt>
      <trkpt lat="42.8986740" lon="-5.8715440">
        <ele>1101.6</ele>
        <time>2019-07-21T10:09:35Z</time>
      </trkpt>
      <trkpt lat="42.8987540" lon="-5.8715750">
        <ele>1101.4</ele>
        <time>2019-07-21T10:09:36Z</time>
      </trkpt>
      <trkpt lat="42.8989080" lon="-5.8715450">
        <ele>1101.8</ele>
        <time>2019-07-21T10:09:38Z</time>
      </trkpt>
      <trkpt lat="42.8990350" lon="-5.8714350">
        <ele>1102.6</ele>
        <time>2019-07-21T10:09:40Z</time>
      </trkpt>
      <trkpt lat="42.8992070" lon="-5.8712450">
        <ele>1103.8</ele>
        <time>2019-07-21T10:09:43Z</time>
      </trkpt>
      <trkpt lat="42.8993190" lon="-5.8711220">
        <ele>1105.0</ele>
        <time>2019-07-21T10:09:45Z</time>
      </trkpt>
      <trkpt lat="42.8994880" lon="-5.8709250">
        <ele>1106.2</ele>
        <time>2019-07-21T10:09:48Z</time>
      </trkpt>
      <trkpt lat="42.8996430" lon="-5.8706870">
        <ele>1107.6</ele>
        <time>2019-07-21T10:09:51Z</time>
      </trkpt>
      <trkpt lat="42.8998790" lon="-5.8701670">
        <ele>1108.0</ele>
        <time>2019-07-21T10:09:56Z</time>
      </trkpt>
      <trkpt lat="42.9000840" lon="-5.8693740">
        <ele>1107.0</ele>
        <time>2019-07-21T10:10:02Z</time>
      </trkpt>
      <trkpt lat="42.9000950" lon="-5.8692350">
        <ele>1106.6</ele>
        <time>2019-07-21T10:10:03Z</time>
      </trkpt>
      <trkpt lat="42.9001220" lon="-5.8684210">
        <ele>1107.0</ele>
        <time>2019-07-21T10:10:09Z</time>
      </trkpt>
      <trkpt lat="42.9001510" lon="-5.8680460">
        <ele>1107.8</ele>
        <time>2019-07-21T10:10:12Z</time>
      </trkpt>
      <trkpt lat="42.9001990" lon="-5.8678160">
        <ele>1108.2</ele>
        <time>2019-07-21T10:10:14Z</time>
      </trkpt>
      <trkpt lat="42.9003260" lon="-5.8675340">
        <ele>1108.8</ele>
        <time>2019-07-21T10:10:17Z</time>
      </trkpt>
      <trkpt lat="42.9005520" lon="-5.8671880">
        <ele>1110.0</ele>
        <time>2019-07-21T10:10:22Z</time>
      </trkpt>
      <trkpt lat="42.9005970" lon="-5.8671210">
        <ele>1110.4</ele>
        <time>2019-07-21T10:10:23Z</time>
      </trkpt>
      <trkpt lat="42.9006810" lon="-5.8669830">
        <ele>1111.4</ele>
        <time>2019-07-21T10:10:25Z</time>
      </trkpt>
      <trkpt lat="42.9007810" lon="-5.8667640">
        <ele>1112.6</ele>
        <time>2019-07-21T10:10:28Z</time>
      </trkpt>
      <trkpt lat="42.9008530" lon="-5.8665350">
        <ele>1113.8</ele>
        <time>2019-07-21T10:10:31Z</time>
      </trkpt>
      <trkpt lat="42.9008880" lon="-5.8662200">
        <ele>1115.0</ele>
        <time>2019-07-21T10:10:35Z</time>
      </trkpt>
      <trkpt lat="42.9009130" lon="-5.8659890">
        <ele>1116.2</ele>
        <time>2019-07-21T10:10:38Z</time>
      </trkpt>
      <trkpt lat="42.9009270" lon="-5.8659140">
        <ele>1116.6</ele>
        <time>2019-07-21T10:10:39Z</time>
      </trkpt>
      <trkpt lat="42.9009670" lon="-5.8657670">
        <ele>1117.4</ele>
        <time>2019-07-21T10:10:41Z</time>
      </trkpt>
      <trkpt lat="42.9010310" lon="-5.8655460">
        <ele>1118.4</ele>
        <time>2019-07-21T10:10:44Z</time>
      </trkpt>
      <trkpt lat="42.9011340" lon="-5.8651750">
        <ele>1119.8</ele>
        <time>2019-07-21T10:10:49Z</time>
      </trkpt>
      <trkpt lat="42.9011840" lon="-5.8649470">
        <ele>1120.8</ele>
        <time>2019-07-21T10:10:52Z</time>
      </trkpt>
      <trkpt lat="42.9012380" lon="-5.8646360">
        <ele>1121.8</ele>
        <time>2019-07-21T10:10:56Z</time>
      </trkpt>
      <trkpt lat="42.9012630" lon="-5.8643990">
        <ele>1123.0</ele>
        <time>2019-07-21T10:10:59Z</time>
      </trkpt>
      <trkpt lat="42.9012930" lon="-5.8639710">
        <ele>1124.0</ele>
        <time>2019-07-21T10:11:04Z</time>
      </trkpt>
      <trkpt lat="42.9013190" lon="-5.8634060">
        <ele>1124.8</ele>
        <time>2019-07-21T10:11:10Z</time>
      </trkpt>
      <trkpt lat="42.9013340" lon="-5.8632220">
        <ele>1125.2</ele>
        <time>2019-07-21T10:11:12Z</time>
      </trkpt>
      <trkpt lat="42.9014000" lon="-5.8627620">
        <ele>1126.4</ele>
        <time>2019-07-21T10:11:17Z</time>
      </trkpt>
      <trkpt lat="42.9014750" lon="-5.8622090">
        <ele>1127.4</ele>
        <time>2019-07-21T10:11:23Z</time>
      </trkpt>
      <trkpt lat="42.9014850" lon="-5.8621150">
        <ele>1127.4</ele>
        <time>2019-07-21T10:11:24Z</time>
      </trkpt>
      <trkpt lat="42.9015240" lon="-5.8616400">
        <ele>1128.6</ele>
        <time>2019-07-21T10:11:29Z</time>
      </trkpt>
      <trkpt lat="42.9015390" lon="-5.8611660">
        <ele>1129.6</ele>
        <time>2019-07-21T10:11:34Z</time>
      </trkpt>
      <trkpt lat="42.9015240" lon="-5.8608950">
        <ele>1130.8</ele>
        <time>2019-07-21T10:11:37Z</time>
      </trkpt>
      <trkpt lat="42.9014680" lon="-5.8605680">
        <ele>1132.0</ele>
        <time>2019-07-21T10:11:41Z</time>
      </trkpt>
      <trkpt lat="42.9014400" lon="-5.8603300">
        <ele>1133.2</ele>
        <time>2019-07-21T10:11:44Z</time>
      </trkpt>
      <trkpt lat="42.9014250" lon="-5.8600960">
        <ele>1134.4</ele>
        <time>2019-07-21T10:11:47Z</time>
      </trkpt>
      <trkpt lat="42.9014220" lon="-5.8598710">
        <ele>1135.8</ele>
        <time>2019-07-21T10:11:50Z</time>
      </trkpt>
      <trkpt lat="42.9014210" lon="-5.8595540">
        <ele>1136.8</ele>
        <time>2019-07-21T10:11:54Z</time>
      </trkpt>
      <trkpt lat="42.9014110" lon="-5.8593940">
        <ele>1137.6</ele>
        <time>2019-07-21T10:11:56Z</time>
      </trkpt>
      <trkpt lat="42.9014060" lon="-5.8593130">
        <ele>1138.0</ele>
        <time>2019-07-21T10:11:57Z</time>
      </trkpt>
      <trkpt lat="42.9014010" lon="-5.8590700">
        <ele>1139.4</ele>
        <time>2019-07-21T10:12:00Z</time>
      </trkpt>
      <trkpt lat="42.9014140" lon="-5.8589060">
        <ele>1140.0</ele>
        <time>2019-07-21T10:12:02Z</time>
      </trkpt>
      <trkpt lat="42.9015150" lon="-5.8585050">
        <ele>1140.4</ele>
        <time>2019-07-21T10:12:07Z</time>
      </trkpt>
      <trkpt lat="42.9016510" lon="-5.8580520">
        <ele>1141.4</ele>
        <time>2019-07-21T10:12:13Z</time>
      </trkpt>
      <trkpt lat="42.9017030" lon="-5.8578250">
        <ele>1142.0</ele>
        <time>2019-07-21T10:12:16Z</time>
      </trkpt>
      <trkpt lat="42.9017050" lon="-5.8576660">
        <ele>1142.6</ele>
        <time>2019-07-21T10:12:18Z</time>
      </trkpt>
      <trkpt lat="42.9016900" lon="-5.8574340">
        <ele>1143.6</ele>
        <time>2019-07-21T10:12:21Z</time>
      </trkpt>
      <trkpt lat="42.9016700" lon="-5.8572130">
        <ele>1144.8</ele>
        <time>2019-07-21T10:12:24Z</time>
      </trkpt>
      <trkpt lat="42.9016340" lon="-5.8569180">
        <ele>1146.0</ele>
        <time>2019-07-21T10:12:28Z</time>
      </trkpt>
      <trkpt lat="42.9016480" lon="-5.8566280">
        <ele>1147.2</ele>
        <time>2019-07-21T10:12:32Z</time>
      </trkpt>
      <trkpt lat="42.9017110" lon="-5.8563440">
        <ele>1148.2</ele>
        <time>2019-07-21T10:12:36Z</time>
      </trkpt>
      <trkpt lat="42.9017890" lon="-5.8560590">
        <ele>1149.2</ele>
        <time>2019-07-21T10:12:40Z</time>
      </trkpt>
      <trkpt lat="42.9018440" lon="-5.8557650">
        <ele>1150.4</ele>
        <time>2019-07-21T10:12:44Z</time>
      </trkpt>
      <trkpt lat="42.9018540" lon="-5.8555490">
        <ele>1151.4</ele>
        <time>2019-07-21T10:12:47Z</time>
      </trkpt>
      <trkpt lat="42.9018740" lon="-5.8552690">
        <ele>1152.6</ele>
        <time>2019-07-21T10:12:51Z</time>
      </trkpt>
      <trkpt lat="42.9019220" lon="-5.8549940">
        <ele>1153.8</ele>
        <time>2019-07-21T10:12:55Z</time>
      </trkpt>
      <trkpt lat="42.9019970" lon="-5.8547420">
        <ele>1155.0</ele>
        <time>2019-07-21T10:12:59Z</time>
      </trkpt>
      <trkpt lat="42.9020120" lon="-5.8546790">
        <ele>1155.0</ele>
        <time>2019-07-21T10:13:00Z</time>
      </trkpt>
      <trkpt lat="42.9020440" lon="-5.8544800">
        <ele>1156.2</ele>
        <time>2019-07-21T10:13:03Z</time>
      </trkpt>
      <trkpt lat="42.9020760" lon="-5.8542830">
        <ele>1157.2</ele>
        <time>2019-07-21T10:13:06Z</time>
      </trkpt>
      <trkpt lat="42.9021070" lon="-5.8540880">
        <ele>1158.2</ele>
        <time>2019-07-21T10:13:09Z</time>
      </trkpt>
      <trkpt lat="42.9021520" lon="-5.8538970">
        <ele>1159.2</ele>
        <time>2019-07-21T10:13:12Z</time>
      </trkpt>
      <trkpt lat="42.9021730" lon="-5.8538380">
        <ele>1159.6</ele>
        <time>2019-07-21T10:13:13Z</time>
      </trkpt>
      <trkpt lat="42.9022470" lon="-5.8536730">
        <ele>1160.6</ele>
        <time>2019-07-21T10:13:16Z</time>
      </trkpt>
      <trkpt lat="42.9024120" lon="-5.8534260">
        <ele>1161.8</ele>
        <time>2019-07-21T10:13:21Z</time>
      </trkpt>
      <trkpt lat="42.9025100" lon="-5.8532860">
        <ele>1162.6</ele>
        <time>2019-07-21T10:13:24Z</time>
      </trkpt>
      <trkpt lat="42.9025420" lon="-5.8532360">
        <ele>1163.0</ele>
        <time>2019-07-21T10:13:25Z</time>
      </trkpt>
      <trkpt lat="42.9026630" lon="-5.8530270">
        <ele>1164.0</ele>
        <time>2019-07-21T10:13:29Z</time>
      </trkpt>
      <trkpt lat="42.9028100" lon="-5.8527710">
        <ele>1165.4</ele>
        <time>2019-07-21T10:13:34Z</time>
      </trkpt>
      <trkpt lat="42.9028640" lon="-5.8526670">
        <ele>1165.8</ele>
        <time>2019-07-21T10:13:36Z</time>
      </trkpt>
      <trkpt lat="42.9029130" lon="-5.8525550">
        <ele>1166.4</ele>
        <time>2019-07-21T10:13:38Z</time>
      </trkpt>
      <trkpt lat="42.9029440" lon="-5.8524300">
        <ele>1166.8</ele>
        <time>2019-07-21T10:13:40Z</time>
      </trkpt>
      <trkpt lat="42.9029600" lon="-5.8523000">
        <ele>1167.4</ele>
        <time>2019-07-21T10:13:42Z</time>
      </trkpt>
      <trkpt lat="42.9029780" lon="-5.8520460">
        <ele>1168.6</ele>
        <time>2019-07-21T10:13:46Z</time>
      </trkpt>
      <trkpt lat="42.9030410" lon="-5.8516640">
        <ele>1169.8</ele>
        <time>2019-07-21T10:13:52Z</time>
      </trkpt>
      <trkpt lat="42.9031050" lon="-5.8514280">
        <ele>1171.0</ele>
        <time>2019-07-21T10:13:56Z</time>
      </trkpt>
      <trkpt lat="42.9031820" lon="-5.8511310">
        <ele>1172.2</ele>
        <time>2019-07-21T10:14:01Z</time>
      </trkpt>
      <trkpt lat="42.9031920" lon="-5.8510020">
        <ele>1172.8</ele>
        <time>2019-07-21T10:14:03Z</time>
      </trkpt>
      <trkpt lat="42.9031800" lon="-5.8508670">
        <ele>1173.4</ele>
        <time>2019-07-21T10:14:05Z</time>
      </trkpt>
      <trkpt lat="42.9031420" lon="-5.8506750">
        <ele>1174.8</ele>
        <time>2019-07-21T10:14:08Z</time>
      </trkpt>
      <trkpt lat="42.9030820" lon="-5.8504300">
        <ele>1176.0</ele>
        <time>2019-07-21T10:14:12Z</time>
      </trkpt>
      <trkpt lat="42.9030350" lon="-5.8501860">
        <ele>1177.2</ele>
        <time>2019-07-21T10:14:16Z</time>
      </trkpt>
      <trkpt lat="42.9030100" lon="-5.8499990">
        <ele>1178.2</ele>
        <time>2019-07-21T10:14:19Z</time>
      </trkpt>
      <trkpt lat="42.9029790" lon="-5.8496880">
        <ele>1179.4</ele>
        <time>2019-07-21T10:14:24Z</time>
      </trkpt>
      <trkpt lat="42.9029740" lon="-5.8495060">
        <ele>1180.4</ele>
        <time>2019-07-21T10:14:27Z</time>
      </trkpt>
      <trkpt lat="42.9029700" lon="-5.8491990">
        <ele>1181.6</ele>
        <time>2019-07-21T10:14:32Z</time>
      </trkpt>
      <trkpt lat="42.9029750" lon="-5.8490180">
        <ele>1182.8</ele>
        <time>2019-07-21T10:14:35Z</time>
      </trkpt>
      <trkpt lat="42.9029780" lon="-5.8488410">
        <ele>1183.6</ele>
        <time>2019-07-21T10:14:38Z</time>
      </trkpt>
      <trkpt lat="42.9029740" lon="-5.8487800">
        <ele>1183.8</ele>
        <time>2019-07-21T10:14:39Z</time>
      </trkpt>
      <trkpt lat="42.9029320" lon="-5.8485330">
        <ele>1184.8</ele>
        <time>2019-07-21T10:14:43Z</time>
      </trkpt>
      <trkpt lat="42.9028720" lon="-5.8482340">
        <ele>1186.2</ele>
        <time>2019-07-21T10:14:48Z</time>
      </trkpt>
      <trkpt lat="42.9028550" lon="-5.8481180">
        <ele>1186.8</ele>
        <time>2019-07-21T10:14:50Z</time>
      </trkpt>
      <trkpt lat="42.9028540" lon="-5.8480000">
        <ele>1187.4</ele>
        <time>2019-07-21T10:14:52Z</time>
      </trkpt>
      <trkpt lat="42.9028620" lon="-5.8477540">
        <ele>1188.6</ele>
        <time>2019-07-21T10:14:56Z</time>
      </trkpt>
      <trkpt lat="42.9028710" lon="-5.8475170">
        <ele>1189.8</ele>
        <time>2019-07-21T10:15:00Z</time>
      </trkpt>
      <trkpt lat="42.9028810" lon="-5.8473460">
        <ele>1191.0</ele>
        <time>2019-07-21T10:15:03Z</time>
      </trkpt>
      <trkpt lat="42.9029520" lon="-5.8471130">
        <ele>1192.2</ele>
        <time>2019-07-21T10:15:07Z</time>
      </trkpt>
      <trkpt lat="42.9030290" lon="-5.8469000">
        <ele>1193.4</ele>
        <time>2019-07-21T10:15:11Z</time>
      </trkpt>
      <trkpt lat="42.9030480" lon="-5.8468490">
        <ele>1193.6</ele>
        <time>2019-07-21T10:15:12Z</time>
      </trkpt>
      <trkpt lat="42.9030740" lon="-5.8467400">
        <ele>1194.0</ele>
        <time>2019-07-21T10:15:14Z</time>
      </trkpt>
      <trkpt lat="42.9030820" lon="-5.8466210">
        <ele>1194.4</ele>
        <time>2019-07-21T10:15:16Z</time>
      </trkpt>
      <trkpt lat="42.9030780" lon="-5.8465580">
        <ele>1194.6</ele>
        <time>2019-07-21T10:15:17Z</time>
      </trkpt>
      <trkpt lat="42.9030250" lon="-5.8462620">
        <ele>1195.8</ele>
        <time>2019-07-21T10:15:22Z</time>
      </trkpt>
      <trkpt lat="42.9030050" lon="-5.8460790">
        <ele>1196.8</ele>
        <time>2019-07-21T10:15:25Z</time>
      </trkpt>
      <trkpt lat="42.9030060" lon="-5.8459590">
        <ele>1197.2</ele>
        <time>2019-07-21T10:15:27Z</time>
      </trkpt>
      <trkpt lat="42.9030350" lon="-5.8457840">
        <ele>1197.8</ele>
        <time>2019-07-21T10:15:30Z</time>
      </trkpt>
      <trkpt lat="42.9031260" lon="-5.8455060">
        <ele>1198.8</ele>
        <time>2019-07-21T10:15:35Z</time>
      </trkpt>
      <trkpt lat="42.9031640" lon="-5.8453960">
        <ele>1199.4</ele>
        <time>2019-07-21T10:15:37Z</time>
      </trkpt>
      <trkpt lat="42.9032250" lon="-5.8452360">
        <ele>1200.0</ele>
        <time>2019-07-21T10:15:40Z</time>
      </trkpt>
      <trkpt lat="42.9033030" lon="-5.8450180">
        <ele>1201.0</ele>
        <time>2019-07-21T10:15:44Z</time>
      </trkpt>
      <trkpt lat="42.9033680" lon="-5.8448630">
        <ele>1202.0</ele>
        <time>2019-07-21T10:15:47Z</time>
      </trkpt>
      <trkpt lat="42.9034470" lon="-5.8446530">
        <ele>1203.2</ele>
        <time>2019-07-21T10:15:51Z</time>
      </trkpt>
      <trkpt lat="42.9035230" lon="-5.8444590">
        <ele>1204.6</ele>
        <time>2019-07-21T10:15:55Z</time>
      </trkpt>
      <trkpt lat="42.9035700" lon="-5.8443020">
        <ele>1205.6</ele>
        <time>2019-07-21T10:15:58Z</time>
      </trkpt>
      <trkpt lat="42.9036120" lon="-5.8440310">
        <ele>1206.8</ele>
        <time>2019-07-21T10:16:03Z</time>
      </trkpt>
      <trkpt lat="42.9036210" lon="-5.8438280">
        <ele>1208.0</ele>
        <time>2019-07-21T10:16:07Z</time>
      </trkpt>
      <trkpt lat="42.9036170" lon="-5.8436250">
        <ele>1209.0</ele>
        <time>2019-07-21T10:16:11Z</time>
      </trkpt>
      <trkpt lat="42.9036100" lon="-5.8434700">
        <ele>1209.8</ele>
        <time>2019-07-21T10:16:14Z</time>
      </trkpt>
      <trkpt lat="42.9036050" lon="-5.8433620">
        <ele>1210.2</ele>
        <time>2019-07-21T10:16:16Z</time>
      </trkpt>
      <trkpt lat="42.9035810" lon="-5.8430990">
        <ele>1211.2</ele>
        <time>2019-07-21T10:16:21Z</time>
      </trkpt>
      <trkpt lat="42.9035690" lon="-5.8428300">
        <ele>1212.2</ele>
        <time>2019-07-21T10:16:26Z</time>
      </trkpt>
      <trkpt lat="42.9035740" lon="-5.8426200">
        <ele>1213.4</ele>
        <time>2019-07-21T10:16:30Z</time>
      </trkpt>
      <trkpt lat="42.9035970" lon="-5.8424110">
        <ele>1214.6</ele>
        <time>2019-07-21T10:16:34Z</time>
      </trkpt>
      <trkpt lat="42.9036480" lon="-5.8421450">
        <ele>1215.8</ele>
        <time>2019-07-21T10:16:39Z</time>
      </trkpt>
      <trkpt lat="42.9036600" lon="-5.8420930">
        <ele>1216.0</ele>
        <time>2019-07-21T10:16:40Z</time>
      </trkpt>
      <trkpt lat="42.9037170" lon="-5.8419340">
        <ele>1217.0</ele>
        <time>2019-07-21T10:16:43Z</time>
      </trkpt>
      <trkpt lat="42.9037310" lon="-5.8418760">
        <ele>1217.2</ele>
        <time>2019-07-21T10:16:44Z</time>
      </trkpt>
      <trkpt lat="42.9037390" lon="-5.8417480">
        <ele>1217.8</ele>
        <time>2019-07-21T10:16:46Z</time>
      </trkpt>
      <trkpt lat="42.9037280" lon="-5.8416840">
        <ele>1218.0</ele>
        <time>2019-07-21T10:16:47Z</time>
      </trkpt>
      <trkpt lat="42.9037040" lon="-5.8416300">
        <ele>1218.4</ele>
        <time>2019-07-21T10:16:48Z</time>
      </trkpt>
      <trkpt lat="42.9036470" lon="-5.8415340">
        <ele>1219.4</ele>
        <time>2019-07-21T10:16:50Z</time>
      </trkpt>
      <trkpt lat="42.9035630" lon="-5.8413280">
        <ele>1220.6</ele>
        <time>2019-07-21T10:16:54Z</time>
      </trkpt>
      <trkpt lat="42.9034930" lon="-5.8411080">
        <ele>1221.8</ele>
        <time>2019-07-21T10:16:58Z</time>
      </trkpt>
      <trkpt lat="42.9034170" lon="-5.8408090">
        <ele>1222.8</ele>
        <time>2019-07-21T10:17:03Z</time>
      </trkpt>
      <trkpt lat="42.9033640" lon="-5.8405590">
        <ele>1223.6</ele>
        <time>2019-07-21T10:17:07Z</time>
      </trkpt>
      <trkpt lat="42.9033580" lon="-5.8404250">
        <ele>1224.0</ele>
        <time>2019-07-21T10:17:09Z</time>
      </trkpt>
      <trkpt lat="42.9033690" lon="-5.8399830">
        <ele>1224.6</ele>
        <time>2019-07-21T10:17:15Z</time>
      </trkpt>
      <trkpt lat="42.9033870" lon="-5.8395910">
        <ele>1225.0</ele>
        <time>2019-07-21T10:17:20Z</time>
      </trkpt>
      <trkpt lat="42.9034110" lon="-5.8392040">
        <ele>1226.0</ele>
        <time>2019-07-21T10:17:25Z</time>
      </trkpt>
      <trkpt lat="42.9034170" lon="-5.8388220">
        <ele>1227.2</ele>
        <time>2019-07-21T10:17:30Z</time>
      </trkpt>
      <trkpt lat="42.9034250" lon="-5.8385370">
        <ele>1228.2</ele>
        <time>2019-07-21T10:17:34Z</time>
      </trkpt>
      <trkpt lat="42.9034400" lon="-5.8382720">
        <ele>1229.2</ele>
        <time>2019-07-21T10:17:38Z</time>
      </trkpt>
      <trkpt lat="42.9034680" lon="-5.8380160">
        <ele>1230.4</ele>
        <time>2019-07-21T10:17:42Z</time>
      </trkpt>
      <trkpt lat="42.9035110" lon="-5.8378400">
        <ele>1231.4</ele>
        <time>2019-07-21T10:17:45Z</time>
      </trkpt>
      <trkpt lat="42.9035510" lon="-5.8377280">
        <ele>1232.6</ele>
        <time>2019-07-21T10:17:47Z</time>
      </trkpt>
      <trkpt lat="42.9036020" lon="-5.8376210">
        <ele>1233.2</ele>
        <time>2019-07-21T10:17:49Z</time>
      </trkpt>
      <trkpt lat="42.9036690" lon="-5.8375310">
        <ele>1233.6</ele>
        <time>2019-07-21T10:17:51Z</time>
      </trkpt>
      <trkpt lat="42.9038330" lon="-5.8374030">
        <ele>1234.8</ele>
        <time>2019-07-21T10:17:55Z</time>
      </trkpt>
      <trkpt lat="42.9040040" lon="-5.8372810">
        <ele>1235.8</ele>
        <time>2019-07-21T10:17:59Z</time>
      </trkpt>
      <trkpt lat="42.9041730" lon="-5.8371540">
        <ele>1236.8</ele>
        <time>2019-07-21T10:18:03Z</time>
      </trkpt>
      <trkpt lat="42.9042060" lon="-5.8371080">
        <ele>1237.2</ele>
        <time>2019-07-21T10:18:04Z</time>
      </trkpt>
      <trkpt lat="42.9042270" lon="-5.8370480">
        <ele>1237.6</ele>
        <time>2019-07-21T10:18:05Z</time>
      </trkpt>
      <trkpt lat="42.9042310" lon="-5.8369100">
        <ele>1238.2</ele>
        <time>2019-07-21T10:18:07Z</time>
      </trkpt>
      <trkpt lat="42.9041840" lon="-5.8367820">
        <ele>1238.6</ele>
        <time>2019-07-21T10:18:09Z</time>
      </trkpt>
      <trkpt lat="42.9041140" lon="-5.8366770">
        <ele>1239.2</ele>
        <time>2019-07-21T10:18:11Z</time>
      </trkpt>
      <trkpt lat="42.9040760" lon="-5.8366340">
        <ele>1239.4</ele>
        <time>2019-07-21T10:18:12Z</time>
      </trkpt>
      <trkpt lat="42.9040060" lon="-5.8365370">
        <ele>1240.0</ele>
        <time>2019-07-21T10:18:14Z</time>
      </trkpt>
      <trkpt lat="42.9039780" lon="-5.8364820">
        <ele>1240.4</ele>
        <time>2019-07-21T10:18:15Z</time>
      </trkpt>
      <trkpt lat="42.9039100" lon="-5.8363060">
        <ele>1241.6</ele>
        <time>2019-07-21T10:18:18Z</time>
      </trkpt>
      <trkpt lat="42.9038190" lon="-5.8359920">
        <ele>1242.8</ele>
        <time>2019-07-21T10:18:23Z</time>
      </trkpt>
      <trkpt lat="42.9037660" lon="-5.8357440">
        <ele>1243.8</ele>
        <time>2019-07-21T10:18:27Z</time>
      </trkpt>
      <trkpt lat="42.9037190" lon="-5.8354960">
        <ele>1245.2</ele>
        <time>2019-07-21T10:18:31Z</time>
      </trkpt>
      <trkpt lat="42.9036890" lon="-5.8352430">
        <ele>1246.6</ele>
        <time>2019-07-21T10:18:35Z</time>
      </trkpt>
      <trkpt lat="42.9036840" lon="-5.8349900">
        <ele>1247.8</ele>
        <time>2019-07-21T10:18:39Z</time>
      </trkpt>
      <trkpt lat="42.9036890" lon="-5.8349280">
        <ele>1248.2</ele>
        <time>2019-07-21T10:18:40Z</time>
      </trkpt>
      <trkpt lat="42.9037070" lon="-5.8348060">
        <ele>1248.8</ele>
        <time>2019-07-21T10:18:42Z</time>
      </trkpt>
      <trkpt lat="42.9037510" lon="-5.8345790">
        <ele>1249.8</ele>
        <time>2019-07-21T10:18:46Z</time>
      </trkpt>
      <trkpt lat="42.9037930" lon="-5.8344140">
        <ele>1250.8</ele>
        <time>2019-07-21T10:18:49Z</time>
      </trkpt>
      <trkpt lat="42.9038070" lon="-5.8343610">
        <ele>1251.2</ele>
        <time>2019-07-21T10:18:50Z</time>
      </trkpt>
      <trkpt lat="42.9038730" lon="-5.8341530">
        <ele>1252.2</ele>
        <time>2019-07-21T10:18:54Z</time>
      </trkpt>
      <trkpt lat="42.9039490" lon="-5.8339560">
        <ele>1253.4</ele>
        <time>2019-07-21T10:18:58Z</time>
      </trkpt>
      <trkpt lat="42.9040070" lon="-5.8337510">
        <ele>1254.4</ele>
        <time>2019-07-21T10:19:02Z</time>
      </trkpt>
      <trkpt lat="42.9040450" lon="-5.8335310">
        <ele>1255.4</ele>
        <time>2019-07-21T10:19:06Z</time>
      </trkpt>
      <trkpt lat="42.9040720" lon="-5.8333130">
        <ele>1256.6</ele>
        <time>2019-07-21T10:19:10Z</time>
      </trkpt>
      <trkpt lat="42.9041310" lon="-5.8330490">
        <ele>1257.8</ele>
        <time>2019-07-21T10:19:15Z</time>
      </trkpt>
      <trkpt lat="42.9041760" lon="-5.8328940">
        <ele>1258.6</ele>
        <time>2019-07-21T10:19:18Z</time>
      </trkpt>
      <trkpt lat="42.9042150" lon="-5.8327990">
        <ele>1259.0</ele>
        <time>2019-07-21T10:19:20Z</time>
      </trkpt>
      <trkpt lat="42.9043080" lon="-5.8326150">
        <ele>1260.0</ele>
        <time>2019-07-21T10:19:24Z</time>
      </trkpt>
      <trkpt lat="42.9044320" lon="-5.8323820">
        <ele>1261.4</ele>
        <time>2019-07-21T10:19:29Z</time>
      </trkpt>
      <trkpt lat="42.9044930" lon="-5.8321690">
        <ele>1262.4</ele>
        <time>2019-07-21T10:19:33Z</time>
      </trkpt>
      <trkpt lat="42.9045310" lon="-5.8319490">
        <ele>1263.6</ele>
        <time>2019-07-21T10:19:37Z</time>
      </trkpt>
      <trkpt lat="42.9045910" lon="-5.8316760">
        <ele>1264.8</ele>
        <time>2019-07-21T10:19:42Z</time>
      </trkpt>
      <trkpt lat="42.9046020" lon="-5.8316210">
        <ele>1265.0</ele>
        <time>2019-07-21T10:19:43Z</time>
      </trkpt>
      <trkpt lat="42.9046390" lon="-5.8314530">
        <ele>1266.0</ele>
        <time>2019-07-21T10:19:46Z</time>
      </trkpt>
      <trkpt lat="42.9046800" lon="-5.8311700">
        <ele>1267.0</ele>
        <time>2019-07-21T10:19:51Z</time>
      </trkpt>
      <trkpt lat="42.9047180" lon="-5.8309480">
        <ele>1268.2</ele>
        <time>2019-07-21T10:19:55Z</time>
      </trkpt>
      <trkpt lat="42.9047530" lon="-5.8306810">
        <ele>1269.2</ele>
        <time>2019-07-21T10:20:00Z</time>
      </trkpt>
      <trkpt lat="42.9047880" lon="-5.8303510">
        <ele>1270.2</ele>
        <time>2019-07-21T10:20:06Z</time>
      </trkpt>
      <trkpt lat="42.9048210" lon="-5.8300760">
        <ele>1271.6</ele>
        <time>2019-07-21T10:20:11Z</time>
      </trkpt>
      <trkpt lat="42.9048610" lon="-5.8298670">
        <ele>1272.8</ele>
        <time>2019-07-21T10:20:15Z</time>
      </trkpt>
      <trkpt lat="42.9049040" lon="-5.8296590">
        <ele>1273.8</ele>
        <time>2019-07-21T10:20:19Z</time>
      </trkpt>
      <trkpt lat="42.9049510" lon="-5.8294570">
        <ele>1274.8</ele>
        <time>2019-07-21T10:20:23Z</time>
      </trkpt>
      <trkpt lat="42.9050000" lon="-5.8292410">
        <ele>1275.8</ele>
        <time>2019-07-21T10:20:27Z</time>
      </trkpt>
      <trkpt lat="42.9050170" lon="-5.8291880">
        <ele>1276.2</ele>
        <time>2019-07-21T10:20:28Z</time>
      </trkpt>
      <trkpt lat="42.9050870" lon="-5.8289710">
        <ele>1277.2</ele>
        <time>2019-07-21T10:20:32Z</time>
      </trkpt>
      <trkpt lat="42.9051530" lon="-5.8288200">
        <ele>1278.4</ele>
        <time>2019-07-21T10:20:35Z</time>
      </trkpt>
      <trkpt lat="42.9052430" lon="-5.8286230">
        <ele>1279.6</ele>
        <time>2019-07-21T10:20:39Z</time>
      </trkpt>
      <trkpt lat="42.9053970" lon="-5.8283960">
        <ele>1280.8</ele>
        <time>2019-07-21T10:20:44Z</time>
      </trkpt>
      <trkpt lat="42.9055060" lon="-5.8282780">
        <ele>1282.0</ele>
        <time>2019-07-21T10:20:47Z</time>
      </trkpt>
      <trkpt lat="42.9056610" lon="-5.8281510">
        <ele>1283.0</ele>
        <time>2019-07-21T10:20:51Z</time>
      </trkpt>
      <trkpt lat="42.9057660" lon="-5.8280400">
        <ele>1284.2</ele>
        <time>2019-07-21T10:20:54Z</time>
      </trkpt>
      <trkpt lat="42.9058720" lon="-5.8279410">
        <ele>1285.4</ele>
        <time>2019-07-21T10:20:57Z</time>
      </trkpt>
      <trkpt lat="42.9060540" lon="-5.8277730">
        <ele>1286.4</ele>
        <time>2019-07-21T10:21:02Z</time>
      </trkpt>
      <trkpt lat="42.9062910" lon="-5.8276120">
        <ele>1287.6</ele>
        <time>2019-07-21T10:21:08Z</time>
      </trkpt>
      <trkpt lat="42.9064090" lon="-5.8275430">
        <ele>1288.2</ele>
        <time>2019-07-21T10:21:11Z</time>
      </trkpt>
      <trkpt lat="42.9064900" lon="-5.8275090">
        <ele>1288.8</ele>
        <time>2019-07-21T10:21:13Z</time>
      </trkpt>
      <trkpt lat="42.9066020" lon="-5.8274370">
        <ele>1289.6</ele>
        <time>2019-07-21T10:21:16Z</time>
      </trkpt>
      <trkpt lat="42.9066420" lon="-5.8274140">
        <ele>1289.8</ele>
        <time>2019-07-21T10:21:17Z</time>
      </trkpt>
      <trkpt lat="42.9066830" lon="-5.8273940">
        <ele>1290.0</ele>
        <time>2019-07-21T10:21:18Z</time>
      </trkpt>
      <trkpt lat="42.9068270" lon="-5.8273240">
        <ele>1291.0</ele>
        <time>2019-07-21T10:21:22Z</time>
      </trkpt>
      <trkpt lat="42.9069680" lon="-5.8272770">
        <ele>1292.0</ele>
        <time>2019-07-21T10:21:26Z</time>
      </trkpt>
      <trkpt lat="42.9071110" lon="-5.8272310">
        <ele>1293.0</ele>
        <time>2019-07-21T10:21:30Z</time>
      </trkpt>
      <trkpt lat="42.9072720" lon="-5.8272070">
        <ele>1294.2</ele>
        <time>2019-07-21T10:21:35Z</time>
      </trkpt>
      <trkpt lat="42.9073050" lon="-5.8272040">
        <ele>1294.6</ele>
        <time>2019-07-21T10:21:36Z</time>
      </trkpt>
      <trkpt lat="42.9073730" lon="-5.8271880">
        <ele>1295.0</ele>
        <time>2019-07-21T10:21:38Z</time>
      </trkpt>
      <trkpt lat="42.9074440" lon="-5.8271730">
        <ele>1295.4</ele>
        <time>2019-07-21T10:21:40Z</time>
      </trkpt>
      <trkpt lat="42.9075850" lon="-5.8271830">
        <ele>1296.6</ele>
        <time>2019-07-21T10:21:44Z</time>
      </trkpt>
      <trkpt lat="42.9077200" lon="-5.8271690">
        <ele>1297.8</ele>
        <time>2019-07-21T10:21:48Z</time>
      </trkpt>
      <trkpt lat="42.9078580" lon="-5.8271220">
        <ele>1298.8</ele>
        <time>2019-07-21T10:21:52Z</time>
      </trkpt>
      <trkpt lat="42.9079930" lon="-5.8270560">
        <ele>1300.0</ele>
        <time>2019-07-21T10:21:56Z</time>
      </trkpt>
      <trkpt lat="42.9080610" lon="-5.8270250">
        <ele>1300.4</ele>
        <time>2019-07-21T10:21:58Z</time>
      </trkpt>
      <trkpt lat="42.9081570" lon="-5.8269830">
        <ele>1301.2</ele>
        <time>2019-07-21T10:22:01Z</time>
      </trkpt>
      <trkpt lat="42.9082940" lon="-5.8269610">
        <ele>1302.2</ele>
        <time>2019-07-21T10:22:05Z</time>
      </trkpt>
      <trkpt lat="42.9084350" lon="-5.8269170">
        <ele>1303.4</ele>
        <time>2019-07-21T10:22:09Z</time>
      </trkpt>
      <trkpt lat="42.9085550" lon="-5.8268170">
        <ele>1304.4</ele>
        <time>2019-07-21T10:22:13Z</time>
      </trkpt>
      <trkpt lat="42.9086600" lon="-5.8266960">
        <ele>1305.6</ele>
        <time>2019-07-21T10:22:17Z</time>
      </trkpt>
      <trkpt lat="42.9086950" lon="-5.8264700">
        <ele>1306.8</ele>
        <time>2019-07-21T10:22:22Z</time>
      </trkpt>
      <trkpt lat="42.9086710" lon="-5.8264270">
        <ele>1307.0</ele>
        <time>2019-07-21T10:22:23Z</time>
      </trkpt>
      <trkpt lat="42.9085230" lon="-5.8263570">
        <ele>1308.0</ele>
        <time>2019-07-21T10:22:27Z</time>
      </trkpt>
      <trkpt lat="42.9083160" lon="-5.8263790">
        <ele>1309.0</ele>
        <time>2019-07-21T10:22:32Z</time>
      </trkpt>
      <trkpt lat="42.9081640" lon="-5.8263630">
        <ele>1310.0</ele>
        <time>2019-07-21T10:22:36Z</time>
      </trkpt>
      <trkpt lat="42.9079260" lon="-5.8263150">
        <ele>1311.2</ele>
        <time>2019-07-21T10:22:42Z</time>
      </trkpt>
      <trkpt lat="42.9077350" lon="-5.8262520">
        <ele>1312.4</ele>
        <time>2019-07-21T10:22:47Z</time>
      </trkpt>
      <trkpt lat="42.9075410" lon="-5.8261910">
        <ele>1313.6</ele>
        <time>2019-07-21T10:22:52Z</time>
      </trkpt>
      <trkpt lat="42.9073370" lon="-5.8261490">
        <ele>1314.8</ele>
        <time>2019-07-21T10:22:57Z</time>
      </trkpt>
      <trkpt lat="42.9071020" lon="-5.8260500">
        <ele>1315.8</ele>
        <time>2019-07-21T10:23:03Z</time>
      </trkpt>
      <trkpt lat="42.9069500" lon="-5.8259620">
        <ele>1316.8</ele>
        <time>2019-07-21T10:23:07Z</time>
      </trkpt>
      <trkpt lat="42.9069120" lon="-5.8259370">
        <ele>1317.0</ele>
        <time>2019-07-21T10:23:08Z</time>
      </trkpt>
      <trkpt lat="42.9068340" lon="-5.8258950">
        <ele>1317.2</ele>
        <time>2019-07-21T10:23:10Z</time>
      </trkpt>
      <trkpt lat="42.9067240" lon="-5.8258100">
        <ele>1317.8</ele>
        <time>2019-07-21T10:23:13Z</time>
      </trkpt>
      <trkpt lat="42.9066860" lon="-5.8257840">
        <ele>1318.2</ele>
        <time>2019-07-21T10:23:14Z</time>
      </trkpt>
      <trkpt lat="42.9064980" lon="-5.8256600">
        <ele>1319.2</ele>
        <time>2019-07-21T10:23:19Z</time>
      </trkpt>
      <trkpt lat="42.9063580" lon="-5.8255440">
        <ele>1320.2</ele>
        <time>2019-07-21T10:23:23Z</time>
      </trkpt>
      <trkpt lat="42.9063220" lon="-5.8255170">
        <ele>1320.4</ele>
        <time>2019-07-21T10:23:24Z</time>
      </trkpt>
      <trkpt lat="42.9061760" lon="-5.8254070">
        <ele>1321.2</ele>
        <time>2019-07-21T10:23:28Z</time>
      </trkpt>
      <trkpt lat="42.9060990" lon="-5.8253590">
        <ele>1321.6</ele>
        <time>2019-07-21T10:23:30Z</time>
      </trkpt>
      <trkpt lat="42.9060170" lon="-5.8253260">
        <ele>1322.2</ele>
        <time>2019-07-21T10:23:32Z</time>
      </trkpt>
      <trkpt lat="42.9059720" lon="-5.8253200">
        <ele>1322.6</ele>
        <time>2019-07-21T10:23:33Z</time>
      </trkpt>
      <trkpt lat="42.9059260" lon="-5.8253280">
        <ele>1322.8</ele>
        <time>2019-07-21T10:23:34Z</time>
      </trkpt>
      <trkpt lat="42.9057760" lon="-5.8253690">
        <ele>1323.2</ele>
        <time>2019-07-21T10:23:37Z</time>
      </trkpt>
      <trkpt lat="42.9056960" lon="-5.8252970">
        <ele>1323.6</ele>
        <time>2019-07-21T10:23:39Z</time>
      </trkpt>
      <trkpt lat="42.9056930" lon="-5.8252340">
        <ele>1323.6</ele>
        <time>2019-07-21T10:23:40Z</time>
      </trkpt>
      <trkpt lat="42.9057170" lon="-5.8251810">
        <ele>1323.8</ele>
        <time>2019-07-21T10:23:41Z</time>
      </trkpt>
      <trkpt lat="42.9058010" lon="-5.8251240">
        <ele>1324.2</ele>
        <time>2019-07-21T10:23:43Z</time>
      </trkpt>
      <trkpt lat="42.9058490" lon="-5.8251180">
        <ele>1324.6</ele>
        <time>2019-07-21T10:23:44Z</time>
      </trkpt>
      <trkpt lat="42.9059890" lon="-5.8251130">
        <ele>1325.8</ele>
        <time>2019-07-21T10:23:47Z</time>
      </trkpt>
      <trkpt lat="42.9060760" lon="-5.8251370">
        <ele>1326.2</ele>
        <time>2019-07-21T10:23:49Z</time>
      </trkpt>
      <trkpt lat="42.9061930" lon="-5.8252060">
        <ele>1327.0</ele>
        <time>2019-07-21T10:23:52Z</time>
      </trkpt>
      <trkpt lat="42.9063130" lon="-5.8252780">
        <ele>1328.2</ele>
        <time>2019-07-21T10:23:55Z</time>
      </trkpt>
      <trkpt lat="42.9065180" lon="-5.8253980">
        <ele>1329.2</ele>
        <time>2019-07-21T10:24:00Z</time>
      </trkpt>
      <trkpt lat="42.9067150" lon="-5.8254930">
        <ele>1330.4</ele>
        <time>2019-07-21T10:24:05Z</time>
      </trkpt>
      <trkpt lat="42.9068350" lon="-5.8255410">
        <ele>1331.4</ele>
        <time>2019-07-21T10:24:08Z</time>
      </trkpt>
      <trkpt lat="42.9069590" lon="-5.8255740">
        <ele>1332.6</ele>
        <time>2019-07-21T10:24:11Z</time>
      </trkpt>
      <trkpt lat="42.9070850" lon="-5.8255910">
        <ele>1333.2</ele>
        <time>2019-07-21T10:24:14Z</time>
      </trkpt>
      <trkpt lat="42.9071250" lon="-5.8256030">
        <ele>1333.6</ele>
        <time>2019-07-21T10:24:15Z</time>
      </trkpt>
      <trkpt lat="42.9072880" lon="-5.8256470">
        <ele>1334.6</ele>
        <time>2019-07-21T10:24:19Z</time>
      </trkpt>
      <trkpt lat="42.9073310" lon="-5.8256520">
        <ele>1335.0</ele>
        <time>2019-07-21T10:24:20Z</time>
      </trkpt>
      <trkpt lat="42.9075020" lon="-5.8256700">
        <ele>1336.0</ele>
        <time>2019-07-21T10:24:24Z</time>
      </trkpt>
      <trkpt lat="42.9076710" lon="-5.8256550">
        <ele>1337.2</ele>
        <time>2019-07-21T10:24:28Z</time>
      </trkpt>
      <trkpt lat="42.9078400" lon="-5.8256350">
        <ele>1338.4</ele>
        <time>2019-07-21T10:24:32Z</time>
      </trkpt>
      <trkpt lat="42.9080460" lon="-5.8256130">
        <ele>1339.6</ele>
        <time>2019-07-21T10:24:37Z</time>
      </trkpt>
      <trkpt lat="42.9082130" lon="-5.8255820">
        <ele>1340.6</ele>
        <time>2019-07-21T10:24:41Z</time>
      </trkpt>
      <trkpt lat="42.9082520" lon="-5.8255650">
        <ele>1340.8</ele>
        <time>2019-07-21T10:24:42Z</time>
      </trkpt>
      <trkpt lat="42.9084020" lon="-5.8254830">
        <ele>1341.8</ele>
        <time>2019-07-21T10:24:46Z</time>
      </trkpt>
      <trkpt lat="42.9085370" lon="-5.8253810">
        <ele>1343.0</ele>
        <time>2019-07-21T10:24:50Z</time>
      </trkpt>
      <trkpt lat="42.9086660" lon="-5.8252830">
        <ele>1344.0</ele>
        <time>2019-07-21T10:24:54Z</time>
      </trkpt>
      <trkpt lat="42.9088390" lon="-5.8252050">
        <ele>1345.2</ele>
        <time>2019-07-21T10:24:59Z</time>
      </trkpt>
      <trkpt lat="42.9089980" lon="-5.8251270">
        <ele>1346.2</ele>
        <time>2019-07-21T10:25:04Z</time>
      </trkpt>
      <trkpt lat="42.9090070" lon="-5.8250810">
        <ele>1346.4</ele>
        <time>2019-07-21T10:25:05Z</time>
      </trkpt>
      <trkpt lat="42.9090020" lon="-5.8250360">
        <ele>1346.6</ele>
        <time>2019-07-21T10:25:06Z</time>
      </trkpt>
      <trkpt lat="42.9089060" lon="-5.8250100">
        <ele>1348.0</ele>
        <time>2019-07-21T10:25:09Z</time>
      </trkpt>
      <trkpt lat="42.9087870" lon="-5.8250350">
        <ele>1349.2</ele>
        <time>2019-07-21T10:25:12Z</time>
      </trkpt>
      <trkpt lat="42.9085990" lon="-5.8251140">
        <ele>1350.4</ele>
        <time>2019-07-21T10:25:17Z</time>
      </trkpt>
      <trkpt lat="42.9084560" lon="-5.8252020">
        <ele>1351.4</ele>
        <time>2019-07-21T10:25:21Z</time>
      </trkpt>
      <trkpt lat="42.9084210" lon="-5.8252330">
        <ele>1351.6</ele>
        <time>2019-07-21T10:25:22Z</time>
      </trkpt>
      <trkpt lat="42.9083790" lon="-5.8252600">
        <ele>1351.8</ele>
        <time>2019-07-21T10:25:23Z</time>
      </trkpt>
      <trkpt lat="42.9082030" lon="-5.8253480">
        <ele>1352.0</ele>
        <time>2019-07-21T10:25:27Z</time>
      </trkpt>
      <trkpt lat="42.9080190" lon="-5.8253840">
        <ele>1352.0</ele>
        <time>2019-07-21T10:25:31Z</time>
      </trkpt>
      <trkpt lat="42.9077300" lon="-5.8254050">
        <ele>1352.2</ele>
        <time>2019-07-21T10:25:37Z</time>
      </trkpt>
      <trkpt lat="42.9075280" lon="-5.8254230">
        <ele>1352.4</ele>
        <time>2019-07-21T10:25:41Z</time>
      </trkpt>
      <trkpt lat="42.9074300" lon="-5.8254020">
        <ele>1352.6</ele>
        <time>2019-07-21T10:25:43Z</time>
      </trkpt>
      <trkpt lat="42.9073840" lon="-5.8253860">
        <ele>1352.8</ele>
        <time>2019-07-21T10:25:44Z</time>
      </trkpt>
      <trkpt lat="42.9073420" lon="-5.8253660">
        <ele>1352.8</ele>
        <time>2019-07-21T10:25:45Z</time>
      </trkpt>
      <trkpt lat="42.9071260" lon="-5.8252120">
        <ele>1353.8</ele>
        <time>2019-07-21T10:25:51Z</time>
      </trkpt>
      <trkpt lat="42.9069680" lon="-5.8250770">
        <ele>1355.2</ele>
        <time>2019-07-21T10:25:56Z</time>
      </trkpt>
      <trkpt lat="42.9068760" lon="-5.8249930">
        <ele>1356.2</ele>
        <time>2019-07-21T10:25:59Z</time>
      </trkpt>
      <trkpt lat="42.9067160" lon="-5.8248570">
        <ele>1357.4</ele>
        <time>2019-07-21T10:26:04Z</time>
      </trkpt>
      <trkpt lat="42.9066300" lon="-5.8247610">
        <ele>1358.4</ele>
        <time>2019-07-21T10:26:07Z</time>
      </trkpt>
      <trkpt lat="42.9064840" lon="-5.8246140">
        <ele>1359.6</ele>
        <time>2019-07-21T10:26:12Z</time>
      </trkpt>
      <trkpt lat="42.9063470" lon="-5.8244590">
        <ele>1361.0</ele>
        <time>2019-07-21T10:26:17Z</time>
      </trkpt>
      <trkpt lat="42.9062470" lon="-5.8243280">
        <ele>1362.2</ele>
        <time>2019-07-21T10:26:21Z</time>
      </trkpt>
      <trkpt lat="42.9061410" lon="-5.8241230">
        <ele>1363.4</ele>
        <time>2019-07-21T10:26:26Z</time>
      </trkpt>
      <trkpt lat="42.9060840" lon="-5.8239530">
        <ele>1364.6</ele>
        <time>2019-07-21T10:26:30Z</time>
      </trkpt>
      <trkpt lat="42.9060340" lon="-5.8237180">
        <ele>1365.6</ele>
        <time>2019-07-21T10:26:35Z</time>
      </trkpt>
      <trkpt lat="42.9060130" lon="-5.8235790">
        <ele>1366.8</ele>
        <time>2019-07-21T10:26:38Z</time>
      </trkpt>
      <trkpt lat="42.9060080" lon="-5.8233190">
        <ele>1368.0</ele>
        <time>2019-07-21T10:26:44Z</time>
      </trkpt>
      <trkpt lat="42.9060560" lon="-5.8231550">
        <ele>1369.2</ele>
        <time>2019-07-21T10:26:48Z</time>
      </trkpt>
      <trkpt lat="42.9061220" lon="-5.8229590">
        <ele>1370.4</ele>
        <time>2019-07-21T10:26:53Z</time>
      </trkpt>
      <trkpt lat="42.9061600" lon="-5.8227500">
        <ele>1371.4</ele>
        <time>2019-07-21T10:26:58Z</time>
      </trkpt>
      <trkpt lat="42.9061860" lon="-5.8225850">
        <ele>1372.6</ele>
        <time>2019-07-21T10:27:02Z</time>
      </trkpt>
      <trkpt lat="42.9061900" lon="-5.8224580">
        <ele>1373.6</ele>
        <time>2019-07-21T10:27:05Z</time>
      </trkpt>
      <trkpt lat="42.9062160" lon="-5.8222890">
        <ele>1374.8</ele>
        <time>2019-07-21T10:27:09Z</time>
      </trkpt>
      <trkpt lat="42.9062170" lon="-5.8221100">
        <ele>1375.8</ele>
        <time>2019-07-21T10:27:13Z</time>
      </trkpt>
      <trkpt lat="42.9061860" lon="-5.8219320">
        <ele>1376.8</ele>
        <time>2019-07-21T10:27:17Z</time>
      </trkpt>
      <trkpt lat="42.9060770" lon="-5.8217000">
        <ele>1377.8</ele>
        <time>2019-07-21T10:27:23Z</time>
      </trkpt>
      <trkpt lat="42.9059330" lon="-5.8215020">
        <ele>1378.6</ele>
        <time>2019-07-21T10:27:29Z</time>
      </trkpt>
      <trkpt lat="42.9058280" lon="-5.8214400">
        <ele>1379.0</ele>
        <time>2019-07-21T10:27:32Z</time>
      </trkpt>
      <trkpt lat="42.9055850" lon="-5.8214710">
        <ele>1379.8</ele>
        <time>2019-07-21T10:27:38Z</time>
      </trkpt>
      <trkpt lat="42.9054990" lon="-5.8214790">
        <ele>1380.0</ele>
        <time>2019-07-21T10:27:40Z</time>
      </trkpt>
      <trkpt lat="42.9054150" lon="-5.8214610">
        <ele>1380.4</ele>
        <time>2019-07-21T10:27:42Z</time>
      </trkpt>
      <trkpt lat="42.9053360" lon="-5.8214190">
        <ele>1380.8</ele>
        <time>2019-07-21T10:27:44Z</time>
      </trkpt>
      <trkpt lat="42.9052720" lon="-5.8213520">
        <ele>1381.2</ele>
        <time>2019-07-21T10:27:46Z</time>
      </trkpt>
      <trkpt lat="42.9051770" lon="-5.8212040">
        <ele>1382.4</ele>
        <time>2019-07-21T10:27:50Z</time>
      </trkpt>
      <trkpt lat="42.9050930" lon="-5.8210620">
        <ele>1383.4</ele>
        <time>2019-07-21T10:27:54Z</time>
      </trkpt>
      <trkpt lat="42.9049930" lon="-5.8208720">
        <ele>1384.6</ele>
        <time>2019-07-21T10:27:59Z</time>
      </trkpt>
      <trkpt lat="42.9049430" lon="-5.8207510">
        <ele>1385.8</ele>
        <time>2019-07-21T10:28:02Z</time>
      </trkpt>
      <trkpt lat="42.9048980" lon="-5.8206290">
        <ele>1387.0</ele>
        <time>2019-07-21T10:28:05Z</time>
      </trkpt>
      <trkpt lat="42.9048460" lon="-5.8204730">
        <ele>1388.2</ele>
        <time>2019-07-21T10:28:09Z</time>
      </trkpt>
      <trkpt lat="42.9047940" lon="-5.8202990">
        <ele>1389.4</ele>
        <time>2019-07-21T10:28:13Z</time>
      </trkpt>
      <trkpt lat="42.9047540" lon="-5.8201690">
        <ele>1390.4</ele>
        <time>2019-07-21T10:28:16Z</time>
      </trkpt>
      <trkpt lat="42.9047240" lon="-5.8200410">
        <ele>1391.4</ele>
        <time>2019-07-21T10:28:19Z</time>
      </trkpt>
      <trkpt lat="42.9046920" lon="-5.8199150">
        <ele>1392.4</ele>
        <time>2019-07-21T10:28:22Z</time>
      </trkpt>
      <trkpt lat="42.9046560" lon="-5.8197460">
        <ele>1393.6</ele>
        <time>2019-07-21T10:28:26Z</time>
      </trkpt>
      <trkpt lat="42.9046290" lon="-5.8195370">
        <ele>1394.8</ele>
        <time>2019-07-21T10:28:31Z</time>
      </trkpt>
      <trkpt lat="42.9046260" lon="-5.8193160">
        <ele>1396.0</ele>
        <time>2019-07-21T10:28:36Z</time>
      </trkpt>
      <trkpt lat="42.9046170" lon="-5.8190420">
        <ele>1396.8</ele>
        <time>2019-07-21T10:28:42Z</time>
      </trkpt>
      <trkpt lat="42.9046160" lon="-5.8189990">
        <ele>1397.0</ele>
        <time>2019-07-21T10:28:43Z</time>
      </trkpt>
      <trkpt lat="42.9046020" lon="-5.8188220">
        <ele>1398.0</ele>
        <time>2019-07-21T10:28:47Z</time>
      </trkpt>
      <trkpt lat="42.9045560" lon="-5.8186090">
        <ele>1399.2</ele>
        <time>2019-07-21T10:28:52Z</time>
      </trkpt>
      <trkpt lat="42.9045040" lon="-5.8183960">
        <ele>1400.4</ele>
        <time>2019-07-21T10:28:57Z</time>
      </trkpt>
      <trkpt lat="42.9044520" lon="-5.8181800">
        <ele>1401.6</ele>
        <time>2019-07-21T10:29:02Z</time>
      </trkpt>
      <trkpt lat="42.9044330" lon="-5.8180020">
        <ele>1402.6</ele>
        <time>2019-07-21T10:29:06Z</time>
      </trkpt>
      <trkpt lat="42.9044270" lon="-5.8177760">
        <ele>1403.8</ele>
        <time>2019-07-21T10:29:11Z</time>
      </trkpt>
      <trkpt lat="42.9044690" lon="-5.8175530">
        <ele>1404.8</ele>
        <time>2019-07-21T10:29:16Z</time>
      </trkpt>
      <trkpt lat="42.9045700" lon="-5.8173440">
        <ele>1406.0</ele>
        <time>2019-07-21T10:29:21Z</time>
      </trkpt>
      <trkpt lat="42.9045960" lon="-5.8173080">
        <ele>1406.2</ele>
        <time>2019-07-21T10:29:22Z</time>
      </trkpt>
      <trkpt lat="42.9046840" lon="-5.8171670">
        <ele>1407.4</ele>
        <time>2019-07-21T10:29:26Z</time>
      </trkpt>
      <trkpt lat="42.9048190" lon="-5.8169860">
        <ele>1408.4</ele>
        <time>2019-07-21T10:29:31Z</time>
      </trkpt>
      <trkpt lat="42.9049030" lon="-5.8168540">
        <ele>1409.4</ele>
        <time>2019-07-21T10:29:34Z</time>
      </trkpt>
      <trkpt lat="42.9049250" lon="-5.8168050">
        <ele>1409.8</ele>
        <time>2019-07-21T10:29:35Z</time>
      </trkpt>
      <trkpt lat="42.9049750" lon="-5.8166670">
        <ele>1410.8</ele>
        <time>2019-07-21T10:29:38Z</time>
      </trkpt>
      <trkpt lat="42.9050160" lon="-5.8165390">
        <ele>1411.8</ele>
        <time>2019-07-21T10:29:41Z</time>
      </trkpt>
      <trkpt lat="42.9051010" lon="-5.8163740">
        <ele>1412.8</ele>
        <time>2019-07-21T10:29:45Z</time>
      </trkpt>
      <trkpt lat="42.9052600" lon="-5.8161520">
        <ele>1413.8</ele>
        <time>2019-07-21T10:29:51Z</time>
      </trkpt>
      <trkpt lat="42.9053010" lon="-5.8159510">
        <ele>1414.6</ele>
        <time>2019-07-21T10:29:55Z</time>
      </trkpt>
      <trkpt lat="42.9052660" lon="-5.8158440">
        <ele>1415.0</ele>
        <time>2019-07-21T10:29:57Z</time>
      </trkpt>
      <trkpt lat="42.9051980" lon="-5.8157710">
        <ele>1415.4</ele>
        <time>2019-07-21T10:29:59Z</time>
      </trkpt>
      <trkpt lat="42.9050870" lon="-5.8156860">
        <ele>1416.2</ele>
        <time>2019-07-21T10:30:02Z</time>
      </trkpt>
      <trkpt lat="42.9048780" lon="-5.8154890">
        <ele>1417.2</ele>
        <time>2019-07-21T10:30:08Z</time>
      </trkpt>
      <trkpt lat="42.9048170" lon="-5.8154040">
        <ele>1417.6</ele>
        <time>2019-07-21T10:30:10Z</time>
      </trkpt>
      <trkpt lat="42.9047450" lon="-5.8152670">
        <ele>1418.4</ele>
        <time>2019-07-21T10:30:13Z</time>
      </trkpt>
      <trkpt lat="42.9046780" lon="-5.8150640">
        <ele>1419.6</ele>
        <time>2019-07-21T10:30:17Z</time>
      </trkpt>
      <trkpt lat="42.9046270" lon="-5.8149020">
        <ele>1420.6</ele>
        <time>2019-07-21T10:30:20Z</time>
      </trkpt>
      <trkpt lat="42.9045720" lon="-5.8146900">
        <ele>1421.8</ele>
        <time>2019-07-21T10:30:24Z</time>
      </trkpt>
      <trkpt lat="42.9045190" lon="-5.8144850">
        <ele>1422.8</ele>
        <time>2019-07-21T10:30:28Z</time>
      </trkpt>
      <trkpt lat="42.9044670" lon="-5.8142730">
        <ele>1423.8</ele>
        <time>2019-07-21T10:30:32Z</time>
      </trkpt>
      <trkpt lat="42.9044230" lon="-5.8140550">
        <ele>1425.0</ele>
        <time>2019-07-21T10:30:36Z</time>
      </trkpt>
      <trkpt lat="42.9043750" lon="-5.8138410">
        <ele>1426.0</ele>
        <time>2019-07-21T10:30:40Z</time>
      </trkpt>
      <trkpt lat="42.9043260" lon="-5.8136380">
        <ele>1427.2</ele>
        <time>2019-07-21T10:30:44Z</time>
      </trkpt>
      <trkpt lat="42.9042700" lon="-5.8133700">
        <ele>1428.2</ele>
        <time>2019-07-21T10:30:49Z</time>
      </trkpt>
      <trkpt lat="42.9042390" lon="-5.8131960">
        <ele>1429.6</ele>
        <time>2019-07-21T10:30:52Z</time>
      </trkpt>
      <trkpt lat="42.9042180" lon="-5.8130240">
        <ele>1430.4</ele>
        <time>2019-07-21T10:30:55Z</time>
      </trkpt>
      <trkpt lat="42.9042160" lon="-5.8129720">
        <ele>1430.6</ele>
        <time>2019-07-21T10:30:56Z</time>
      </trkpt>
      <trkpt lat="42.9042320" lon="-5.8127610">
        <ele>1431.8</ele>
        <time>2019-07-21T10:31:00Z</time>
      </trkpt>
      <trkpt lat="42.9042650" lon="-5.8125620">
        <ele>1433.0</ele>
        <time>2019-07-21T10:31:04Z</time>
      </trkpt>
      <trkpt lat="42.9042640" lon="-5.8124130">
        <ele>1434.2</ele>
        <time>2019-07-21T10:31:07Z</time>
      </trkpt>
      <trkpt lat="42.9042710" lon="-5.8121640">
        <ele>1435.4</ele>
        <time>2019-07-21T10:31:12Z</time>
      </trkpt>
      <trkpt lat="42.9042660" lon="-5.8119740">
        <ele>1436.4</ele>
        <time>2019-07-21T10:31:16Z</time>
      </trkpt>
      <trkpt lat="42.9042520" lon="-5.8116940">
        <ele>1437.6</ele>
        <time>2019-07-21T10:31:22Z</time>
      </trkpt>
      <trkpt lat="42.9042480" lon="-5.8114490">
        <ele>1438.8</ele>
        <time>2019-07-21T10:31:27Z</time>
      </trkpt>
      <trkpt lat="42.9042360" lon="-5.8112050">
        <ele>1439.8</ele>
        <time>2019-07-21T10:31:32Z</time>
      </trkpt>
      <trkpt lat="42.9042230" lon="-5.8109630">
        <ele>1441.0</ele>
        <time>2019-07-21T10:31:37Z</time>
      </trkpt>
      <trkpt lat="42.9042130" lon="-5.8107790">
        <ele>1442.2</ele>
        <time>2019-07-21T10:31:41Z</time>
      </trkpt>
      <trkpt lat="42.9041740" lon="-5.8105530">
        <ele>1443.2</ele>
        <time>2019-07-21T10:31:46Z</time>
      </trkpt>
      <trkpt lat="42.9041210" lon="-5.8103670">
        <ele>1444.4</ele>
        <time>2019-07-21T10:31:50Z</time>
      </trkpt>
      <trkpt lat="42.9039780" lon="-5.8102190">
        <ele>1445.4</ele>
        <time>2019-07-21T10:31:55Z</time>
      </trkpt>
      <trkpt lat="42.9038380" lon="-5.8101490">
        <ele>1446.4</ele>
        <time>2019-07-21T10:31:59Z</time>
      </trkpt>
      <trkpt lat="42.9036590" lon="-5.8101220">
        <ele>1447.6</ele>
        <time>2019-07-21T10:32:04Z</time>
      </trkpt>
      <trkpt lat="42.9035550" lon="-5.8101460">
        <ele>1448.6</ele>
        <time>2019-07-21T10:32:07Z</time>
      </trkpt>
      <trkpt lat="42.9034270" lon="-5.8102160">
        <ele>1449.8</ele>
        <time>2019-07-21T10:32:11Z</time>
      </trkpt>
      <trkpt lat="42.9032830" lon="-5.8103340">
        <ele>1450.8</ele>
        <time>2019-07-21T10:32:16Z</time>
      </trkpt>
      <trkpt lat="42.9032100" lon="-5.8104460">
        <ele>1452.2</ele>
        <time>2019-07-21T10:32:19Z</time>
      </trkpt>
      <trkpt lat="42.9030880" lon="-5.8106350">
        <ele>1453.4</ele>
        <time>2019-07-21T10:32:24Z</time>
      </trkpt>
      <trkpt lat="42.9029760" lon="-5.8108390">
        <ele>1454.6</ele>
        <time>2019-07-21T10:32:29Z</time>
      </trkpt>
      <trkpt lat="42.9028230" lon="-5.8110830">
        <ele>1455.6</ele>
        <time>2019-07-21T10:32:35Z</time>
      </trkpt>
      <trkpt lat="42.9027040" lon="-5.8112850">
        <ele>1456.8</ele>
        <time>2019-07-21T10:32:40Z</time>
      </trkpt>
      <trkpt lat="42.9025610" lon="-5.8115120">
        <ele>1457.8</ele>
        <time>2019-07-21T10:32:46Z</time>
      </trkpt>
      <trkpt lat="42.9025370" lon="-5.8115520">
        <ele>1457.8</ele>
        <time>2019-07-21T10:32:47Z</time>
      </trkpt>
      <trkpt lat="42.9023810" lon="-5.8117690">
        <ele>1458.8</ele>
        <time>2019-07-21T10:32:53Z</time>
      </trkpt>
      <trkpt lat="42.9023490" lon="-5.8117960">
        <ele>1458.8</ele>
        <time>2019-07-21T10:32:54Z</time>
      </trkpt>
      <trkpt lat="42.9022370" lon="-5.8118180">
        <ele>1459.4</ele>
        <time>2019-07-21T10:32:57Z</time>
      </trkpt>
      <trkpt lat="42.9021780" lon="-5.8117490">
        <ele>1459.6</ele>
        <time>2019-07-21T10:32:59Z</time>
      </trkpt>
      <trkpt lat="42.9021690" lon="-5.8116970">
        <ele>1459.8</ele>
        <time>2019-07-21T10:33:00Z</time>
      </trkpt>
      <trkpt lat="42.9022110" lon="-5.8115400">
        <ele>1460.6</ele>
        <time>2019-07-21T10:33:03Z</time>
      </trkpt>
      <trkpt lat="42.9022400" lon="-5.8114970">
        <ele>1461.0</ele>
        <time>2019-07-21T10:33:04Z</time>
      </trkpt>
      <trkpt lat="42.9023840" lon="-5.8112850">
        <ele>1462.2</ele>
        <time>2019-07-21T10:33:09Z</time>
      </trkpt>
      <trkpt lat="42.9024850" lon="-5.8110440">
        <ele>1463.2</ele>
        <time>2019-07-21T10:33:14Z</time>
      </trkpt>
      <trkpt lat="42.9025440" lon="-5.8108400">
        <ele>1464.2</ele>
        <time>2019-07-21T10:33:18Z</time>
      </trkpt>
      <trkpt lat="42.9026070" lon="-5.8106380">
        <ele>1465.4</ele>
        <time>2019-07-21T10:33:22Z</time>
      </trkpt>
      <trkpt lat="42.9026630" lon="-5.8104430">
        <ele>1466.8</ele>
        <time>2019-07-21T10:33:26Z</time>
      </trkpt>
      <trkpt lat="42.9027250" lon="-5.8102540">
        <ele>1467.8</ele>
        <time>2019-07-21T10:33:30Z</time>
      </trkpt>
      <trkpt lat="42.9027710" lon="-5.8100580">
        <ele>1469.0</ele>
        <time>2019-07-21T10:33:34Z</time>
      </trkpt>
      <trkpt lat="42.9028170" lon="-5.8098520">
        <ele>1470.0</ele>
        <time>2019-07-21T10:33:38Z</time>
      </trkpt>
      <trkpt lat="42.9028650" lon="-5.8096470">
        <ele>1471.0</ele>
        <time>2019-07-21T10:33:42Z</time>
      </trkpt>
      <trkpt lat="42.9029340" lon="-5.8094550">
        <ele>1472.2</ele>
        <time>2019-07-21T10:33:46Z</time>
      </trkpt>
      <trkpt lat="42.9030170" lon="-5.8092790">
        <ele>1473.4</ele>
        <time>2019-07-21T10:33:50Z</time>
      </trkpt>
      <trkpt lat="42.9030960" lon="-5.8091070">
        <ele>1474.6</ele>
        <time>2019-07-21T10:33:54Z</time>
      </trkpt>
      <trkpt lat="42.9031850" lon="-5.8089490">
        <ele>1475.8</ele>
        <time>2019-07-21T10:33:58Z</time>
      </trkpt>
      <trkpt lat="42.9032800" lon="-5.8087880">
        <ele>1476.8</ele>
        <time>2019-07-21T10:34:02Z</time>
      </trkpt>
      <trkpt lat="42.9033730" lon="-5.8086360">
        <ele>1477.8</ele>
        <time>2019-07-21T10:34:06Z</time>
      </trkpt>
      <trkpt lat="42.9034330" lon="-5.8085240">
        <ele>1478.8</ele>
        <time>2019-07-21T10:34:09Z</time>
      </trkpt>
      <trkpt lat="42.9034960" lon="-5.8084110">
        <ele>1480.0</ele>
        <time>2019-07-21T10:34:12Z</time>
      </trkpt>
      <trkpt lat="42.9036020" lon="-5.8082130">
        <ele>1481.0</ele>
        <time>2019-07-21T10:34:17Z</time>
      </trkpt>
      <trkpt lat="42.9036730" lon="-5.8080340">
        <ele>1482.2</ele>
        <time>2019-07-21T10:34:21Z</time>
      </trkpt>
      <trkpt lat="42.9037190" lon="-5.8078310">
        <ele>1483.2</ele>
        <time>2019-07-21T10:34:25Z</time>
      </trkpt>
      <trkpt lat="42.9037570" lon="-5.8076290">
        <ele>1484.4</ele>
        <time>2019-07-21T10:34:29Z</time>
      </trkpt>
      <trkpt lat="42.9037810" lon="-5.8073800">
        <ele>1485.6</ele>
        <time>2019-07-21T10:34:34Z</time>
      </trkpt>
      <trkpt lat="42.9038030" lon="-5.8071850">
        <ele>1486.8</ele>
        <time>2019-07-21T10:34:38Z</time>
      </trkpt>
      <trkpt lat="42.9038250" lon="-5.8069900">
        <ele>1487.8</ele>
        <time>2019-07-21T10:34:42Z</time>
      </trkpt>
      <trkpt lat="42.9038490" lon="-5.8067450">
        <ele>1489.0</ele>
        <time>2019-07-21T10:34:47Z</time>
      </trkpt>
      <trkpt lat="42.9038680" lon="-5.8065470">
        <ele>1490.2</ele>
        <time>2019-07-21T10:34:51Z</time>
      </trkpt>
      <trkpt lat="42.9038880" lon="-5.8063520">
        <ele>1491.4</ele>
        <time>2019-07-21T10:34:55Z</time>
      </trkpt>
      <trkpt lat="42.9039080" lon="-5.8060530">
        <ele>1492.6</ele>
        <time>2019-07-21T10:35:01Z</time>
      </trkpt>
      <trkpt lat="42.9039320" lon="-5.8058970">
        <ele>1493.6</ele>
        <time>2019-07-21T10:35:04Z</time>
      </trkpt>
      <trkpt lat="42.9039550" lon="-5.8056970">
        <ele>1494.8</ele>
        <time>2019-07-21T10:35:08Z</time>
      </trkpt>
      <trkpt lat="42.9039720" lon="-5.8055000">
        <ele>1495.8</ele>
        <time>2019-07-21T10:35:12Z</time>
      </trkpt>
      <trkpt lat="42.9039880" lon="-5.8052380">
        <ele>1497.0</ele>
        <time>2019-07-21T10:35:17Z</time>
      </trkpt>
      <trkpt lat="42.9040240" lon="-5.8049170">
        <ele>1498.0</ele>
        <time>2019-07-21T10:35:23Z</time>
      </trkpt>
      <trkpt lat="42.9040220" lon="-5.8046940">
        <ele>1498.6</ele>
        <time>2019-07-21T10:35:27Z</time>
      </trkpt>
      <trkpt lat="42.9039880" lon="-5.8045750">
        <ele>1499.0</ele>
        <time>2019-07-21T10:35:29Z</time>
      </trkpt>
      <trkpt lat="42.9039680" lon="-5.8045150">
        <ele>1499.2</ele>
        <time>2019-07-21T10:35:30Z</time>
      </trkpt>
      <trkpt lat="42.9039230" lon="-5.8044010">
        <ele>1499.6</ele>
        <time>2019-07-21T10:35:32Z</time>
      </trkpt>
      <trkpt lat="42.9038360" lon="-5.8041740">
        <ele>1500.0</ele>
        <time>2019-07-21T10:35:36Z</time>
      </trkpt>
      <trkpt lat="42.9037220" lon="-5.8039050">
        <ele>1501.2</ele>
        <time>2019-07-21T10:35:41Z</time>
      </trkpt>
      <trkpt lat="42.9036380" lon="-5.8037580">
        <ele>1501.8</ele>
        <time>2019-07-21T10:35:44Z</time>
      </trkpt>
      <trkpt lat="42.9035660" lon="-5.8036840">
        <ele>1502.2</ele>
        <time>2019-07-21T10:35:46Z</time>
      </trkpt>
      <trkpt lat="42.9034780" lon="-5.8036410">
        <ele>1502.2</ele>
        <time>2019-07-21T10:35:48Z</time>
      </trkpt>
      <trkpt lat="42.9031780" lon="-5.8036140">
        <ele>1502.6</ele>
        <time>2019-07-21T10:35:54Z</time>
      </trkpt>
      <trkpt lat="42.9029340" lon="-5.8036630">
        <ele>1502.2</ele>
        <time>2019-07-21T10:35:58Z</time>
      </trkpt>
      <trkpt lat="42.9028000" lon="-5.8037020">
        <ele>1501.8</ele>
        <time>2019-07-21T10:36:00Z</time>
      </trkpt>
      <trkpt lat="42.9026620" lon="-5.8036750">
        <ele>1501.6</ele>
        <time>2019-07-21T10:36:02Z</time>
      </trkpt>
      <trkpt lat="42.9025590" lon="-5.8035310">
        <ele>1501.2</ele>
        <time>2019-07-21T10:36:04Z</time>
      </trkpt>
      <trkpt lat="42.9024830" lon="-5.8033490">
        <ele>1500.4</ele>
        <time>2019-07-21T10:36:06Z</time>
      </trkpt>
      <trkpt lat="42.9024170" lon="-5.8032890">
        <ele>1499.8</ele>
        <time>2019-07-21T10:36:07Z</time>
      </trkpt>
      <trkpt lat="42.9023340" lon="-5.8032770">
        <ele>1499.2</ele>
        <time>2019-07-21T10:36:08Z</time>
      </trkpt>
      <trkpt lat="42.9022430" lon="-5.8032930">
        <ele>1498.6</ele>
        <time>2019-07-21T10:36:09Z</time>
      </trkpt>
      <trkpt lat="42.9021500" lon="-5.8032820">
        <ele>1498.0</ele>
        <time>2019-07-21T10:36:10Z</time>
      </trkpt>
      <trkpt lat="42.9020660" lon="-5.8032310">
        <ele>1497.6</ele>
        <time>2019-07-21T10:36:11Z</time>
      </trkpt>
      <trkpt lat="42.9020060" lon="-5.8031390">
        <ele>1497.2</ele>
        <time>2019-07-21T10:36:12Z</time>
      </trkpt>
      <trkpt lat="42.9019550" lon="-5.8028690">
        <ele>1495.8</ele>
        <time>2019-07-21T10:36:14Z</time>
      </trkpt>
      <trkpt lat="42.9019090" lon="-5.8025720">
        <ele>1494.4</ele>
        <time>2019-07-21T10:36:16Z</time>
      </trkpt>
      <trkpt lat="42.9018290" lon="-5.8022630">
        <ele>1493.4</ele>
        <time>2019-07-21T10:36:18Z</time>
      </trkpt>
      <trkpt lat="42.9017390" lon="-5.8019380">
        <ele>1492.0</ele>
        <time>2019-07-21T10:36:20Z</time>
      </trkpt>
      <trkpt lat="42.9016500" lon="-5.8015970">
        <ele>1490.8</ele>
        <time>2019-07-21T10:36:22Z</time>
      </trkpt>
      <trkpt lat="42.9015160" lon="-5.8010620">
        <ele>1489.2</ele>
        <time>2019-07-21T10:36:25Z</time>
      </trkpt>
      <trkpt lat="42.9014830" lon="-5.8008730">
        <ele>1488.6</ele>
        <time>2019-07-21T10:36:26Z</time>
      </trkpt>
      <trkpt lat="42.9014670" lon="-5.8006770">
        <ele>1487.8</ele>
        <time>2019-07-21T10:36:27Z</time>
      </trkpt>
      <trkpt lat="42.9014620" lon="-5.8002750">
        <ele>1486.0</ele>
        <time>2019-07-21T10:36:29Z</time>
      </trkpt>
      <trkpt lat="42.9014530" lon="-5.8000710">
        <ele>1484.8</ele>
        <time>2019-07-21T10:36:30Z</time>
      </trkpt>
      <trkpt lat="42.9014350" lon="-5.7998640">
        <ele>1483.8</ele>
        <time>2019-07-21T10:36:31Z</time>
      </trkpt>
      <trkpt lat="42.9013770" lon="-5.7994520">
        <ele>1482.2</ele>
        <time>2019-07-21T10:36:33Z</time>
      </trkpt>
      <trkpt lat="42.9012900" lon="-5.7990490">
        <ele>1481.0</ele>
        <time>2019-07-21T10:36:35Z</time>
      </trkpt>
      <trkpt lat="42.9012510" lon="-5.7988450">
        <ele>1479.8</ele>
        <time>2019-07-21T10:36:36Z</time>
      </trkpt>
      <trkpt lat="42.9012220" lon="-5.7986370">
        <ele>1478.4</ele>
        <time>2019-07-21T10:36:37Z</time>
      </trkpt>
      <trkpt lat="42.9012080" lon="-5.7984290">
        <ele>1477.2</ele>
        <time>2019-07-21T10:36:38Z</time>
      </trkpt>
      <trkpt lat="42.9012330" lon="-5.7980090">
        <ele>1475.6</ele>
        <time>2019-07-21T10:36:40Z</time>
      </trkpt>
      <trkpt lat="42.9013180" lon="-5.7975990">
        <ele>1474.6</ele>
        <time>2019-07-21T10:36:42Z</time>
      </trkpt>
      <trkpt lat="42.9013710" lon="-5.7973960">
        <ele>1473.4</ele>
        <time>2019-07-21T10:36:43Z</time>
      </trkpt>
      <trkpt lat="42.9014270" lon="-5.7971940">
        <ele>1472.0</ele>
        <time>2019-07-21T10:36:44Z</time>
      </trkpt>
      <trkpt lat="42.9014830" lon="-5.7969940">
        <ele>1470.4</ele>
        <time>2019-07-21T10:36:45Z</time>
      </trkpt>
      <trkpt lat="42.9015950" lon="-5.7965940">
        <ele>1468.8</ele>
        <time>2019-07-21T10:36:47Z</time>
      </trkpt>
      <trkpt lat="42.9017080" lon="-5.7961980">
        <ele>1466.8</ele>
        <time>2019-07-21T10:36:49Z</time>
      </trkpt>
      <trkpt lat="42.9017570" lon="-5.7959960">
        <ele>1465.4</ele>
        <time>2019-07-21T10:36:50Z</time>
      </trkpt>
      <trkpt lat="42.9017910" lon="-5.7957910">
        <ele>1464.0</ele>
        <time>2019-07-21T10:36:51Z</time>
      </trkpt>
      <trkpt lat="42.9018330" lon="-5.7953780">
        <ele>1462.8</ele>
        <time>2019-07-21T10:36:53Z</time>
      </trkpt>
      <trkpt lat="42.9018840" lon="-5.7949760">
        <ele>1460.6</ele>
        <time>2019-07-21T10:36:55Z</time>
      </trkpt>
      <trkpt lat="42.9019210" lon="-5.7947790">
        <ele>1459.2</ele>
        <time>2019-07-21T10:36:56Z</time>
      </trkpt>
      <trkpt lat="42.9019660" lon="-5.7945850">
        <ele>1458.2</ele>
        <time>2019-07-21T10:36:57Z</time>
      </trkpt>
      <trkpt lat="42.9020590" lon="-5.7942020">
        <ele>1456.6</ele>
        <time>2019-07-21T10:36:59Z</time>
      </trkpt>
      <trkpt lat="42.9021400" lon="-5.7938110">
        <ele>1454.6</ele>
        <time>2019-07-21T10:37:01Z</time>
      </trkpt>
      <trkpt lat="42.9021670" lon="-5.7936120">
        <ele>1453.0</ele>
        <time>2019-07-21T10:37:02Z</time>
      </trkpt>
      <trkpt lat="42.9021860" lon="-5.7934110">
        <ele>1451.4</ele>
        <time>2019-07-21T10:37:03Z</time>
      </trkpt>
      <trkpt lat="42.9022020" lon="-5.7932090">
        <ele>1450.2</ele>
        <time>2019-07-21T10:37:04Z</time>
      </trkpt>
      <trkpt lat="42.9022310" lon="-5.7928060">
        <ele>1448.4</ele>
        <time>2019-07-21T10:37:06Z</time>
      </trkpt>
      <trkpt lat="42.9022450" lon="-5.7926040">
        <ele>1447.2</ele>
        <time>2019-07-21T10:37:07Z</time>
      </trkpt>
      <trkpt lat="42.9022620" lon="-5.7924050">
        <ele>1445.4</ele>
        <time>2019-07-21T10:37:08Z</time>
      </trkpt>
      <trkpt lat="42.9022870" lon="-5.7922070">
        <ele>1443.8</ele>
        <time>2019-07-21T10:37:09Z</time>
      </trkpt>
      <trkpt lat="42.9023220" lon="-5.7920130">
        <ele>1442.4</ele>
        <time>2019-07-21T10:37:10Z</time>
      </trkpt>
      <trkpt lat="42.9023630" lon="-5.7918190">
        <ele>1441.4</ele>
        <time>2019-07-21T10:37:11Z</time>
      </trkpt>
      <trkpt lat="42.9024330" lon="-5.7914250">
        <ele>1439.8</ele>
        <time>2019-07-21T10:37:13Z</time>
      </trkpt>
      <trkpt lat="42.9024780" lon="-5.7910170">
        <ele>1438.4</ele>
        <time>2019-07-21T10:37:15Z</time>
      </trkpt>
      <trkpt lat="42.9025050" lon="-5.7905970">
        <ele>1436.4</ele>
        <time>2019-07-21T10:37:17Z</time>
      </trkpt>
      <trkpt lat="42.9025160" lon="-5.7903840">
        <ele>1435.2</ele>
        <time>2019-07-21T10:37:18Z</time>
      </trkpt>
      <trkpt lat="42.9025280" lon="-5.7901710">
        <ele>1433.8</ele>
        <time>2019-07-21T10:37:19Z</time>
      </trkpt>
      <trkpt lat="42.9025430" lon="-5.7899590">
        <ele>1432.6</ele>
        <time>2019-07-21T10:37:20Z</time>
      </trkpt>
      <trkpt lat="42.9025590" lon="-5.7897460">
        <ele>1431.2</ele>
        <time>2019-07-21T10:37:21Z</time>
      </trkpt>
      <trkpt lat="42.9025720" lon="-5.7895290">
        <ele>1428.8</ele>
        <time>2019-07-21T10:37:22Z</time>
      </trkpt>
      <trkpt lat="42.9025830" lon="-5.7893110">
        <ele>1425.4</ele>
        <time>2019-07-21T10:37:23Z</time>
      </trkpt>
      <trkpt lat="42.9025920" lon="-5.7890930">
        <ele>1421.2</ele>
        <time>2019-07-21T10:37:24Z</time>
      </trkpt>
      <trkpt lat="42.9025880" lon="-5.7888730">
        <ele>1417.8</ele>
        <time>2019-07-21T10:37:25Z</time>
      </trkpt>
      <trkpt lat="42.9025740" lon="-5.7886510">
        <ele>1415.2</ele>
        <time>2019-07-21T10:37:26Z</time>
      </trkpt>
      <trkpt lat="42.9025540" lon="-5.7884300">
        <ele>1412.8</ele>
        <time>2019-07-21T10:37:27Z</time>
      </trkpt>
      <trkpt lat="42.9025330" lon="-5.7882070">
        <ele>1410.4</ele>
        <time>2019-07-21T10:37:28Z</time>
      </trkpt>
      <trkpt lat="42.9025130" lon="-5.7879830">
        <ele>1408.6</ele>
        <time>2019-07-21T10:37:29Z</time>
      </trkpt>
      <trkpt lat="42.9024970" lon="-5.7877560">
        <ele>1407.0</ele>
        <time>2019-07-21T10:37:30Z</time>
      </trkpt>
      <trkpt lat="42.9024870" lon="-5.7875400">
        <ele>1406.0</ele>
        <time>2019-07-21T10:37:31Z</time>
      </trkpt>
      <trkpt lat="42.9024860" lon="-5.7873240">
        <ele>1405.4</ele>
        <time>2019-07-21T10:37:32Z</time>
      </trkpt>
      <trkpt lat="42.9025290" lon="-5.7866670">
        <ele>1407.4</ele>
        <time>2019-07-21T10:37:35Z</time>
      </trkpt>
      <trkpt lat="42.9025670" lon="-5.7864560">
        <ele>1409.0</ele>
        <time>2019-07-21T10:37:36Z</time>
      </trkpt>
      <trkpt lat="42.9026180" lon="-5.7862480">
        <ele>1410.2</ele>
        <time>2019-07-21T10:37:37Z</time>
      </trkpt>
      <trkpt lat="42.9026790" lon="-5.7860470">
        <ele>1410.6</ele>
        <time>2019-07-21T10:37:38Z</time>
      </trkpt>
      <trkpt lat="42.9028530" lon="-5.7856780">
        <ele>1410.2</ele>
        <time>2019-07-21T10:37:40Z</time>
      </trkpt>
      <trkpt lat="42.9030320" lon="-5.7853210">
        <ele>1409.0</ele>
        <time>2019-07-21T10:37:42Z</time>
      </trkpt>
      <trkpt lat="42.9030810" lon="-5.7851190">
        <ele>1407.8</ele>
        <time>2019-07-21T10:37:43Z</time>
      </trkpt>
      <trkpt lat="42.9031070" lon="-5.7849080">
        <ele>1406.4</ele>
        <time>2019-07-21T10:37:44Z</time>
      </trkpt>
      <trkpt lat="42.9031250" lon="-5.7846980">
        <ele>1404.8</ele>
        <time>2019-07-21T10:37:45Z</time>
      </trkpt>
      <trkpt lat="42.9031230" lon="-5.7844880">
        <ele>1403.6</ele>
        <time>2019-07-21T10:37:46Z</time>
      </trkpt>
      <trkpt lat="42.9031050" lon="-5.7842790">
        <ele>1402.4</ele>
        <time>2019-07-21T10:37:47Z</time>
      </trkpt>
      <trkpt lat="42.9030440" lon="-5.7838670">
        <ele>1400.4</ele>
        <time>2019-07-21T10:37:49Z</time>
      </trkpt>
      <trkpt lat="42.9029490" lon="-5.7834690">
        <ele>1398.2</ele>
        <time>2019-07-21T10:37:51Z</time>
      </trkpt>
      <trkpt lat="42.9028870" lon="-5.7832750">
        <ele>1397.2</ele>
        <time>2019-07-21T10:37:52Z</time>
      </trkpt>
      <trkpt lat="42.9028230" lon="-5.7830800">
        <ele>1396.0</ele>
        <time>2019-07-21T10:37:53Z</time>
      </trkpt>
      <trkpt lat="42.9027600" lon="-5.7828840">
        <ele>1394.4</ele>
        <time>2019-07-21T10:37:54Z</time>
      </trkpt>
      <trkpt lat="42.9026960" lon="-5.7826850">
        <ele>1392.8</ele>
        <time>2019-07-21T10:37:55Z</time>
      </trkpt>
      <trkpt lat="42.9026320" lon="-5.7824890">
        <ele>1391.4</ele>
        <time>2019-07-21T10:37:56Z</time>
      </trkpt>
      <trkpt lat="42.9025550" lon="-5.7823010">
        <ele>1390.0</ele>
        <time>2019-07-21T10:37:57Z</time>
      </trkpt>
      <trkpt lat="42.9024570" lon="-5.7821360">
        <ele>1389.0</ele>
        <time>2019-07-21T10:37:58Z</time>
      </trkpt>
      <trkpt lat="42.9023370" lon="-5.7820040">
        <ele>1388.2</ele>
        <time>2019-07-21T10:37:59Z</time>
      </trkpt>
      <trkpt lat="42.9022050" lon="-5.7818950">
        <ele>1387.0</ele>
        <time>2019-07-21T10:38:00Z</time>
      </trkpt>
      <trkpt lat="42.9020600" lon="-5.7818170">
        <ele>1385.2</ele>
        <time>2019-07-21T10:38:01Z</time>
      </trkpt>
      <trkpt lat="42.9019080" lon="-5.7817630">
        <ele>1383.0</ele>
        <time>2019-07-21T10:38:02Z</time>
      </trkpt>
      <trkpt lat="42.9017510" lon="-5.7817180">
        <ele>1381.6</ele>
        <time>2019-07-21T10:38:03Z</time>
      </trkpt>
      <trkpt lat="42.9015940" lon="-5.7816730">
        <ele>1380.0</ele>
        <time>2019-07-21T10:38:04Z</time>
      </trkpt>
      <trkpt lat="42.9014340" lon="-5.7816280">
        <ele>1377.4</ele>
        <time>2019-07-21T10:38:05Z</time>
      </trkpt>
      <trkpt lat="42.9012710" lon="-5.7815870">
        <ele>1373.6</ele>
        <time>2019-07-21T10:38:06Z</time>
      </trkpt>
      <trkpt lat="42.9011060" lon="-5.7815550">
        <ele>1369.2</ele>
        <time>2019-07-21T10:38:07Z</time>
      </trkpt>
      <trkpt lat="42.9009400" lon="-5.7815180">
        <ele>1367.0</ele>
        <time>2019-07-21T10:38:08Z</time>
      </trkpt>
      <trkpt lat="42.9007760" lon="-5.7814780">
        <ele>1366.0</ele>
        <time>2019-07-21T10:38:09Z</time>
      </trkpt>
      <trkpt lat="42.9003010" lon="-5.7813710">
        <ele>1366.6</ele>
        <time>2019-07-21T10:38:12Z</time>
      </trkpt>
      <trkpt lat="42.9001490" lon="-5.7814070">
        <ele>1367.2</ele>
        <time>2019-07-21T10:38:13Z</time>
      </trkpt>
      <trkpt lat="42.8998730" lon="-5.7815110">
        <ele>1367.2</ele>
        <time>2019-07-21T10:38:15Z</time>
      </trkpt>
      <trkpt lat="42.8995990" lon="-5.7814630">
        <ele>1365.4</ele>
        <time>2019-07-21T10:38:17Z</time>
      </trkpt>
      <trkpt lat="42.8994680" lon="-5.7813660">
        <ele>1364.2</ele>
        <time>2019-07-21T10:38:18Z</time>
      </trkpt>
      <trkpt lat="42.8993350" lon="-5.7812500">
        <ele>1363.0</ele>
        <time>2019-07-21T10:38:19Z</time>
      </trkpt>
      <trkpt lat="42.8990560" lon="-5.7810210">
        <ele>1361.2</ele>
        <time>2019-07-21T10:38:21Z</time>
      </trkpt>
      <trkpt lat="42.8989090" lon="-5.7809190">
        <ele>1357.4</ele>
        <time>2019-07-21T10:38:22Z</time>
      </trkpt>
      <trkpt lat="42.8987550" lon="-5.7808210">
        <ele>1352.2</ele>
        <time>2019-07-21T10:38:23Z</time>
      </trkpt>
      <trkpt lat="42.8986010" lon="-5.7807310">
        <ele>1346.6</ele>
        <time>2019-07-21T10:38:24Z</time>
      </trkpt>
      <trkpt lat="42.8984440" lon="-5.7806430">
        <ele>1343.8</ele>
        <time>2019-07-21T10:38:25Z</time>
      </trkpt>
      <trkpt lat="42.8982890" lon="-5.7805470">
        <ele>1342.4</ele>
        <time>2019-07-21T10:38:26Z</time>
      </trkpt>
      <trkpt lat="42.8981420" lon="-5.7804370">
        <ele>1342.0</ele>
        <time>2019-07-21T10:38:27Z</time>
      </trkpt>
      <trkpt lat="42.8978770" lon="-5.7801530">
        <ele>1341.2</ele>
        <time>2019-07-21T10:38:29Z</time>
      </trkpt>
      <trkpt lat="42.8976500" lon="-5.7798170">
        <ele>1339.2</ele>
        <time>2019-07-21T10:38:31Z</time>
      </trkpt>
      <trkpt lat="42.8974240" lon="-5.7794830">
        <ele>1338.0</ele>
        <time>2019-07-21T10:38:33Z</time>
      </trkpt>
      <trkpt lat="42.8971030" lon="-5.7790100">
        <ele>1339.6</ele>
        <time>2019-07-21T10:38:36Z</time>
      </trkpt>
      <trkpt lat="42.8969080" lon="-5.7787360">
        <ele>1340.6</ele>
        <time>2019-07-21T10:38:38Z</time>
      </trkpt>
      <trkpt lat="42.8968350" lon="-5.7786230">
        <ele>1340.4</ele>
        <time>2019-07-21T10:38:39Z</time>
      </trkpt>
      <trkpt lat="42.8967910" lon="-5.7785220">
        <ele>1339.4</ele>
        <time>2019-07-21T10:38:40Z</time>
      </trkpt>
      <trkpt lat="42.8967800" lon="-5.7784200">
        <ele>1337.8</ele>
        <time>2019-07-21T10:38:41Z</time>
      </trkpt>
      <trkpt lat="42.8968070" lon="-5.7783340">
        <ele>1335.6</ele>
        <time>2019-07-21T10:38:42Z</time>
      </trkpt>
      <trkpt lat="42.8968650" lon="-5.7782770">
        <ele>1333.8</ele>
        <time>2019-07-21T10:38:43Z</time>
      </trkpt>
      <trkpt lat="42.8969390" lon="-5.7782630">
        <ele>1332.0</ele>
        <time>2019-07-21T10:38:44Z</time>
      </trkpt>
      <trkpt lat="42.8970100" lon="-5.7783000">
        <ele>1330.6</ele>
        <time>2019-07-21T10:38:45Z</time>
      </trkpt>
      <trkpt lat="42.8970750" lon="-5.7783690">
        <ele>1329.2</ele>
        <time>2019-07-21T10:38:46Z</time>
      </trkpt>
      <trkpt lat="42.8972290" lon="-5.7785150">
        <ele>1327.8</ele>
        <time>2019-07-21T10:38:48Z</time>
      </trkpt>
      <trkpt lat="42.8975040" lon="-5.7787490">
        <ele>1326.2</ele>
        <time>2019-07-21T10:38:51Z</time>
      </trkpt>
      <trkpt lat="42.8978210" lon="-5.7790160">
        <ele>1324.6</ele>
        <time>2019-07-21T10:38:54Z</time>
      </trkpt>
      <trkpt lat="42.8980380" lon="-5.7792300">
        <ele>1323.0</ele>
        <time>2019-07-21T10:38:56Z</time>
      </trkpt>
      <trkpt lat="42.8981450" lon="-5.7793480">
        <ele>1322.2</ele>
        <time>2019-07-21T10:38:57Z</time>
      </trkpt>
      <trkpt lat="42.8982560" lon="-5.7794670">
        <ele>1321.4</ele>
        <time>2019-07-21T10:38:58Z</time>
      </trkpt>
      <trkpt lat="42.8983750" lon="-5.7795800">
        <ele>1320.2</ele>
        <time>2019-07-21T10:38:59Z</time>
      </trkpt>
      <trkpt lat="42.8985040" lon="-5.7796780">
        <ele>1319.2</ele>
        <time>2019-07-21T10:39:00Z</time>
      </trkpt>
      <trkpt lat="42.8986400" lon="-5.7797500">
        <ele>1318.0</ele>
        <time>2019-07-21T10:39:01Z</time>
      </trkpt>
      <trkpt lat="42.8987750" lon="-5.7797980">
        <ele>1317.2</ele>
        <time>2019-07-21T10:39:02Z</time>
      </trkpt>
      <trkpt lat="42.8989050" lon="-5.7798320">
        <ele>1316.6</ele>
        <time>2019-07-21T10:39:03Z</time>
      </trkpt>
      <trkpt lat="42.8990330" lon="-5.7798500">
        <ele>1316.0</ele>
        <time>2019-07-21T10:39:04Z</time>
      </trkpt>
      <trkpt lat="42.8991580" lon="-5.7798420">
        <ele>1315.0</ele>
        <time>2019-07-21T10:39:05Z</time>
      </trkpt>
      <trkpt lat="42.8992760" lon="-5.7798070">
        <ele>1313.8</ele>
        <time>2019-07-21T10:39:06Z</time>
      </trkpt>
      <trkpt lat="42.8993820" lon="-5.7797440">
        <ele>1312.6</ele>
        <time>2019-07-21T10:39:07Z</time>
      </trkpt>
      <trkpt lat="42.8994750" lon="-5.7796600">
        <ele>1311.6</ele>
        <time>2019-07-21T10:39:08Z</time>
      </trkpt>
      <trkpt lat="42.8995900" lon="-5.7794510">
        <ele>1310.0</ele>
        <time>2019-07-21T10:39:10Z</time>
      </trkpt>
      <trkpt lat="42.8995580" lon="-5.7792330">
        <ele>1308.0</ele>
        <time>2019-07-21T10:39:12Z</time>
      </trkpt>
      <trkpt lat="42.8994010" lon="-5.7791730">
        <ele>1306.0</ele>
        <time>2019-07-21T10:39:14Z</time>
      </trkpt>
      <trkpt lat="42.8993150" lon="-5.7792110">
        <ele>1305.2</ele>
        <time>2019-07-21T10:39:15Z</time>
      </trkpt>
      <trkpt lat="42.8992190" lon="-5.7792630">
        <ele>1304.4</ele>
        <time>2019-07-21T10:39:16Z</time>
      </trkpt>
      <trkpt lat="42.8991110" lon="-5.7792930">
        <ele>1303.8</ele>
        <time>2019-07-21T10:39:17Z</time>
      </trkpt>
      <trkpt lat="42.8989980" lon="-5.7792880">
        <ele>1303.0</ele>
        <time>2019-07-21T10:39:18Z</time>
      </trkpt>
      <trkpt lat="42.8988880" lon="-5.7792390">
        <ele>1302.4</ele>
        <time>2019-07-21T10:39:19Z</time>
      </trkpt>
      <trkpt lat="42.8987820" lon="-5.7791560">
        <ele>1302.0</ele>
        <time>2019-07-21T10:39:20Z</time>
      </trkpt>
      <trkpt lat="42.8984770" lon="-5.7788230">
        <ele>1301.0</ele>
        <time>2019-07-21T10:39:23Z</time>
      </trkpt>
      <trkpt lat="42.8983920" lon="-5.7786810">
        <ele>1300.8</ele>
        <time>2019-07-21T10:39:24Z</time>
      </trkpt>
      <trkpt lat="42.8983180" lon="-5.7785270">
        <ele>1300.4</ele>
        <time>2019-07-21T10:39:25Z</time>
      </trkpt>
      <trkpt lat="42.8982000" lon="-5.7781890">
        <ele>1299.6</ele>
        <time>2019-07-21T10:39:27Z</time>
      </trkpt>
      <trkpt lat="42.8979880" lon="-5.7776850">
        <ele>1298.4</ele>
        <time>2019-07-21T10:39:30Z</time>
      </trkpt>
      <trkpt lat="42.8978320" lon="-5.7773520">
        <ele>1297.2</ele>
        <time>2019-07-21T10:39:32Z</time>
      </trkpt>
      <trkpt lat="42.8976780" lon="-5.7770130">
        <ele>1295.8</ele>
        <time>2019-07-21T10:39:34Z</time>
      </trkpt>
      <trkpt lat="42.8976030" lon="-5.7768420">
        <ele>1294.6</ele>
        <time>2019-07-21T10:39:35Z</time>
      </trkpt>
      <trkpt lat="42.8975280" lon="-5.7766730">
        <ele>1293.2</ele>
        <time>2019-07-21T10:39:36Z</time>
      </trkpt>
      <trkpt lat="42.8974470" lon="-5.7765070">
        <ele>1291.8</ele>
        <time>2019-07-21T10:39:37Z</time>
      </trkpt>
      <trkpt lat="42.8973580" lon="-5.7763500">
        <ele>1290.6</ele>
        <time>2019-07-21T10:39:38Z</time>
      </trkpt>
      <trkpt lat="42.8972550" lon="-5.7762070">
        <ele>1289.4</ele>
        <time>2019-07-21T10:39:39Z</time>
      </trkpt>
      <trkpt lat="42.8971390" lon="-5.7760840">
        <ele>1288.4</ele>
        <time>2019-07-21T10:39:40Z</time>
      </trkpt>
      <trkpt lat="42.8970150" lon="-5.7759770">
        <ele>1287.4</ele>
        <time>2019-07-21T10:39:41Z</time>
      </trkpt>
      <trkpt lat="42.8967510" lon="-5.7758010">
        <ele>1285.6</ele>
        <time>2019-07-21T10:39:43Z</time>
      </trkpt>
      <trkpt lat="42.8966170" lon="-5.7757390">
        <ele>1285.0</ele>
        <time>2019-07-21T10:39:44Z</time>
      </trkpt>
      <trkpt lat="42.8964880" lon="-5.7757140">
        <ele>1284.2</ele>
        <time>2019-07-21T10:39:45Z</time>
      </trkpt>
      <trkpt lat="42.8963660" lon="-5.7757350">
        <ele>1282.8</ele>
        <time>2019-07-21T10:39:46Z</time>
      </trkpt>
      <trkpt lat="42.8962550" lon="-5.7758020">
        <ele>1280.8</ele>
        <time>2019-07-21T10:39:47Z</time>
      </trkpt>
      <trkpt lat="42.8961560" lon="-5.7759070">
        <ele>1279.0</ele>
        <time>2019-07-21T10:39:48Z</time>
      </trkpt>
      <trkpt lat="42.8960650" lon="-5.7760250">
        <ele>1277.4</ele>
        <time>2019-07-21T10:39:49Z</time>
      </trkpt>
      <trkpt lat="42.8959760" lon="-5.7761490">
        <ele>1276.4</ele>
        <time>2019-07-21T10:39:50Z</time>
      </trkpt>
      <trkpt lat="42.8958910" lon="-5.7762830">
        <ele>1275.4</ele>
        <time>2019-07-21T10:39:51Z</time>
      </trkpt>
      <trkpt lat="42.8958090" lon="-5.7764270">
        <ele>1274.4</ele>
        <time>2019-07-21T10:39:52Z</time>
      </trkpt>
      <trkpt lat="42.8957270" lon="-5.7765770">
        <ele>1273.2</ele>
        <time>2019-07-21T10:39:53Z</time>
      </trkpt>
      <trkpt lat="42.8955600" lon="-5.7768840">
        <ele>1271.8</ele>
        <time>2019-07-21T10:39:55Z</time>
      </trkpt>
      <trkpt lat="42.8953870" lon="-5.7771900">
        <ele>1270.0</ele>
        <time>2019-07-21T10:39:57Z</time>
      </trkpt>
      <trkpt lat="42.8952980" lon="-5.7773480">
        <ele>1268.4</ele>
        <time>2019-07-21T10:39:58Z</time>
      </trkpt>
      <trkpt lat="42.8952070" lon="-5.7775090">
        <ele>1265.2</ele>
        <time>2019-07-21T10:39:59Z</time>
      </trkpt>
      <trkpt lat="42.8951160" lon="-5.7776710">
        <ele>1261.6</ele>
        <time>2019-07-21T10:40:00Z</time>
      </trkpt>
      <trkpt lat="42.8950250" lon="-5.7778330">
        <ele>1257.8</ele>
        <time>2019-07-21T10:40:01Z</time>
      </trkpt>
      <trkpt lat="42.8949310" lon="-5.7779940">
        <ele>1255.2</ele>
        <time>2019-07-21T10:40:02Z</time>
      </trkpt>
      <trkpt lat="42.8948380" lon="-5.7781580">
        <ele>1253.2</ele>
        <time>2019-07-21T10:40:03Z</time>
      </trkpt>
      <trkpt lat="42.8947450" lon="-5.7783190">
        <ele>1251.6</ele>
        <time>2019-07-21T10:40:04Z</time>
      </trkpt>
      <trkpt lat="42.8946500" lon="-5.7784800">
        <ele>1250.6</ele>
        <time>2019-07-21T10:40:05Z</time>
      </trkpt>
      <trkpt lat="42.8944690" lon="-5.7788130">
        <ele>1249.2</ele>
        <time>2019-07-21T10:40:07Z</time>
      </trkpt>
      <trkpt lat="42.8943150" lon="-5.7791700">
        <ele>1247.8</ele>
        <time>2019-07-21T10:40:09Z</time>
      </trkpt>
      <trkpt lat="42.8941880" lon="-5.7795620">
        <ele>1245.8</ele>
        <time>2019-07-21T10:40:11Z</time>
      </trkpt>
      <trkpt lat="42.8941320" lon="-5.7797620">
        <ele>1244.4</ele>
        <time>2019-07-21T10:40:12Z</time>
      </trkpt>
      <trkpt lat="42.8940780" lon="-5.7799690">
        <ele>1243.2</ele>
        <time>2019-07-21T10:40:13Z</time>
      </trkpt>
      <trkpt lat="42.8939760" lon="-5.7803900">
        <ele>1241.4</ele>
        <time>2019-07-21T10:40:15Z</time>
      </trkpt>
      <trkpt lat="42.8939320" lon="-5.7806030">
        <ele>1240.2</ele>
        <time>2019-07-21T10:40:16Z</time>
      </trkpt>
      <trkpt lat="42.8938890" lon="-5.7808170">
        <ele>1239.2</ele>
        <time>2019-07-21T10:40:17Z</time>
      </trkpt>
      <trkpt lat="42.8938510" lon="-5.7810310">
        <ele>1237.8</ele>
        <time>2019-07-21T10:40:18Z</time>
      </trkpt>
      <trkpt lat="42.8938200" lon="-5.7812470">
        <ele>1236.8</ele>
        <time>2019-07-21T10:40:19Z</time>
      </trkpt>
      <trkpt lat="42.8938160" lon="-5.7814690">
        <ele>1236.0</ele>
        <time>2019-07-21T10:40:20Z</time>
      </trkpt>
      <trkpt lat="42.8938240" lon="-5.7816900">
        <ele>1235.4</ele>
        <time>2019-07-21T10:40:21Z</time>
      </trkpt>
      <trkpt lat="42.8938130" lon="-5.7819260">
        <ele>1235.2</ele>
        <time>2019-07-21T10:40:22Z</time>
      </trkpt>
      <trkpt lat="42.8938170" lon="-5.7821450">
        <ele>1236.6</ele>
        <time>2019-07-21T10:40:23Z</time>
      </trkpt>
      <trkpt lat="42.8938210" lon="-5.7823540">
        <ele>1238.4</ele>
        <time>2019-07-21T10:40:24Z</time>
      </trkpt>
      <trkpt lat="42.8938260" lon="-5.7825490">
        <ele>1240.4</ele>
        <time>2019-07-21T10:40:25Z</time>
      </trkpt>
      <trkpt lat="42.8938290" lon="-5.7827320">
        <ele>1241.6</ele>
        <time>2019-07-21T10:40:26Z</time>
      </trkpt>
      <trkpt lat="42.8938300" lon="-5.7835650">
        <ele>1240.4</ele>
        <time>2019-07-21T10:40:31Z</time>
      </trkpt>
      <trkpt lat="42.8938320" lon="-5.7838800">
        <ele>1239.8</ele>
        <time>2019-07-21T10:40:33Z</time>
      </trkpt>
      <trkpt lat="42.8938360" lon="-5.7840280">
        <ele>1239.4</ele>
        <time>2019-07-21T10:40:34Z</time>
      </trkpt>
      <trkpt lat="42.8938350" lon="-5.7841640">
        <ele>1239.2</ele>
        <time>2019-07-21T10:40:35Z</time>
      </trkpt>
      <trkpt lat="42.8937910" lon="-5.7843570">
        <ele>1237.8</ele>
        <time>2019-07-21T10:40:37Z</time>
      </trkpt>
      <trkpt lat="42.8936880" lon="-5.7843740">
        <ele>1235.8</ele>
        <time>2019-07-21T10:40:39Z</time>
      </trkpt>
      <trkpt lat="42.8936030" lon="-5.7842310">
        <ele>1233.8</ele>
        <time>2019-07-21T10:40:41Z</time>
      </trkpt>
      <trkpt lat="42.8935730" lon="-5.7839980">
        <ele>1232.0</ele>
        <time>2019-07-21T10:40:43Z</time>
      </trkpt>
      <trkpt lat="42.8935840" lon="-5.7837340">
        <ele>1230.8</ele>
        <time>2019-07-21T10:40:45Z</time>
      </trkpt>
      <trkpt lat="42.8935910" lon="-5.7834490">
        <ele>1229.8</ele>
        <time>2019-07-21T10:40:47Z</time>
      </trkpt>
      <trkpt lat="42.8935710" lon="-5.7833000">
        <ele>1229.4</ele>
        <time>2019-07-21T10:40:48Z</time>
      </trkpt>
      <trkpt lat="42.8934610" lon="-5.7828370">
        <ele>1228.2</ele>
        <time>2019-07-21T10:40:51Z</time>
      </trkpt>
      <trkpt lat="42.8933600" lon="-5.7823260">
        <ele>1226.6</ele>
        <time>2019-07-21T10:40:54Z</time>
      </trkpt>
      <trkpt lat="42.8933080" lon="-5.7819670">
        <ele>1225.0</ele>
        <time>2019-07-21T10:40:56Z</time>
      </trkpt>
      <trkpt lat="42.8932320" lon="-5.7814200">
        <ele>1223.8</ele>
        <time>2019-07-21T10:40:59Z</time>
      </trkpt>
      <trkpt lat="42.8932010" lon="-5.7810550">
        <ele>1222.0</ele>
        <time>2019-07-21T10:41:01Z</time>
      </trkpt>
      <trkpt lat="42.8931830" lon="-5.7806860">
        <ele>1220.2</ele>
        <time>2019-07-21T10:41:03Z</time>
      </trkpt>
      <trkpt lat="42.8931750" lon="-5.7805000">
        <ele>1219.2</ele>
        <time>2019-07-21T10:41:04Z</time>
      </trkpt>
      <trkpt lat="42.8931690" lon="-5.7803120">
        <ele>1218.2</ele>
        <time>2019-07-21T10:41:05Z</time>
      </trkpt>
      <trkpt lat="42.8931560" lon="-5.7799360">
        <ele>1216.4</ele>
        <time>2019-07-21T10:41:07Z</time>
      </trkpt>
      <trkpt lat="42.8931480" lon="-5.7797500">
        <ele>1215.4</ele>
        <time>2019-07-21T10:41:08Z</time>
      </trkpt>
      <trkpt lat="42.8931430" lon="-5.7795610">
        <ele>1214.0</ele>
        <time>2019-07-21T10:41:09Z</time>
      </trkpt>
      <trkpt lat="42.8931370" lon="-5.7793720">
        <ele>1212.8</ele>
        <time>2019-07-21T10:41:10Z</time>
      </trkpt>
      <trkpt lat="42.8931300" lon="-5.7791860">
        <ele>1211.8</ele>
        <time>2019-07-21T10:41:11Z</time>
      </trkpt>
      <trkpt lat="42.8931300" lon="-5.7788190">
        <ele>1210.4</ele>
        <time>2019-07-21T10:41:13Z</time>
      </trkpt>
      <trkpt lat="42.8931820" lon="-5.7782640">
        <ele>1208.6</ele>
        <time>2019-07-21T10:41:16Z</time>
      </trkpt>
      <trkpt lat="42.8932290" lon="-5.7778870">
        <ele>1206.8</ele>
        <time>2019-07-21T10:41:18Z</time>
      </trkpt>
      <trkpt lat="42.8932520" lon="-5.7776940">
        <ele>1204.4</ele>
        <time>2019-07-21T10:41:19Z</time>
      </trkpt>
      <trkpt lat="42.8932730" lon="-5.7774980">
        <ele>1201.2</ele>
        <time>2019-07-21T10:41:20Z</time>
      </trkpt>
      <trkpt lat="42.8932920" lon="-5.7773040">
        <ele>1197.0</ele>
        <time>2019-07-21T10:41:21Z</time>
      </trkpt>
      <trkpt lat="42.8933140" lon="-5.7771110">
        <ele>1193.6</ele>
        <time>2019-07-21T10:41:22Z</time>
      </trkpt>
      <trkpt lat="42.8933380" lon="-5.7769160">
        <ele>1191.2</ele>
        <time>2019-07-21T10:41:23Z</time>
      </trkpt>
      <trkpt lat="42.8933610" lon="-5.7767200">
        <ele>1189.4</ele>
        <time>2019-07-21T10:41:24Z</time>
      </trkpt>
      <trkpt lat="42.8933830" lon="-5.7765220">
        <ele>1188.2</ele>
        <time>2019-07-21T10:41:25Z</time>
      </trkpt>
      <trkpt lat="42.8934190" lon="-5.7761230">
        <ele>1186.4</ele>
        <time>2019-07-21T10:41:27Z</time>
      </trkpt>
      <trkpt lat="42.8934860" lon="-5.7754680">
        <ele>1186.4</ele>
        <time>2019-07-21T10:41:30Z</time>
      </trkpt>
      <trkpt lat="42.8935570" lon="-5.7750700">
        <ele>1187.4</ele>
        <time>2019-07-21T10:41:32Z</time>
      </trkpt>
      <trkpt lat="42.8937020" lon="-5.7747370">
        <ele>1187.8</ele>
        <time>2019-07-21T10:41:34Z</time>
      </trkpt>
      <trkpt lat="42.8939120" lon="-5.7744680">
        <ele>1186.2</ele>
        <time>2019-07-21T10:41:36Z</time>
      </trkpt>
      <trkpt lat="42.8941300" lon="-5.7742330">
        <ele>1185.0</ele>
        <time>2019-07-21T10:41:38Z</time>
      </trkpt>
      <trkpt lat="42.8942290" lon="-5.7741170">
        <ele>1184.2</ele>
        <time>2019-07-21T10:41:39Z</time>
      </trkpt>
      <trkpt lat="42.8943200" lon="-5.7740030">
        <ele>1183.4</ele>
        <time>2019-07-21T10:41:40Z</time>
      </trkpt>
      <trkpt lat="42.8944010" lon="-5.7738790">
        <ele>1182.4</ele>
        <time>2019-07-21T10:41:41Z</time>
      </trkpt>
      <trkpt lat="42.8944640" lon="-5.7737370">
        <ele>1181.4</ele>
        <time>2019-07-21T10:41:42Z</time>
      </trkpt>
      <trkpt lat="42.8945120" lon="-5.7735780">
        <ele>1180.2</ele>
        <time>2019-07-21T10:41:43Z</time>
      </trkpt>
      <trkpt lat="42.8945530" lon="-5.7734100">
        <ele>1179.2</ele>
        <time>2019-07-21T10:41:44Z</time>
      </trkpt>
      <trkpt lat="42.8946120" lon="-5.7730740">
        <ele>1177.6</ele>
        <time>2019-07-21T10:41:46Z</time>
      </trkpt>
      <trkpt lat="42.8946520" lon="-5.7729180">
        <ele>1176.6</ele>
        <time>2019-07-21T10:41:47Z</time>
      </trkpt>
      <trkpt lat="42.8947100" lon="-5.7727800">
        <ele>1175.4</ele>
        <time>2019-07-21T10:41:48Z</time>
      </trkpt>
      <trkpt lat="42.8947870" lon="-5.7726660">
        <ele>1173.8</ele>
        <time>2019-07-21T10:41:49Z</time>
      </trkpt>
      <trkpt lat="42.8948830" lon="-5.7725790">
        <ele>1172.4</ele>
        <time>2019-07-21T10:41:50Z</time>
      </trkpt>
      <trkpt lat="42.8950870" lon="-5.7724230">
        <ele>1171.0</ele>
        <time>2019-07-21T10:41:52Z</time>
      </trkpt>
      <trkpt lat="42.8952490" lon="-5.7721680">
        <ele>1170.0</ele>
        <time>2019-07-21T10:41:54Z</time>
      </trkpt>
      <trkpt lat="42.8954290" lon="-5.7717280">
        <ele>1169.2</ele>
        <time>2019-07-21T10:41:57Z</time>
      </trkpt>
      <trkpt lat="42.8954670" lon="-5.7715750">
        <ele>1168.4</ele>
        <time>2019-07-21T10:41:58Z</time>
      </trkpt>
      <trkpt lat="42.8954830" lon="-5.7714140">
        <ele>1167.0</ele>
        <time>2019-07-21T10:41:59Z</time>
      </trkpt>
      <trkpt lat="42.8954800" lon="-5.7712470">
        <ele>1165.2</ele>
        <time>2019-07-21T10:42:00Z</time>
      </trkpt>
      <trkpt lat="42.8954690" lon="-5.7710790">
        <ele>1163.6</ele>
        <time>2019-07-21T10:42:01Z</time>
      </trkpt>
      <trkpt lat="42.8954530" lon="-5.7709210">
        <ele>1162.4</ele>
        <time>2019-07-21T10:42:02Z</time>
      </trkpt>
      <trkpt lat="42.8954210" lon="-5.7707830">
        <ele>1161.2</ele>
        <time>2019-07-21T10:42:03Z</time>
      </trkpt>
      <trkpt lat="42.8953630" lon="-5.7706640">
        <ele>1159.8</ele>
        <time>2019-07-21T10:42:04Z</time>
      </trkpt>
      <trkpt lat="42.8952760" lon="-5.7705750">
        <ele>1158.6</ele>
        <time>2019-07-21T10:42:05Z</time>
      </trkpt>
      <trkpt lat="42.8951740" lon="-5.7705090">
        <ele>1157.4</ele>
        <time>2019-07-21T10:42:06Z</time>
      </trkpt>
      <trkpt lat="42.8949550" lon="-5.7704020">
        <ele>1155.4</ele>
        <time>2019-07-21T10:42:08Z</time>
      </trkpt>
      <trkpt lat="42.8947310" lon="-5.7703050">
        <ele>1153.8</ele>
        <time>2019-07-21T10:42:10Z</time>
      </trkpt>
      <trkpt lat="42.8945250" lon="-5.7701900">
        <ele>1152.6</ele>
        <time>2019-07-21T10:42:12Z</time>
      </trkpt>
      <trkpt lat="42.8944380" lon="-5.7700940">
        <ele>1151.6</ele>
        <time>2019-07-21T10:42:13Z</time>
      </trkpt>
      <trkpt lat="42.8943660" lon="-5.7699700">
        <ele>1150.2</ele>
        <time>2019-07-21T10:42:14Z</time>
      </trkpt>
      <trkpt lat="42.8943080" lon="-5.7698260">
        <ele>1148.6</ele>
        <time>2019-07-21T10:42:15Z</time>
      </trkpt>
      <trkpt lat="42.8942590" lon="-5.7696740">
        <ele>1147.4</ele>
        <time>2019-07-21T10:42:16Z</time>
      </trkpt>
      <trkpt lat="42.8942030" lon="-5.7695300">
        <ele>1146.2</ele>
        <time>2019-07-21T10:42:17Z</time>
      </trkpt>
      <trkpt lat="42.8941310" lon="-5.7694140">
        <ele>1145.0</ele>
        <time>2019-07-21T10:42:18Z</time>
      </trkpt>
      <trkpt lat="42.8940500" lon="-5.7693100">
        <ele>1143.6</ele>
        <time>2019-07-21T10:42:19Z</time>
      </trkpt>
      <trkpt lat="42.8939810" lon="-5.7691920">
        <ele>1142.2</ele>
        <time>2019-07-21T10:42:20Z</time>
      </trkpt>
      <trkpt lat="42.8939350" lon="-5.7690530">
        <ele>1141.0</ele>
        <time>2019-07-21T10:42:21Z</time>
      </trkpt>
      <trkpt lat="42.8939100" lon="-5.7688940">
        <ele>1140.0</ele>
        <time>2019-07-21T10:42:22Z</time>
      </trkpt>
      <trkpt lat="42.8938910" lon="-5.7687290">
        <ele>1139.0</ele>
        <time>2019-07-21T10:42:23Z</time>
      </trkpt>
      <trkpt lat="42.8938720" lon="-5.7685660">
        <ele>1138.0</ele>
        <time>2019-07-21T10:42:24Z</time>
      </trkpt>
      <trkpt lat="42.8938580" lon="-5.7682400">
        <ele>1136.0</ele>
        <time>2019-07-21T10:42:26Z</time>
      </trkpt>
      <trkpt lat="42.8938760" lon="-5.7680760">
        <ele>1134.8</ele>
        <time>2019-07-21T10:42:27Z</time>
      </trkpt>
      <trkpt lat="42.8939140" lon="-5.7679170">
        <ele>1133.8</ele>
        <time>2019-07-21T10:42:28Z</time>
      </trkpt>
      <trkpt lat="42.8939630" lon="-5.7677600">
        <ele>1132.8</ele>
        <time>2019-07-21T10:42:29Z</time>
      </trkpt>
      <trkpt lat="42.8940100" lon="-5.7676050">
        <ele>1131.6</ele>
        <time>2019-07-21T10:42:30Z</time>
      </trkpt>
      <trkpt lat="42.8940530" lon="-5.7674600">
        <ele>1130.6</ele>
        <time>2019-07-21T10:42:31Z</time>
      </trkpt>
      <trkpt lat="42.8940840" lon="-5.7673260">
        <ele>1129.4</ele>
        <time>2019-07-21T10:42:32Z</time>
      </trkpt>
      <trkpt lat="42.8940920" lon="-5.7671980">
        <ele>1128.4</ele>
        <time>2019-07-21T10:42:33Z</time>
      </trkpt>
      <trkpt lat="42.8940720" lon="-5.7670720">
        <ele>1127.2</ele>
        <time>2019-07-21T10:42:34Z</time>
      </trkpt>
      <trkpt lat="42.8940060" lon="-5.7668130">
        <ele>1125.4</ele>
        <time>2019-07-21T10:42:36Z</time>
      </trkpt>
      <trkpt lat="42.8939590" lon="-5.7665540">
        <ele>1124.4</ele>
        <time>2019-07-21T10:42:38Z</time>
      </trkpt>
      <trkpt lat="42.8939170" lon="-5.7664380">
        <ele>1124.0</ele>
        <time>2019-07-21T10:42:39Z</time>
      </trkpt>
      <trkpt lat="42.8938650" lon="-5.7663420">
        <ele>1123.4</ele>
        <time>2019-07-21T10:42:40Z</time>
      </trkpt>
      <trkpt lat="42.8938180" lon="-5.7662610">
        <ele>1122.8</ele>
        <time>2019-07-21T10:42:41Z</time>
      </trkpt>
      <trkpt lat="42.8937940" lon="-5.7661740">
        <ele>1122.4</ele>
        <time>2019-07-21T10:42:42Z</time>
      </trkpt>
      <trkpt lat="42.8938120" lon="-5.7659910">
        <ele>1121.8</ele>
        <time>2019-07-21T10:42:44Z</time>
      </trkpt>
      <trkpt lat="42.8938570" lon="-5.7656910">
        <ele>1121.4</ele>
        <time>2019-07-21T10:42:47Z</time>
      </trkpt>
      <trkpt lat="42.8937980" lon="-5.7655020">
        <ele>1121.4</ele>
        <time>2019-07-21T10:42:49Z</time>
      </trkpt>
      <trkpt lat="42.8936810" lon="-5.7653620">
        <ele>1121.6</ele>
        <time>2019-07-21T10:42:51Z</time>
      </trkpt>
      <trkpt lat="42.8936110" lon="-5.7652940">
        <ele>1122.0</ele>
        <time>2019-07-21T10:42:52Z</time>
      </trkpt>
      <trkpt lat="42.8934630" lon="-5.7651720">
        <ele>1122.6</ele>
        <time>2019-07-21T10:42:54Z</time>
      </trkpt>
      <trkpt lat="42.8932160" lon="-5.7650280">
        <ele>1122.4</ele>
        <time>2019-07-21T10:42:57Z</time>
      </trkpt>
      <trkpt lat="42.8929440" lon="-5.7649030">
        <ele>1121.4</ele>
        <time>2019-07-21T10:43:00Z</time>
      </trkpt>
      <trkpt lat="42.8926580" lon="-5.7648070">
        <ele>1120.6</ele>
        <time>2019-07-21T10:43:03Z</time>
      </trkpt>
      <trkpt lat="42.8921900" lon="-5.7646960">
        <ele>1119.2</ele>
        <time>2019-07-21T10:43:08Z</time>
      </trkpt>
      <trkpt lat="42.8916640" lon="-5.7645960">
        <ele>1119.2</ele>
        <time>2019-07-21T10:43:14Z</time>
      </trkpt>
      <trkpt lat="42.8911420" lon="-5.7645320">
        <ele>1118.8</ele>
        <time>2019-07-21T10:43:20Z</time>
      </trkpt>
      <trkpt lat="42.8908800" lon="-5.7645130">
        <ele>1118.0</ele>
        <time>2019-07-21T10:43:23Z</time>
      </trkpt>
      <trkpt lat="42.8907030" lon="-5.7645040">
        <ele>1117.6</ele>
        <time>2019-07-21T10:43:25Z</time>
      </trkpt>
      <trkpt lat="42.8903610" lon="-5.7644610">
        <ele>1117.4</ele>
        <time>2019-07-21T10:43:29Z</time>
      </trkpt>
      <trkpt lat="42.8902160" lon="-5.7643810">
        <ele>1117.6</ele>
        <time>2019-07-21T10:43:31Z</time>
      </trkpt>
      <trkpt lat="42.8898350" lon="-5.7639340">
        <ele>1117.6</ele>
        <time>2019-07-21T10:43:37Z</time>
      </trkpt>
      <trkpt lat="42.8895610" lon="-5.7635880">
        <ele>1116.4</ele>
        <time>2019-07-21T10:43:41Z</time>
      </trkpt>
      <trkpt lat="42.8894190" lon="-5.7634040">
        <ele>1115.4</ele>
        <time>2019-07-21T10:43:43Z</time>
      </trkpt>
      <trkpt lat="42.8889920" lon="-5.7628150">
        <ele>1114.2</ele>
        <time>2019-07-21T10:43:49Z</time>
      </trkpt>
      <trkpt lat="42.8885800" lon="-5.7623660">
        <ele>1112.6</ele>
        <time>2019-07-21T10:43:54Z</time>
      </trkpt>
      <trkpt lat="42.8883960" lon="-5.7622100">
        <ele>1111.6</ele>
        <time>2019-07-21T10:43:56Z</time>
      </trkpt>
      <trkpt lat="42.8882980" lon="-5.7621460">
        <ele>1111.0</ele>
        <time>2019-07-21T10:43:57Z</time>
      </trkpt>
      <trkpt lat="42.8880920" lon="-5.7620570">
        <ele>1110.2</ele>
        <time>2019-07-21T10:43:59Z</time>
      </trkpt>
      <trkpt lat="42.8877760" lon="-5.7619920">
        <ele>1109.2</ele>
        <time>2019-07-21T10:44:02Z</time>
      </trkpt>
      <trkpt lat="42.8872560" lon="-5.7620690">
        <ele>1108.6</ele>
        <time>2019-07-21T10:44:07Z</time>
      </trkpt>
      <trkpt lat="42.8866840" lon="-5.7624150">
        <ele>1108.2</ele>
        <time>2019-07-21T10:44:13Z</time>
      </trkpt>
      <trkpt lat="42.8865860" lon="-5.7624650">
        <ele>1107.8</ele>
        <time>2019-07-21T10:44:14Z</time>
      </trkpt>
      <trkpt lat="42.8863800" lon="-5.7625090">
        <ele>1106.8</ele>
        <time>2019-07-21T10:44:16Z</time>
      </trkpt>
      <trkpt lat="42.8861830" lon="-5.7624780">
        <ele>1106.0</ele>
        <time>2019-07-21T10:44:18Z</time>
      </trkpt>
      <trkpt lat="42.8860940" lon="-5.7624350">
        <ele>1105.8</ele>
        <time>2019-07-21T10:44:19Z</time>
      </trkpt>
      <trkpt lat="42.8860180" lon="-5.7623690">
        <ele>1105.6</ele>
        <time>2019-07-21T10:44:20Z</time>
      </trkpt>
      <trkpt lat="42.8859040" lon="-5.7621780">
        <ele>1105.2</ele>
        <time>2019-07-21T10:44:22Z</time>
      </trkpt>
      <trkpt lat="42.8858510" lon="-5.7619370">
        <ele>1105.2</ele>
        <time>2019-07-21T10:44:24Z</time>
      </trkpt>
      <trkpt lat="42.8858550" lon="-5.7614130">
        <ele>1104.4</ele>
        <time>2019-07-21T10:44:28Z</time>
      </trkpt>
      <trkpt lat="42.8859350" lon="-5.7608940">
        <ele>1103.2</ele>
        <time>2019-07-21T10:44:32Z</time>
      </trkpt>
      <trkpt lat="42.8859790" lon="-5.7604850">
        <ele>1102.2</ele>
        <time>2019-07-21T10:44:35Z</time>
      </trkpt>
      <trkpt lat="42.8859840" lon="-5.7601870">
        <ele>1101.4</ele>
        <time>2019-07-21T10:44:37Z</time>
      </trkpt>
      <trkpt lat="42.8859460" lon="-5.7599080">
        <ele>1101.0</ele>
        <time>2019-07-21T10:44:39Z</time>
      </trkpt>
      <trkpt lat="42.8858210" lon="-5.7593920">
        <ele>1100.2</ele>
        <time>2019-07-21T10:44:43Z</time>
      </trkpt>
      <trkpt lat="42.8855410" lon="-5.7587470">
        <ele>1100.4</ele>
        <time>2019-07-21T10:44:49Z</time>
      </trkpt>
      <trkpt lat="42.8851450" lon="-5.7582340">
        <ele>1100.4</ele>
        <time>2019-07-21T10:44:55Z</time>
      </trkpt>
      <trkpt lat="42.8848850" lon="-5.7578530">
        <ele>1100.0</ele>
        <time>2019-07-21T10:44:59Z</time>
      </trkpt>
      <trkpt lat="42.8846830" lon="-5.7575800">
        <ele>1098.8</ele>
        <time>2019-07-21T10:45:02Z</time>
      </trkpt>
      <trkpt lat="42.8843030" lon="-5.7570510">
        <ele>1098.0</ele>
        <time>2019-07-21T10:45:08Z</time>
      </trkpt>
      <trkpt lat="42.8841990" lon="-5.7568590">
        <ele>1097.4</ele>
        <time>2019-07-21T10:45:10Z</time>
      </trkpt>
      <trkpt lat="42.8839360" lon="-5.7562700">
        <ele>1097.8</ele>
        <time>2019-07-21T10:45:16Z</time>
      </trkpt>
      <trkpt lat="42.8837630" lon="-5.7556400">
        <ele>1097.2</ele>
        <time>2019-07-21T10:45:22Z</time>
      </trkpt>
      <trkpt lat="42.8836540" lon="-5.7551720">
        <ele>1096.4</ele>
        <time>2019-07-21T10:45:26Z</time>
      </trkpt>
      <trkpt lat="42.8835730" lon="-5.7548100">
        <ele>1095.4</ele>
        <time>2019-07-21T10:45:29Z</time>
      </trkpt>
      <trkpt lat="42.8834060" lon="-5.7540700">
        <ele>1094.6</ele>
        <time>2019-07-21T10:45:35Z</time>
      </trkpt>
      <trkpt lat="42.8833770" lon="-5.7539460">
        <ele>1094.2</ele>
        <time>2019-07-21T10:45:36Z</time>
      </trkpt>
      <trkpt lat="42.8832280" lon="-5.7534590">
        <ele>1093.2</ele>
        <time>2019-07-21T10:45:40Z</time>
      </trkpt>
      <trkpt lat="42.8829350" lon="-5.7527920">
        <ele>1093.0</ele>
        <time>2019-07-21T10:45:46Z</time>
      </trkpt>
      <trkpt lat="42.8826330" lon="-5.7521570">
        <ele>1092.8</ele>
        <time>2019-07-21T10:45:52Z</time>
      </trkpt>
      <trkpt lat="42.8824890" lon="-5.7516990">
        <ele>1092.2</ele>
        <time>2019-07-21T10:45:56Z</time>
      </trkpt>
      <trkpt lat="42.8823030" lon="-5.7510020">
        <ele>1092.2</ele>
        <time>2019-07-21T10:46:02Z</time>
      </trkpt>
      <trkpt lat="42.8821030" lon="-5.7503350">
        <ele>1092.2</ele>
        <time>2019-07-21T10:46:08Z</time>
      </trkpt>
      <trkpt lat="42.8819690" lon="-5.7499060">
        <ele>1092.0</ele>
        <time>2019-07-21T10:46:12Z</time>
      </trkpt>
      <trkpt lat="42.8818990" lon="-5.7491700">
        <ele>1091.8</ele>
        <time>2019-07-21T10:46:18Z</time>
      </trkpt>
      <trkpt lat="42.8818760" lon="-5.7486630">
        <ele>1090.4</ele>
        <time>2019-07-21T10:46:22Z</time>
      </trkpt>
      <trkpt lat="42.8818600" lon="-5.7484150">
        <ele>1089.0</ele>
        <time>2019-07-21T10:46:24Z</time>
      </trkpt>
      <trkpt lat="42.8818360" lon="-5.7480420">
        <ele>1088.0</ele>
        <time>2019-07-21T10:46:27Z</time>
      </trkpt>
      <trkpt lat="42.8817800" lon="-5.7472720">
        <ele>1086.6</ele>
        <time>2019-07-21T10:46:33Z</time>
      </trkpt>
      <trkpt lat="42.8817560" lon="-5.7471390">
        <ele>1086.6</ele>
        <time>2019-07-21T10:46:34Z</time>
      </trkpt>
      <trkpt lat="42.8816330" lon="-5.7467530">
        <ele>1085.6</ele>
        <time>2019-07-21T10:46:37Z</time>
      </trkpt>
      <trkpt lat="42.8814480" lon="-5.7462680">
        <ele>1084.4</ele>
        <time>2019-07-21T10:46:41Z</time>
      </trkpt>
      <trkpt lat="42.8812430" lon="-5.7455450">
        <ele>1084.8</ele>
        <time>2019-07-21T10:46:47Z</time>
      </trkpt>
      <trkpt lat="42.8812050" lon="-5.7453020">
        <ele>1084.4</ele>
        <time>2019-07-21T10:46:49Z</time>
      </trkpt>
      <trkpt lat="42.8812040" lon="-5.7449070">
        <ele>1083.2</ele>
        <time>2019-07-21T10:46:52Z</time>
      </trkpt>
      <trkpt lat="42.8812290" lon="-5.7441100">
        <ele>1082.2</ele>
        <time>2019-07-21T10:46:58Z</time>
      </trkpt>
      <trkpt lat="42.8812510" lon="-5.7438520">
        <ele>1082.2</ele>
        <time>2019-07-21T10:47:00Z</time>
      </trkpt>
      <trkpt lat="42.8813220" lon="-5.7436130">
        <ele>1082.0</ele>
        <time>2019-07-21T10:47:02Z</time>
      </trkpt>
      <trkpt lat="42.8815640" lon="-5.7431900">
        <ele>1080.8</ele>
        <time>2019-07-21T10:47:06Z</time>
      </trkpt>
      <trkpt lat="42.8819410" lon="-5.7425750">
        <ele>1079.8</ele>
        <time>2019-07-21T10:47:12Z</time>
      </trkpt>
      <trkpt lat="42.8819990" lon="-5.7424680">
        <ele>1079.6</ele>
        <time>2019-07-21T10:47:13Z</time>
      </trkpt>
      <trkpt lat="42.8820730" lon="-5.7422230">
        <ele>1079.0</ele>
        <time>2019-07-21T10:47:15Z</time>
      </trkpt>
      <trkpt lat="42.8820800" lon="-5.7420900">
        <ele>1078.8</ele>
        <time>2019-07-21T10:47:16Z</time>
      </trkpt>
      <trkpt lat="42.8820620" lon="-5.7419560">
        <ele>1078.4</ele>
        <time>2019-07-21T10:47:17Z</time>
      </trkpt>
      <trkpt lat="42.8817880" lon="-5.7412060">
        <ele>1077.6</ele>
        <time>2019-07-21T10:47:23Z</time>
      </trkpt>
      <trkpt lat="42.8815030" lon="-5.7406290">
        <ele>1076.8</ele>
        <time>2019-07-21T10:47:28Z</time>
      </trkpt>
      <trkpt lat="42.8814330" lon="-5.7403830">
        <ele>1076.6</ele>
        <time>2019-07-21T10:47:30Z</time>
      </trkpt>
      <trkpt lat="42.8814200" lon="-5.7402510">
        <ele>1076.4</ele>
        <time>2019-07-21T10:47:31Z</time>
      </trkpt>
      <trkpt lat="42.8814520" lon="-5.7395780">
        <ele>1075.4</ele>
        <time>2019-07-21T10:47:36Z</time>
      </trkpt>
      <trkpt lat="42.8814390" lon="-5.7390320">
        <ele>1074.4</ele>
        <time>2019-07-21T10:47:40Z</time>
      </trkpt>
      <trkpt lat="42.8813070" lon="-5.7382530">
        <ele>1074.2</ele>
        <time>2019-07-21T10:47:46Z</time>
      </trkpt>
      <trkpt lat="42.8811460" lon="-5.7376630">
        <ele>1073.4</ele>
        <time>2019-07-21T10:47:51Z</time>
      </trkpt>
      <trkpt lat="42.8809530" lon="-5.7369920">
        <ele>1073.6</ele>
        <time>2019-07-21T10:47:57Z</time>
      </trkpt>
      <trkpt lat="42.8807910" lon="-5.7362860">
        <ele>1072.6</ele>
        <time>2019-07-21T10:48:03Z</time>
      </trkpt>
      <trkpt lat="42.8807590" lon="-5.7361640">
        <ele>1072.2</ele>
        <time>2019-07-21T10:48:04Z</time>
      </trkpt>
      <trkpt lat="42.8805820" lon="-5.7356960">
        <ele>1071.6</ele>
        <time>2019-07-21T10:48:08Z</time>
      </trkpt>
      <trkpt lat="42.8805160" lon="-5.7355930">
        <ele>1071.2</ele>
        <time>2019-07-21T10:48:09Z</time>
      </trkpt>
      <trkpt lat="42.8802930" lon="-5.7353140">
        <ele>1070.6</ele>
        <time>2019-07-21T10:48:12Z</time>
      </trkpt>
      <trkpt lat="42.8801120" lon="-5.7351790">
        <ele>1070.4</ele>
        <time>2019-07-21T10:48:14Z</time>
      </trkpt>
      <trkpt lat="42.8800120" lon="-5.7351380">
        <ele>1070.2</ele>
        <time>2019-07-21T10:48:15Z</time>
      </trkpt>
      <trkpt lat="42.8799100" lon="-5.7351120">
        <ele>1070.0</ele>
        <time>2019-07-21T10:48:16Z</time>
      </trkpt>
      <trkpt lat="42.8797070" lon="-5.7350850">
        <ele>1069.6</ele>
        <time>2019-07-21T10:48:18Z</time>
      </trkpt>
      <trkpt lat="42.8795260" lon="-5.7349930">
        <ele>1069.4</ele>
        <time>2019-07-21T10:48:20Z</time>
      </trkpt>
      <trkpt lat="42.8793880" lon="-5.7348160">
        <ele>1069.4</ele>
        <time>2019-07-21T10:48:22Z</time>
      </trkpt>
      <trkpt lat="42.8792970" lon="-5.7346020">
        <ele>1069.6</ele>
        <time>2019-07-21T10:48:24Z</time>
      </trkpt>
      <trkpt lat="42.8791240" lon="-5.7338780">
        <ele>1070.0</ele>
        <time>2019-07-21T10:48:30Z</time>
      </trkpt>
      <trkpt lat="42.8790310" lon="-5.7333400">
        <ele>1068.8</ele>
        <time>2019-07-21T10:48:34Z</time>
      </trkpt>
      <trkpt lat="42.8790070" lon="-5.7329240">
        <ele>1067.8</ele>
        <time>2019-07-21T10:48:37Z</time>
      </trkpt>
      <trkpt lat="42.8790030" lon="-5.7320790">
        <ele>1066.8</ele>
        <time>2019-07-21T10:48:43Z</time>
      </trkpt>
      <trkpt lat="42.8790060" lon="-5.7319340">
        <ele>1066.0</ele>
        <time>2019-07-21T10:48:44Z</time>
      </trkpt>
      <trkpt lat="42.8790110" lon="-5.7316420">
        <ele>1065.0</ele>
        <time>2019-07-21T10:48:46Z</time>
      </trkpt>
      <trkpt lat="42.8790230" lon="-5.7312130">
        <ele>1063.6</ele>
        <time>2019-07-21T10:48:49Z</time>
      </trkpt>
      <trkpt lat="42.8789970" lon="-5.7307960">
        <ele>1062.4</ele>
        <time>2019-07-21T10:48:52Z</time>
      </trkpt>
      <trkpt lat="42.8788260" lon="-5.7300070">
        <ele>1063.2</ele>
        <time>2019-07-21T10:48:58Z</time>
      </trkpt>
      <trkpt lat="42.8786140" lon="-5.7293870">
        <ele>1063.6</ele>
        <time>2019-07-21T10:49:03Z</time>
      </trkpt>
      <trkpt lat="42.8783140" lon="-5.7286860">
        <ele>1063.4</ele>
        <time>2019-07-21T10:49:09Z</time>
      </trkpt>
      <trkpt lat="42.8781520" lon="-5.7283370">
        <ele>1062.2</ele>
        <time>2019-07-21T10:49:12Z</time>
      </trkpt>
      <trkpt lat="42.8780400" lon="-5.7281040">
        <ele>1060.8</ele>
        <time>2019-07-21T10:49:14Z</time>
      </trkpt>
      <trkpt lat="42.8778070" lon="-5.7276260">
        <ele>1059.8</ele>
        <time>2019-07-21T10:49:18Z</time>
      </trkpt>
      <trkpt lat="42.8774260" lon="-5.7269170">
        <ele>1059.8</ele>
        <time>2019-07-21T10:49:24Z</time>
      </trkpt>
      <trkpt lat="42.8770230" lon="-5.7262190">
        <ele>1058.4</ele>
        <time>2019-07-21T10:49:30Z</time>
      </trkpt>
      <trkpt lat="42.8766940" lon="-5.7256250">
        <ele>1057.4</ele>
        <time>2019-07-21T10:49:35Z</time>
      </trkpt>
      <trkpt lat="42.8763790" lon="-5.7248860">
        <ele>1057.0</ele>
        <time>2019-07-21T10:49:41Z</time>
      </trkpt>
      <trkpt lat="42.8761280" lon="-5.7241390">
        <ele>1056.6</ele>
        <time>2019-07-21T10:49:47Z</time>
      </trkpt>
      <trkpt lat="42.8760050" lon="-5.7237500">
        <ele>1056.2</ele>
        <time>2019-07-21T10:49:50Z</time>
      </trkpt>
      <trkpt lat="42.8757630" lon="-5.7229710">
        <ele>1055.6</ele>
        <time>2019-07-21T10:49:56Z</time>
      </trkpt>
      <trkpt lat="42.8756830" lon="-5.7227110">
        <ele>1054.8</ele>
        <time>2019-07-21T10:49:58Z</time>
      </trkpt>
      <trkpt lat="42.8754230" lon="-5.7219150">
        <ele>1053.8</ele>
        <time>2019-07-21T10:50:04Z</time>
      </trkpt>
      <trkpt lat="42.8751160" lon="-5.7211220">
        <ele>1052.6</ele>
        <time>2019-07-21T10:50:10Z</time>
      </trkpt>
      <trkpt lat="42.8747880" lon="-5.7203810">
        <ele>1052.0</ele>
        <time>2019-07-21T10:50:16Z</time>
      </trkpt>
      <trkpt lat="42.8745790" lon="-5.7199020">
        <ele>1052.0</ele>
        <time>2019-07-21T10:50:20Z</time>
      </trkpt>
      <trkpt lat="42.8745180" lon="-5.7196400">
        <ele>1051.8</ele>
        <time>2019-07-21T10:50:22Z</time>
      </trkpt>
      <trkpt lat="42.8745030" lon="-5.7193630">
        <ele>1051.0</ele>
        <time>2019-07-21T10:50:24Z</time>
      </trkpt>
      <trkpt lat="42.8745180" lon="-5.7189260">
        <ele>1049.6</ele>
        <time>2019-07-21T10:50:27Z</time>
      </trkpt>
      <trkpt lat="42.8745280" lon="-5.7180530">
        <ele>1048.8</ele>
        <time>2019-07-21T10:50:33Z</time>
      </trkpt>
      <trkpt lat="42.8745480" lon="-5.7172250">
        <ele>1048.8</ele>
        <time>2019-07-21T10:50:39Z</time>
      </trkpt>
      <trkpt lat="42.8745520" lon="-5.7170940">
        <ele>1048.6</ele>
        <time>2019-07-21T10:50:40Z</time>
      </trkpt>
      <trkpt lat="42.8746160" lon="-5.7162980">
        <ele>1048.2</ele>
        <time>2019-07-21T10:50:46Z</time>
      </trkpt>
      <trkpt lat="42.8746540" lon="-5.7155150">
        <ele>1048.0</ele>
        <time>2019-07-21T10:50:52Z</time>
      </trkpt>
      <trkpt lat="42.8746030" lon="-5.7151350">
        <ele>1048.0</ele>
        <time>2019-07-21T10:50:55Z</time>
      </trkpt>
      <trkpt lat="42.8744610" lon="-5.7146220">
        <ele>1047.4</ele>
        <time>2019-07-21T10:50:59Z</time>
      </trkpt>
      <trkpt lat="42.8741760" lon="-5.7138500">
        <ele>1046.0</ele>
        <time>2019-07-21T10:51:05Z</time>
      </trkpt>
      <trkpt lat="42.8740220" lon="-5.7134680">
        <ele>1044.6</ele>
        <time>2019-07-21T10:51:08Z</time>
      </trkpt>
      <trkpt lat="42.8737950" lon="-5.7128310">
        <ele>1043.6</ele>
        <time>2019-07-21T10:51:13Z</time>
      </trkpt>
      <trkpt lat="42.8735710" lon="-5.7120830">
        <ele>1043.6</ele>
        <time>2019-07-21T10:51:19Z</time>
      </trkpt>
      <trkpt lat="42.8733800" lon="-5.7114510">
        <ele>1043.4</ele>
        <time>2019-07-21T10:51:24Z</time>
      </trkpt>
      <trkpt lat="42.8733620" lon="-5.7111780">
        <ele>1043.2</ele>
        <time>2019-07-21T10:51:26Z</time>
      </trkpt>
      <trkpt lat="42.8734800" lon="-5.7103780">
        <ele>1043.0</ele>
        <time>2019-07-21T10:51:32Z</time>
      </trkpt>
      <trkpt lat="42.8735150" lon="-5.7097110">
        <ele>1042.4</ele>
        <time>2019-07-21T10:51:37Z</time>
      </trkpt>
      <trkpt lat="42.8735230" lon="-5.7091560">
        <ele>1041.2</ele>
        <time>2019-07-21T10:51:41Z</time>
      </trkpt>
      <trkpt lat="42.8735360" lon="-5.7083300">
        <ele>1040.8</ele>
        <time>2019-07-21T10:51:47Z</time>
      </trkpt>
      <trkpt lat="42.8735020" lon="-5.7075260">
        <ele>1040.4</ele>
        <time>2019-07-21T10:51:53Z</time>
      </trkpt>
      <trkpt lat="42.8734900" lon="-5.7073950">
        <ele>1040.2</ele>
        <time>2019-07-21T10:51:54Z</time>
      </trkpt>
      <trkpt lat="42.8734770" lon="-5.7072640">
        <ele>1040.0</ele>
        <time>2019-07-21T10:51:55Z</time>
      </trkpt>
      <trkpt lat="42.8734050" lon="-5.7067400">
        <ele>1039.0</ele>
        <time>2019-07-21T10:51:59Z</time>
      </trkpt>
      <trkpt lat="42.8732720" lon="-5.7059670">
        <ele>1039.2</ele>
        <time>2019-07-21T10:52:05Z</time>
      </trkpt>
      <trkpt lat="42.8731430" lon="-5.7051930">
        <ele>1038.8</ele>
        <time>2019-07-21T10:52:11Z</time>
      </trkpt>
      <trkpt lat="42.8730400" lon="-5.7044140">
        <ele>1038.4</ele>
        <time>2019-07-21T10:52:17Z</time>
      </trkpt>
      <trkpt lat="42.8730210" lon="-5.7038800">
        <ele>1037.8</ele>
        <time>2019-07-21T10:52:21Z</time>
      </trkpt>
      <trkpt lat="42.8730180" lon="-5.7030860">
        <ele>1037.6</ele>
        <time>2019-07-21T10:52:27Z</time>
      </trkpt>
      <trkpt lat="42.8729410" lon="-5.7025860">
        <ele>1037.4</ele>
        <time>2019-07-21T10:52:31Z</time>
      </trkpt>
      <trkpt lat="42.8727040" lon="-5.7019720">
        <ele>1038.0</ele>
        <time>2019-07-21T10:52:37Z</time>
      </trkpt>
      <trkpt lat="42.8724820" lon="-5.7015080">
        <ele>1038.2</ele>
        <time>2019-07-21T10:52:42Z</time>
      </trkpt>
      <trkpt lat="42.8722560" lon="-5.7010520">
        <ele>1039.0</ele>
        <time>2019-07-21T10:52:47Z</time>
      </trkpt>
      <trkpt lat="42.8720290" lon="-5.7004570">
        <ele>1039.2</ele>
        <time>2019-07-21T10:52:53Z</time>
      </trkpt>
      <trkpt lat="42.8719120" lon="-5.6997130">
        <ele>1038.2</ele>
        <time>2019-07-21T10:52:59Z</time>
      </trkpt>
      <trkpt lat="42.8718980" lon="-5.6994500">
        <ele>1038.0</ele>
        <time>2019-07-21T10:53:01Z</time>
      </trkpt>
      <trkpt lat="42.8718580" lon="-5.6986650">
        <ele>1037.2</ele>
        <time>2019-07-21T10:53:07Z</time>
      </trkpt>
      <trkpt lat="42.8718480" lon="-5.6985250">
        <ele>1036.8</ele>
        <time>2019-07-21T10:53:08Z</time>
      </trkpt>
      <trkpt lat="42.8718220" lon="-5.6980900">
        <ele>1035.4</ele>
        <time>2019-07-21T10:53:11Z</time>
      </trkpt>
      <trkpt lat="42.8717840" lon="-5.6974690">
        <ele>1034.0</ele>
        <time>2019-07-21T10:53:15Z</time>
      </trkpt>
      <trkpt lat="42.8717600" lon="-5.6971470">
        <ele>1032.4</ele>
        <time>2019-07-21T10:53:17Z</time>
      </trkpt>
      <trkpt lat="42.8717370" lon="-5.6968230">
        <ele>1031.4</ele>
        <time>2019-07-21T10:53:19Z</time>
      </trkpt>
      <trkpt lat="42.8717060" lon="-5.6963470">
        <ele>1030.4</ele>
        <time>2019-07-21T10:53:22Z</time>
      </trkpt>
      <trkpt lat="42.8716740" lon="-5.6958790">
        <ele>1029.2</ele>
        <time>2019-07-21T10:53:25Z</time>
      </trkpt>
      <trkpt lat="42.8716230" lon="-5.6952780">
        <ele>1027.8</ele>
        <time>2019-07-21T10:53:29Z</time>
      </trkpt>
      <trkpt lat="42.8714870" lon="-5.6944110">
        <ele>1027.0</ele>
        <time>2019-07-21T10:53:35Z</time>
      </trkpt>
      <trkpt lat="42.8713790" lon="-5.6938580">
        <ele>1026.8</ele>
        <time>2019-07-21T10:53:39Z</time>
      </trkpt>
      <trkpt lat="42.8711900" lon="-5.6930450">
        <ele>1026.6</ele>
        <time>2019-07-21T10:53:45Z</time>
      </trkpt>
      <trkpt lat="42.8710810" lon="-5.6921760">
        <ele>1027.0</ele>
        <time>2019-07-21T10:53:51Z</time>
      </trkpt>
      <trkpt lat="42.8709350" lon="-5.6913250">
        <ele>1027.0</ele>
        <time>2019-07-21T10:53:57Z</time>
      </trkpt>
      <trkpt lat="42.8707880" lon="-5.6905170">
        <ele>1026.4</ele>
        <time>2019-07-21T10:54:03Z</time>
      </trkpt>
      <trkpt lat="42.8707000" lon="-5.6899890">
        <ele>1025.8</ele>
        <time>2019-07-21T10:54:07Z</time>
      </trkpt>
      <trkpt lat="42.8706110" lon="-5.6894620">
        <ele>1026.8</ele>
        <time>2019-07-21T10:54:11Z</time>
      </trkpt>
      <trkpt lat="42.8704650" lon="-5.6887350">
        <ele>1027.8</ele>
        <time>2019-07-21T10:54:17Z</time>
      </trkpt>
      <trkpt lat="42.8703610" lon="-5.6880300">
        <ele>1027.8</ele>
        <time>2019-07-21T10:54:23Z</time>
      </trkpt>
      <trkpt lat="42.8703980" lon="-5.6873060">
        <ele>1027.2</ele>
        <time>2019-07-21T10:54:29Z</time>
      </trkpt>
      <trkpt lat="42.8704100" lon="-5.6870580">
        <ele>1027.0</ele>
        <time>2019-07-21T10:54:31Z</time>
      </trkpt>
      <trkpt lat="42.8704030" lon="-5.6869330">
        <ele>1026.6</ele>
        <time>2019-07-21T10:54:32Z</time>
      </trkpt>
      <trkpt lat="42.8703410" lon="-5.6865630">
        <ele>1025.6</ele>
        <time>2019-07-21T10:54:35Z</time>
      </trkpt>
      <trkpt lat="42.8703060" lon="-5.6864450">
        <ele>1025.2</ele>
        <time>2019-07-21T10:54:36Z</time>
      </trkpt>
      <trkpt lat="42.8702150" lon="-5.6862240">
        <ele>1025.0</ele>
        <time>2019-07-21T10:54:38Z</time>
      </trkpt>
      <trkpt lat="42.8699610" lon="-5.6858740">
        <ele>1024.4</ele>
        <time>2019-07-21T10:54:42Z</time>
      </trkpt>
      <trkpt lat="42.8697330" lon="-5.6856910">
        <ele>1024.2</ele>
        <time>2019-07-21T10:54:45Z</time>
      </trkpt>
      <trkpt lat="42.8696600" lon="-5.6856280">
        <ele>1024.0</ele>
        <time>2019-07-21T10:54:46Z</time>
      </trkpt>
      <trkpt lat="42.8695330" lon="-5.6854740">
        <ele>1024.0</ele>
        <time>2019-07-21T10:54:48Z</time>
      </trkpt>
      <trkpt lat="42.8694380" lon="-5.6852830">
        <ele>1023.8</ele>
        <time>2019-07-21T10:54:50Z</time>
      </trkpt>
      <trkpt lat="42.8693790" lon="-5.6850630">
        <ele>1024.0</ele>
        <time>2019-07-21T10:54:52Z</time>
      </trkpt>
      <trkpt lat="42.8693680" lon="-5.6848280">
        <ele>1024.2</ele>
        <time>2019-07-21T10:54:54Z</time>
      </trkpt>
      <trkpt lat="42.8694390" lon="-5.6843480">
        <ele>1025.2</ele>
        <time>2019-07-21T10:54:58Z</time>
      </trkpt>
      <trkpt lat="42.8694830" lon="-5.6838050">
        <ele>1023.2</ele>
        <time>2019-07-21T10:55:02Z</time>
      </trkpt>
      <trkpt lat="42.8694770" lon="-5.6836590">
        <ele>1022.8</ele>
        <time>2019-07-21T10:55:03Z</time>
      </trkpt>
      <trkpt lat="42.8694340" lon="-5.6833660">
        <ele>1021.8</ele>
        <time>2019-07-21T10:55:05Z</time>
      </trkpt>
      <trkpt lat="42.8693630" lon="-5.6830810">
        <ele>1020.8</ele>
        <time>2019-07-21T10:55:07Z</time>
      </trkpt>
      <trkpt lat="42.8693120" lon="-5.6829440">
        <ele>1020.4</ele>
        <time>2019-07-21T10:55:08Z</time>
      </trkpt>
      <trkpt lat="42.8692490" lon="-5.6828160">
        <ele>1019.8</ele>
        <time>2019-07-21T10:55:09Z</time>
      </trkpt>
      <trkpt lat="42.8690950" lon="-5.6825830">
        <ele>1018.0</ele>
        <time>2019-07-21T10:55:11Z</time>
      </trkpt>
      <trkpt lat="42.8689270" lon="-5.6823620">
        <ele>1016.4</ele>
        <time>2019-07-21T10:55:13Z</time>
      </trkpt>
      <trkpt lat="42.8687600" lon="-5.6821440">
        <ele>1015.4</ele>
        <time>2019-07-21T10:55:15Z</time>
      </trkpt>
      <trkpt lat="42.8684990" lon="-5.6818340">
        <ele>1014.8</ele>
        <time>2019-07-21T10:55:18Z</time>
      </trkpt>
      <trkpt lat="42.8682040" lon="-5.6816150">
        <ele>1015.8</ele>
        <time>2019-07-21T10:55:21Z</time>
      </trkpt>
      <trkpt lat="42.8679930" lon="-5.6815420">
        <ele>1016.2</ele>
        <time>2019-07-21T10:55:23Z</time>
      </trkpt>
      <trkpt lat="42.8675620" lon="-5.6815330">
        <ele>1014.6</ele>
        <time>2019-07-21T10:55:27Z</time>
      </trkpt>
      <trkpt lat="42.8674560" lon="-5.6815440">
        <ele>1014.2</ele>
        <time>2019-07-21T10:55:28Z</time>
      </trkpt>
      <trkpt lat="42.8668240" lon="-5.6815690">
        <ele>1013.2</ele>
        <time>2019-07-21T10:55:34Z</time>
      </trkpt>
      <trkpt lat="42.8662110" lon="-5.6815130">
        <ele>1013.2</ele>
        <time>2019-07-21T10:55:40Z</time>
      </trkpt>
      <trkpt lat="42.8656600" lon="-5.6813040">
        <ele>1012.2</ele>
        <time>2019-07-21T10:55:46Z</time>
      </trkpt>
      <trkpt lat="42.8651220" lon="-5.6810600">
        <ele>1011.8</ele>
        <time>2019-07-21T10:55:52Z</time>
      </trkpt>
      <trkpt lat="42.8648380" lon="-5.6808820">
        <ele>1011.0</ele>
        <time>2019-07-21T10:55:55Z</time>
      </trkpt>
      <trkpt lat="42.8642790" lon="-5.6805240">
        <ele>1010.8</ele>
        <time>2019-07-21T10:56:01Z</time>
      </trkpt>
      <trkpt lat="42.8637390" lon="-5.6801240">
        <ele>1010.8</ele>
        <time>2019-07-21T10:56:07Z</time>
      </trkpt>
      <trkpt lat="42.8633000" lon="-5.6795220">
        <ele>1011.0</ele>
        <time>2019-07-21T10:56:13Z</time>
      </trkpt>
      <trkpt lat="42.8629570" lon="-5.6790110">
        <ele>1011.2</ele>
        <time>2019-07-21T10:56:18Z</time>
      </trkpt>
      <trkpt lat="42.8628550" lon="-5.6787670">
        <ele>1011.0</ele>
        <time>2019-07-21T10:56:20Z</time>
      </trkpt>
      <trkpt lat="42.8628000" lon="-5.6784910">
        <ele>1010.4</ele>
        <time>2019-07-21T10:56:22Z</time>
      </trkpt>
      <trkpt lat="42.8627550" lon="-5.6776310">
        <ele>1010.4</ele>
        <time>2019-07-21T10:56:28Z</time>
      </trkpt>
      <trkpt lat="42.8626280" lon="-5.6769600">
        <ele>1010.4</ele>
        <time>2019-07-21T10:56:33Z</time>
      </trkpt>
      <trkpt lat="42.8625820" lon="-5.6768400">
        <ele>1010.0</ele>
        <time>2019-07-21T10:56:34Z</time>
      </trkpt>
      <trkpt lat="42.8622590" lon="-5.6762180">
        <ele>1009.4</ele>
        <time>2019-07-21T10:56:40Z</time>
      </trkpt>
      <trkpt lat="42.8620860" lon="-5.6759310">
        <ele>1008.6</ele>
        <time>2019-07-21T10:56:43Z</time>
      </trkpt>
      <trkpt lat="42.8619680" lon="-5.6757240">
        <ele>1007.4</ele>
        <time>2019-07-21T10:56:45Z</time>
      </trkpt>
      <trkpt lat="42.8617730" lon="-5.6753980">
        <ele>1006.4</ele>
        <time>2019-07-21T10:56:48Z</time>
      </trkpt>
      <trkpt lat="42.8615250" lon="-5.6750100">
        <ele>1005.2</ele>
        <time>2019-07-21T10:56:52Z</time>
      </trkpt>
      <trkpt lat="42.8613800" lon="-5.6748030">
        <ele>1004.4</ele>
        <time>2019-07-21T10:56:57Z</time>
      </trkpt>
      <trkpt lat="42.8615380" lon="-5.6749340">
        <ele>1003.2</ele>
        <time>2019-07-21T11:35:26Z</time>
      </trkpt>
      <trkpt lat="42.8615400" lon="-5.6749300">
        <ele>1003.2</ele>
        <time>2019-07-21T11:35:27Z</time>
      </trkpt>
      <trkpt lat="42.8615440" lon="-5.6749010">
        <ele>1003.4</ele>
        <time>2019-07-21T11:35:31Z</time>
      </trkpt>
      <trkpt lat="42.8615460" lon="-5.6748940">
        <ele>1003.6</ele>
        <time>2019-07-21T11:35:32Z</time>
      </trkpt>
      <trkpt lat="42.8615500" lon="-5.6748830">
        <ele>1003.6</ele>
        <time>2019-07-21T11:35:33Z</time>
      </trkpt>
      <trkpt lat="42.8615590" lon="-5.6748400">
        <ele>1003.6</ele>
        <time>2019-07-21T11:35:36Z</time>
      </trkpt>
      <trkpt lat="42.8615530" lon="-5.6747650">
        <ele>1003.8</ele>
        <time>2019-07-21T11:35:39Z</time>
      </trkpt>
      <trkpt lat="42.8615590" lon="-5.6746900">
        <ele>1003.8</ele>
        <time>2019-07-21T11:35:41Z</time>
      </trkpt>
      <trkpt lat="42.8616030" lon="-5.6745190">
        <ele>1004.4</ele>
        <time>2019-07-21T11:35:47Z</time>
      </trkpt>
      <trkpt lat="42.8616130" lon="-5.6744920">
        <ele>1004.6</ele>
        <time>2019-07-21T11:35:49Z</time>
      </trkpt>
      <trkpt lat="42.8616250" lon="-5.6744580">
        <ele>1004.8</ele>
        <time>2019-07-21T11:35:53Z</time>
      </trkpt>
      <trkpt lat="42.8616270" lon="-5.6744510">
        <ele>1004.8</ele>
        <time>2019-07-21T11:35:54Z</time>
      </trkpt>
      <trkpt lat="42.8616470" lon="-5.6743800">
        <ele>1005.0</ele>
        <time>2019-07-21T11:36:00Z</time>
      </trkpt>
      <trkpt lat="42.8616580" lon="-5.6743610">
        <ele>1005.0</ele>
        <time>2019-07-21T11:36:04Z</time>
      </trkpt>
      <trkpt lat="42.8616620" lon="-5.6743580">
        <ele>1005.0</ele>
        <time>2019-07-21T11:36:05Z</time>
      </trkpt>
      <trkpt lat="42.8616650" lon="-5.6743560">
        <ele>1005.0</ele>
        <time>2019-07-21T11:36:06Z</time>
      </trkpt>
      <trkpt lat="42.8617100" lon="-5.6743260">
        <ele>1005.2</ele>
        <time>2019-07-21T11:36:39Z</time>
      </trkpt>
      <trkpt lat="42.8617240" lon="-5.6743020">
        <ele>1005.2</ele>
        <time>2019-07-21T11:36:40Z</time>
      </trkpt>
      <trkpt lat="42.8617560" lon="-5.6742340">
        <ele>1005.2</ele>
        <time>2019-07-21T11:36:42Z</time>
      </trkpt>
      <trkpt lat="42.8617830" lon="-5.6741650">
        <ele>1005.4</ele>
        <time>2019-07-21T11:36:44Z</time>
      </trkpt>
      <trkpt lat="42.8618060" lon="-5.6741030">
        <ele>1005.6</ele>
        <time>2019-07-21T11:36:46Z</time>
      </trkpt>
      <trkpt lat="42.8618320" lon="-5.6740470">
        <ele>1005.8</ele>
        <time>2019-07-21T11:36:48Z</time>
      </trkpt>
      <trkpt lat="42.8619020" lon="-5.6738940">
        <ele>1006.2</ele>
        <time>2019-07-21T11:36:52Z</time>
      </trkpt>
      <trkpt lat="42.8619430" lon="-5.6737380">
        <ele>1006.4</ele>
        <time>2019-07-21T11:36:55Z</time>
      </trkpt>
      <trkpt lat="42.8619630" lon="-5.6734680">
        <ele>1007.0</ele>
        <time>2019-07-21T11:37:00Z</time>
      </trkpt>
      <trkpt lat="42.8619050" lon="-5.6733280">
        <ele>1007.4</ele>
        <time>2019-07-21T11:37:03Z</time>
      </trkpt>
      <trkpt lat="42.8618420" lon="-5.6732770">
        <ele>1007.8</ele>
        <time>2019-07-21T11:37:05Z</time>
      </trkpt>
      <trkpt lat="42.8616470" lon="-5.6733480">
        <ele>1008.2</ele>
        <time>2019-07-21T11:37:11Z</time>
      </trkpt>
      <trkpt lat="42.8614710" lon="-5.6734010">
        <ele>1008.4</ele>
        <time>2019-07-21T11:37:16Z</time>
      </trkpt>
      <trkpt lat="42.8611730" lon="-5.6734220">
        <ele>1009.6</ele>
        <time>2019-07-21T11:37:22Z</time>
      </trkpt>
      <trkpt lat="42.8610230" lon="-5.6734370">
        <ele>1010.2</ele>
        <time>2019-07-21T11:37:25Z</time>
      </trkpt>
      <trkpt lat="42.8607970" lon="-5.6734580">
        <ele>1010.8</ele>
        <time>2019-07-21T11:37:30Z</time>
      </trkpt>
      <trkpt lat="42.8605340" lon="-5.6734760">
        <ele>1011.4</ele>
        <time>2019-07-21T11:37:36Z</time>
      </trkpt>
      <trkpt lat="42.8604440" lon="-5.6734820">
        <ele>1011.6</ele>
        <time>2019-07-21T11:37:38Z</time>
      </trkpt>
      <trkpt lat="42.8603970" lon="-5.6734860">
        <ele>1011.8</ele>
        <time>2019-07-21T11:37:39Z</time>
      </trkpt>
      <trkpt lat="42.8601500" lon="-5.6735460">
        <ele>1013.0</ele>
        <time>2019-07-21T11:37:44Z</time>
      </trkpt>
      <trkpt lat="42.8598890" lon="-5.6737210">
        <ele>1014.0</ele>
        <time>2019-07-21T11:37:50Z</time>
      </trkpt>
      <trkpt lat="42.8596630" lon="-5.6739690">
        <ele>1014.8</ele>
        <time>2019-07-21T11:37:56Z</time>
      </trkpt>
      <trkpt lat="42.8596280" lon="-5.6740030">
        <ele>1015.0</ele>
        <time>2019-07-21T11:37:57Z</time>
      </trkpt>
      <trkpt lat="42.8595720" lon="-5.6740630">
        <ele>1015.4</ele>
        <time>2019-07-21T11:37:59Z</time>
      </trkpt>
      <trkpt lat="42.8595130" lon="-5.6741450">
        <ele>1015.8</ele>
        <time>2019-07-21T11:38:01Z</time>
      </trkpt>
      <trkpt lat="42.8594320" lon="-5.6742660">
        <ele>1016.2</ele>
        <time>2019-07-21T11:38:04Z</time>
      </trkpt>
      <trkpt lat="42.8594180" lon="-5.6743190">
        <ele>1016.4</ele>
        <time>2019-07-21T11:38:05Z</time>
      </trkpt>
      <trkpt lat="42.8593200" lon="-5.6744130">
        <ele>1016.8</ele>
        <time>2019-07-21T11:38:07Z</time>
      </trkpt>
      <trkpt lat="42.8591150" lon="-5.6745390">
        <ele>1017.2</ele>
        <time>2019-07-21T11:38:10Z</time>
      </trkpt>
      <trkpt lat="42.8589740" lon="-5.6747520">
        <ele>1018.0</ele>
        <time>2019-07-21T11:38:14Z</time>
      </trkpt>
      <trkpt lat="42.8589120" lon="-5.6748400">
        <ele>1018.4</ele>
        <time>2019-07-21T11:38:16Z</time>
      </trkpt>
      <trkpt lat="42.8587950" lon="-5.6749780">
        <ele>1019.4</ele>
        <time>2019-07-21T11:38:19Z</time>
      </trkpt>
      <trkpt lat="42.8586270" lon="-5.6751090">
        <ele>1020.6</ele>
        <time>2019-07-21T11:38:23Z</time>
      </trkpt>
      <trkpt lat="42.8583300" lon="-5.6751920">
        <ele>1021.2</ele>
        <time>2019-07-21T11:38:29Z</time>
      </trkpt>
      <trkpt lat="42.8582760" lon="-5.6751910">
        <ele>1021.4</ele>
        <time>2019-07-21T11:38:30Z</time>
      </trkpt>
      <trkpt lat="42.8582200" lon="-5.6751860">
        <ele>1021.6</ele>
        <time>2019-07-21T11:38:31Z</time>
      </trkpt>
      <trkpt lat="42.8578810" lon="-5.6750510">
        <ele>1022.0</ele>
        <time>2019-07-21T11:38:37Z</time>
      </trkpt>
      <trkpt lat="42.8577780" lon="-5.6749620">
        <ele>1022.4</ele>
        <time>2019-07-21T11:38:39Z</time>
      </trkpt>
      <trkpt lat="42.8577310" lon="-5.6749070">
        <ele>1022.6</ele>
        <time>2019-07-21T11:38:40Z</time>
      </trkpt>
      <trkpt lat="42.8574870" lon="-5.6744590">
        <ele>1023.2</ele>
        <time>2019-07-21T11:38:46Z</time>
      </trkpt>
      <trkpt lat="42.8572970" lon="-5.6739000">
        <ele>1023.2</ele>
        <time>2019-07-21T11:38:52Z</time>
      </trkpt>
      <trkpt lat="42.8571740" lon="-5.6735260">
        <ele>1023.8</ele>
        <time>2019-07-21T11:38:56Z</time>
      </trkpt>
      <trkpt lat="42.8570590" lon="-5.6731860">
        <ele>1025.0</ele>
        <time>2019-07-21T11:39:00Z</time>
      </trkpt>
      <trkpt lat="42.8569750" lon="-5.6729510">
        <ele>1026.0</ele>
        <time>2019-07-21T11:39:03Z</time>
      </trkpt>
      <trkpt lat="42.8568750" lon="-5.6726310">
        <ele>1027.2</ele>
        <time>2019-07-21T11:39:07Z</time>
      </trkpt>
      <trkpt lat="42.8567910" lon="-5.6724030">
        <ele>1028.6</ele>
        <time>2019-07-21T11:39:10Z</time>
      </trkpt>
      <trkpt lat="42.8566680" lon="-5.6720130">
        <ele>1029.6</ele>
        <time>2019-07-21T11:39:15Z</time>
      </trkpt>
      <trkpt lat="42.8565400" lon="-5.6716100">
        <ele>1030.6</ele>
        <time>2019-07-21T11:39:20Z</time>
      </trkpt>
      <trkpt lat="42.8565170" lon="-5.6715240">
        <ele>1031.0</ele>
        <time>2019-07-21T11:39:21Z</time>
      </trkpt>
      <trkpt lat="42.8564460" lon="-5.6712670">
        <ele>1031.8</ele>
        <time>2019-07-21T11:39:24Z</time>
      </trkpt>
      <trkpt lat="42.8563310" lon="-5.6707310">
        <ele>1032.6</ele>
        <time>2019-07-21T11:39:30Z</time>
      </trkpt>
      <trkpt lat="42.8562920" lon="-5.6705500">
        <ele>1032.8</ele>
        <time>2019-07-21T11:39:32Z</time>
      </trkpt>
      <trkpt lat="42.8561970" lon="-5.6699850">
        <ele>1032.6</ele>
        <time>2019-07-21T11:39:38Z</time>
      </trkpt>
      <trkpt lat="42.8561130" lon="-5.6693700">
        <ele>1032.6</ele>
        <time>2019-07-21T11:39:44Z</time>
      </trkpt>
      <trkpt lat="42.8560060" lon="-5.6686920">
        <ele>1032.0</ele>
        <time>2019-07-21T11:39:50Z</time>
      </trkpt>
      <trkpt lat="42.8559670" lon="-5.6684560">
        <ele>1031.6</ele>
        <time>2019-07-21T11:39:52Z</time>
      </trkpt>
      <trkpt lat="42.8558190" lon="-5.6677310">
        <ele>1031.4</ele>
        <time>2019-07-21T11:39:58Z</time>
      </trkpt>
      <trkpt lat="42.8556500" lon="-5.6673830">
        <ele>1030.8</ele>
        <time>2019-07-21T11:40:01Z</time>
      </trkpt>
      <trkpt lat="42.8555710" lon="-5.6672770">
        <ele>1030.4</ele>
        <time>2019-07-21T11:40:02Z</time>
      </trkpt>
      <trkpt lat="42.8554820" lon="-5.6671830">
        <ele>1030.0</ele>
        <time>2019-07-21T11:40:03Z</time>
      </trkpt>
      <trkpt lat="42.8552870" lon="-5.6670190">
        <ele>1029.2</ele>
        <time>2019-07-21T11:40:05Z</time>
      </trkpt>
      <trkpt lat="42.8550780" lon="-5.6668630">
        <ele>1028.0</ele>
        <time>2019-07-21T11:40:07Z</time>
      </trkpt>
      <trkpt lat="42.8548620" lon="-5.6666990">
        <ele>1027.2</ele>
        <time>2019-07-21T11:40:09Z</time>
      </trkpt>
      <trkpt lat="42.8547500" lon="-5.6666180">
        <ele>1026.8</ele>
        <time>2019-07-21T11:40:10Z</time>
      </trkpt>
      <trkpt lat="42.8546370" lon="-5.6665310">
        <ele>1026.4</ele>
        <time>2019-07-21T11:40:11Z</time>
      </trkpt>
      <trkpt lat="42.8545210" lon="-5.6664460">
        <ele>1025.8</ele>
        <time>2019-07-21T11:40:12Z</time>
      </trkpt>
      <trkpt lat="42.8544060" lon="-5.6663600">
        <ele>1025.2</ele>
        <time>2019-07-21T11:40:13Z</time>
      </trkpt>
      <trkpt lat="42.8542030" lon="-5.6662050">
        <ele>1023.6</ele>
        <time>2019-07-21T11:40:15Z</time>
      </trkpt>
      <trkpt lat="42.8540370" lon="-5.6660820">
        <ele>1022.0</ele>
        <time>2019-07-21T11:40:17Z</time>
      </trkpt>
      <trkpt lat="42.8538740" lon="-5.6659670">
        <ele>1020.6</ele>
        <time>2019-07-21T11:40:19Z</time>
      </trkpt>
      <trkpt lat="42.8537030" lon="-5.6658320">
        <ele>1019.4</ele>
        <time>2019-07-21T11:40:21Z</time>
      </trkpt>
      <trkpt lat="42.8535200" lon="-5.6656920">
        <ele>1017.8</ele>
        <time>2019-07-21T11:40:23Z</time>
      </trkpt>
      <trkpt lat="42.8532340" lon="-5.6654830">
        <ele>1016.4</ele>
        <time>2019-07-21T11:40:26Z</time>
      </trkpt>
      <trkpt lat="42.8530580" lon="-5.6653530">
        <ele>1015.4</ele>
        <time>2019-07-21T11:40:28Z</time>
      </trkpt>
      <trkpt lat="42.8528860" lon="-5.6652220">
        <ele>1014.2</ele>
        <time>2019-07-21T11:40:30Z</time>
      </trkpt>
      <trkpt lat="42.8527950" lon="-5.6651540">
        <ele>1013.4</ele>
        <time>2019-07-21T11:40:31Z</time>
      </trkpt>
      <trkpt lat="42.8527000" lon="-5.6650870">
        <ele>1013.0</ele>
        <time>2019-07-21T11:40:32Z</time>
      </trkpt>
      <trkpt lat="42.8524990" lon="-5.6649660">
        <ele>1012.0</ele>
        <time>2019-07-21T11:40:34Z</time>
      </trkpt>
      <trkpt lat="42.8523910" lon="-5.6649230">
        <ele>1011.6</ele>
        <time>2019-07-21T11:40:35Z</time>
      </trkpt>
      <trkpt lat="42.8520640" lon="-5.6648400">
        <ele>1010.2</ele>
        <time>2019-07-21T11:40:38Z</time>
      </trkpt>
      <trkpt lat="42.8518500" lon="-5.6647970">
        <ele>1009.0</ele>
        <time>2019-07-21T11:40:40Z</time>
      </trkpt>
      <trkpt lat="42.8516370" lon="-5.6647530">
        <ele>1007.8</ele>
        <time>2019-07-21T11:40:42Z</time>
      </trkpt>
      <trkpt lat="42.8514250" lon="-5.6647140">
        <ele>1006.6</ele>
        <time>2019-07-21T11:40:44Z</time>
      </trkpt>
      <trkpt lat="42.8512120" lon="-5.6646760">
        <ele>1005.4</ele>
        <time>2019-07-21T11:40:46Z</time>
      </trkpt>
      <trkpt lat="42.8509910" lon="-5.6646340">
        <ele>1004.2</ele>
        <time>2019-07-21T11:40:48Z</time>
      </trkpt>
      <trkpt lat="42.8508770" lon="-5.6646140">
        <ele>1003.6</ele>
        <time>2019-07-21T11:40:49Z</time>
      </trkpt>
      <trkpt lat="42.8507600" lon="-5.6645930">
        <ele>1003.0</ele>
        <time>2019-07-21T11:40:50Z</time>
      </trkpt>
      <trkpt lat="42.8505150" lon="-5.6645430">
        <ele>1002.0</ele>
        <time>2019-07-21T11:40:52Z</time>
      </trkpt>
      <trkpt lat="42.8503890" lon="-5.6645170">
        <ele>1001.6</ele>
        <time>2019-07-21T11:40:53Z</time>
      </trkpt>
      <trkpt lat="42.8501360" lon="-5.6644710">
        <ele>1000.4</ele>
        <time>2019-07-21T11:40:55Z</time>
      </trkpt>
      <trkpt lat="42.8500110" lon="-5.6644460">
        <ele>999.8</ele>
        <time>2019-07-21T11:40:56Z</time>
      </trkpt>
      <trkpt lat="42.8497590" lon="-5.6643990">
        <ele>999.0</ele>
        <time>2019-07-21T11:40:58Z</time>
      </trkpt>
      <trkpt lat="42.8495080" lon="-5.6643530">
        <ele>998.6</ele>
        <time>2019-07-21T11:41:00Z</time>
      </trkpt>
      <trkpt lat="42.8491370" lon="-5.6642800">
        <ele>997.8</ele>
        <time>2019-07-21T11:41:03Z</time>
      </trkpt>
      <trkpt lat="42.8487820" lon="-5.6642170">
        <ele>996.8</ele>
        <time>2019-07-21T11:41:06Z</time>
      </trkpt>
      <trkpt lat="42.8483150" lon="-5.6641610">
        <ele>995.8</ele>
        <time>2019-07-21T11:41:10Z</time>
      </trkpt>
      <trkpt lat="42.8480780" lon="-5.6641650">
        <ele>995.4</ele>
        <time>2019-07-21T11:41:12Z</time>
      </trkpt>
      <trkpt lat="42.8478420" lon="-5.6641990">
        <ele>995.0</ele>
        <time>2019-07-21T11:41:14Z</time>
      </trkpt>
      <trkpt lat="42.8474960" lon="-5.6643070">
        <ele>994.6</ele>
        <time>2019-07-21T11:41:17Z</time>
      </trkpt>
      <trkpt lat="42.8472770" lon="-5.6644150">
        <ele>994.4</ele>
        <time>2019-07-21T11:41:19Z</time>
      </trkpt>
      <trkpt lat="42.8468660" lon="-5.6647090">
        <ele>993.8</ele>
        <time>2019-07-21T11:41:23Z</time>
      </trkpt>
      <trkpt lat="42.8466770" lon="-5.6648990">
        <ele>993.4</ele>
        <time>2019-07-21T11:41:25Z</time>
      </trkpt>
      <trkpt lat="42.8464050" lon="-5.6651970">
        <ele>992.2</ele>
        <time>2019-07-21T11:41:28Z</time>
      </trkpt>
      <trkpt lat="42.8459330" lon="-5.6656190">
        <ele>991.8</ele>
        <time>2019-07-21T11:41:33Z</time>
      </trkpt>
      <trkpt lat="42.8458310" lon="-5.6656760">
        <ele>991.4</ele>
        <time>2019-07-21T11:41:34Z</time>
      </trkpt>
      <trkpt lat="42.8457220" lon="-5.6657190">
        <ele>991.2</ele>
        <time>2019-07-21T11:41:35Z</time>
      </trkpt>
      <trkpt lat="42.8456120" lon="-5.6657530">
        <ele>991.0</ele>
        <time>2019-07-21T11:41:36Z</time>
      </trkpt>
      <trkpt lat="42.8453850" lon="-5.6657860">
        <ele>990.4</ele>
        <time>2019-07-21T11:41:38Z</time>
      </trkpt>
      <trkpt lat="42.8450470" lon="-5.6657280">
        <ele>990.4</ele>
        <time>2019-07-21T11:41:41Z</time>
      </trkpt>
      <trkpt lat="42.8448340" lon="-5.6656200">
        <ele>990.2</ele>
        <time>2019-07-21T11:41:43Z</time>
      </trkpt>
      <trkpt lat="42.8447330" lon="-5.6655460">
        <ele>990.0</ele>
        <time>2019-07-21T11:41:44Z</time>
      </trkpt>
      <trkpt lat="42.8446390" lon="-5.6654590">
        <ele>990.0</ele>
        <time>2019-07-21T11:41:45Z</time>
      </trkpt>
      <trkpt lat="42.8444680" lon="-5.6652550">
        <ele>989.0</ele>
        <time>2019-07-21T11:41:47Z</time>
      </trkpt>
      <trkpt lat="42.8443950" lon="-5.6651380">
        <ele>988.4</ele>
        <time>2019-07-21T11:41:48Z</time>
      </trkpt>
      <trkpt lat="42.8442700" lon="-5.6648830">
        <ele>988.0</ele>
        <time>2019-07-21T11:41:50Z</time>
      </trkpt>
      <trkpt lat="42.8441470" lon="-5.6644530">
        <ele>988.0</ele>
        <time>2019-07-21T11:41:53Z</time>
      </trkpt>
      <trkpt lat="42.8440450" lon="-5.6636880">
        <ele>988.4</ele>
        <time>2019-07-21T11:41:58Z</time>
      </trkpt>
      <trkpt lat="42.8439960" lon="-5.6630710">
        <ele>988.0</ele>
        <time>2019-07-21T11:42:02Z</time>
      </trkpt>
      <trkpt lat="42.8439830" lon="-5.6626200">
        <ele>988.0</ele>
        <time>2019-07-21T11:42:05Z</time>
      </trkpt>
      <trkpt lat="42.8439780" lon="-5.6623180">
        <ele>988.0</ele>
        <time>2019-07-21T11:42:07Z</time>
      </trkpt>
      <trkpt lat="42.8439770" lon="-5.6618550">
        <ele>988.0</ele>
        <time>2019-07-21T11:42:10Z</time>
      </trkpt>
      <trkpt lat="42.8439750" lon="-5.6613980">
        <ele>987.8</ele>
        <time>2019-07-21T11:42:13Z</time>
      </trkpt>
      <trkpt lat="42.8439740" lon="-5.6609460">
        <ele>987.4</ele>
        <time>2019-07-21T11:42:16Z</time>
      </trkpt>
      <trkpt lat="42.8439630" lon="-5.6600970">
        <ele>988.8</ele>
        <time>2019-07-21T11:42:22Z</time>
      </trkpt>
      <trkpt lat="42.8439490" lon="-5.6592950">
        <ele>989.2</ele>
        <time>2019-07-21T11:42:28Z</time>
      </trkpt>
      <trkpt lat="42.8439440" lon="-5.6585010">
        <ele>989.4</ele>
        <time>2019-07-21T11:42:34Z</time>
      </trkpt>
      <trkpt lat="42.8439060" lon="-5.6577100">
        <ele>989.6</ele>
        <time>2019-07-21T11:42:40Z</time>
      </trkpt>
      <trkpt lat="42.8438320" lon="-5.6570750">
        <ele>990.0</ele>
        <time>2019-07-21T11:42:45Z</time>
      </trkpt>
      <trkpt lat="42.8438160" lon="-5.6569550">
        <ele>990.2</ele>
        <time>2019-07-21T11:42:46Z</time>
      </trkpt>
      <trkpt lat="42.8437070" lon="-5.6562610">
        <ele>990.6</ele>
        <time>2019-07-21T11:42:52Z</time>
      </trkpt>
      <trkpt lat="42.8435090" lon="-5.6555660">
        <ele>989.8</ele>
        <time>2019-07-21T11:42:58Z</time>
      </trkpt>
      <trkpt lat="42.8431300" lon="-5.6549730">
        <ele>990.6</ele>
        <time>2019-07-21T11:43:04Z</time>
      </trkpt>
      <trkpt lat="42.8426080" lon="-5.6546020">
        <ele>989.6</ele>
        <time>2019-07-21T11:43:10Z</time>
      </trkpt>
      <trkpt lat="42.8424150" lon="-5.6545450">
        <ele>988.8</ele>
        <time>2019-07-21T11:43:12Z</time>
      </trkpt>
      <trkpt lat="42.8421090" lon="-5.6545310">
        <ele>988.0</ele>
        <time>2019-07-21T11:43:15Z</time>
      </trkpt>
      <trkpt lat="42.8420030" lon="-5.6545480">
        <ele>987.6</ele>
        <time>2019-07-21T11:43:16Z</time>
      </trkpt>
      <trkpt lat="42.8415800" lon="-5.6546690">
        <ele>986.4</ele>
        <time>2019-07-21T11:43:20Z</time>
      </trkpt>
      <trkpt lat="42.8414760" lon="-5.6547040">
        <ele>986.2</ele>
        <time>2019-07-21T11:43:21Z</time>
      </trkpt>
      <trkpt lat="42.8412680" lon="-5.6547730">
        <ele>985.6</ele>
        <time>2019-07-21T11:43:23Z</time>
      </trkpt>
      <trkpt lat="42.8411630" lon="-5.6548090">
        <ele>985.4</ele>
        <time>2019-07-21T11:43:24Z</time>
      </trkpt>
      <trkpt lat="42.8406170" lon="-5.6550060">
        <ele>984.2</ele>
        <time>2019-07-21T11:43:29Z</time>
      </trkpt>
      <trkpt lat="42.8400510" lon="-5.6551960">
        <ele>984.8</ele>
        <time>2019-07-21T11:43:34Z</time>
      </trkpt>
      <trkpt lat="42.8394820" lon="-5.6553900">
        <ele>983.6</ele>
        <time>2019-07-21T11:43:39Z</time>
      </trkpt>
      <trkpt lat="42.8392560" lon="-5.6554690">
        <ele>983.2</ele>
        <time>2019-07-21T11:43:41Z</time>
      </trkpt>
      <trkpt lat="42.8386950" lon="-5.6556530">
        <ele>982.6</ele>
        <time>2019-07-21T11:43:46Z</time>
      </trkpt>
      <trkpt lat="42.8381450" lon="-5.6557640">
        <ele>982.6</ele>
        <time>2019-07-21T11:43:51Z</time>
      </trkpt>
      <trkpt lat="42.8375800" lon="-5.6557810">
        <ele>982.2</ele>
        <time>2019-07-21T11:43:56Z</time>
      </trkpt>
      <trkpt lat="42.8374610" lon="-5.6557810">
        <ele>982.0</ele>
        <time>2019-07-21T11:43:57Z</time>
      </trkpt>
      <trkpt lat="42.8368720" lon="-5.6557610">
        <ele>981.0</ele>
        <time>2019-07-21T11:44:02Z</time>
      </trkpt>
      <trkpt lat="42.8367590" lon="-5.6557470">
        <ele>980.8</ele>
        <time>2019-07-21T11:44:03Z</time>
      </trkpt>
      <trkpt lat="42.8364250" lon="-5.6556900">
        <ele>981.6</ele>
        <time>2019-07-21T11:44:06Z</time>
      </trkpt>
      <trkpt lat="42.8363140" lon="-5.6556670">
        <ele>982.2</ele>
        <time>2019-07-21T11:44:07Z</time>
      </trkpt>
      <trkpt lat="42.8357660" lon="-5.6555310">
        <ele>981.2</ele>
        <time>2019-07-21T11:44:12Z</time>
      </trkpt>
      <trkpt lat="42.8356560" lon="-5.6555040">
        <ele>981.0</ele>
        <time>2019-07-21T11:44:13Z</time>
      </trkpt>
      <trkpt lat="42.8351110" lon="-5.6553620">
        <ele>981.4</ele>
        <time>2019-07-21T11:44:18Z</time>
      </trkpt>
      <trkpt lat="42.8345630" lon="-5.6552320">
        <ele>980.6</ele>
        <time>2019-07-21T11:44:23Z</time>
      </trkpt>
      <trkpt lat="42.8343450" lon="-5.6551820">
        <ele>980.0</ele>
        <time>2019-07-21T11:44:25Z</time>
      </trkpt>
      <trkpt lat="42.8338040" lon="-5.6550430">
        <ele>978.8</ele>
        <time>2019-07-21T11:44:30Z</time>
      </trkpt>
      <trkpt lat="42.8331630" lon="-5.6548870">
        <ele>977.8</ele>
        <time>2019-07-21T11:44:36Z</time>
      </trkpt>
      <trkpt lat="42.8330570" lon="-5.6548590">
        <ele>977.8</ele>
        <time>2019-07-21T11:44:37Z</time>
      </trkpt>
      <trkpt lat="42.8324270" lon="-5.6546960">
        <ele>977.2</ele>
        <time>2019-07-21T11:44:43Z</time>
      </trkpt>
      <trkpt lat="42.8322160" lon="-5.6546340">
        <ele>977.0</ele>
        <time>2019-07-21T11:44:45Z</time>
      </trkpt>
      <trkpt lat="42.8318960" lon="-5.6545270">
        <ele>976.6</ele>
        <time>2019-07-21T11:44:48Z</time>
      </trkpt>
      <trkpt lat="42.8313090" lon="-5.6541930">
        <ele>976.2</ele>
        <time>2019-07-21T11:44:54Z</time>
      </trkpt>
      <trkpt lat="42.8308450" lon="-5.6537650">
        <ele>976.0</ele>
        <time>2019-07-21T11:44:59Z</time>
      </trkpt>
      <trkpt lat="42.8304280" lon="-5.6532170">
        <ele>976.0</ele>
        <time>2019-07-21T11:45:04Z</time>
      </trkpt>
      <trkpt lat="42.8301050" lon="-5.6525910">
        <ele>975.8</ele>
        <time>2019-07-21T11:45:09Z</time>
      </trkpt>
      <trkpt lat="42.8300510" lon="-5.6524590">
        <ele>975.6</ele>
        <time>2019-07-21T11:45:10Z</time>
      </trkpt>
      <trkpt lat="42.8298250" lon="-5.6517190">
        <ele>975.6</ele>
        <time>2019-07-21T11:45:15Z</time>
      </trkpt>
      <trkpt lat="42.8296640" lon="-5.6509510">
        <ele>975.0</ele>
        <time>2019-07-21T11:45:20Z</time>
      </trkpt>
      <trkpt lat="42.8295670" lon="-5.6505080">
        <ele>974.8</ele>
        <time>2019-07-21T11:45:23Z</time>
      </trkpt>
      <trkpt lat="42.8294770" lon="-5.6500900">
        <ele>974.4</ele>
        <time>2019-07-21T11:45:26Z</time>
      </trkpt>
      <trkpt lat="42.8293070" lon="-5.6493090">
        <ele>974.4</ele>
        <time>2019-07-21T11:45:32Z</time>
      </trkpt>
      <trkpt lat="42.8292200" lon="-5.6489350">
        <ele>974.6</ele>
        <time>2019-07-21T11:45:35Z</time>
      </trkpt>
      <trkpt lat="42.8290810" lon="-5.6483290">
        <ele>975.6</ele>
        <time>2019-07-21T11:45:40Z</time>
      </trkpt>
      <trkpt lat="42.8288790" lon="-5.6476360">
        <ele>976.0</ele>
        <time>2019-07-21T11:45:46Z</time>
      </trkpt>
      <trkpt lat="42.8286860" lon="-5.6472040">
        <ele>976.4</ele>
        <time>2019-07-21T11:45:50Z</time>
      </trkpt>
      <trkpt lat="42.8286300" lon="-5.6471020">
        <ele>976.8</ele>
        <time>2019-07-21T11:45:51Z</time>
      </trkpt>
      <trkpt lat="42.8284480" lon="-5.6468010">
        <ele>977.2</ele>
        <time>2019-07-21T11:45:54Z</time>
      </trkpt>
      <trkpt lat="42.8282210" lon="-5.6465110">
        <ele>977.8</ele>
        <time>2019-07-21T11:45:57Z</time>
      </trkpt>
      <trkpt lat="42.8279740" lon="-5.6462600">
        <ele>978.2</ele>
        <time>2019-07-21T11:46:00Z</time>
      </trkpt>
      <trkpt lat="42.8274270" lon="-5.6458800">
        <ele>978.0</ele>
        <time>2019-07-21T11:46:06Z</time>
      </trkpt>
      <trkpt lat="42.8269030" lon="-5.6456490">
        <ele>977.4</ele>
        <time>2019-07-21T11:46:11Z</time>
      </trkpt>
      <trkpt lat="42.8265620" lon="-5.6455120">
        <ele>976.6</ele>
        <time>2019-07-21T11:46:14Z</time>
      </trkpt>
      <trkpt lat="42.8259800" lon="-5.6452440">
        <ele>975.6</ele>
        <time>2019-07-21T11:46:19Z</time>
      </trkpt>
      <trkpt lat="42.8256530" lon="-5.6449870">
        <ele>974.4</ele>
        <time>2019-07-21T11:46:22Z</time>
      </trkpt>
      <trkpt lat="42.8254600" lon="-5.6447710">
        <ele>974.2</ele>
        <time>2019-07-21T11:46:24Z</time>
      </trkpt>
      <trkpt lat="42.8251390" lon="-5.6442250">
        <ele>973.2</ele>
        <time>2019-07-21T11:46:28Z</time>
      </trkpt>
      <trkpt lat="42.8250160" lon="-5.6439060">
        <ele>972.2</ele>
        <time>2019-07-21T11:46:30Z</time>
      </trkpt>
      <trkpt lat="42.8248700" lon="-5.6434020">
        <ele>970.8</ele>
        <time>2019-07-21T11:46:33Z</time>
      </trkpt>
      <trkpt lat="42.8246750" lon="-5.6427370">
        <ele>969.8</ele>
        <time>2019-07-21T11:46:37Z</time>
      </trkpt>
      <trkpt lat="42.8245830" lon="-5.6424130">
        <ele>969.6</ele>
        <time>2019-07-21T11:46:39Z</time>
      </trkpt>
      <trkpt lat="42.8244000" lon="-5.6417700">
        <ele>968.4</ele>
        <time>2019-07-21T11:46:43Z</time>
      </trkpt>
      <trkpt lat="42.8242010" lon="-5.6411510">
        <ele>967.2</ele>
        <time>2019-07-21T11:46:47Z</time>
      </trkpt>
      <trkpt lat="42.8238860" lon="-5.6404590">
        <ele>967.0</ele>
        <time>2019-07-21T11:46:52Z</time>
      </trkpt>
      <trkpt lat="42.8234620" lon="-5.6398580">
        <ele>965.8</ele>
        <time>2019-07-21T11:46:57Z</time>
      </trkpt>
      <trkpt lat="42.8230640" lon="-5.6394560">
        <ele>966.0</ele>
        <time>2019-07-21T11:47:01Z</time>
      </trkpt>
      <trkpt lat="42.8226820" lon="-5.6390760">
        <ele>965.8</ele>
        <time>2019-07-21T11:47:05Z</time>
      </trkpt>
      <trkpt lat="42.8222030" lon="-5.6386090">
        <ele>965.4</ele>
        <time>2019-07-21T11:47:10Z</time>
      </trkpt>
      <trkpt lat="42.8217190" lon="-5.6381360">
        <ele>965.0</ele>
        <time>2019-07-21T11:47:15Z</time>
      </trkpt>
      <trkpt lat="42.8215280" lon="-5.6379470">
        <ele>964.8</ele>
        <time>2019-07-21T11:47:17Z</time>
      </trkpt>
      <trkpt lat="42.8210440" lon="-5.6374680">
        <ele>964.4</ele>
        <time>2019-07-21T11:47:22Z</time>
      </trkpt>
      <trkpt lat="42.8205620" lon="-5.6369930">
        <ele>964.2</ele>
        <time>2019-07-21T11:47:27Z</time>
      </trkpt>
      <trkpt lat="42.8203770" lon="-5.6368050">
        <ele>964.0</ele>
        <time>2019-07-21T11:47:29Z</time>
      </trkpt>
      <trkpt lat="42.8202060" lon="-5.6365910">
        <ele>963.8</ele>
        <time>2019-07-21T11:47:31Z</time>
      </trkpt>
      <trkpt lat="42.8198660" lon="-5.6359390">
        <ele>963.4</ele>
        <time>2019-07-21T11:47:36Z</time>
      </trkpt>
      <trkpt lat="42.8197730" lon="-5.6356380">
        <ele>963.4</ele>
        <time>2019-07-21T11:47:38Z</time>
      </trkpt>
      <trkpt lat="42.8196770" lon="-5.6348180">
        <ele>962.6</ele>
        <time>2019-07-21T11:47:43Z</time>
      </trkpt>
      <trkpt lat="42.8197080" lon="-5.6339790">
        <ele>962.0</ele>
        <time>2019-07-21T11:47:48Z</time>
      </trkpt>
      <trkpt lat="42.8197300" lon="-5.6334550">
        <ele>961.6</ele>
        <time>2019-07-21T11:47:51Z</time>
      </trkpt>
      <trkpt lat="42.8197700" lon="-5.6325840">
        <ele>960.4</ele>
        <time>2019-07-21T11:47:56Z</time>
      </trkpt>
      <trkpt lat="42.8197990" lon="-5.6317680">
        <ele>959.8</ele>
        <time>2019-07-21T11:48:01Z</time>
      </trkpt>
      <trkpt lat="42.8198100" lon="-5.6309360">
        <ele>959.4</ele>
        <time>2019-07-21T11:48:06Z</time>
      </trkpt>
      <trkpt lat="42.8198090" lon="-5.6307640">
        <ele>959.2</ele>
        <time>2019-07-21T11:48:07Z</time>
      </trkpt>
      <trkpt lat="42.8197880" lon="-5.6302420">
        <ele>958.8</ele>
        <time>2019-07-21T11:48:10Z</time>
      </trkpt>
      <trkpt lat="42.8196770" lon="-5.6293630">
        <ele>958.8</ele>
        <time>2019-07-21T11:48:15Z</time>
      </trkpt>
      <trkpt lat="42.8194500" lon="-5.6285100">
        <ele>958.8</ele>
        <time>2019-07-21T11:48:20Z</time>
      </trkpt>
      <trkpt lat="42.8192520" lon="-5.6280590">
        <ele>958.2</ele>
        <time>2019-07-21T11:48:23Z</time>
      </trkpt>
      <trkpt lat="42.8191080" lon="-5.6277990">
        <ele>957.0</ele>
        <time>2019-07-21T11:48:25Z</time>
      </trkpt>
      <trkpt lat="42.8188690" lon="-5.6274540">
        <ele>956.2</ele>
        <time>2019-07-21T11:48:28Z</time>
      </trkpt>
      <trkpt lat="42.8183850" lon="-5.6269760">
        <ele>957.0</ele>
        <time>2019-07-21T11:48:33Z</time>
      </trkpt>
      <trkpt lat="42.8180680" lon="-5.6267630">
        <ele>957.6</ele>
        <time>2019-07-21T11:48:36Z</time>
      </trkpt>
      <trkpt lat="42.8177470" lon="-5.6266080">
        <ele>957.6</ele>
        <time>2019-07-21T11:48:39Z</time>
      </trkpt>
      <trkpt lat="42.8171960" lon="-5.6264930">
        <ele>957.6</ele>
        <time>2019-07-21T11:48:44Z</time>
      </trkpt>
      <trkpt lat="42.8166280" lon="-5.6265280">
        <ele>956.6</ele>
        <time>2019-07-21T11:48:49Z</time>
      </trkpt>
      <trkpt lat="42.8161530" lon="-5.6266640">
        <ele>956.0</ele>
        <time>2019-07-21T11:48:53Z</time>
      </trkpt>
      <trkpt lat="42.8155560" lon="-5.6268990">
        <ele>955.6</ele>
        <time>2019-07-21T11:48:58Z</time>
      </trkpt>
      <trkpt lat="42.8149520" lon="-5.6271270">
        <ele>955.0</ele>
        <time>2019-07-21T11:49:03Z</time>
      </trkpt>
      <trkpt lat="42.8148310" lon="-5.6271650">
        <ele>954.8</ele>
        <time>2019-07-21T11:49:04Z</time>
      </trkpt>
      <trkpt lat="42.8142300" lon="-5.6272970">
        <ele>954.6</ele>
        <time>2019-07-21T11:49:09Z</time>
      </trkpt>
      <trkpt lat="42.8137430" lon="-5.6273410">
        <ele>954.2</ele>
        <time>2019-07-21T11:49:13Z</time>
      </trkpt>
      <trkpt lat="42.8134970" lon="-5.6273450">
        <ele>953.6</ele>
        <time>2019-07-21T11:49:15Z</time>
      </trkpt>
      <trkpt lat="42.8130060" lon="-5.6273430">
        <ele>952.6</ele>
        <time>2019-07-21T11:49:19Z</time>
      </trkpt>
      <trkpt lat="42.8123780" lon="-5.6273700">
        <ele>951.8</ele>
        <time>2019-07-21T11:49:24Z</time>
      </trkpt>
      <trkpt lat="42.8118660" lon="-5.6274330">
        <ele>951.6</ele>
        <time>2019-07-21T11:49:28Z</time>
      </trkpt>
      <trkpt lat="42.8112370" lon="-5.6275880">
        <ele>951.8</ele>
        <time>2019-07-21T11:49:33Z</time>
      </trkpt>
      <trkpt lat="42.8106540" lon="-5.6277960">
        <ele>952.0</ele>
        <time>2019-07-21T11:49:38Z</time>
      </trkpt>
      <trkpt lat="42.8102270" lon="-5.6279940">
        <ele>952.0</ele>
        <time>2019-07-21T11:49:42Z</time>
      </trkpt>
      <trkpt lat="42.8097100" lon="-5.6282730">
        <ele>951.6</ele>
        <time>2019-07-21T11:49:47Z</time>
      </trkpt>
      <trkpt lat="42.8091340" lon="-5.6286920">
        <ele>951.8</ele>
        <time>2019-07-21T11:49:53Z</time>
      </trkpt>
      <trkpt lat="42.8089530" lon="-5.6288440">
        <ele>951.6</ele>
        <time>2019-07-21T11:49:55Z</time>
      </trkpt>
      <trkpt lat="42.8084260" lon="-5.6293420">
        <ele>951.0</ele>
        <time>2019-07-21T11:50:01Z</time>
      </trkpt>
      <trkpt lat="42.8080040" lon="-5.6298230">
        <ele>950.4</ele>
        <time>2019-07-21T11:50:06Z</time>
      </trkpt>
      <trkpt lat="42.8077390" lon="-5.6301330">
        <ele>950.2</ele>
        <time>2019-07-21T11:50:09Z</time>
      </trkpt>
      <trkpt lat="42.8072940" lon="-5.6306740">
        <ele>949.8</ele>
        <time>2019-07-21T11:50:14Z</time>
      </trkpt>
      <trkpt lat="42.8072040" lon="-5.6307800">
        <ele>949.2</ele>
        <time>2019-07-21T11:50:15Z</time>
      </trkpt>
      <trkpt lat="42.8071140" lon="-5.6308850">
        <ele>948.8</ele>
        <time>2019-07-21T11:50:16Z</time>
      </trkpt>
      <trkpt lat="42.8069360" lon="-5.6310790">
        <ele>948.2</ele>
        <time>2019-07-21T11:50:18Z</time>
      </trkpt>
      <trkpt lat="42.8066820" lon="-5.6313230">
        <ele>946.8</ele>
        <time>2019-07-21T11:50:21Z</time>
      </trkpt>
      <trkpt lat="42.8062640" lon="-5.6316550">
        <ele>945.6</ele>
        <time>2019-07-21T11:50:26Z</time>
      </trkpt>
      <trkpt lat="42.8061020" lon="-5.6317460">
        <ele>945.2</ele>
        <time>2019-07-21T11:50:28Z</time>
      </trkpt>
      <trkpt lat="42.8058480" lon="-5.6318210">
        <ele>944.6</ele>
        <time>2019-07-21T11:50:31Z</time>
      </trkpt>
      <trkpt lat="42.8055810" lon="-5.6318300">
        <ele>944.2</ele>
        <time>2019-07-21T11:50:34Z</time>
      </trkpt>
      <trkpt lat="42.8054050" lon="-5.6317400">
        <ele>943.8</ele>
        <time>2019-07-21T11:50:36Z</time>
      </trkpt>
      <trkpt lat="42.8052470" lon="-5.6315830">
        <ele>943.8</ele>
        <time>2019-07-21T11:50:38Z</time>
      </trkpt>
      <trkpt lat="42.8050880" lon="-5.6314050">
        <ele>943.8</ele>
        <time>2019-07-21T11:50:40Z</time>
      </trkpt>
      <trkpt lat="42.8049230" lon="-5.6312170">
        <ele>944.0</ele>
        <time>2019-07-21T11:50:42Z</time>
      </trkpt>
      <trkpt lat="42.8047580" lon="-5.6310200">
        <ele>944.2</ele>
        <time>2019-07-21T11:50:44Z</time>
      </trkpt>
      <trkpt lat="42.8045130" lon="-5.6307230">
        <ele>944.2</ele>
        <time>2019-07-21T11:50:47Z</time>
      </trkpt>
      <trkpt lat="42.8042730" lon="-5.6304560">
        <ele>944.2</ele>
        <time>2019-07-21T11:50:50Z</time>
      </trkpt>
      <trkpt lat="42.8039850" lon="-5.6301020">
        <ele>944.4</ele>
        <time>2019-07-21T11:50:54Z</time>
      </trkpt>
      <trkpt lat="42.8038080" lon="-5.6297300">
        <ele>944.6</ele>
        <time>2019-07-21T11:50:58Z</time>
      </trkpt>
      <trkpt lat="42.8037640" lon="-5.6296670">
        <ele>944.8</ele>
        <time>2019-07-21T11:50:59Z</time>
      </trkpt>
      <trkpt lat="42.8034740" lon="-5.6294700">
        <ele>945.6</ele>
        <time>2019-07-21T11:51:04Z</time>
      </trkpt>
      <trkpt lat="42.8033410" lon="-5.6293740">
        <ele>946.0</ele>
        <time>2019-07-21T11:51:06Z</time>
      </trkpt>
      <trkpt lat="42.8032470" lon="-5.6292290">
        <ele>946.4</ele>
        <time>2019-07-21T11:51:08Z</time>
      </trkpt>
      <trkpt lat="42.8031960" lon="-5.6290560">
        <ele>946.8</ele>
        <time>2019-07-21T11:51:10Z</time>
      </trkpt>
      <trkpt lat="42.8031370" lon="-5.6288360">
        <ele>947.4</ele>
        <time>2019-07-21T11:51:13Z</time>
      </trkpt>
      <trkpt lat="42.8031290" lon="-5.6286810">
        <ele>947.4</ele>
        <time>2019-07-21T11:51:17Z</time>
      </trkpt>
    </trkseg>
  </trk>
</gpx>
